| time (UTC) | temp F | wind direction | speed knots | gust knots | rain 1hr in | rain 24hr in | rain mn in | humidity % | barometer mb |
| 20260906234942 | 62 | 70 | 0.0 | 1.7 | 0.00 | 0.00 | 0.00 | 77 | 1017.0 |
| 20260906234933 | 62 | 163 | 0.9 | 2.6 | 0.00 | 0.00 | 0.00 | 77 | 1017.0 |
| 20260906234926 | 62 | 163 | 0.9 | 2.6 | 0.00 | 0.00 | 0.00 | 76 | 1017.0 |
| 20260906234910 | 62 | 102 | 0.0 | 2.6 | 0.00 | 0.00 | 0.00 | 76 | 1017.0 |
| 20260906234902 | 62 | 89 | 0.9 | 3.5 | 0.00 | 0.00 | 0.00 | 76 | 1017.0 |
| 20260906234853 | 62 | 89 | 0.9 | 3.5 | 0.00 | 0.00 | 0.00 | 76 | 1017.0 |
| 20260906234838 | 62 | 140 | 0.9 | 3.5 | 0.00 | 0.00 | 0.00 | 76 | 1017.0 |
| 20260906234832 | 62 | 160 | 0.9 | 3.5 | 0.00 | 0.00 | 0.00 | 76 | 1017.0 |
| 20260906234810 | 62 | 132 | 0.9 | 3.5 | 0.00 | 0.00 | 0.00 | 76 | 1017.0 |
| 20260906234749 | 62 | 89 | 2.6 | 3.5 | 0.00 | 0.00 | 0.00 | 76 | 1017.0 |
| 20260906234746 | 62 | 180 | 1.7 | 3.5 | 0.00 | 0.00 | 0.00 | 76 | 1017.0 |
| 20260906234726 | 62 | 148 | 2.6 | 3.5 | 0.00 | 0.00 | 0.00 | 76 | 1017.0 |
| 20260906234717 | 62 | 148 | 2.6 | 3.5 | 0.00 | 0.00 | 0.00 | 77 | 1017.0 |
| 20260906234701 | 62 | 124 | 2.6 | 2.6 | 0.00 | 0.00 | 0.00 | 77 | 1017.0 |
| 20260906234654 | 62 | 124 | 2.6 | 2.6 | 0.00 | 0.00 | 0.00 | 77 | 1017.0 |
| 20260906234648 | 62 | 162 | 1.7 | 1.7 | 0.00 | 0.00 | 0.00 | 77 | 1017.0 |
| 20260906234621 | 62 | 149 | 1.7 | 1.7 | 0.00 | 0.00 | 0.00 | 77 | 1017.0 |
| 20260906234617 | 62 | 131 | 0.9 | 1.7 | 0.00 | 0.00 | 0.00 | 77 | 1017.0 |
| 20260906234550 | 62 | 78 | 0.0 | 1.7 | 0.00 | 0.00 | 0.00 | 77 | 1017.0 |
| 20260906234534 | 62 | 120 | 0.0 | 1.7 | 0.00 | 0.00 | 0.00 | 77 | 1017.0 |
| 20260906234518 | 62 | 146 | 0.9 | 1.7 | 0.00 | 0.00 | 0.00 | 77 | 1017.0 |
| 20260906234512 | 62 | 158 | 0.9 | 1.7 | 0.00 | 0.00 | 0.00 | 77 | 1017.0 |
| 20260906234459 | 62 | 106 | 0.9 | 2.6 | 0.00 | 0.00 | 0.00 | 77 | 1017.0 |
| 20260906234429 | 62 | 125 | 0.9 | 2.6 | 0.00 | 0.00 | 0.00 | 77 | 1017.0 |
| 20260906234414 | 62 | 115 | 0.0 | 2.6 | 0.00 | 0.00 | 0.00 | 77 | 1017.0 |
| 20260906234405 | 62 | 133 | 0.0 | 2.6 | 0.00 | 0.00 | 0.00 | 77 | 1017.0 |
| 20260906234358 | 62 | 133 | 0.0 | 2.6 | 0.00 | 0.00 | 0.00 | 77 | 1017.0 |
| 20260906234342 | 62 | 145 | 1.7 | 2.6 | 0.00 | 0.00 | 0.00 | 77 | 1017.0 |
| 20260906234337 | 62 | 157 | 1.7 | 2.6 | 0.00 | 0.00 | 0.00 | 77 | 1017.0 |
| 20260906234312 | 62 | 157 | 1.7 | 2.6 | 0.00 | 0.00 | 0.00 | 77 | 1017.0 |
| 20260906234253 | 62 | 117 | 0.9 | 1.7 | 0.00 | 0.00 | 0.00 | 77 | 1017.0 |
| 20260906234229 | 62 | 48 | 0.0 | 1.7 | 0.00 | 0.00 | 0.00 | 77 | 1017.0 |
| 20260906234214 | 62 | 46 | 0.9 | 1.7 | 0.00 | 0.00 | 0.00 | 77 | 1017.0 |
| 20260906234205 | 62 | 334 | 1.7 | 2.6 | 0.00 | 0.00 | 0.00 | 77 | 1017.0 |
| 20260906234158 | 62 | 334 | 1.7 | 2.6 | 0.00 | 0.00 | 0.00 | 77 | 1017.0 |
| 20260906234141 | 62 | 116 | 0.9 | 2.6 | 0.00 | 0.00 | 0.00 | 77 | 1017.0 |
| 20260906234128 | 62 | 95 | 0.0 | 2.6 | 0.00 | 0.00 | 0.00 | 77 | 1017.0 |
| 20260906234110 | 62 | 92 | 0.0 | 2.6 | 0.00 | 0.00 | 0.00 | 77 | 1017.0 |
| 20260906234101 | 62 | 92 | 0.0 | 2.6 | 0.00 | 0.00 | 0.00 | 77 | 1017.0 |
| 20260906234053 | 62 | 92 | 0.0 | 2.6 | 0.00 | 0.00 | 0.00 | 78 | 1017.0 |
| 20260906234038 | 62 | 93 | 0.9 | 2.6 | 0.00 | 0.00 | 0.00 | 78 | 1017.0 |
| 20260906234022 | 62 | 135 | 1.7 | 2.6 | 0.00 | 0.00 | 0.00 | 78 | 1017.0 |
| 20260906234006 | 62 | 200 | 0.9 | 1.7 | 0.00 | 0.00 | 0.00 | 78 | 1017.0 |
| 20260906233958 | 62 | 128 | 0.9 | 1.7 | 0.00 | 0.00 | 0.00 | 78 | 1017.0 |
| 20260906233949 | 62 | 128 | 0.9 | 1.7 | 0.00 | 0.00 | 0.00 | 77 | 1017.0 |
| 20260906233934 | 62 | 91 | 0.0 | 1.7 | 0.00 | 0.00 | 0.00 | 77 | 1017.0 |
| 20260906233928 | 62 | 109 | 0.0 | 1.7 | 0.00 | 0.00 | 0.00 | 77 | 1017.0 |
| 20260906233902 | 62 | 126 | 0.9 | 1.7 | 0.00 | 0.00 | 0.00 | 77 | 1017.0 |
| 20260906233846 | 62 | 137 | 0.9 | 1.7 | 0.00 | 0.00 | 0.00 | 77 | 1017.0 |
| 20260906233830 | 62 | 143 | 0.0 | 0.9 | 0.00 | 0.00 | 0.00 | 77 | 1017.0 |
| 20260906233806 | 62 | 118 | 0.0 | 0.9 | 0.00 | 0.00 | 0.00 | 77 | 1017.0 |
| 20260906233750 | 62 | 146 | 0.0 | 0.9 | 0.00 | 0.00 | 0.00 | 77 | 1017.0 |
| 20260906233734 | 62 | 133 | 0.9 | 0.9 | 0.00 | 0.00 | 0.00 | 77 | 1017.0 |
| 20260906233721 | 62 | 109 | 0.9 | 0.9 | 0.00 | 0.00 | 0.00 | 77 | 1017.0 |
| 20260906233703 | 62 | 118 | 0.9 | 1.7 | 0.00 | 0.00 | 0.00 | 77 | 1017.0 |
| 20260906233645 | 62 | 122 | 0.0 | 1.7 | 0.00 | 0.00 | 0.00 | 77 | 1017.0 |
| 20260906233630 | 62 | 142 | 0.0 | 1.7 | 0.00 | 0.00 | 0.00 | 77 | 1017.0 |
| 20260906233614 | 62 | 89 | 0.0 | 1.7 | 0.00 | 0.00 | 0.00 | 77 | 1017.0 |
| 20260906233606 | 62 | 131 | 0.9 | 1.7 | 0.00 | 0.00 | 0.00 | 77 | 1017.0 |
| 20260906233558 | 62 | 131 | 0.9 | 1.7 | 0.00 | 0.00 | 0.00 | 77 | 1017.0 |
| 20260906233541 | 62 | 105 | 0.9 | 1.7 | 0.00 | 0.00 | 0.00 | 77 | 1017.0 |
| 20260906233526 | 62 | 97 | 0.0 | 3.5 | 0.00 | 0.00 | 0.00 | 77 | 1017.0 |
| 20260906233512 | 62 | 110 | 0.9 | 3.5 | 0.00 | 0.00 | 0.00 | 77 | 1017.0 |
| 20260906233453 | 62 | 116 | 0.0 | 3.5 | 0.00 | 0.00 | 0.00 | 77 | 1017.0 |
| 20260906233439 | 62 | 109 | 0.9 | 3.5 | 0.00 | 0.00 | 0.00 | 77 | 1017.0 |
| 20260906233422 | 62 | 108 | 0.9 | 3.5 | 0.00 | 0.00 | 0.00 | 76 | 1017.0 |
| 20260906233407 | 62 | 175 | 2.6 | 3.5 | 0.00 | 0.00 | 0.00 | 76 | 1017.0 |
| 20260906233342 | 62 | 136 | 1.7 | 2.6 | 0.00 | 0.00 | 0.00 | 76 | 1017.0 |
| 20260906233326 | 62 | 135 | 1.7 | 2.6 | 0.00 | 0.00 | 0.00 | 77 | 1017.0 |
| 20260906233310 | 62 | 125 | 0.9 | 0.9 | 0.00 | 0.00 | 0.00 | 77 | 1017.0 |
| 20260906233305 | 62 | 116 | 0.0 | 1.7 | 0.00 | 0.00 | 0.00 | 77 | 1017.0 |
| 20260906233246 | 62 | 140 | 0.9 | 1.7 | 0.00 | 0.00 | 0.00 | 77 | 1017.0 |
| 20260906233223 | 62 | 141 | 0.9 | 1.7 | 0.00 | 0.00 | 0.00 | 77 | 1017.0 |
| 20260906233206 | 62 | 127 | 0.9 | 1.7 | 0.00 | 0.00 | 0.00 | 77 | 1017.0 |
| 20260906233151 | 62 | 130 | 0.9 | 1.7 | 0.00 | 0.00 | 0.00 | 77 | 1017.0 |
| 20260906233147 | 62 | 156 | 1.7 | 1.7 | 0.00 | 0.00 | 0.00 | 77 | 1017.0 |
| 20260906233119 | 62 | 150 | 0.9 | 1.7 | 0.00 | 0.00 | 0.00 | 77 | 1017.0 |
| 20260906233113 | 62 | 117 | 0.9 | 1.7 | 0.00 | 0.00 | 0.00 | 77 | 1017.0 |
| 20260906233057 | 62 | 177 | 0.9 | 1.7 | 0.00 | 0.00 | 0.00 | 77 | 1017.0 |
| 20260906233030 | 62 | 106 | 0.0 | 1.7 | 0.00 | 0.00 | 0.00 | 77 | 1017.0 |
| 20260906233022 | 62 | 108 | 0.9 | 1.7 | 0.00 | 0.00 | 0.00 | 77 | 1017.0 |
| 20260906233015 | 62 | 108 | 0.9 | 1.7 | 0.00 | 0.00 | 0.00 | 76 | 1017.0 |
| 20260906233007 | 62 | 141 | 0.9 | 1.7 | 0.00 | 0.00 | 0.00 | 76 | 1017.0 |
| 20260906232959 | 62 | 141 | 0.9 | 1.7 | 0.00 | 0.00 | 0.00 | 76 | 1017.0 |
| 20260906232953 | 62 | 144 | 0.9 | 1.7 | 0.00 | 0.00 | 0.00 | 76 | 1017.0 |
| 20260906232918 | 62 | 133 | 0.9 | 1.7 | 0.00 | 0.00 | 0.00 | 76 | 1017.0 |
| 20260906232913 | 62 | 109 | 0.0 | 0.9 | 0.00 | 0.00 | 0.00 | 76 | 1017.0 |
| 20260906232846 | 62 | 120 | 0.0 | 0.9 | 0.00 | 0.00 | 0.00 | 76 | 1017.0 |
| 20260906232839 | 62 | 120 | 0.0 | 0.9 | 0.00 | 0.00 | 0.00 | 76 | 1017.0 |
| 20260906232814 | 62 | 120 | 0.0 | 2.6 | 0.00 | 0.00 | 0.00 | 76 | 1017.0 |
| 20260906232801 | 62 | 137 | 0.9 | 2.6 | 0.00 | 0.00 | 0.00 | 76 | 1017.0 |
| 20260906232742 | 62 | 140 | 0.0 | 2.6 | 0.00 | 0.00 | 0.00 | 76 | 1017.0 |
| 20260906232727 | 62 | 145 | 0.9 | 5.2 | 0.00 | 0.00 | 0.00 | 76 | 1017.0 |
| 20260906232710 | 62 | 137 | 0.9 | 5.2 | 0.00 | 0.00 | 0.00 | 76 | 1017.0 |
| 20260906232702 | 62 | 103 | 1.7 | 5.2 | 0.00 | 0.00 | 0.00 | 76 | 1017.0 |
| 20260906232654 | 62 | 103 | 1.7 | 5.2 | 0.00 | 0.00 | 0.00 | 76 | 1017.0 |
| 20260906232639 | 62 | 113 | 0.9 | 5.2 | 0.00 | 0.00 | 0.00 | 76 | 1017.0 |
| 20260906232623 | 62 | 139 | 1.7 | 5.2 | 0.00 | 0.00 | 0.00 | 76 | 1017.0 |
| 20260906232614 | 62 | 138 | 2.6 | 5.2 | 0.00 | 0.00 | 0.00 | 76 | 1017.0 |
| 20260906232606 | 62 | 138 | 2.6 | 5.2 | 0.00 | 0.00 | 0.00 | 76 | 1018.0 |
| 20260906232601 | 62 | 145 | 1.7 | 2.6 | 0.00 | 0.00 | 0.00 | 76 | 1018.0 |
| 20260906232535 | 62 | 107 | 0.9 | 2.6 | 0.00 | 0.00 | 0.00 | 76 | 1018.0 |
| 20260906232525 | 62 | 164 | 1.7 | 2.6 | 0.00 | 0.00 | 0.00 | 76 | 1018.0 |
| 20260906232510 | 62 | 120 | 0.9 | 1.7 | 0.00 | 0.00 | 0.00 | 76 | 1018.0 |
| 20260906232502 | 62 | 120 | 0.9 | 1.7 | 0.00 | 0.00 | 0.00 | 76 | 1017.0 |
| 20260906232454 | 62 | 120 | 0.9 | 1.7 | 0.00 | 0.00 | 0.00 | 76 | 1017.0 |
| 20260906232441 | 62 | 155 | 0.0 | 1.7 | 0.00 | 0.00 | 0.00 | 76 | 1017.0 |
| 20260906232423 | 62 | 158 | 0.0 | 3.5 | 0.00 | 0.00 | 0.00 | 76 | 1017.0 |
| 20260906232415 | 62 | 173 | 0.9 | 3.5 | 0.00 | 0.00 | 0.00 | 76 | 1017.0 |
| 20260906232406 | 62 | 173 | 0.9 | 3.5 | 0.00 | 0.00 | 0.00 | 76 | 1018.0 |
| 20260906232401 | 62 | 121 | 0.0 | 3.5 | 0.00 | 0.00 | 0.00 | 76 | 1018.0 |
| 20260906232337 | 62 | 145 | 0.0 | 3.5 | 0.00 | 0.00 | 0.00 | 76 | 1018.0 |
| 20260906232318 | 62 | 128 | 0.9 | 3.5 | 0.00 | 0.00 | 0.00 | 76 | 1018.0 |
| 20260906232306 | 62 | 118 | 1.7 | 3.5 | 0.00 | 0.00 | 0.00 | 76 | 1017.0 |
| 20260906232246 | 62 | 115 | 1.7 | 3.5 | 0.00 | 0.00 | 0.00 | 76 | 1017.0 |
| 20260906232230 | 62 | 151 | 1.7 | 3.5 | 0.00 | 0.00 | 0.00 | 76 | 1017.0 |
| 20260906232215 | 62 | 126 | 1.7 | 3.5 | 0.00 | 0.00 | 0.00 | 76 | 1017.0 |
| 20260906232200 | 62 | 149 | 1.7 | 3.5 | 0.00 | 0.00 | 0.00 | 76 | 1017.0 |
| 20260906232145 | 62 | 113 | 2.6 | 3.5 | 0.00 | 0.00 | 0.00 | 76 | 1017.0 |
| 20260906232126 | 62 | 174 | 1.7 | 1.7 | 0.00 | 0.00 | 0.00 | 76 | 1017.0 |
| 20260906232114 | 62 | 161 | 1.7 | 1.7 | 0.00 | 0.00 | 0.00 | 76 | 1017.0 |
| 20260906232054 | 62 | 165 | 0.9 | 1.7 | 0.00 | 0.00 | 0.00 | 76 | 1017.0 |
| 20260906232038 | 62 | 138 | 0.0 | 1.7 | 0.00 | 0.00 | 0.00 | 76 | 1017.0 |
| 20260906232030 | 62 | 138 | 0.0 | 2.6 | 0.00 | 0.00 | 0.00 | 76 | 1017.0 |
| 20260906232015 | 62 | 100 | 0.0 | 2.6 | 0.00 | 0.00 | 0.00 | 76 | 1017.0 |
| 20260906232006 | 62 | 99 | 0.0 | 3.5 | 0.00 | 0.00 | 0.00 | 76 | 1017.0 |
| 20260906231958 | 62 | 99 | 0.0 | 3.5 | 0.00 | 0.00 | 0.00 | 76 | 1017.0 |
| 20260906231952 | 62 | 91 | 0.0 | 3.5 | 0.00 | 0.00 | 0.00 | 76 | 1017.0 |
| 20260906231926 | 62 | 91 | 0.9 | 3.5 | 0.00 | 0.00 | 0.00 | 76 | 1017.0 |
| 20260906231910 | 62 | 112 | 2.6 | 3.5 | 0.00 | 0.00 | 0.00 | 76 | 1017.0 |
| 20260906231855 | 62 | 145 | 1.7 | 3.5 | 0.00 | 0.00 | 0.00 | 76 | 1017.0 |
| 20260906231839 | 62 | 133 | 0.9 | 3.5 | 0.00 | 0.00 | 0.00 | 76 | 1017.0 |
| 20260906231822 | 62 | 134 | 1.7 | 3.5 | 0.00 | 0.00 | 0.00 | 76 | 1017.0 |
| 20260906231814 | 62 | 121 | 1.7 | 3.5 | 0.00 | 0.00 | 0.00 | 76 | 1017.0 |
| 20260906231806 | 62 | 121 | 1.7 | 3.5 | 0.00 | 0.00 | 0.00 | 76 | 1018.0 |
| 20260906231750 | 62 | 134 | 1.7 | 3.5 | 0.00 | 0.00 | 0.00 | 76 | 1018.0 |
| 20260906231744 | 62 | 169 | 1.7 | 3.5 | 0.00 | 0.00 | 0.00 | 76 | 1018.0 |
| 20260906231719 | 62 | 129 | 0.9 | 3.5 | 0.00 | 0.00 | 0.00 | 76 | 1018.0 |
| 20260906231710 | 62 | 122 | 1.7 | 3.5 | 0.00 | 0.00 | 0.00 | 76 | 1018.0 |
| 20260906231702 | 62 | 122 | 1.7 | 3.5 | 0.00 | 0.00 | 0.00 | 76 | 1017.0 |
| 20260906231646 | 62 | 151 | 1.7 | 3.5 | 0.00 | 0.00 | 0.00 | 76 | 1017.0 |
| 20260906231630 | 62 | 90 | 0.9 | 3.5 | 0.00 | 0.00 | 0.00 | 76 | 1017.0 |
| 20260906231606 | 62 | 137 | 0.9 | 3.5 | 0.00 | 0.00 | 0.00 | 76 | 1017.0 |
| 20260906231551 | 62 | 122 | 1.7 | 3.5 | 0.00 | 0.00 | 0.00 | 76 | 1017.0 |
| 20260906231534 | 62 | 141 | 1.7 | 3.5 | 0.00 | 0.00 | 0.00 | 76 | 1017.0 |
| 20260906231520 | 62 | 109 | 0.9 | 1.7 | 0.00 | 0.00 | 0.00 | 76 | 1017.0 |
| 20260906231502 | 62 | 78 | 0.0 | 1.7 | 0.00 | 0.00 | 0.00 | 76 | 1017.0 |
| 20260906231447 | 62 | 106 | 0.9 | 1.7 | 0.00 | 0.00 | 0.00 | 76 | 1017.0 |
| 20260906231438 | 62 | 85 | 0.9 | 1.7 | 0.00 | 0.00 | 0.00 | 76 | 1017.0 |
| 20260906231433 | 62 | 85 | 0.9 | 5.2 | 0.00 | 0.00 | 0.00 | 76 | 1017.0 |
| 20260906231414 | 62 | 157 | 0.0 | 5.2 | 0.00 | 0.00 | 0.00 | 76 | 1017.0 |
| 20260906231406 | 62 | 106 | 0.0 | 5.2 | 0.00 | 0.00 | 0.00 | 76 | 1017.0 |
| 20260906231359 | 62 | 106 | 0.0 | 5.2 | 0.00 | 0.00 | 0.00 | 76 | 1017.0 |
| 20260906231354 | 62 | 14 | 0.0 | 5.2 | 0.00 | 0.00 | 0.00 | 76 | 1017.0 |
| 20260906231327 | 62 | 131 | 0.9 | 5.2 | 0.00 | 0.00 | 0.00 | 76 | 1017.0 |
| 20260906231311 | 62 | 104 | 1.7 | 5.2 | 0.00 | 0.00 | 0.00 | 76 | 1017.0 |
| 20260906231302 | 62 | 136 | 2.6 | 5.2 | 0.00 | 0.00 | 0.00 | 76 | 1017.0 |
| 20260906231255 | 62 | 136 | 2.6 | 5.2 | 0.00 | 0.00 | 0.00 | 76 | 1017.0 |
| 20260906231239 | 62 | 141 | 2.6 | 3.5 | 0.00 | 0.00 | 0.00 | 76 | 1017.0 |
| 20260906231222 | 62 | 77 | 1.7 | 2.6 | 0.00 | 0.00 | 0.00 | 76 | 1017.0 |
| 20260906231217 | 62 | 174 | 0.9 | 1.7 | 0.00 | 0.00 | 0.00 | 76 | 1017.0 |
| 20260906231201 | 62 | 93 | 1.7 | 1.7 | 0.00 | 0.00 | 0.00 | 76 | 1018.0 |
| 20260906231127 | 62 | 154 | 0.9 | 2.6 | 0.00 | 0.00 | 0.00 | 76 | 1018.0 |
| 20260906231120 | 62 | 140 | 0.0 | 2.6 | 0.00 | 0.00 | 0.00 | 76 | 1018.0 |
| 20260906231103 | 62 | 114 | 0.9 | 2.6 | 0.00 | 0.00 | 0.00 | 76 | 1018.0 |
| 20260906231054 | 62 | 114 | 0.9 | 2.6 | 0.00 | 0.00 | 0.00 | 76 | 1018.0 |
| 20260906231049 | 62 | 153 | 1.7 | 2.6 | 0.00 | 0.00 | 0.00 | 76 | 1018.0 |
| 20260906231022 | 62 | 150 | 1.7 | 2.6 | 0.00 | 0.00 | 0.00 | 76 | 1018.0 |
| 20260906231019 | 62 | 156 | 2.6 | 2.6 | 0.00 | 0.00 | 0.00 | 76 | 1018.0 |
| 20260906230952 | 62 | 82 | 1.7 | 2.6 | 0.00 | 0.00 | 0.00 | 76 | 1017.0 |
| 20260906230942 | 62 | 111 | 0.9 | 2.6 | 0.00 | 0.00 | 0.00 | 76 | 1017.0 |
| 20260906230939 | 62 | 111 | 0.9 | 8.7 | 0.00 | 0.00 | 0.00 | 76 | 1017.0 |
| 20260906230910 | 62 | 109 | 2.6 | 8.7 | 0.00 | 0.00 | 0.00 | 76 | 1017.0 |
| 20260906230903 | 62 | 109 | 2.6 | 8.7 | 0.00 | 0.00 | 0.00 | 76 | 1018.0 |
| 20260906230847 | 62 | 75 | 1.7 | 8.7 | 0.00 | 0.00 | 0.00 | 76 | 1018.0 |
| 20260906230841 | 62 | 148 | 1.7 | 8.7 | 0.00 | 0.00 | 0.00 | 76 | 1018.0 |
| 20260906230814 | 62 | 128 | 4.3 | 8.7 | 0.00 | 0.00 | 0.00 | 76 | 1018.0 |
| 20260906230807 | 62 | 173 | 2.6 | 6.1 | 0.00 | 0.00 | 0.00 | 76 | 1018.0 |
| 20260906230759 | 62 | 173 | 2.6 | 6.1 | 0.00 | 0.00 | 0.00 | 76 | 1018.0 |
| 20260906230742 | 62 | 118 | 0.9 | 5.2 | 0.00 | 0.00 | 0.00 | 76 | 1018.0 |
| 20260906230718 | 62 | 98 | 1.7 | 5.2 | 0.00 | 0.00 | 0.00 | 76 | 1018.0 |
| 20260906230702 | 62 | 130 | 1.7 | 5.2 | 0.00 | 0.00 | 0.00 | 76 | 1018.0 |
| 20260906230654 | 62 | 122 | 3.5 | 5.2 | 0.00 | 0.00 | 0.00 | 76 | 1018.0 |
| 20260906230649 | 62 | 122 | 3.5 | 5.2 | 0.00 | 0.00 | 0.00 | 77 | 1018.0 |
| 20260906230630 | 62 | 142 | 1.7 | 3.5 | 0.00 | 0.00 | 0.00 | 77 | 1018.0 |
| 20260906230614 | 62 | 156 | 1.7 | 2.6 | 0.00 | 0.00 | 0.00 | 77 | 1018.0 |
| 20260906230600 | 62 | 130 | 2.6 | 2.6 | 0.00 | 0.00 | 0.00 | 77 | 1018.0 |
| 20260906230542 | 62 | 131 | 0.9 | 2.6 | 0.00 | 0.00 | 0.00 | 77 | 1018.0 |
| 20260906230537 | 62 | 102 | 1.7 | 3.5 | 0.00 | 0.00 | 0.00 | 77 | 1018.0 |
| 20260906230510 | 62 | 101 | 1.7 | 3.5 | 0.00 | 0.00 | 0.00 | 77 | 1018.0 |
| 20260906230503 | 62 | 150 | 0.0 | 7.0 | 0.00 | 0.00 | 0.00 | 77 | 1018.0 |
| 20260906230454 | 62 | 150 | 0.0 | 7.0 | 0.00 | 0.00 | 0.00 | 77 | 1018.0 |
| 20260906230446 | 62 | 115 | 0.0 | 7.0 | 0.00 | 0.00 | 0.00 | 77 | 1018.0 |
| 20260906230438 | 62 | 115 | 0.0 | 7.0 | 0.00 | 0.00 | 0.00 | 76 | 1018.0 |
| 20260906230422 | 62 | 115 | 0.0 | 7.0 | 0.00 | 0.00 | 0.00 | 76 | 1018.0 |
| 20260906230406 | 62 | 96 | 0.9 | 7.0 | 0.00 | 0.00 | 0.00 | 76 | 1018.0 |
| 20260906230402 | 62 | 133 | 1.7 | 7.0 | 0.00 | 0.00 | 0.00 | 76 | 1018.0 |
| 20260906230343 | 62 | 143 | 3.5 | 7.0 | 0.00 | 0.00 | 0.00 | 76 | 1018.0 |
| 20260906230334 | 62 | 143 | 3.5 | 7.0 | 0.00 | 0.00 | 0.00 | 77 | 1018.0 |
| 20260906230329 | 62 | 161 | 2.6 | 3.5 | 0.00 | 0.00 | 0.00 | 77 | 1018.0 |
| 20260906230302 | 62 | 145 | 1.7 | 2.6 | 0.00 | 0.00 | 0.00 | 77 | 1018.0 |
| 20260906230254 | 62 | 145 | 1.7 | 2.6 | 0.00 | 0.00 | 0.00 | 77 | 1018.0 |
| 20260906230239 | 62 | 65 | 1.7 | 2.6 | 0.00 | 0.00 | 0.00 | 77 | 1018.0 |
| 20260906230222 | 62 | 64 | 1.7 | 2.6 | 0.00 | 0.00 | 0.00 | 78 | 1018.0 |
| 20260906230215 | 62 | 100 | 1.7 | 2.6 | 0.00 | 0.00 | 0.00 | 78 | 1018.0 |
| 20260906230210 | 62 | 100 | 1.7 | 2.6 | 0.00 | 0.00 | 0.00 | 78 | 1017.0 |
| 20260906230151 | 62 | 138 | 2.6 | 2.6 | 0.00 | 0.00 | 0.00 | 78 | 1017.0 |
| 20260906230138 | 62 | 142 | 0.0 | 0.9 | 0.00 | 0.00 | 0.00 | 78 | 1017.0 |
| 20260906230118 | 62 | 124 | 0.0 | 0.0 | 0.00 | 0.00 | 0.00 | 78 | 1017.0 |
| 20260906230110 | 62 | 109 | 0.0 | 0.0 | 0.00 | 0.00 | 0.00 | 78 | 1017.0 |
| 20260906230051 | 62 | 82 | 0.0 | 0.0 | 0.00 | 0.00 | 0.00 | 78 | 1018.0 |
| 20260906230014 | 62 | 58 | 0.0 | 0.0 | 0.00 | 0.00 | 0.00 | 78 | 1018.0 |
| 20260906230010 | 62 | 72 | 0.0 | 0.9 | 0.00 | 0.00 | 0.00 | 78 | 1017.0 |
| 20260906225947 | 62 | 72 | 0.0 | 0.9 | 0.00 | 0.00 | 0.00 | 78 | 1017.0 |
| 20260906225921 | 62 | 76 | 0.0 | 1.7 | 0.00 | 0.00 | 0.00 | 78 | 1017.0 |
| 20260906225902 | 62 | 88 | 0.0 | 3.5 | 0.00 | 0.00 | 0.00 | 78 | 1017.0 |
| 20260906225854 | 62 | 88 | 0.0 | 3.5 | 0.00 | 0.00 | 0.00 | 78 | 1017.0 |
| 20260906225830 | 62 | 85 | 0.0 | 3.5 | 0.00 | 0.00 | 0.00 | 78 | 1017.0 |
| 20260906225814 | 62 | 108 | 0.9 | 3.5 | 0.00 | 0.00 | 0.00 | 78 | 1017.0 |
| 20260906225807 | 62 | 114 | 0.0 | 3.5 | 0.00 | 0.00 | 0.00 | 78 | 1018.0 |
| 20260906225758 | 62 | 114 | 0.0 | 3.5 | 0.00 | 0.00 | 0.00 | 78 | 1018.0 |
| 20260906225742 | 62 | 165 | 1.7 | 3.5 | 0.00 | 0.00 | 0.00 | 78 | 1018.0 |
| 20260906225736 | 62 | 120 | 1.7 | 5.2 | 0.00 | 0.00 | 0.00 | 78 | 1018.0 |
| 20260906225719 | 62 | 107 | 1.7 | 5.2 | 0.00 | 0.00 | 0.00 | 78 | 1018.0 |
| 20260906225713 | 62 | 107 | 1.7 | 5.2 | 0.00 | 0.00 | 0.00 | 77 | 1018.0 |
| 20260906225657 | 62 | 107 | 1.7 | 5.2 | 0.00 | 0.00 | 0.00 | 77 | 1018.0 |
| 20260906225638 | 62 | 82 | 2.6 | 5.2 | 0.00 | 0.00 | 0.00 | 77 | 1018.0 |
| 20260906225622 | 62 | 100 | 2.6 | 5.2 | 0.00 | 0.00 | 0.00 | 77 | 1018.0 |
| 20260906225614 | 62 | 163 | 2.6 | 5.2 | 0.00 | 0.00 | 0.00 | 77 | 1018.0 |
| 20260906225608 | 62 | 163 | 2.6 | 5.2 | 0.00 | 0.00 | 0.00 | 78 | 1018.0 |
| 20260906225550 | 62 | 82 | 2.6 | 3.5 | 0.00 | 0.00 | 0.00 | 78 | 1018.0 |
| 20260906225542 | 62 | 104 | 0.9 | 0.9 | 0.00 | 0.00 | 0.00 | 78 | 1018.0 |
| 20260906225534 | 62 | 104 | 0.9 | 2.6 | 0.00 | 0.00 | 0.00 | 78 | 1018.0 |
| 20260906225518 | 62 | 139 | 0.9 | 2.6 | 0.00 | 0.00 | 0.00 | 78 | 1018.0 |
| 20260906225503 | 62 | 138 | 0.9 | 2.6 | 0.00 | 0.00 | 0.00 | 78 | 1018.0 |
| 20260906225446 | 62 | 141 | 0.9 | 2.6 | 0.00 | 0.00 | 0.00 | 78 | 1018.0 |
| 20260906225430 | 62 | 134 | 0.9 | 2.6 | 0.00 | 0.00 | 0.00 | 78 | 1018.0 |
| 20260906225414 | 62 | 161 | 1.7 | 2.6 | 0.00 | 0.00 | 0.00 | 78 | 1018.0 |
| 20260906225406 | 62 | 161 | 1.7 | 7.0 | 0.00 | 0.00 | 0.00 | 78 | 1018.0 |
| 20260906225353 | 62 | 139 | 0.0 | 7.0 | 0.00 | 0.00 | 0.00 | 78 | 1018.0 |
| 20260906225336 | 62 | 117 | 0.0 | 7.0 | 0.00 | 0.00 | 0.00 | 78 | 1018.0 |
| 20260906225318 | 62 | 70 | 0.0 | 7.0 | 0.00 | 0.00 | 0.00 | 78 | 1018.0 |
| 20260906225310 | 62 | 119 | 1.7 | 7.0 | 0.00 | 0.00 | 0.00 | 78 | 1018.0 |
| 20260906225307 | 62 | 119 | 1.7 | 7.0 | 0.00 | 0.00 | 0.00 | 78 | 1017.0 |
| 20260906225246 | 62 | 144 | 1.7 | 7.0 | 0.00 | 0.00 | 0.00 | 79 | 1017.0 |
| 20260906225230 | 62 | 127 | 4.3 | 7.0 | 0.00 | 0.00 | 0.00 | 79 | 1017.0 |
| 20260906225214 | 62 | 100 | 1.7 | 3.5 | 0.00 | 0.00 | 0.00 | 79 | 1017.0 |
| 20260906225209 | 62 | 263 | 1.7 | 6.1 | 0.00 | 0.00 | 0.00 | 79 | 1018.0 |
| 20260906225153 | 62 | 107 | 2.6 | 6.1 | 0.00 | 0.00 | 0.00 | 79 | 1018.0 |
| 20260906225126 | 62 | 106 | 1.7 | 6.1 | 0.00 | 0.00 | 0.00 | 79 | 1018.0 |
| 20260906225110 | 62 | 145 | 1.7 | 6.1 | 0.00 | 0.00 | 0.00 | 79 | 1018.0 |
| 20260906225102 | 62 | 109 | 2.6 | 6.1 | 0.00 | 0.00 | 0.00 | 79 | 1018.0 |
| 20260906225055 | 62 | 109 | 2.6 | 6.1 | 0.00 | 0.00 | 0.00 | 79 | 1018.0 |
| 20260906225049 | 62 | 100 | 1.7 | 6.1 | 0.00 | 0.00 | 0.00 | 79 | 1018.0 |
| 20260906225032 | 62 | 122 | 2.6 | 6.1 | 0.00 | 0.00 | 0.00 | 79 | 1018.0 |
| 20260906225014 | 62 | 138 | 1.7 | 3.5 | 0.00 | 0.00 | 0.00 | 79 | 1018.0 |
| 20260906225006 | 62 | 138 | 1.7 | 3.5 | 0.00 | 0.00 | 0.00 | 79 | 1017.0 |
| 20260906225002 | 62 | 93 | 1.7 | 3.5 | 0.00 | 0.00 | 0.00 | 79 | 1017.0 |
| 20260906224942 | 62 | 93 | 1.7 | 3.5 | 0.00 | 0.00 | 0.00 | 80 | 1017.0 |
| 20260906224930 | 62 | 107 | 2.6 | 3.5 | 0.00 | 0.00 | 0.00 | 80 | 1017.0 |
| 20260906224903 | 62 | 104 | 2.6 | 3.5 | 0.00 | 0.00 | 0.00 | 80 | 1018.0 |
| 20260906224855 | 62 | 104 | 2.6 | 3.5 | 0.00 | 0.00 | 0.00 | 80 | 1018.0 |
| 20260906224842 | 62 | 127 | 0.9 | 1.7 | 0.00 | 0.00 | 0.00 | 80 | 1018.0 |
| 20260906224822 | 62 | 114 | 0.9 | 1.7 | 0.00 | 0.00 | 0.00 | 80 | 1018.0 |
| 20260906224814 | 62 | 86 | 0.9 | 1.7 | 0.00 | 0.00 | 0.00 | 80 | 1018.0 |
| 20260906224806 | 62 | 86 | 0.9 | 1.7 | 0.00 | 0.00 | 0.00 | 80 | 1017.0 |
| 20260906224804 | 62 | 123 | 0.9 | 1.7 | 0.00 | 0.00 | 0.00 | 80 | 1017.0 |
| 20260906224742 | 62 | 136 | 0.9 | 1.7 | 0.00 | 0.00 | 0.00 | 80 | 1017.0 |
| 20260906224734 | 62 | 136 | 0.9 | 3.5 | 0.00 | 0.00 | 0.00 | 81 | 1017.0 |
| 20260906224718 | 62 | 110 | 0.9 | 3.5 | 0.00 | 0.00 | 0.00 | 81 | 1017.0 |
| 20260906224702 | 62 | 56 | 0.9 | 3.5 | 0.00 | 0.00 | 0.00 | 81 | 1017.0 |
| 20260906224649 | 62 | 130 | 0.9 | 3.5 | 0.00 | 0.00 | 0.00 | 81 | 1017.0 |
| 20260906224635 | 62 | 79 | 1.7 | 3.5 | 0.00 | 0.00 | 0.00 | 81 | 1017.0 |
| 20260906224606 | 62 | 49 | 3.5 | 3.5 | 0.00 | 0.00 | 0.00 | 81 | 1017.0 |
| 20260906224558 | 62 | 49 | 3.5 | 3.5 | 0.00 | 0.00 | 0.00 | 81 | 1017.0 |
| 20260906224542 | 62 | 83 | 2.6 | 3.5 | 0.00 | 0.00 | 0.00 | 81 | 1017.0 |
| 20260906224534 | 62 | 102 | 3.5 | 3.5 | 0.00 | 0.00 | 0.00 | 81 | 1017.0 |
| 20260906224518 | 62 | 102 | 3.5 | 3.5 | 0.00 | 0.00 | 0.00 | 82 | 1017.0 |
| 20260906224510 | 62 | 89 | 0.0 | 3.5 | 0.00 | 0.00 | 0.00 | 82 | 1017.0 |
| 20260906224508 | 62 | 89 | 0.0 | 3.5 | 0.00 | 0.00 | 0.00 | 82 | 1018.0 |
| 20260906224446 | 62 | 70 | 0.0 | 3.5 | 0.00 | 0.00 | 0.00 | 82 | 1018.0 |
| 20260906224444 | 62 | 188 | 0.0 | 3.5 | 0.00 | 0.00 | 0.00 | 82 | 1018.0 |
| 20260906224414 | 62 | 129 | 1.7 | 3.5 | 0.00 | 0.00 | 0.00 | 82 | 1018.0 |
| 20260906224402 | 62 | 97 | 2.6 | 3.5 | 0.00 | 0.00 | 0.00 | 82 | 1018.0 |
| 20260906224353 | 62 | 95 | 1.7 | 2.6 | 0.00 | 0.00 | 0.00 | 82 | 1018.0 |
| 20260906224326 | 62 | 88 | 0.9 | 2.6 | 0.00 | 0.00 | 0.00 | 82 | 1018.0 |
| 20260906224310 | 61 | 95 | 0.9 | 2.6 | 0.00 | 0.00 | 0.00 | 82 | 1018.0 |
| 20260906224304 | 61 | 212 | 1.7 | 2.6 | 0.00 | 0.00 | 0.00 | 82 | 1017.0 |
| 20260906224240 | 61 | 211 | 0.0 | 2.6 | 0.00 | 0.00 | 0.00 | 82 | 1017.0 |
| 20260906224216 | 61 | 80 | 1.7 | 2.6 | 0.00 | 0.00 | 0.00 | 82 | 1017.0 |
| 20260906224153 | 61 | 92 | 1.7 | 2.6 | 0.00 | 0.00 | 0.00 | 82 | 1017.0 |
| 20260906224134 | 61 | 110 | 0.0 | 2.6 | 0.00 | 0.00 | 0.00 | 82 | 1017.0 |
| 20260906224121 | 61 | 110 | 0.9 | 2.6 | 0.00 | 0.00 | 0.00 | 82 | 1017.0 |
| 20260906224102 | 61 | 124 | 0.9 | 2.6 | 0.00 | 0.00 | 0.00 | 82 | 1017.0 |
| 20260906224054 | 61 | 124 | 0.9 | 2.6 | 0.00 | 0.00 | 0.00 | 82 | 1017.0 |
| 20260906224038 | 61 | 69 | 1.7 | 2.6 | 0.00 | 0.00 | 0.00 | 82 | 1017.0 |
| 20260906224022 | 61 | 78 | 2.6 | 2.6 | 0.00 | 0.00 | 0.00 | 82 | 1017.0 |
| 20260906224014 | 61 | 77 | 1.7 | 2.6 | 0.00 | 0.00 | 0.00 | 82 | 1017.0 |
| 20260906224006 | 61 | 77 | 1.7 | 2.6 | 0.00 | 0.00 | 0.00 | 83 | 1017.0 |
| 20260906223950 | 61 | 87 | 0.9 | 1.7 | 0.00 | 0.00 | 0.00 | 83 | 1017.0 |
| 20260906223945 | 61 | 134 | 0.0 | 1.7 | 0.00 | 0.00 | 0.00 | 83 | 1017.0 |
| 20260906223918 | 61 | 111 | 0.9 | 1.7 | 0.00 | 0.00 | 0.00 | 83 | 1017.0 |
| 20260906223910 | 61 | 78 | 0.9 | 1.7 | 0.00 | 0.00 | 0.00 | 83 | 1017.0 |
| 20260906223902 | 61 | 78 | 0.9 | 1.7 | 0.00 | 0.00 | 0.00 | 83 | 1018.0 |
| 20260906223846 | 61 | 73 | 0.9 | 1.7 | 0.00 | 0.00 | 0.00 | 83 | 1018.0 |
| 20260906223830 | 61 | 145 | 0.9 | 1.7 | 0.00 | 0.00 | 0.00 | 83 | 1018.0 |
| 20260906223814 | 61 | 104 | 0.9 | 1.7 | 0.00 | 0.00 | 0.00 | 83 | 1018.0 |
| 20260906223806 | 61 | 121 | 0.9 | 1.7 | 0.00 | 0.00 | 0.00 | 83 | 1018.0 |
| 20260906223800 | 61 | 121 | 0.9 | 1.7 | 0.00 | 0.00 | 0.00 | 82 | 1018.0 |
| 20260906223742 | 61 | 122 | 0.9 | 1.7 | 0.00 | 0.00 | 0.00 | 82 | 1018.0 |
| 20260906223713 | 61 | 110 | 0.0 | 2.6 | 0.00 | 0.00 | 0.00 | 82 | 1018.0 |
| 20260906223654 | 61 | 110 | 0.0 | 3.5 | 0.00 | 0.00 | 0.00 | 83 | 1018.0 |
| 20260906223638 | 61 | 110 | 0.9 | 3.5 | 0.00 | 0.00 | 0.00 | 83 | 1018.0 |
| 20260906223630 | 61 | 110 | 0.9 | 5.2 | 0.00 | 0.00 | 0.00 | 83 | 1018.0 |
| 20260906223614 | 61 | 77 | 0.9 | 5.2 | 0.00 | 0.00 | 0.00 | 83 | 1018.0 |
| 20260906223600 | 61 | 86 | 1.7 | 5.2 | 0.00 | 0.00 | 0.00 | 83 | 1018.0 |
| 20260906223510 | 61 | 96 | 3.5 | 5.2 | 0.00 | 0.00 | 0.00 | 83 | 1018.0 |
| 20260906223502 | 61 | 79 | 0.9 | 3.5 | 0.00 | 0.00 | 0.00 | 83 | 1018.0 |
| 20260906223454 | 61 | 79 | 0.9 | 3.5 | 0.00 | 0.00 | 0.00 | 83 | 1018.0 |
| 20260906223440 | 61 | 74 | 2.6 | 3.5 | 0.00 | 0.00 | 0.00 | 83 | 1018.0 |
| 20260906223422 | 61 | 104 | 3.5 | 3.5 | 0.00 | 0.00 | 0.00 | 83 | 1018.0 |
| 20260906223406 | 61 | 88 | 1.7 | 3.5 | 0.00 | 0.00 | 0.00 | 83 | 1018.0 |
| 20260906223350 | 61 | 114 | 1.7 | 3.5 | 0.00 | 0.00 | 0.00 | 83 | 1018.0 |
| 20260906223334 | 61 | 98 | 1.7 | 3.5 | 0.00 | 0.00 | 0.00 | 83 | 1018.0 |
| 20260906223328 | 61 | 61 | 1.7 | 3.5 | 0.00 | 0.00 | 0.00 | 83 | 1018.0 |
| 20260906223302 | 61 | 162 | 0.9 | 3.5 | 0.00 | 0.00 | 0.00 | 83 | 1018.0 |
| 20260906223209 | 61 | 91 | 1.7 | 3.5 | 0.00 | 0.00 | 0.00 | 83 | 1018.0 |
| 20260906223150 | 61 | 106 | 1.7 | 3.5 | 0.00 | 0.00 | 0.00 | 83 | 1018.0 |
| 20260906223144 | 61 | 75 | 1.7 | 2.6 | 0.00 | 0.00 | 0.00 | 83 | 1018.0 |
| 20260906223118 | 61 | 78 | 0.9 | 1.7 | 0.00 | 0.00 | 0.00 | 84 | 1018.0 |
| 20260906223110 | 61 | 91 | 0.9 | 1.7 | 0.00 | 0.00 | 0.00 | 84 | 1018.0 |
| 20260906223102 | 61 | 91 | 0.9 | 2.6 | 0.00 | 0.00 | 0.00 | 84 | 1018.0 |
| 20260906223046 | 61 | 90 | 1.7 | 2.6 | 0.00 | 0.00 | 0.00 | 84 | 1018.0 |
| 20260906223042 | 61 | 88 | 0.9 | 2.6 | 0.00 | 0.00 | 0.00 | 84 | 1018.0 |
| 20260906223014 | 61 | 61 | 0.0 | 2.6 | 0.00 | 0.00 | 0.00 | 84 | 1018.0 |
| 20260906223009 | 61 | 86 | 0.0 | 2.6 | 0.00 | 0.00 | 0.00 | 84 | 1018.0 |
| 20260906222942 | 61 | 87 | 0.9 | 2.6 | 0.00 | 0.00 | 0.00 | 84 | 1018.0 |
| 20260906222926 | 61 | 89 | 1.7 | 2.6 | 0.00 | 0.00 | 0.00 | 84 | 1018.0 |
| 20260906222910 | 61 | 104 | 1.7 | 2.6 | 0.00 | 0.00 | 0.00 | 84 | 1018.0 |
| 20260906222904 | 61 | 91 | 0.0 | 0.9 | 0.00 | 0.00 | 0.00 | 84 | 1018.0 |
| 20260906222854 | 61 | 91 | 0.0 | 0.9 | 0.00 | 0.00 | 0.00 | 84 | 1018.0 |
| 20260906222838 | 61 | 96 | 0.0 | 0.9 | 0.00 | 0.00 | 0.00 | 84 | 1018.0 |
| 20260906222822 | 61 | 83 | 0.0 | 0.9 | 0.00 | 0.00 | 0.00 | 84 | 1018.0 |
| 20260906222806 | 61 | 132 | 0.0 | 0.9 | 0.00 | 0.00 | 0.00 | 84 | 1018.0 |
| 20260906222742 | 61 | 132 | 0.0 | 0.9 | 0.00 | 0.00 | 0.00 | 84 | 1018.0 |
| 20260906222726 | 61 | 128 | 0.0 | 0.9 | 0.00 | 0.00 | 0.00 | 84 | 1018.0 |
| 20260906222720 | 61 | 139 | 0.0 | 0.9 | 0.00 | 0.00 | 0.00 | 84 | 1018.0 |
| 20260906222702 | 61 | 78 | 0.0 | 2.6 | 0.00 | 0.00 | 0.00 | 84 | 1018.0 |
| 20260906222654 | 61 | 78 | 0.0 | 2.6 | 0.00 | 0.00 | 0.00 | 84 | 1018.0 |
| 20260906222638 | 61 | 79 | 0.0 | 2.6 | 0.00 | 0.00 | 0.00 | 84 | 1018.0 |
| 20260906222626 | 61 | 79 | 0.0 | 2.6 | 0.00 | 0.00 | 0.00 | 84 | 1018.0 |
| 20260906222551 | 61 | 121 | 0.0 | 2.6 | 0.00 | 0.00 | 0.00 | 84 | 1018.0 |
| 20260906222518 | 61 | 132 | 1.7 | 2.6 | 0.00 | 0.00 | 0.00 | 84 | 1018.0 |
| 20260906222510 | 61 | 100 | 0.0 | 1.7 | 0.00 | 0.00 | 0.00 | 84 | 1018.0 |
| 20260906222502 | 61 | 100 | 0.0 | 2.6 | 0.00 | 0.00 | 0.00 | 84 | 1018.0 |
| 20260906222457 | 61 | 76 | 0.0 | 2.6 | 0.00 | 0.00 | 0.00 | 84 | 1018.0 |
| 20260906222440 | 61 | 94 | 0.9 | 2.6 | 0.00 | 0.00 | 0.00 | 84 | 1018.0 |
| 20260906222430 | 61 | 94 | 0.9 | 3.5 | 0.00 | 0.00 | 0.00 | 84 | 1018.0 |
| 20260906222414 | 61 | 142 | 1.7 | 3.5 | 0.00 | 0.00 | 0.00 | 84 | 1018.0 |
| 20260906222406 | 61 | 121 | 0.9 | 3.5 | 0.00 | 0.00 | 0.00 | 84 | 1018.0 |
| 20260906222400 | 61 | 121 | 0.9 | 3.5 | 0.00 | 0.00 | 0.00 | 84 | 1018.0 |
| 20260906222353 | 61 | 83 | 1.7 | 3.5 | 0.00 | 0.00 | 0.00 | 84 | 1018.0 |
| 20260906222320 | 61 | 85 | 1.7 | 5.2 | 0.00 | 0.00 | 0.00 | 84 | 1018.0 |
| 20260906222305 | 61 | 89 | 1.7 | 5.2 | 0.00 | 0.00 | 0.00 | 84 | 1018.0 |
| 20260906222246 | 61 | 76 | 2.6 | 5.2 | 0.00 | 0.00 | 0.00 | 84 | 1018.0 |
| 20260906222241 | 61 | 84 | 2.6 | 5.2 | 0.00 | 0.00 | 0.00 | 84 | 1018.0 |
| 20260906222218 | 61 | 95 | 2.6 | 5.2 | 0.00 | 0.00 | 0.00 | 84 | 1018.0 |
| 20260906222200 | 61 | 95 | 1.7 | 5.2 | 0.00 | 0.00 | 0.00 | 85 | 1018.0 |
| 20260906222150 | 61 | 123 | 3.5 | 5.2 | 0.00 | 0.00 | 0.00 | 85 | 1018.0 |
| 20260906222110 | 61 | 62 | 0.9 | 1.7 | 0.00 | 0.00 | 0.00 | 85 | 1018.0 |
| 20260906222102 | 61 | 164 | 0.9 | 1.7 | 0.00 | 0.00 | 0.00 | 85 | 1018.0 |
| 20260906222054 | 61 | 164 | 0.9 | 1.7 | 0.00 | 0.00 | 0.00 | 85 | 1018.0 |
| 20260906222039 | 61 | 57 | 0.9 | 1.7 | 0.00 | 0.00 | 0.00 | 85 | 1018.0 |
| 20260906222022 | 61 | 111 | 0.9 | 1.7 | 0.00 | 0.00 | 0.00 | 85 | 1018.0 |
| 20260906222006 | 61 | 53 | 0.9 | 1.7 | 0.00 | 0.00 | 0.00 | 85 | 1018.0 |
| 20260906221958 | 61 | 31 | 0.0 | 0.0 | 0.00 | 0.00 | 0.00 | 85 | 1018.0 |
| 20260906221949 | 60 | 31 | 0.0 | 0.0 | 0.00 | 0.00 | 0.00 | 85 | 1018.0 |
| 20260906221945 | 60 | 81 | 0.0 | 0.0 | 0.00 | 0.00 | 0.00 | 85 | 1018.0 |
| 20260906221918 | 60 | 103 | 0.0 | 0.0 | 0.00 | 0.00 | 0.00 | 85 | 1018.0 |
| 20260906221910 | 60 | 126 | 0.0 | 0.0 | 0.00 | 0.00 | 0.00 | 85 | 1018.0 |
| 20260906221902 | 60 | 126 | 0.0 | 0.9 | 0.00 | 0.00 | 0.00 | 85 | 1018.0 |
| 20260906221859 | 60 | 126 | 0.0 | 0.9 | 0.00 | 0.00 | 0.00 | 85 | 1018.0 |
| 20260906221806 | 60 | 65 | 0.0 | 2.6 | 0.00 | 0.00 | 0.00 | 85 | 1018.0 |
| 20260906221753 | 60 | 92 | 0.0 | 2.6 | 0.00 | 0.00 | 0.00 | 85 | 1018.0 |
| 20260906221734 | 60 | 65 | 0.0 | 2.6 | 0.00 | 0.00 | 0.00 | 85 | 1018.0 |
| 20260906221718 | 60 | 57 | 0.9 | 2.6 | 0.00 | 0.00 | 0.00 | 85 | 1018.0 |
| 20260906221702 | 60 | 85 | 1.7 | 2.6 | 0.00 | 0.00 | 0.00 | 85 | 1018.0 |
| 20260906221649 | 60 | 77 | 0.9 | 2.6 | 0.00 | 0.00 | 0.00 | 85 | 1018.0 |
| 20260906221630 | 60 | 74 | 0.0 | 2.6 | 0.00 | 0.00 | 0.00 | 85 | 1018.0 |
| 20260906221614 | 60 | 91 | 0.9 | 2.6 | 0.00 | 0.00 | 0.00 | 85 | 1018.0 |
| 20260906221608 | 60 | 116 | 1.7 | 2.6 | 0.00 | 0.00 | 0.00 | 85 | 1018.0 |
| 20260906221558 | 60 | 116 | 1.7 | 2.6 | 0.00 | 0.00 | 0.00 | 85 | 1018.0 |
| 20260906221542 | 60 | 113 | 0.9 | 1.7 | 0.00 | 0.00 | 0.00 | 85 | 1018.0 |
| 20260906221529 | 60 | 81 | 1.7 | 1.7 | 0.00 | 0.00 | 0.00 | 85 | 1018.0 |
| 20260906221510 | 60 | 103 | 1.7 | 1.7 | 0.00 | 0.00 | 0.00 | 85 | 1018.0 |
| 20260906221502 | 60 | 128 | 0.9 | 1.7 | 0.00 | 0.00 | 0.00 | 85 | 1018.0 |
| 20260906221454 | 60 | 128 | 0.9 | 1.7 | 0.00 | 0.00 | 0.00 | 85 | 1018.0 |
| 20260906221448 | 60 | 52 | 0.0 | 1.7 | 0.00 | 0.00 | 0.00 | 85 | 1018.0 |
| 20260906221430 | 60 | 52 | 0.0 | 3.5 | 0.00 | 0.00 | 0.00 | 85 | 1018.0 |
| 20260906221414 | 60 | 357 | 0.0 | 3.5 | 0.00 | 0.00 | 0.00 | 85 | 1018.0 |
| 20260906221406 | 60 | 41 | 0.9 | 3.5 | 0.00 | 0.00 | 0.00 | 85 | 1018.0 |
| 20260906221357 | 60 | 41 | 0.9 | 3.5 | 0.00 | 0.00 | 0.00 | 85 | 1018.0 |
| 20260906221342 | 60 | 154 | 0.9 | 3.5 | 0.00 | 0.00 | 0.00 | 85 | 1018.0 |
| 20260906221336 | 60 | 99 | 1.7 | 3.5 | 0.00 | 0.00 | 0.00 | 85 | 1018.0 |
| 20260906221310 | 60 | 54 | 1.7 | 3.5 | 0.00 | 0.00 | 0.00 | 86 | 1018.0 |
| 20260906221302 | 60 | 95 | 2.6 | 3.5 | 0.00 | 0.00 | 0.00 | 86 | 1018.0 |
| 20260906221253 | 60 | 95 | 2.6 | 3.5 | 0.00 | 0.00 | 0.00 | 86 | 1018.0 |
| 20260906221238 | 60 | 109 | 2.6 | 3.5 | 0.00 | 0.00 | 0.00 | 86 | 1018.0 |
| 20260906221222 | 60 | 100 | 1.7 | 2.6 | 0.00 | 0.00 | 0.00 | 86 | 1018.0 |
| 20260906221214 | 60 | 123 | 0.9 | 0.9 | 0.00 | 0.00 | 0.00 | 86 | 1018.0 |
| 20260906221206 | 60 | 123 | 0.9 | 1.7 | 0.00 | 0.00 | 0.00 | 86 | 1018.0 |
| 20260906221149 | 60 | 134 | 0.9 | 1.7 | 0.00 | 0.00 | 0.00 | 86 | 1018.0 |
| 20260906221144 | 60 | 114 | 0.0 | 1.7 | 0.00 | 0.00 | 0.00 | 86 | 1018.0 |
| 20260906221118 | 60 | 110 | 0.0 | 1.7 | 0.00 | 0.00 | 0.00 | 86 | 1018.0 |
| 20260906221112 | 60 | 114 | 0.0 | 1.7 | 0.00 | 0.00 | 0.00 | 86 | 1018.0 |
| 20260906221045 | 60 | 86 | 0.0 | 1.7 | 0.00 | 0.00 | 0.00 | 86 | 1018.0 |
| 20260906221040 | 60 | 93 | 0.9 | 1.7 | 0.00 | 0.00 | 0.00 | 86 | 1018.0 |
| 20260906221006 | 60 | 114 | 0.9 | 1.7 | 0.00 | 0.00 | 0.00 | 86 | 1018.0 |
| 20260906221000 | 60 | 68 | 0.0 | 1.7 | 0.00 | 0.00 | 0.00 | 86 | 1018.0 |
| 20260906220950 | 60 | 68 | 0.0 | 1.7 | 0.00 | 0.00 | 0.00 | 86 | 1018.0 |
| 20260906220944 | 60 | 177 | 0.9 | 1.7 | 0.00 | 0.00 | 0.00 | 86 | 1018.0 |
| 20260906220918 | 60 | 79 | 0.9 | 1.7 | 0.00 | 0.00 | 0.00 | 86 | 1018.0 |
| 20260906220902 | 60 | 197 | 0.9 | 1.7 | 0.00 | 0.00 | 0.00 | 86 | 1018.0 |
| 20260906220846 | 60 | 197 | 0.9 | 1.7 | 0.00 | 0.00 | 0.00 | 86 | 1018.0 |
| 20260906220841 | 60 | 106 | 0.0 | 1.7 | 0.00 | 0.00 | 0.00 | 86 | 1018.0 |
| 20260906220816 | 60 | 116 | 0.9 | 3.5 | 0.00 | 0.00 | 0.00 | 86 | 1018.0 |
| 20260906220805 | 60 | 144 | 0.9 | 3.5 | 0.00 | 0.00 | 0.00 | 87 | 1018.0 |
| 20260906220758 | 60 | 144 | 0.9 | 3.5 | 0.00 | 0.00 | 0.00 | 87 | 1018.0 |
| 20260906220736 | 60 | 146 | 1.7 | 3.5 | 0.00 | 0.00 | 0.00 | 87 | 1018.0 |
| 20260906220711 | 60 | 130 | 1.7 | 3.5 | 0.00 | 0.00 | 0.00 | 87 | 1018.0 |
| 20260906220702 | 60 | 101 | 2.6 | 3.5 | 0.00 | 0.00 | 0.00 | 87 | 1018.0 |
| 20260906220656 | 60 | 101 | 2.6 | 3.5 | 0.00 | 0.00 | 0.00 | 87 | 1018.0 |
| 20260906220638 | 60 | 85 | 1.7 | 2.6 | 0.00 | 0.00 | 0.00 | 87 | 1018.0 |
| 20260906220622 | 60 | 94 | 1.7 | 1.7 | 0.00 | 0.00 | 0.00 | 87 | 1018.0 |
| 20260906220616 | 60 | 108 | 0.9 | 0.9 | 0.00 | 0.00 | 0.00 | 87 | 1018.0 |
| 20260906220542 | 60 | 48 | 0.0 | 0.9 | 0.00 | 0.00 | 0.00 | 87 | 1018.0 |
| 20260906220526 | 60 | 55 | 0.0 | 1.7 | 0.00 | 0.00 | 0.00 | 87 | 1018.0 |
| 20260906220520 | 60 | 104 | 0.0 | 1.7 | 0.00 | 0.00 | 0.00 | 87 | 1018.0 |
| 20260906220502 | 60 | 85 | 0.0 | 2.6 | 0.00 | 0.00 | 0.00 | 87 | 1018.0 |
| 20260906220454 | 60 | 85 | 0.0 | 2.6 | 0.00 | 0.00 | 0.00 | 87 | 1018.0 |
| 20260906220437 | 60 | 43 | 0.0 | 2.6 | 0.00 | 0.00 | 0.00 | 87 | 1018.0 |
| 20260906220424 | 60 | 77 | 0.0 | 3.5 | 0.00 | 0.00 | 0.00 | 87 | 1018.0 |
| 20260906220405 | 60 | 106 | 0.9 | 3.5 | 0.00 | 0.00 | 0.00 | 87 | 1018.0 |
| 20260906220350 | 60 | 75 | 0.9 | 3.5 | 0.00 | 0.00 | 0.00 | 87 | 1018.0 |
| 20260906220334 | 60 | 108 | 1.7 | 3.5 | 0.00 | 0.00 | 0.00 | 87 | 1018.0 |
| 20260906220328 | 60 | 68 | 1.7 | 3.5 | 0.00 | 0.00 | 0.00 | 87 | 1018.0 |
| 20260906220301 | 60 | 53 | 3.5 | 3.5 | 0.00 | 0.00 | 0.00 | 87 | 1018.0 |
| 20260906220253 | 60 | 71 | 2.6 | 2.6 | 0.00 | 0.00 | 0.00 | 87 | 1018.0 |
| 20260906220214 | 60 | 90 | 0.9 | 2.6 | 0.00 | 0.00 | 0.00 | 88 | 1018.0 |
| 20260906220206 | 60 | 66 | 0.9 | 2.6 | 0.00 | 0.00 | 0.00 | 88 | 1018.0 |
| 20260906220157 | 60 | 66 | 0.9 | 2.6 | 0.00 | 0.00 | 0.00 | 88 | 1018.0 |
| 20260906220152 | 60 | 135 | 0.9 | 1.7 | 0.00 | 0.00 | 0.00 | 88 | 1018.0 |
| 20260906220118 | 60 | 85 | 0.0 | 0.9 | 0.00 | 0.00 | 0.00 | 88 | 1018.0 |
| 20260906220046 | 60 | 140 | 0.0 | 0.9 | 0.00 | 0.00 | 0.00 | 88 | 1018.0 |
| 20260906220038 | 60 | 140 | 0.0 | 0.9 | 0.00 | 0.00 | 0.00 | 88 | 1018.0 |
| 20260906220030 | 60 | 140 | 0.0 | 1.7 | 0.00 | 0.00 | 0.00 | 88 | 1018.0 |
| 20260906220014 | 60 | 140 | 0.9 | 1.7 | 0.00 | 0.00 | 0.00 | 88 | 1018.0 |
| 20260906220005 | 60 | 140 | 0.9 | 1.7 | 0.00 | 0.00 | 0.00 | 88 | 1018.0 |
| 20260906215958 | 60 | 140 | 0.9 | 1.7 | 0.00 | 0.00 | 0.00 | 88 | 1018.0 |
| 20260906215942 | 60 | 140 | 0.9 | 1.7 | 0.00 | 0.00 | 0.00 | 88 | 1018.0 |
| 20260906215926 | 60 | 128 | 0.9 | 1.7 | 0.00 | 0.00 | 0.00 | 88 | 1018.0 |
| 20260906215910 | 60 | 122 | 0.9 | 1.7 | 0.00 | 0.00 | 0.00 | 88 | 1018.0 |
| 20260906215904 | 60 | 103 | 0.9 | 0.9 | 0.00 | 0.00 | 0.00 | 88 | 1018.0 |
| 20260906215838 | 60 | 63 | 0.9 | 0.9 | 0.00 | 0.00 | 0.00 | 88 | 1018.0 |
| 20260906215822 | 59 | 74 | 0.0 | 1.7 | 0.00 | 0.00 | 0.00 | 88 | 1018.0 |
| 20260906215808 | 59 | 133 | 0.0 | 1.7 | 0.00 | 0.00 | 0.00 | 88 | 1018.0 |
| 20260906215750 | 59 | 99 | 0.0 | 1.7 | 0.00 | 0.00 | 0.00 | 88 | 1018.0 |
| 20260906215734 | 59 | 73 | 0.0 | 1.7 | 0.00 | 0.00 | 0.00 | 88 | 1018.0 |
| 20260906215718 | 59 | 110 | 0.0 | 1.7 | 0.00 | 0.00 | 0.00 | 88 | 1018.0 |
| 20260906215713 | 59 | 123 | 0.9 | 1.7 | 0.00 | 0.00 | 0.00 | 88 | 1018.0 |
| 20260906215654 | 59 | 123 | 0.9 | 1.7 | 0.00 | 0.00 | 0.00 | 88 | 1018.0 |
| 20260906215638 | 59 | 166 | 1.7 | 1.7 | 0.00 | 0.00 | 0.00 | 88 | 1018.0 |
| 20260906215632 | 59 | 140 | 1.7 | 1.7 | 0.00 | 0.00 | 0.00 | 88 | 1018.0 |
| 20260906215606 | 59 | 126 | 0.0 | 1.7 | 0.00 | 0.00 | 0.00 | 88 | 1018.0 |
| 20260906215550 | 59 | 115 | 1.7 | 1.7 | 0.00 | 0.00 | 0.00 | 88 | 1018.0 |
| 20260906215542 | 59 | 141 | 0.0 | 1.7 | 0.00 | 0.00 | 0.00 | 88 | 1018.0 |
| 20260906215534 | 59 | 141 | 0.0 | 2.6 | 0.00 | 0.00 | 0.00 | 88 | 1018.0 |
| 20260906215518 | 59 | 139 | 0.0 | 2.6 | 0.00 | 0.00 | 0.00 | 88 | 1018.0 |
| 20260906215509 | 59 | 149 | 0.9 | 2.6 | 0.00 | 0.00 | 0.00 | 88 | 1018.0 |
| 20260906215501 | 59 | 149 | 0.9 | 3.5 | 0.00 | 0.00 | 0.00 | 88 | 1018.0 |
| 20260906215456 | 59 | 150 | 0.0 | 3.5 | 0.00 | 0.00 | 0.00 | 88 | 1018.0 |
| 20260906215440 | 59 | 150 | 0.9 | 3.5 | 0.00 | 0.00 | 0.00 | 88 | 1018.0 |
| 20260906215414 | 59 | 128 | 0.9 | 3.5 | 0.00 | 0.00 | 0.00 | 88 | 1018.0 |
| 20260906215405 | 59 | 121 | 1.7 | 3.5 | 0.00 | 0.00 | 0.00 | 88 | 1018.0 |
| 20260906215358 | 59 | 121 | 1.7 | 3.5 | 0.00 | 0.00 | 0.00 | 88 | 1018.0 |
| 20260906215341 | 59 | 123 | 3.5 | 3.5 | 0.00 | 0.00 | 0.00 | 88 | 1018.0 |
| 20260906215336 | 59 | 122 | 1.7 | 2.6 | 0.00 | 0.00 | 0.00 | 88 | 1018.0 |
| 20260906215321 | 59 | 135 | 0.0 | 1.7 | 0.00 | 0.00 | 0.00 | 88 | 1018.0 |
| 20260906215306 | 59 | 135 | 0.9 | 2.6 | 0.00 | 0.00 | 0.00 | 88 | 1018.0 |
| 20260906215259 | 59 | 135 | 0.9 | 2.6 | 0.00 | 0.00 | 0.00 | 88 | 1018.0 |
| 20260906215232 | 59 | 110 | 0.9 | 2.6 | 0.00 | 0.00 | 0.00 | 88 | 1018.0 |
| 20260906215214 | 59 | 113 | 0.9 | 2.6 | 0.00 | 0.00 | 0.00 | 88 | 1018.0 |
| 20260906215206 | 59 | 114 | 0.9 | 2.6 | 0.00 | 0.00 | 0.00 | 88 | 1018.0 |
| 20260906215158 | 59 | 114 | 0.9 | 2.6 | 0.00 | 0.00 | 0.00 | 88 | 1018.0 |
| 20260906215141 | 59 | 85 | 1.7 | 2.6 | 0.00 | 0.00 | 0.00 | 88 | 1018.0 |
| 20260906215136 | 59 | 110 | 1.7 | 2.6 | 0.00 | 0.00 | 0.00 | 88 | 1018.0 |
| 20260906215110 | 59 | 155 | 2.6 | 2.6 | 0.00 | 0.00 | 0.00 | 88 | 1018.0 |
| 20260906215102 | 59 | 136 | 2.6 | 3.5 | 0.00 | 0.00 | 0.00 | 88 | 1018.0 |
| 20260906215054 | 59 | 136 | 2.6 | 3.5 | 0.00 | 0.00 | 0.00 | 88 | 1018.0 |
| 20260906215038 | 59 | 67 | 0.9 | 3.5 | 0.00 | 0.00 | 0.00 | 88 | 1018.0 |
| 20260906215022 | 59 | 104 | 1.7 | 3.5 | 0.00 | 0.00 | 0.00 | 88 | 1018.0 |
| 20260906215006 | 59 | 121 | 0.9 | 3.5 | 0.00 | 0.00 | 0.00 | 88 | 1018.0 |
| 20260906214949 | 59 | 123 | 1.7 | 3.5 | 0.00 | 0.00 | 0.00 | 88 | 1018.0 |
| 20260906214934 | 59 | 53 | 2.6 | 3.5 | 0.00 | 0.00 | 0.00 | 88 | 1018.0 |
| 20260906214928 | 59 | 108 | 2.6 | 2.6 | 0.00 | 0.00 | 0.00 | 88 | 1018.0 |
| 20260906214902 | 59 | 102 | 0.9 | 1.7 | 0.00 | 0.00 | 0.00 | 88 | 1018.0 |
| 20260906214846 | 59 | 59 | 0.9 | 1.7 | 0.00 | 0.00 | 0.00 | 88 | 1018.0 |
| 20260906214830 | 59 | 86 | 0.9 | 1.7 | 0.00 | 0.00 | 0.00 | 88 | 1018.0 |
| 20260906214806 | 59 | 94 | 0.0 | 1.7 | 0.00 | 0.00 | 0.00 | 88 | 1018.0 |
| 20260906214750 | 59 | 86 | 0.0 | 0.9 | 0.00 | 0.00 | 0.00 | 88 | 1018.0 |
| 20260906214734 | 59 | 50 | 0.0 | 0.9 | 0.00 | 0.00 | 0.00 | 88 | 1018.0 |
| 20260906214728 | 59 | 148 | 0.0 | 0.9 | 0.00 | 0.00 | 0.00 | 88 | 1018.0 |
| 20260906214712 | 59 | 91 | 0.9 | 0.9 | 0.00 | 0.00 | 0.00 | 88 | 1018.0 |
| 20260906214646 | 59 | 96 | 0.9 | 0.9 | 0.00 | 0.00 | 0.00 | 88 | 1018.0 |
| 20260906214629 | 59 | 78 | 0.9 | 0.9 | 0.00 | 0.00 | 0.00 | 88 | 1018.0 |
| 20260906214613 | 59 | 88 | 0.0 | 0.0 | 0.00 | 0.00 | 0.00 | 88 | 1018.0 |
| 20260906214600 | 59 | 81 | 0.0 | 0.9 | 0.00 | 0.00 | 0.00 | 88 | 1018.0 |
| 20260906214542 | 59 | 78 | 0.0 | 0.9 | 0.00 | 0.00 | 0.00 | 88 | 1018.0 |
| 20260906214536 | 59 | 101 | 0.0 | 0.9 | 0.00 | 0.00 | 0.00 | 88 | 1018.0 |
| 20260906214512 | 59 | 106 | 0.0 | 0.9 | 0.00 | 0.00 | 0.00 | 88 | 1018.0 |
| 20260906214453 | 59 | 85 | 0.0 | 1.7 | 0.00 | 0.00 | 0.00 | 88 | 1018.0 |
| 20260906214438 | 59 | 97 | 0.0 | 1.7 | 0.00 | 0.00 | 0.00 | 88 | 1018.0 |
| 20260906214421 | 59 | 115 | 0.9 | 1.7 | 0.00 | 0.00 | 0.00 | 88 | 1018.0 |
| 20260906214405 | 59 | 85 | 0.9 | 1.7 | 0.00 | 0.00 | 0.00 | 88 | 1018.0 |
| 20260906214352 | 59 | 106 | 0.9 | 1.7 | 0.00 | 0.00 | 0.00 | 88 | 1018.0 |
| 20260906214325 | 59 | 110 | 0.9 | 1.7 | 0.00 | 0.00 | 0.00 | 88 | 1018.0 |
| 20260906214309 | 59 | 100 | 0.9 | 1.7 | 0.00 | 0.00 | 0.00 | 88 | 1018.0 |
| 20260906214301 | 59 | 90 | 0.9 | 1.7 | 0.00 | 0.00 | 0.00 | 88 | 1018.0 |
| 20260906214254 | 59 | 90 | 0.9 | 1.7 | 0.00 | 0.00 | 0.00 | 88 | 1018.0 |
| 20260906214238 | 59 | 124 | 1.7 | 1.7 | 0.00 | 0.00 | 0.00 | 88 | 1018.0 |
| 20260906214224 | 59 | 69 | 1.7 | 1.7 | 0.00 | 0.00 | 0.00 | 88 | 1018.0 |
| 20260906214205 | 59 | 86 | 0.0 | 0.9 | 0.00 | 0.00 | 0.00 | 88 | 1018.0 |
| 20260906214149 | 59 | 51 | 0.0 | 0.0 | 0.00 | 0.00 | 0.00 | 88 | 1018.0 |
| 20260906214134 | 59 | 182 | 0.0 | 0.0 | 0.00 | 0.00 | 0.00 | 88 | 1018.0 |
| 20260906214117 | 59 | 119 | 0.0 | 0.0 | 0.00 | 0.00 | 0.00 | 88 | 1018.0 |
| 20260906214112 | 59 | 107 | 0.0 | 0.0 | 0.00 | 0.00 | 0.00 | 88 | 1018.0 |
| 20260906214045 | 59 | 120 | 0.0 | 0.0 | 0.00 | 0.00 | 0.00 | 88 | 1018.0 |
| 20260906214040 | 59 | 108 | 0.0 | 0.0 | 0.00 | 0.00 | 0.00 | 88 | 1018.0 |
| 20260906214014 | 59 | 94 | 0.0 | 0.0 | 0.00 | 0.00 | 0.00 | 88 | 1018.0 |
| 20260906214005 | 59 | 235 | 0.0 | 0.0 | 0.00 | 0.00 | 0.00 | 88 | 1018.0 |
| 20260906213957 | 59 | 235 | 0.0 | 0.0 | 0.00 | 0.00 | 0.00 | 88 | 1018.0 |
| 20260906213952 | 59 | 235 | 0.0 | 0.0 | 0.00 | 0.00 | 0.00 | 88 | 1018.0 |
| 20260906213926 | 59 | 235 | 0.0 | 0.9 | 0.00 | 0.00 | 0.00 | 88 | 1018.0 |
| 20260906213901 | 59 | 235 | 0.0 | 0.9 | 0.00 | 0.00 | 0.00 | 89 | 1018.0 |
| 20260906213845 | 59 | 235 | 0.0 | 0.9 | 0.00 | 0.00 | 0.00 | 89 | 1018.0 |
| 20260906213814 | 59 | 235 | 0.0 | 0.9 | 0.00 | 0.00 | 0.00 | 89 | 1018.0 |
| 20260906213806 | 59 | 235 | 0.0 | 0.9 | 0.00 | 0.00 | 0.00 | 89 | 1018.0 |
| 20260906213758 | 59 | 235 | 0.0 | 0.9 | 0.00 | 0.00 | 0.00 | 89 | 1018.0 |
| 20260906213741 | 59 | 238 | 0.0 | 0.9 | 0.00 | 0.00 | 0.00 | 89 | 1018.0 |
| 20260906213736 | 59 | 238 | 0.9 | 1.7 | 0.00 | 0.00 | 0.00 | 89 | 1018.0 |
| 20260906213721 | 59 | 169 | 0.9 | 1.7 | 0.00 | 0.00 | 0.00 | 89 | 1018.0 |
| 20260906213706 | 59 | 119 | 0.9 | 1.7 | 0.00 | 0.00 | 0.00 | 89 | 1018.0 |
| 20260906213637 | 59 | 97 | 0.0 | 1.7 | 0.00 | 0.00 | 0.00 | 89 | 1018.0 |
| 20260906213631 | 59 | 118 | 0.9 | 1.7 | 0.00 | 0.00 | 0.00 | 89 | 1018.0 |
| 20260906213605 | 59 | 120 | 0.9 | 1.7 | 0.00 | 0.00 | 0.00 | 89 | 1018.0 |
| 20260906213600 | 59 | 147 | 0.9 | 1.7 | 0.00 | 0.00 | 0.00 | 89 | 1018.0 |
| 20260906213533 | 59 | 91 | 0.0 | 0.9 | 0.00 | 0.00 | 0.00 | 89 | 1018.0 |
| 20260906213517 | 59 | 94 | 0.0 | 0.0 | 0.00 | 0.00 | 0.00 | 89 | 1018.0 |
| 20260906213510 | 59 | 89 | 0.0 | 0.0 | 0.00 | 0.00 | 0.00 | 89 | 1018.0 |
| 20260906213503 | 59 | 89 | 0.0 | 0.9 | 0.00 | 0.00 | 0.00 | 89 | 1018.0 |
| 20260906213438 | 59 | 90 | 0.0 | 0.9 | 0.00 | 0.00 | 0.00 | 89 | 1018.0 |
| 20260906213421 | 59 | 112 | 0.0 | 1.7 | 0.00 | 0.00 | 0.00 | 89 | 1018.0 |
| 20260906213406 | 59 | 79 | 0.0 | 1.7 | 0.00 | 0.00 | 0.00 | 89 | 1018.0 |
| 20260906213349 | 59 | 78 | 0.0 | 1.7 | 0.00 | 0.00 | 0.00 | 89 | 1018.0 |
| 20260906213344 | 59 | 81 | 0.0 | 1.7 | 0.00 | 0.00 | 0.00 | 89 | 1018.0 |
| 20260906213319 | 59 | 74 | 0.0 | 1.7 | 0.00 | 0.00 | 0.00 | 89 | 1018.0 |
| 20260906213302 | 59 | 116 | 0.0 | 1.7 | 0.00 | 0.00 | 0.00 | 89 | 1018.0 |
| 20260906213248 | 59 | 142 | 0.9 | 1.7 | 0.00 | 0.00 | 0.00 | 89 | 1018.0 |
| 20260906213230 | 59 | 140 | 0.9 | 1.7 | 0.00 | 0.00 | 0.00 | 89 | 1018.0 |
| 20260906213214 | 59 | 141 | 0.0 | 0.0 | 0.00 | 0.00 | 0.00 | 89 | 1018.0 |
| 20260906213205 | 59 | 75 | 0.0 | 0.9 | 0.00 | 0.00 | 0.00 | 89 | 1018.0 |
| 20260906213158 | 59 | 75 | 0.0 | 0.9 | 0.00 | 0.00 | 0.00 | 89 | 1018.0 |
| 20260906213141 | 58 | 147 | 0.0 | 0.9 | 0.00 | 0.00 | 0.00 | 89 | 1018.0 |
| 20260906213125 | 58 | 145 | 0.0 | 0.9 | 0.00 | 0.00 | 0.00 | 89 | 1018.0 |
| 20260906213110 | 58 | 116 | 0.0 | 0.9 | 0.00 | 0.00 | 0.00 | 89 | 1018.0 |
| 20260906213101 | 58 | 118 | 0.0 | 0.9 | 0.00 | 0.00 | 0.00 | 89 | 1018.0 |
| 20260906213039 | 58 | 161 | 0.0 | 0.9 | 0.00 | 0.00 | 0.00 | 89 | 1018.0 |
| 20260906213031 | 58 | 161 | 0.0 | 2.6 | 0.00 | 0.00 | 0.00 | 89 | 1018.0 |
| 20260906213015 | 58 | 104 | 0.9 | 2.6 | 0.00 | 0.00 | 0.00 | 89 | 1018.0 |
| 20260906213006 | 58 | 132 | 0.0 | 2.6 | 0.00 | 0.00 | 0.00 | 89 | 1018.0 |
| 20260906212959 | 58 | 132 | 0.0 | 2.6 | 0.00 | 0.00 | 0.00 | 89 | 1018.0 |
| 20260906212942 | 58 | 147 | 0.0 | 2.6 | 0.00 | 0.00 | 0.00 | 89 | 1018.0 |
| 20260906212937 | 58 | 182 | 0.9 | 2.6 | 0.00 | 0.00 | 0.00 | 89 | 1018.0 |
| 20260906212910 | 58 | 248 | 0.0 | 2.6 | 0.00 | 0.00 | 0.00 | 89 | 1018.0 |
| 20260906212902 | 58 | 256 | 1.7 | 2.6 | 0.00 | 0.00 | 0.00 | 89 | 1018.0 |
| 20260906212854 | 58 | 256 | 1.7 | 2.6 | 0.00 | 0.00 | 0.00 | 89 | 1018.0 |
| 20260906212841 | 58 | 215 | 0.9 | 2.6 | 0.00 | 0.00 | 0.00 | 89 | 1018.0 |
| 20260906212809 | 58 | 45 | 0.0 | 0.9 | 0.00 | 0.00 | 0.00 | 89 | 1018.0 |
| 20260906212750 | 58 | 45 | 0.0 | 0.9 | 0.00 | 0.00 | 0.00 | 89 | 1018.0 |
| 20260906212734 | 58 | 75 | 0.0 | 0.9 | 0.00 | 0.00 | 0.00 | 89 | 1018.0 |
| 20260906212719 | 58 | 44 | 0.0 | 0.9 | 0.00 | 0.00 | 0.00 | 89 | 1018.0 |
| 20260906212710 | 58 | 93 | 0.0 | 0.9 | 0.00 | 0.00 | 0.00 | 89 | 1018.0 |
| 20260906212702 | 58 | 93 | 0.0 | 2.6 | 0.00 | 0.00 | 0.00 | 89 | 1018.0 |
| 20260906212650 | 58 | 109 | 0.0 | 2.6 | 0.00 | 0.00 | 0.00 | 89 | 1018.0 |
| 20260906212630 | 58 | 122 | 0.9 | 2.6 | 0.00 | 0.00 | 0.00 | 89 | 1018.0 |
| 20260906212606 | 58 | 108 | 0.9 | 2.6 | 0.00 | 0.00 | 0.00 | 89 | 1018.0 |
| 20260906212550 | 58 | 103 | 0.0 | 2.6 | 0.00 | 0.00 | 0.00 | 89 | 1018.0 |
| 20260906212541 | 58 | 134 | 0.9 | 2.6 | 0.00 | 0.00 | 0.00 | 89 | 1018.0 |
| 20260906212528 | 58 | 126 | 1.7 | 2.6 | 0.00 | 0.00 | 0.00 | 89 | 1018.0 |
| 20260906212509 | 58 | 131 | 1.7 | 2.6 | 0.00 | 0.00 | 0.00 | 89 | 1018.0 |
| 20260906212446 | 58 | 120 | 0.9 | 2.6 | 0.00 | 0.00 | 0.00 | 89 | 1018.0 |
| 20260906212430 | 58 | 145 | 0.9 | 2.6 | 0.00 | 0.00 | 0.00 | 89 | 1018.0 |
| 20260906212416 | 58 | 148 | 1.7 | 2.6 | 0.00 | 0.00 | 0.00 | 89 | 1018.0 |
| 20260906212358 | 58 | 110 | 0.0 | 2.6 | 0.00 | 0.00 | 0.00 | 89 | 1018.0 |
| 20260906212346 | 58 | 111 | 0.0 | 2.6 | 0.00 | 0.00 | 0.00 | 89 | 1018.0 |
| 20260906212326 | 58 | 146 | 0.0 | 2.6 | 0.00 | 0.00 | 0.00 | 89 | 1018.0 |
| 20260906212320 | 58 | 87 | 0.9 | 2.6 | 0.00 | 0.00 | 0.00 | 89 | 1018.0 |
| 20260906212306 | 58 | 76 | 1.7 | 2.6 | 0.00 | 0.00 | 0.00 | 89 | 1018.0 |
| 20260906212251 | 58 | 194 | 0.9 | 1.7 | 0.00 | 0.00 | 0.00 | 89 | 1018.0 |
| 20260906212222 | 58 | 128 | 0.0 | 1.7 | 0.00 | 0.00 | 0.00 | 89 | 1018.0 |
| 20260906212206 | 58 | 158 | 0.0 | 1.7 | 0.00 | 0.00 | 0.00 | 89 | 1018.0 |
| 20260906212200 | 58 | 133 | 0.9 | 1.7 | 0.00 | 0.00 | 0.00 | 89 | 1018.0 |
| 20260906212143 | 58 | 133 | 0.9 | 1.7 | 0.00 | 0.00 | 0.00 | 89 | 1018.0 |
| 20260906212126 | 58 | 130 | 0.9 | 1.7 | 0.00 | 0.00 | 0.00 | 89 | 1018.0 |
| 20260906212110 | 58 | 116 | 0.0 | 0.0 | 0.00 | 0.00 | 0.00 | 89 | 1018.0 |
| 20260906212102 | 58 | 107 | 0.0 | 0.0 | 0.00 | 0.00 | 0.00 | 89 | 1018.0 |
| 20260906212057 | 58 | 107 | 0.0 | 0.0 | 0.00 | 0.00 | 0.00 | 89 | 1018.0 |
| 20260906212022 | 58 | 107 | 0.0 | 0.0 | 0.00 | 0.00 | 0.00 | 89 | 1018.0 |
| 20260906212006 | 58 | 107 | 0.0 | 0.0 | 0.00 | 0.00 | 0.00 | 89 | 1018.0 |
| 20260906211942 | 58 | 113 | 0.0 | 0.0 | 0.00 | 0.00 | 0.00 | 89 | 1018.0 |
| 20260906211920 | 58 | 113 | 0.0 | 1.7 | 0.00 | 0.00 | 0.00 | 89 | 1018.0 |
| 20260906211902 | 58 | 114 | 0.0 | 2.6 | 0.00 | 0.00 | 0.00 | 89 | 1018.0 |
| 20260906211846 | 58 | 120 | 0.0 | 2.6 | 0.00 | 0.00 | 0.00 | 89 | 1018.0 |
| 20260906211833 | 58 | 185 | 0.0 | 2.6 | 0.00 | 0.00 | 0.00 | 89 | 1018.0 |
| 20260906211814 | 58 | 140 | 0.0 | 2.6 | 0.00 | 0.00 | 0.00 | 89 | 1018.0 |
| 20260906211806 | 58 | 106 | 0.9 | 3.5 | 0.00 | 0.00 | 0.00 | 89 | 1018.0 |
| 20260906211758 | 58 | 106 | 0.9 | 3.5 | 0.00 | 0.00 | 0.00 | 89 | 1018.0 |
| 20260906211750 | 58 | 144 | 1.7 | 3.5 | 0.00 | 0.00 | 0.00 | 89 | 1018.0 |
| 20260906211726 | 58 | 166 | 1.7 | 3.5 | 0.00 | 0.00 | 0.00 | 89 | 1018.0 |
| 20260906211702 | 58 | 147 | 1.7 | 3.5 | 0.00 | 0.00 | 0.00 | 89 | 1018.0 |
| 20260906211632 | 58 | 141 | 2.6 | 3.5 | 0.00 | 0.00 | 0.00 | 89 | 1018.0 |
| 20260906211614 | 58 | 147 | 0.0 | 0.9 | 0.00 | 0.00 | 0.00 | 89 | 1018.0 |
| 20260906211607 | 58 | 200 | 0.0 | 0.9 | 0.00 | 0.00 | 0.00 | 89 | 1018.0 |
| 20260906211558 | 58 | 200 | 0.0 | 0.9 | 0.00 | 0.00 | 0.00 | 89 | 1018.0 |
| 20260906211542 | 58 | 123 | 0.0 | 0.9 | 0.00 | 0.00 | 0.00 | 89 | 1018.0 |
| 20260906211526 | 58 | 127 | 0.0 | 1.7 | 0.00 | 0.00 | 0.00 | 89 | 1018.0 |
| 20260906211518 | 58 | 177 | 0.9 | 1.7 | 0.00 | 0.00 | 0.00 | 89 | 1018.0 |
| 20260906211503 | 58 | 97 | 0.9 | 2.6 | 0.00 | 0.00 | 0.00 | 89 | 1018.0 |
| 20260906211438 | 58 | 97 | 0.9 | 2.6 | 0.00 | 0.00 | 0.00 | 89 | 1018.0 |
| 20260906211422 | 58 | 114 | 0.0 | 2.6 | 0.00 | 0.00 | 0.00 | 89 | 1018.0 |
| 20260906211334 | 58 | 102 | 1.7 | 2.6 | 0.00 | 0.00 | 0.00 | 89 | 1018.0 |
| 20260906211318 | 58 | 182 | 0.9 | 1.7 | 0.00 | 0.00 | 0.00 | 89 | 1018.0 |
| 20260906211302 | 58 | 156 | 0.0 | 0.0 | 0.00 | 0.00 | 0.00 | 89 | 1018.0 |
| 20260906211254 | 58 | 156 | 0.0 | 0.0 | 0.00 | 0.00 | 0.00 | 89 | 1018.0 |
| 20260906211246 | 58 | 98 | 0.0 | 0.0 | 0.00 | 0.00 | 0.00 | 89 | 1018.0 |
| 20260906211238 | 58 | 98 | 0.0 | 0.0 | 0.00 | 0.00 | 0.00 | 88 | 1018.0 |
| 20260906211222 | 58 | 132 | 0.0 | 0.9 | 0.00 | 0.00 | 0.00 | 88 | 1018.0 |
| 20260906211216 | 58 | 115 | 0.0 | 0.9 | 0.00 | 0.00 | 0.00 | 88 | 1018.0 |
| 20260906211150 | 58 | 70 | 0.0 | 0.9 | 0.00 | 0.00 | 0.00 | 88 | 1018.0 |
| 20260906211145 | 58 | 93 | 0.0 | 0.9 | 0.00 | 0.00 | 0.00 | 88 | 1018.0 |
| 20260906211118 | 58 | 94 | 0.0 | 0.9 | 0.00 | 0.00 | 0.00 | 88 | 1018.0 |
| 20260906211105 | 58 | 98 | 0.0 | 0.9 | 0.00 | 0.00 | 0.00 | 88 | 1018.0 |
| 20260906211047 | 58 | 112 | 0.0 | 0.9 | 0.00 | 0.00 | 0.00 | 88 | 1018.0 |
| 20260906211031 | 58 | 120 | 0.9 | 0.9 | 0.00 | 0.00 | 0.00 | 88 | 1018.0 |
| 20260906211019 | 58 | 139 | 0.0 | 0.9 | 0.00 | 0.00 | 0.00 | 88 | 1018.0 |
| 20260906210942 | 58 | 142 | 0.0 | 2.6 | 0.00 | 0.00 | 0.00 | 88 | 1018.0 |
| 20260906210931 | 58 | 80 | 0.0 | 2.6 | 0.00 | 0.00 | 0.00 | 88 | 1018.0 |
| 20260906210902 | 58 | 131 | 0.0 | 2.6 | 0.00 | 0.00 | 0.00 | 88 | 1018.0 |
| 20260906210854 | 58 | 131 | 0.0 | 2.6 | 0.00 | 0.00 | 0.00 | 88 | 1018.0 |
| 20260906210830 | 58 | 179 | 1.7 | 2.6 | 0.00 | 0.00 | 0.00 | 88 | 1018.0 |
| 20260906210814 | 58 | 142 | 0.9 | 1.7 | 0.00 | 0.00 | 0.00 | 88 | 1018.0 |
| 20260906210811 | 58 | 127 | 0.0 | 0.0 | 0.00 | 0.00 | 0.00 | 88 | 1018.0 |
| 20260906210742 | 58 | 127 | 0.0 | 0.0 | 0.00 | 0.00 | 0.00 | 88 | 1018.0 |
| 20260906210726 | 58 | 125 | 0.0 | 0.0 | 0.00 | 0.00 | 0.00 | 88 | 1018.0 |
| 20260906210710 | 58 | 140 | 0.0 | 0.0 | 0.00 | 0.00 | 0.00 | 88 | 1018.0 |
| 20260906210704 | 58 | 148 | 0.0 | 0.0 | 0.00 | 0.00 | 0.00 | 88 | 1018.0 |
| 20260906210639 | 58 | 151 | 0.0 | 0.0 | 0.00 | 0.00 | 0.00 | 88 | 1018.0 |
| 20260906210625 | 58 | 119 | 0.0 | 0.0 | 0.00 | 0.00 | 0.00 | 88 | 1018.0 |
| 20260906210606 | 58 | 140 | 0.0 | 0.0 | 0.00 | 0.00 | 0.00 | 88 | 1018.0 |
| 20260906210550 | 58 | 103 | 0.0 | 0.0 | 0.00 | 0.00 | 0.00 | 88 | 1018.0 |
| 20260906210536 | 58 | 118 | 0.0 | 0.0 | 0.00 | 0.00 | 0.00 | 88 | 1018.0 |
| 20260906210518 | 58 | 64 | 0.0 | 0.0 | 0.00 | 0.00 | 0.00 | 88 | 1018.0 |
| 20260906210502 | 58 | 22 | 0.0 | 0.0 | 0.00 | 0.00 | 0.00 | 88 | 1018.0 |
| 20260906210446 | 58 | 9 | 0.0 | 0.0 | 0.00 | 0.00 | 0.00 | 88 | 1018.0 |
| 20260906210441 | 58 | 313 | 0.0 | 0.0 | 0.00 | 0.00 | 0.00 | 88 | 1018.0 |
| 20260906210424 | 58 | 135 | 0.0 | 0.0 | 0.00 | 0.00 | 0.00 | 88 | 1018.0 |
| 20260906210406 | 58 | 135 | 0.0 | 0.9 | 0.00 | 0.00 | 0.00 | 88 | 1018.0 |
| 20260906210350 | 58 | 125 | 0.0 | 0.9 | 0.00 | 0.00 | 0.00 | 88 | 1018.0 |
| 20260906210337 | 58 | 104 | 0.0 | 0.9 | 0.00 | 0.00 | 0.00 | 88 | 1018.0 |
| 20260906210320 | 58 | 92 | 0.0 | 0.9 | 0.00 | 0.00 | 0.00 | 88 | 1018.0 |
| 20260906210302 | 58 | 144 | 0.0 | 1.7 | 0.00 | 0.00 | 0.00 | 87 | 1018.0 |
| 20260906210257 | 58 | 111 | 0.0 | 1.7 | 0.00 | 0.00 | 0.00 | 87 | 1018.0 |
| 20260906210230 | 58 | 105 | 0.0 | 1.7 | 0.00 | 0.00 | 0.00 | 87 | 1018.0 |
| 20260906210214 | 58 | 90 | 0.9 | 1.7 | 0.00 | 0.00 | 0.00 | 87 | 1018.0 |
| 20260906210206 | 58 | 130 | 0.9 | 1.7 | 0.00 | 0.00 | 0.00 | 87 | 1018.0 |
| 20260906210158 | 58 | 130 | 0.9 | 1.7 | 0.00 | 0.00 | 0.00 | 87 | 1018.0 |
| 20260906210142 | 58 | 106 | 1.7 | 1.7 | 0.00 | 0.00 | 0.00 | 87 | 1018.0 |
| 20260906210110 | 58 | 142 | 1.7 | 3.5 | 0.00 | 0.00 | 0.00 | 87 | 1018.0 |
| 20260906210054 | 58 | 162 | 0.9 | 3.5 | 0.00 | 0.00 | 0.00 | 87 | 1018.0 |
| 20260906210038 | 58 | 183 | 0.9 | 3.5 | 0.00 | 0.00 | 0.00 | 87 | 1018.0 |
| 20260906210022 | 58 | 100 | 0.9 | 3.5 | 0.00 | 0.00 | 0.00 | 87 | 1018.0 |
| 20260906210006 | 58 | 132 | 1.7 | 3.5 | 0.00 | 0.00 | 0.00 | 87 | 1018.0 |
| 20260906205958 | 58 | 153 | 1.7 | 3.5 | 0.00 | 0.00 | 0.00 | 87 | 1018.0 |
| 20260906205942 | 58 | 153 | 1.7 | 3.5 | 0.00 | 0.00 | 0.00 | 86 | 1018.0 |
| 20260906205926 | 58 | 122 | 0.9 | 2.6 | 0.00 | 0.00 | 0.00 | 86 | 1018.0 |
| 20260906205910 | 58 | 141 | 0.9 | 2.6 | 0.00 | 0.00 | 0.00 | 86 | 1018.0 |
| 20260906205902 | 58 | 181 | 0.9 | 2.6 | 0.00 | 0.00 | 0.00 | 86 | 1018.0 |
| 20260906205854 | 58 | 181 | 0.9 | 2.6 | 0.00 | 0.00 | 0.00 | 86 | 1018.0 |
| 20260906205848 | 58 | 84 | 1.7 | 2.6 | 0.00 | 0.00 | 0.00 | 86 | 1018.0 |
| 20260906205824 | 58 | 96 | 0.0 | 1.7 | 0.00 | 0.00 | 0.00 | 86 | 1018.0 |
| 20260906205807 | 58 | 78 | 0.9 | 1.7 | 0.00 | 0.00 | 0.00 | 86 | 1018.0 |
| 20260906205750 | 58 | 128 | 0.9 | 1.7 | 0.00 | 0.00 | 0.00 | 86 | 1018.0 |
| 20260906205742 | 59 | 146 | 0.9 | 1.7 | 0.00 | 0.00 | 0.00 | 86 | 1018.0 |
| 20260906205740 | 59 | 146 | 0.9 | 2.6 | 0.00 | 0.00 | 0.00 | 86 | 1018.0 |
| 20260906205703 | 59 | 143 | 1.7 | 2.6 | 0.00 | 0.00 | 0.00 | 86 | 1018.0 |
| 20260906205646 | 59 | 110 | 0.9 | 2.6 | 0.00 | 0.00 | 0.00 | 86 | 1018.0 |
| 20260906205640 | 59 | 132 | 0.9 | 2.6 | 0.00 | 0.00 | 0.00 | 86 | 1018.0 |
| 20260906205624 | 59 | 137 | 1.7 | 2.6 | 0.00 | 0.00 | 0.00 | 86 | 1018.0 |
| 20260906205606 | 59 | 144 | 1.7 | 6.1 | 0.00 | 0.00 | 0.00 | 86 | 1018.0 |
| 20260906205559 | 59 | 144 | 1.7 | 6.1 | 0.00 | 0.00 | 0.00 | 86 | 1018.0 |
| 20260906205542 | 59 | 190 | 1.7 | 6.1 | 0.00 | 0.00 | 0.00 | 86 | 1018.0 |
| 20260906205520 | 59 | 105 | 1.7 | 6.1 | 0.00 | 0.00 | 0.00 | 85 | 1018.0 |
| 20260906205502 | 59 | 128 | 1.7 | 6.1 | 0.00 | 0.00 | 0.00 | 85 | 1018.0 |
| 20260906205446 | 59 | 109 | 0.9 | 6.1 | 0.00 | 0.00 | 0.00 | 85 | 1018.0 |
| 20260906205440 | 59 | 137 | 1.7 | 6.1 | 0.00 | 0.00 | 0.00 | 85 | 1018.0 |
| 20260906205414 | 59 | 124 | 2.6 | 6.1 | 0.00 | 0.00 | 0.00 | 85 | 1018.0 |
| 20260906205406 | 59 | 161 | 2.6 | 3.5 | 0.00 | 0.00 | 0.00 | 85 | 1018.0 |
| 20260906205358 | 59 | 161 | 2.6 | 3.5 | 0.00 | 0.00 | 0.00 | 85 | 1018.0 |
| 20260906205342 | 59 | 118 | 1.7 | 2.6 | 0.00 | 0.00 | 0.00 | 85 | 1018.0 |
| 20260906205326 | 59 | 142 | 1.7 | 2.6 | 0.00 | 0.00 | 0.00 | 85 | 1018.0 |
| 20260906205310 | 59 | 196 | 1.7 | 2.6 | 0.00 | 0.00 | 0.00 | 85 | 1018.0 |
| 20260906205306 | 59 | 124 | 1.7 | 2.6 | 0.00 | 0.00 | 0.00 | 85 | 1018.0 |
| 20260906205254 | 59 | 124 | 1.7 | 2.6 | 0.00 | 0.00 | 0.00 | 85 | 1018.0 |
| 20260906205239 | 59 | 142 | 0.9 | 2.6 | 0.00 | 0.00 | 0.00 | 85 | 1018.0 |
| 20260906205230 | 59 | 144 | 0.9 | 5.2 | 0.00 | 0.00 | 0.00 | 85 | 1018.0 |
| 20260906205222 | 60 | 144 | 0.9 | 5.2 | 0.00 | 0.00 | 0.00 | 84 | 1018.0 |
| 20260906205206 | 60 | 136 | 1.7 | 5.2 | 0.00 | 0.00 | 0.00 | 84 | 1018.0 |
| 20260906205150 | 60 | 172 | 1.7 | 5.2 | 0.00 | 0.00 | 0.00 | 84 | 1018.0 |
| 20260906205134 | 60 | 116 | 1.7 | 5.2 | 0.00 | 0.00 | 0.00 | 84 | 1018.0 |
| 20260906205118 | 60 | 54 | 1.7 | 5.2 | 0.00 | 0.00 | 0.00 | 84 | 1018.0 |
| 20260906205112 | 60 | 154 | 3.5 | 5.2 | 0.00 | 0.00 | 0.00 | 84 | 1018.0 |
| 20260906205054 | 60 | 154 | 3.5 | 6.1 | 0.00 | 0.00 | 0.00 | 84 | 1018.0 |
| 20260906205022 | 60 | 121 | 0.9 | 6.1 | 0.00 | 0.00 | 0.00 | 84 | 1018.0 |
| 20260906205006 | 60 | 134 | 1.7 | 6.1 | 0.00 | 0.00 | 0.00 | 83 | 1018.0 |
| 20260906204950 | 60 | 96 | 1.7 | 6.1 | 0.00 | 0.00 | 0.00 | 83 | 1018.0 |
| 20260906204943 | 60 | 131 | 1.7 | 6.1 | 0.00 | 0.00 | 0.00 | 83 | 1018.0 |
| 20260906204934 | 60 | 131 | 1.7 | 7.0 | 0.00 | 0.00 | 0.00 | 83 | 1018.0 |
| 20260906204919 | 60 | 136 | 3.5 | 7.0 | 0.00 | 0.00 | 0.00 | 83 | 1018.0 |
| 20260906204902 | 60 | 129 | 4.3 | 7.0 | 0.00 | 0.00 | 0.00 | 83 | 1018.0 |
| 20260906204849 | 60 | 136 | 1.7 | 7.0 | 0.00 | 0.00 | 0.00 | 83 | 1018.0 |
| 20260906204830 | 60 | 80 | 1.7 | 7.0 | 0.00 | 0.00 | 0.00 | 83 | 1018.0 |
| 20260906204814 | 60 | 112 | 1.7 | 7.0 | 0.00 | 0.00 | 0.00 | 83 | 1018.0 |
| 20260906204806 | 60 | 92 | 3.5 | 7.0 | 0.00 | 0.00 | 0.00 | 83 | 1018.0 |
| 20260906204758 | 60 | 92 | 3.5 | 7.0 | 0.00 | 0.00 | 0.00 | 83 | 1018.0 |
| 20260906204742 | 60 | 106 | 3.5 | 3.5 | 0.00 | 0.00 | 0.00 | 83 | 1018.0 |
| 20260906204730 | 60 | 98 | 1.7 | 2.6 | 0.00 | 0.00 | 0.00 | 83 | 1018.0 |
| 20260906204710 | 60 | 93 | 1.7 | 2.6 | 0.00 | 0.00 | 0.00 | 83 | 1018.0 |
| 20260906204702 | 60 | 89 | 1.7 | 2.6 | 0.00 | 0.00 | 0.00 | 82 | 1018.0 |
| 20260906204656 | 60 | 89 | 1.7 | 2.6 | 0.00 | 0.00 | 0.00 | 82 | 1018.0 |
| 20260906204632 | 60 | 153 | 1.7 | 2.6 | 0.00 | 0.00 | 0.00 | 82 | 1018.0 |
| 20260906204614 | 60 | 103 | 0.9 | 2.6 | 0.00 | 0.00 | 0.00 | 82 | 1018.0 |
| 20260906204606 | 60 | 108 | 1.7 | 2.6 | 0.00 | 0.00 | 0.00 | 82 | 1018.0 |
| 20260906204558 | 60 | 108 | 1.7 | 2.6 | 0.00 | 0.00 | 0.00 | 82 | 1018.0 |
| 20260906204545 | 60 | 101 | 0.0 | 0.0 | 0.00 | 0.00 | 0.00 | 82 | 1018.0 |
| 20260906204526 | 60 | 94 | 0.0 | 0.0 | 0.00 | 0.00 | 0.00 | 82 | 1018.0 |
| 20260906204510 | 60 | 133 | 0.0 | 0.0 | 0.00 | 0.00 | 0.00 | 82 | 1018.0 |
| 20260906204502 | 60 | 78 | 0.0 | 0.9 | 0.00 | 0.00 | 0.00 | 82 | 1018.0 |
| 20260906204454 | 60 | 78 | 0.0 | 0.9 | 0.00 | 0.00 | 0.00 | 83 | 1018.0 |
| 20260906204442 | 60 | 137 | 0.0 | 0.9 | 0.00 | 0.00 | 0.00 | 83 | 1018.0 |
| 20260906204422 | 60 | 127 | 0.0 | 0.9 | 0.00 | 0.00 | 0.00 | 83 | 1018.0 |
| 20260906204416 | 60 | 218 | 0.0 | 0.9 | 0.00 | 0.00 | 0.00 | 83 | 1018.0 |
| 20260906204350 | 60 | 76 | 0.0 | 0.9 | 0.00 | 0.00 | 0.00 | 83 | 1018.0 |
| 20260906204344 | 60 | 123 | 0.0 | 0.9 | 0.00 | 0.00 | 0.00 | 83 | 1018.0 |
| 20260906204318 | 60 | 118 | 0.9 | 1.7 | 0.00 | 0.00 | 0.00 | 83 | 1018.0 |
| 20260906204310 | 60 | 208 | 0.0 | 1.7 | 0.00 | 0.00 | 0.00 | 83 | 1018.0 |
| 20260906204302 | 60 | 208 | 0.0 | 2.6 | 0.00 | 0.00 | 0.00 | 83 | 1018.0 |
| 20260906204247 | 60 | 79 | 0.0 | 2.6 | 0.00 | 0.00 | 0.00 | 83 | 1018.0 |
| 20260906204233 | 60 | 180 | 0.9 | 2.6 | 0.00 | 0.00 | 0.00 | 83 | 1018.0 |
| 20260906204208 | 60 | 143 | 0.9 | 2.6 | 0.00 | 0.00 | 0.00 | 83 | 1018.0 |
| 20260906204150 | 60 | 128 | 1.7 | 2.6 | 0.00 | 0.00 | 0.00 | 83 | 1018.0 |
| 20260906204134 | 60 | 160 | 0.9 | 2.6 | 0.00 | 0.00 | 0.00 | 83 | 1018.0 |
| 20260906204118 | 60 | 148 | 1.7 | 2.6 | 0.00 | 0.00 | 0.00 | 83 | 1018.0 |
| 20260906204110 | 60 | 167 | 0.0 | 0.9 | 0.00 | 0.00 | 0.00 | 83 | 1018.0 |
| 20260906204102 | 60 | 167 | 0.0 | 1.7 | 0.00 | 0.00 | 0.00 | 83 | 1018.0 |
| 20260906204046 | 60 | 141 | 0.0 | 1.7 | 0.00 | 0.00 | 0.00 | 83 | 1018.0 |
| 20260906204030 | 60 | 94 | 0.0 | 1.7 | 0.00 | 0.00 | 0.00 | 83 | 1018.0 |
| 20260906204014 | 60 | 94 | 0.0 | 1.7 | 0.00 | 0.00 | 0.00 | 83 | 1018.0 |
| 20260906204006 | 60 | 45 | 0.0 | 1.7 | 0.00 | 0.00 | 0.00 | 83 | 1018.0 |
| 20260906203958 | 60 | 45 | 0.0 | 1.7 | 0.00 | 0.00 | 0.00 | 83 | 1018.0 |
| 20260906203926 | 60 | 155 | 0.9 | 1.7 | 0.00 | 0.00 | 0.00 | 83 | 1018.0 |
| 20260906203910 | 60 | 124 | 0.0 | 0.9 | 0.00 | 0.00 | 0.00 | 83 | 1018.0 |
| 20260906203902 | 60 | 115 | 0.0 | 0.9 | 0.00 | 0.00 | 0.00 | 83 | 1018.0 |
| 20260906203854 | 60 | 115 | 0.0 | 0.9 | 0.00 | 0.00 | 0.00 | 83 | 1018.0 |
| 20260906203839 | 60 | 105 | 0.0 | 0.9 | 0.00 | 0.00 | 0.00 | 83 | 1018.0 |
| 20260906203822 | 60 | 68 | 0.0 | 0.9 | 0.00 | 0.00 | 0.00 | 83 | 1018.0 |
| 20260906203806 | 60 | 124 | 0.9 | 0.9 | 0.00 | 0.00 | 0.00 | 83 | 1018.0 |
| 20260906203800 | 60 | 115 | 0.9 | 0.9 | 0.00 | 0.00 | 0.00 | 83 | 1018.0 |
| 20260906203750 | 60 | 115 | 0.9 | 0.9 | 0.00 | 0.00 | 0.00 | 83 | 1018.0 |
| 20260906203736 | 60 | 125 | 0.0 | 0.9 | 0.00 | 0.00 | 0.00 | 83 | 1018.0 |
| 20260906203710 | 60 | 120 | 0.0 | 0.9 | 0.00 | 0.00 | 0.00 | 83 | 1018.0 |
| 20260906203702 | 60 | 97 | 0.0 | 1.7 | 0.00 | 0.00 | 0.00 | 83 | 1018.0 |
| 20260906203654 | 60 | 97 | 0.0 | 1.7 | 0.00 | 0.00 | 0.00 | 83 | 1018.0 |
| 20260906203640 | 60 | 112 | 0.0 | 1.7 | 0.00 | 0.00 | 0.00 | 83 | 1018.0 |
| 20260906203622 | 60 | 113 | 0.0 | 1.7 | 0.00 | 0.00 | 0.00 | 83 | 1018.0 |
| 20260906203606 | 60 | 103 | 0.0 | 1.7 | 0.00 | 0.00 | 0.00 | 83 | 1018.0 |
| 20260906203550 | 60 | 105 | 0.0 | 1.7 | 0.00 | 0.00 | 0.00 | 83 | 1018.0 |
| 20260906203538 | 60 | 116 | 0.9 | 1.7 | 0.00 | 0.00 | 0.00 | 83 | 1018.0 |
| 20260906203502 | 60 | 101 | 1.7 | 1.7 | 0.00 | 0.00 | 0.00 | 83 | 1018.0 |
| 20260906203456 | 60 | 91 | 0.9 | 0.9 | 0.00 | 0.00 | 0.00 | 83 | 1018.0 |
| 20260906203430 | 60 | 119 | 0.0 | 0.9 | 0.00 | 0.00 | 0.00 | 83 | 1018.0 |
| 20260906203416 | 60 | 81 | 0.0 | 0.0 | 0.00 | 0.00 | 0.00 | 83 | 1018.0 |
| 20260906203403 | 60 | 127 | 0.0 | 0.0 | 0.00 | 0.00 | 0.00 | 83 | 1018.0 |
| 20260906203328 | 60 | 128 | 0.0 | 0.0 | 0.00 | 0.00 | 0.00 | 83 | 1018.0 |
| 20260906203313 | 60 | 154 | 0.0 | 0.0 | 0.00 | 0.00 | 0.00 | 83 | 1018.0 |
| 20260906203246 | 60 | 112 | 0.0 | 0.0 | 0.00 | 0.00 | 0.00 | 83 | 1018.0 |
| 20260906203240 | 60 | 148 | 0.0 | 0.0 | 0.00 | 0.00 | 0.00 | 83 | 1018.0 |
| 20260906203213 | 60 | 162 | 0.0 | 0.0 | 0.00 | 0.00 | 0.00 | 83 | 1018.0 |
| 20260906203206 | 60 | 124 | 0.0 | 0.0 | 0.00 | 0.00 | 0.00 | 82 | 1018.0 |
| 20260906203158 | 60 | 124 | 0.0 | 0.0 | 0.00 | 0.00 | 0.00 | 82 | 1018.0 |
| 20260906203144 | 60 | 170 | 0.0 | 0.0 | 0.00 | 0.00 | 0.00 | 82 | 1018.0 |
| 20260906203126 | 60 | 77 | 0.0 | 0.9 | 0.00 | 0.00 | 0.00 | 82 | 1018.0 |
| 20260906203110 | 60 | 116 | 0.0 | 0.9 | 0.00 | 0.00 | 0.00 | 82 | 1018.0 |
| 20260906203102 | 59 | 113 | 0.0 | 2.6 | 0.00 | 0.00 | 0.00 | 82 | 1018.0 |
| 20260906203054 | 59 | 113 | 0.0 | 2.6 | 0.00 | 0.00 | 0.00 | 82 | 1018.0 |
| 20260906203051 | 59 | 124 | 0.0 | 2.6 | 0.00 | 0.00 | 0.00 | 82 | 1018.0 |
| 20260906203021 | 59 | 113 | 0.0 | 2.6 | 0.00 | 0.00 | 0.00 | 82 | 1018.0 |
| 20260906203005 | 59 | 152 | 0.9 | 2.6 | 0.00 | 0.00 | 0.00 | 82 | 1018.0 |
| 20260906202950 | 60 | 156 | 0.0 | 2.6 | 0.00 | 0.00 | 0.00 | 82 | 1018.0 |
| 20260906202934 | 60 | 85 | 1.7 | 2.6 | 0.00 | 0.00 | 0.00 | 82 | 1018.0 |
| 20260906202918 | 60 | 80 | 0.0 | 1.7 | 0.00 | 0.00 | 0.00 | 82 | 1018.0 |
| 20260906202902 | 60 | 103 | 0.9 | 1.7 | 0.00 | 0.00 | 0.00 | 82 | 1018.0 |
| 20260906202839 | 59 | 141 | 0.9 | 1.7 | 0.00 | 0.00 | 0.00 | 83 | 1018.0 |
| 20260906202822 | 59 | 138 | 1.7 | 1.7 | 0.00 | 0.00 | 0.00 | 83 | 1018.0 |
| 20260906202806 | 59 | 137 | 0.0 | 0.0 | 0.00 | 0.00 | 0.00 | 83 | 1018.0 |
| 20260906202753 | 59 | 122 | 0.0 | 0.0 | 0.00 | 0.00 | 0.00 | 83 | 1018.0 |
| 20260906202736 | 59 | 141 | 0.0 | 0.0 | 0.00 | 0.00 | 0.00 | 83 | 1018.0 |
| 20260906202702 | 59 | 134 | 0.0 | 0.0 | 0.00 | 0.00 | 0.00 | 83 | 1018.0 |
| 20260906202646 | 59 | 153 | 0.0 | 0.0 | 0.00 | 0.00 | 0.00 | 83 | 1018.0 |
| 20260906202630 | 59 | 136 | 0.0 | 0.0 | 0.00 | 0.00 | 0.00 | 83 | 1018.0 |
| 20260906202614 | 59 | 105 | 0.0 | 0.0 | 0.00 | 0.00 | 0.00 | 83 | 1018.0 |
| 20260906202606 | 59 | 147 | 0.0 | 0.0 | 0.00 | 0.00 | 0.00 | 83 | 1018.0 |
| 20260906202600 | 59 | 147 | 0.0 | 0.0 | 0.00 | 0.00 | 0.00 | 83 | 1018.0 |
| 20260906202542 | 59 | 131 | 0.0 | 0.0 | 0.00 | 0.00 | 0.00 | 83 | 1018.0 |
| 20260906202510 | 59 | 126 | 0.0 | 0.0 | 0.00 | 0.00 | 0.00 | 83 | 1018.0 |
| 20260906202504 | 59 | 152 | 0.0 | 0.0 | 0.00 | 0.00 | 0.00 | 83 | 1018.0 |
| 20260906202446 | 59 | 119 | 0.0 | 0.0 | 0.00 | 0.00 | 0.00 | 83 | 1018.0 |
| 20260906202440 | 59 | 119 | 0.0 | 0.0 | 0.00 | 0.00 | 0.00 | 82 | 1018.0 |
| 20260906202415 | 59 | 104 | 0.0 | 0.0 | 0.00 | 0.00 | 0.00 | 82 | 1018.0 |
| 20260906202406 | 59 | 135 | 0.0 | 0.0 | 0.00 | 0.00 | 0.00 | 82 | 1018.0 |
| 20260906202344 | 59 | 135 | 0.0 | 0.0 | 0.00 | 0.00 | 0.00 | 82 | 1018.0 |
| 20260906202326 | 59 | 135 | 0.0 | 0.9 | 0.00 | 0.00 | 0.00 | 82 | 1018.0 |
| 20260906202310 | 59 | 142 | 0.0 | 0.9 | 0.00 | 0.00 | 0.00 | 82 | 1018.0 |
| 20260906202306 | 59 | 142 | 0.0 | 1.7 | 0.00 | 0.00 | 0.00 | 82 | 1018.0 |
| 20260906202254 | 59 | 142 | 0.0 | 1.7 | 0.00 | 0.00 | 0.00 | 82 | 1018.0 |
| 20260906202238 | 59 | 78 | 0.0 | 1.7 | 0.00 | 0.00 | 0.00 | 82 | 1018.0 |
| 20260906202222 | 59 | 99 | 0.0 | 1.7 | 0.00 | 0.00 | 0.00 | 82 | 1018.0 |
| 20260906202206 | 59 | 90 | 0.0 | 1.7 | 0.00 | 0.00 | 0.00 | 82 | 1018.0 |
| 20260906202200 | 59 | 118 | 0.0 | 1.7 | 0.00 | 0.00 | 0.00 | 82 | 1018.0 |
| 20260906202134 | 59 | 32 | 0.9 | 1.7 | 0.00 | 0.00 | 0.00 | 82 | 1018.0 |
| 20260906202117 | 59 | 177 | 0.0 | 0.9 | 0.00 | 0.00 | 0.00 | 82 | 1018.0 |
| 20260906202101 | 59 | 198 | 0.0 | 0.9 | 0.00 | 0.00 | 0.00 | 82 | 1018.0 |
| 20260906202046 | 59 | 193 | 0.0 | 0.9 | 0.00 | 0.00 | 0.00 | 82 | 1018.0 |
| 20260906202029 | 59 | 197 | 0.0 | 0.9 | 0.00 | 0.00 | 0.00 | 82 | 1018.0 |
| 20260906202006 | 59 | 100 | 0.0 | 0.9 | 0.00 | 0.00 | 0.00 | 82 | 1018.0 |
| 20260906201950 | 59 | 92 | 0.9 | 0.9 | 0.00 | 0.00 | 0.00 | 82 | 1018.0 |
| 20260906201942 | 59 | 85 | 0.0 | 0.9 | 0.00 | 0.00 | 0.00 | 82 | 1018.0 |
| 20260906201934 | 59 | 85 | 0.0 | 1.7 | 0.00 | 0.00 | 0.00 | 82 | 1018.0 |
| 20260906201920 | 59 | 84 | 0.0 | 1.7 | 0.00 | 0.00 | 0.00 | 82 | 1018.0 |
| 20260906201902 | 59 | 78 | 0.0 | 1.7 | 0.00 | 0.00 | 0.00 | 82 | 1018.0 |
| 20260906201848 | 59 | 72 | 0.0 | 1.7 | 0.00 | 0.00 | 0.00 | 82 | 1018.0 |
| 20260906201830 | 59 | 72 | 0.0 | 1.7 | 0.00 | 0.00 | 0.00 | 82 | 1018.0 |
| 20260906201814 | 59 | 141 | 0.0 | 1.7 | 0.00 | 0.00 | 0.00 | 82 | 1018.0 |
| 20260906201805 | 59 | 125 | 1.7 | 1.7 | 0.00 | 0.00 | 0.00 | 82 | 1018.0 |
| 20260906201758 | 59 | 125 | 1.7 | 1.7 | 0.00 | 0.00 | 0.00 | 82 | 1018.0 |
| 20260906201752 | 59 | 93 | 0.9 | 0.9 | 0.00 | 0.00 | 0.00 | 82 | 1018.0 |
| 20260906201727 | 59 | 122 | 0.9 | 0.9 | 0.00 | 0.00 | 0.00 | 82 | 1018.0 |
| 20260906201710 | 59 | 95 | 0.9 | 0.9 | 0.00 | 0.00 | 0.00 | 82 | 1018.0 |
| 20260906201705 | 59 | 114 | 0.9 | 0.9 | 0.00 | 0.00 | 0.00 | 82 | 1018.0 |
| 20260906201638 | 59 | 103 | 0.9 | 0.9 | 0.00 | 0.00 | 0.00 | 82 | 1018.0 |
| 20260906201622 | 59 | 87 | 0.0 | 0.9 | 0.00 | 0.00 | 0.00 | 82 | 1018.0 |
| 20260906201616 | 59 | 49 | 0.0 | 0.9 | 0.00 | 0.00 | 0.00 | 82 | 1018.0 |
| 20260906201525 | 59 | 105 | 0.0 | 0.9 | 0.00 | 0.00 | 0.00 | 82 | 1018.0 |
| 20260906201516 | 59 | 104 | 0.9 | 0.9 | 0.00 | 0.00 | 0.00 | 82 | 1018.0 |
| 20260906201437 | 59 | 94 | 0.0 | 2.6 | 0.00 | 0.00 | 0.00 | 82 | 1018.0 |
| 20260906201421 | 59 | 94 | 0.0 | 3.5 | 0.00 | 0.00 | 0.00 | 82 | 1018.0 |
| 20260906201416 | 59 | 91 | 0.9 | 3.5 | 0.00 | 0.00 | 0.00 | 82 | 1018.0 |
| 20260906201350 | 59 | 148 | 0.9 | 3.5 | 0.00 | 0.00 | 0.00 | 82 | 1018.0 |
| 20260906201344 | 59 | 94 | 1.7 | 3.5 | 0.00 | 0.00 | 0.00 | 82 | 1018.0 |
| 20260906201317 | 59 | 150 | 1.7 | 3.5 | 0.00 | 0.00 | 0.00 | 82 | 1018.0 |
| 20260906201301 | 59 | 161 | 0.9 | 3.5 | 0.00 | 0.00 | 0.00 | 82 | 1018.0 |
| 20260906201247 | 59 | 145 | 2.6 | 3.5 | 0.00 | 0.00 | 0.00 | 82 | 1018.0 |
| 20260906201240 | 59 | 137 | 1.7 | 2.6 | 0.00 | 0.00 | 0.00 | 82 | 1018.0 |
| 20260906201213 | 59 | 147 | 1.7 | 2.6 | 0.00 | 0.00 | 0.00 | 82 | 1018.0 |
| 20260906201206 | 59 | 120 | 0.0 | 2.6 | 0.00 | 0.00 | 0.00 | 82 | 1018.0 |
| 20260906201157 | 59 | 120 | 0.0 | 2.6 | 0.00 | 0.00 | 0.00 | 82 | 1018.0 |
| 20260906201142 | 60 | 133 | 0.9 | 2.6 | 0.00 | 0.00 | 0.00 | 82 | 1018.0 |
| 20260906201128 | 60 | 81 | 1.7 | 2.6 | 0.00 | 0.00 | 0.00 | 82 | 1018.0 |
| 20260906201112 | 60 | 130 | 1.7 | 2.6 | 0.00 | 0.00 | 0.00 | 82 | 1018.0 |
| 20260906201053 | 60 | 137 | 1.7 | 2.6 | 0.00 | 0.00 | 0.00 | 82 | 1018.0 |
| 20260906201046 | 59 | 137 | 1.7 | 2.6 | 0.00 | 0.00 | 0.00 | 82 | 1018.0 |
| 20260906201030 | 59 | 178 | 0.9 | 2.6 | 0.00 | 0.00 | 0.00 | 82 | 1018.0 |
| 20260906201016 | 59 | 258 | 0.0 | 0.9 | 0.00 | 0.00 | 0.00 | 82 | 1018.0 |
| 20260906200958 | 59 | 171 | 0.9 | 0.9 | 0.00 | 0.00 | 0.00 | 82 | 1018.0 |
| 20260906200950 | 59 | 131 | 0.0 | 0.0 | 0.00 | 0.00 | 0.00 | 82 | 1018.0 |
| 20260906200941 | 59 | 131 | 0.0 | 0.0 | 0.00 | 0.00 | 0.00 | 81 | 1018.0 |
| 20260906200926 | 59 | 104 | 0.0 | 0.0 | 0.00 | 0.00 | 0.00 | 81 | 1018.0 |
| 20260906200909 | 59 | 92 | 0.0 | 0.0 | 0.00 | 0.00 | 0.00 | 81 | 1018.0 |
| 20260906200901 | 59 | 41 | 0.0 | 0.9 | 0.00 | 0.00 | 0.00 | 81 | 1018.0 |
| 20260906200854 | 59 | 41 | 0.0 | 0.9 | 0.00 | 0.00 | 0.00 | 81 | 1018.0 |
| 20260906200837 | 59 | 322 | 0.0 | 0.9 | 0.00 | 0.00 | 0.00 | 81 | 1018.0 |
| 20260906200821 | 59 | 322 | 0.0 | 0.9 | 0.00 | 0.00 | 0.00 | 81 | 1018.0 |
| 20260906200806 | 59 | 337 | 0.0 | 0.9 | 0.00 | 0.00 | 0.00 | 81 | 1018.0 |
| 20260906200751 | 59 | 337 | 0.0 | 0.9 | 0.00 | 0.00 | 0.00 | 81 | 1018.0 |
| 20260906200733 | 59 | 329 | 0.0 | 0.9 | 0.00 | 0.00 | 0.00 | 81 | 1018.0 |
| 20260906200717 | 59 | 258 | 0.0 | 0.9 | 0.00 | 0.00 | 0.00 | 81 | 1018.0 |
| 20260906200704 | 59 | 258 | 0.9 | 0.9 | 0.00 | 0.00 | 0.00 | 81 | 1018.0 |
| 20260906200637 | 59 | 175 | 0.0 | 0.9 | 0.00 | 0.00 | 0.00 | 81 | 1018.0 |
| 20260906200622 | 59 | 142 | 0.0 | 0.9 | 0.00 | 0.00 | 0.00 | 81 | 1018.0 |
| 20260906200615 | 59 | 156 | 0.0 | 0.9 | 0.00 | 0.00 | 0.00 | 81 | 1018.0 |
| 20260906200605 | 59 | 156 | 0.0 | 1.7 | 0.00 | 0.00 | 0.00 | 81 | 1018.0 |
| 20260906200549 | 59 | 141 | 0.0 | 1.7 | 0.00 | 0.00 | 0.00 | 81 | 1018.0 |
| 20260906200518 | 59 | 131 | 0.0 | 1.7 | 0.00 | 0.00 | 0.00 | 81 | 1018.0 |
| 20260906200512 | 59 | 131 | 0.0 | 1.7 | 0.00 | 0.00 | 0.00 | 81 | 1018.0 |
| 20260906200446 | 59 | 131 | 0.0 | 1.7 | 0.00 | 0.00 | 0.00 | 81 | 1018.0 |
| 20260906200440 | 59 | 135 | 0.0 | 1.7 | 0.00 | 0.00 | 0.00 | 81 | 1018.0 |
| 20260906200413 | 59 | 151 | 0.9 | 1.7 | 0.00 | 0.00 | 0.00 | 81 | 1018.0 |
| 20260906200407 | 59 | 240 | 0.9 | 1.7 | 0.00 | 0.00 | 0.00 | 81 | 1018.0 |
| 20260906200359 | 59 | 240 | 0.9 | 1.7 | 0.00 | 0.00 | 0.00 | 81 | 1018.0 |
| 20260906200344 | 59 | 145 | 0.0 | 1.7 | 0.00 | 0.00 | 0.00 | 81 | 1018.0 |
| 20260906200325 | 59 | 185 | 0.9 | 1.7 | 0.00 | 0.00 | 0.00 | 81 | 1018.0 |
| 20260906200310 | 59 | 91 | 0.9 | 1.7 | 0.00 | 0.00 | 0.00 | 81 | 1018.0 |
| 20260906200301 | 59 | 135 | 0.9 | 1.7 | 0.00 | 0.00 | 0.00 | 81 | 1018.0 |
| 20260906200253 | 59 | 135 | 0.9 | 1.7 | 0.00 | 0.00 | 0.00 | 81 | 1018.0 |
| 20260906200229 | 59 | 103 | 0.9 | 0.9 | 0.00 | 0.00 | 0.00 | 81 | 1018.0 |
| 20260906200216 | 59 | 139 | 0.0 | 0.9 | 0.00 | 0.00 | 0.00 | 81 | 1018.0 |
| 20260906200158 | 59 | 227 | 0.9 | 0.9 | 0.00 | 0.00 | 0.00 | 81 | 1018.0 |
| 20260906200142 | 59 | 189 | 0.0 | 0.9 | 0.00 | 0.00 | 0.00 | 81 | 1018.0 |
| 20260906200128 | 59 | 125 | 0.0 | 0.9 | 0.00 | 0.00 | 0.00 | 81 | 1018.0 |
| 20260906200112 | 59 | 221 | 0.0 | 0.9 | 0.00 | 0.00 | 0.00 | 81 | 1018.0 |
| 20260906200054 | 59 | 222 | 0.0 | 0.9 | 0.00 | 0.00 | 0.00 | 81 | 1018.0 |
| 20260906200038 | 59 | 221 | 0.0 | 0.9 | 0.00 | 0.00 | 0.00 | 81 | 1018.0 |
| 20260906200022 | 59 | 222 | 0.0 | 0.9 | 0.00 | 0.00 | 0.00 | 81 | 1018.0 |
| 20260906200006 | 59 | 223 | 0.0 | 0.9 | 0.00 | 0.00 | 0.00 | 81 | 1018.0 |
| 20260906195949 | 59 | 165 | 0.0 | 0.9 | 0.00 | 0.00 | 0.00 | 81 | 1018.0 |
| 20260906195943 | 59 | 151 | 0.0 | 0.9 | 0.00 | 0.00 | 0.00 | 81 | 1018.0 |
| 20260906195919 | 59 | 92 | 0.0 | 2.6 | 0.00 | 0.00 | 0.00 | 81 | 1018.0 |
| 20260906195902 | 59 | 100 | 0.0 | 2.6 | 0.00 | 0.00 | 0.00 | 81 | 1018.0 |
| 20260906195846 | 59 | 147 | 0.0 | 2.6 | 0.00 | 0.00 | 0.00 | 81 | 1018.0 |
| 20260906195830 | 59 | 127 | 0.0 | 2.6 | 0.00 | 0.00 | 0.00 | 81 | 1018.0 |
| 20260906195813 | 59 | 141 | 0.0 | 2.6 | 0.00 | 0.00 | 0.00 | 81 | 1018.0 |
| 20260906195805 | 59 | 126 | 1.7 | 2.6 | 0.00 | 0.00 | 0.00 | 81 | 1018.0 |
| 20260906195749 | 59 | 126 | 1.7 | 2.6 | 0.00 | 0.00 | 0.00 | 81 | 1018.0 |
| 20260906195733 | 59 | 141 | 1.7 | 2.6 | 0.00 | 0.00 | 0.00 | 81 | 1018.0 |
| 20260906195701 | 59 | 148 | 1.7 | 2.6 | 0.00 | 0.00 | 0.00 | 81 | 1018.0 |
| 20260906195645 | 60 | 126 | 0.9 | 2.6 | 0.00 | 0.00 | 0.00 | 81 | 1018.0 |
| 20260906195637 | 60 | 151 | 0.9 | 2.6 | 0.00 | 0.00 | 0.00 | 81 | 1018.0 |
| 20260906195629 | 60 | 151 | 0.9 | 3.5 | 0.00 | 0.00 | 0.00 | 81 | 1018.0 |
| 20260906195613 | 60 | 133 | 1.7 | 3.5 | 0.00 | 0.00 | 0.00 | 81 | 1018.0 |
| 20260906195606 | 60 | 102 | 1.7 | 5.2 | 0.00 | 0.00 | 0.00 | 81 | 1018.0 |
| 20260906195557 | 60 | 102 | 1.7 | 5.2 | 0.00 | 0.00 | 0.00 | 81 | 1018.0 |
| 20260906195545 | 60 | 155 | 1.7 | 5.2 | 0.00 | 0.00 | 0.00 | 80 | 1018.0 |
| 20260906195526 | 60 | 134 | 0.9 | 5.2 | 0.00 | 0.00 | 0.00 | 80 | 1018.0 |
| 20260906195520 | 60 | 157 | 2.6 | 5.2 | 0.00 | 0.00 | 0.00 | 80 | 1018.0 |
| 20260906195502 | 60 | 176 | 1.7 | 5.2 | 0.00 | 0.00 | 0.00 | 80 | 1019.0 |
| 20260906195457 | 60 | 176 | 1.7 | 5.2 | 0.00 | 0.00 | 0.00 | 80 | 1019.0 |
| 20260906195440 | 60 | 115 | 0.9 | 5.2 | 0.00 | 0.00 | 0.00 | 80 | 1019.0 |
| 20260906195422 | 60 | 150 | 3.5 | 5.2 | 0.00 | 0.00 | 0.00 | 80 | 1019.0 |
| 20260906195414 | 60 | 146 | 2.6 | 3.5 | 0.00 | 0.00 | 0.00 | 80 | 1019.0 |
| 20260906195406 | 60 | 146 | 2.6 | 3.5 | 0.00 | 0.00 | 0.00 | 80 | 1018.0 |
| 20260906195342 | 60 | 147 | 2.6 | 3.5 | 0.00 | 0.00 | 0.00 | 80 | 1018.0 |
| 20260906195337 | 60 | 139 | 2.6 | 3.5 | 0.00 | 0.00 | 0.00 | 80 | 1018.0 |
| 20260906195320 | 60 | 125 | 0.9 | 3.5 | 0.00 | 0.00 | 0.00 | 80 | 1018.0 |
| 20260906195306 | 60 | 119 | 1.7 | 3.5 | 0.00 | 0.00 | 0.00 | 80 | 1018.0 |
| 20260906195254 | 60 | 119 | 1.7 | 3.5 | 0.00 | 0.00 | 0.00 | 80 | 1018.0 |
| 20260906195238 | 60 | 92 | 0.0 | 3.5 | 0.00 | 0.00 | 0.00 | 80 | 1018.0 |
| 20260906195222 | 60 | 81 | 1.7 | 3.5 | 0.00 | 0.00 | 0.00 | 80 | 1018.0 |
| 20260906195206 | 60 | 130 | 2.6 | 3.5 | 0.00 | 0.00 | 0.00 | 80 | 1018.0 |
| 20260906195149 | 60 | 144 | 1.7 | 3.5 | 0.00 | 0.00 | 0.00 | 80 | 1018.0 |
| 20260906195134 | 60 | 110 | 1.7 | 3.5 | 0.00 | 0.00 | 0.00 | 80 | 1018.0 |
| 20260906195119 | 60 | 175 | 0.9 | 3.5 | 0.00 | 0.00 | 0.00 | 80 | 1018.0 |
| 20260906195107 | 60 | 149 | 1.7 | 3.5 | 0.00 | 0.00 | 0.00 | 80 | 1018.0 |
| 20260906195043 | 60 | 131 | 2.6 | 3.5 | 0.00 | 0.00 | 0.00 | 80 | 1018.0 |
| 20260906195014 | 60 | 98 | 2.6 | 2.6 | 0.00 | 0.00 | 0.00 | 80 | 1018.0 |
| 20260906195006 | 60 | 109 | 1.7 | 2.6 | 0.00 | 0.00 | 0.00 | 80 | 1018.0 |
| 20260906194958 | 60 | 109 | 1.7 | 2.6 | 0.00 | 0.00 | 0.00 | 80 | 1018.0 |
| 20260906194951 | 60 | 139 | 1.7 | 1.7 | 0.00 | 0.00 | 0.00 | 80 | 1018.0 |
| 20260906194911 | 60 | 154 | 0.0 | 0.9 | 0.00 | 0.00 | 0.00 | 80 | 1018.0 |
| 20260906194902 | 60 | 154 | 0.0 | 0.9 | 0.00 | 0.00 | 0.00 | 80 | 1019.0 |
| 20260906194846 | 60 | 183 | 0.0 | 0.9 | 0.00 | 0.00 | 0.00 | 80 | 1019.0 |
| 20260906194838 | 60 | 105 | 0.0 | 0.9 | 0.00 | 0.00 | 0.00 | 80 | 1019.0 |
| 20260906194830 | 60 | 105 | 0.0 | 1.7 | 0.00 | 0.00 | 0.00 | 80 | 1019.0 |
| 20260906194814 | 60 | 107 | 0.9 | 1.7 | 0.00 | 0.00 | 0.00 | 80 | 1019.0 |
| 20260906194806 | 60 | 105 | 0.9 | 1.7 | 0.00 | 0.00 | 0.00 | 80 | 1018.0 |
| 20260906194758 | 60 | 105 | 0.9 | 1.7 | 0.00 | 0.00 | 0.00 | 80 | 1018.0 |
| 20260906194744 | 60 | 121 | 0.0 | 1.7 | 0.00 | 0.00 | 0.00 | 80 | 1018.0 |
| 20260906194726 | 60 | 102 | 0.9 | 1.7 | 0.00 | 0.00 | 0.00 | 80 | 1018.0 |
| 20260906194710 | 60 | 122 | 0.9 | 1.7 | 0.00 | 0.00 | 0.00 | 80 | 1018.0 |
| 20260906194702 | 60 | 126 | 0.9 | 1.7 | 0.00 | 0.00 | 0.00 | 80 | 1018.0 |
| 20260906194637 | 60 | 138 | 0.9 | 1.7 | 0.00 | 0.00 | 0.00 | 80 | 1018.0 |
| 20260906194630 | 60 | 136 | 0.9 | 1.7 | 0.00 | 0.00 | 0.00 | 80 | 1018.0 |
| 20260906194550 | 60 | 138 | 0.9 | 1.7 | 0.00 | 0.00 | 0.00 | 80 | 1018.0 |
| 20260906194535 | 60 | 127 | 0.9 | 1.7 | 0.00 | 0.00 | 0.00 | 80 | 1018.0 |
| 20260906194519 | 60 | 138 | 0.9 | 1.7 | 0.00 | 0.00 | 0.00 | 80 | 1018.0 |
| 20260906194510 | 60 | 134 | 0.0 | 0.9 | 0.00 | 0.00 | 0.00 | 80 | 1018.0 |
| 20260906194508 | 60 | 134 | 0.0 | 1.7 | 0.00 | 0.00 | 0.00 | 80 | 1018.0 |
| 20260906194438 | 60 | 174 | 0.0 | 1.7 | 0.00 | 0.00 | 0.00 | 80 | 1018.0 |
| 20260906194430 | 60 | 138 | 0.0 | 1.7 | 0.00 | 0.00 | 0.00 | 80 | 1018.0 |
| 20260906194414 | 60 | 126 | 0.0 | 1.7 | 0.00 | 0.00 | 0.00 | 80 | 1018.0 |
| 20260906194406 | 60 | 126 | 0.0 | 3.5 | 0.00 | 0.00 | 0.00 | 80 | 1018.0 |
| 20260906194350 | 60 | 111 | 0.0 | 3.5 | 0.00 | 0.00 | 0.00 | 80 | 1018.0 |
| 20260906194334 | 60 | 103 | 0.9 | 3.5 | 0.00 | 0.00 | 0.00 | 80 | 1018.0 |
| 20260906194318 | 60 | 139 | 1.7 | 3.5 | 0.00 | 0.00 | 0.00 | 80 | 1018.0 |
| 20260906194302 | 60 | 114 | 0.9 | 3.5 | 0.00 | 0.00 | 0.00 | 80 | 1018.0 |
| 20260906194246 | 60 | 91 | 0.9 | 3.5 | 0.00 | 0.00 | 0.00 | 80 | 1018.0 |
| 20260906194230 | 60 | 132 | 2.6 | 3.5 | 0.00 | 0.00 | 0.00 | 80 | 1018.0 |
| 20260906194222 | 60 | 160 | 0.0 | 1.7 | 0.00 | 0.00 | 0.00 | 80 | 1018.0 |
| 20260906194206 | 60 | 109 | 0.0 | 1.7 | 0.00 | 0.00 | 0.00 | 80 | 1018.0 |
| 20260906194158 | 60 | 109 | 0.0 | 1.7 | 0.00 | 0.00 | 0.00 | 80 | 1018.0 |
| 20260906194152 | 60 | 87 | 0.0 | 1.7 | 0.00 | 0.00 | 0.00 | 80 | 1018.0 |
| 20260906194137 | 60 | 77 | 0.0 | 2.6 | 0.00 | 0.00 | 0.00 | 80 | 1018.0 |
| 20260906194115 | 60 | 40 | 0.0 | 2.6 | 0.00 | 0.00 | 0.00 | 80 | 1018.0 |
| 20260906194038 | 60 | 125 | 0.9 | 2.6 | 0.00 | 0.00 | 0.00 | 79 | 1018.0 |
| 20260906194017 | 60 | 143 | 0.9 | 2.6 | 0.00 | 0.00 | 0.00 | 79 | 1018.0 |
| 20260906193958 | 60 | 172 | 0.9 | 2.6 | 0.00 | 0.00 | 0.00 | 79 | 1019.0 |
| 20260906193942 | 60 | 111 | 1.7 | 2.6 | 0.00 | 0.00 | 0.00 | 79 | 1019.0 |
| 20260906193928 | 60 | 112 | 1.7 | 2.6 | 0.00 | 0.00 | 0.00 | 79 | 1019.0 |
| 20260906193902 | 60 | 143 | 0.9 | 2.6 | 0.00 | 0.00 | 0.00 | 79 | 1018.0 |
| 20260906193856 | 60 | 143 | 0.9 | 2.6 | 0.00 | 0.00 | 0.00 | 79 | 1018.0 |
| 20260906193838 | 60 | 125 | 0.0 | 2.6 | 0.00 | 0.00 | 0.00 | 79 | 1018.0 |
| 20260906193832 | 60 | 96 | 1.7 | 6.1 | 0.00 | 0.00 | 0.00 | 79 | 1018.0 |
| 20260906193814 | 60 | 143 | 1.7 | 6.1 | 0.00 | 0.00 | 0.00 | 79 | 1018.0 |
| 20260906193802 | 60 | 156 | 1.7 | 6.1 | 0.00 | 0.00 | 0.00 | 79 | 1019.0 |
| 20260906193734 | 60 | 104 | 0.9 | 6.1 | 0.00 | 0.00 | 0.00 | 79 | 1019.0 |
| 20260906193718 | 60 | 64 | 1.7 | 6.1 | 0.00 | 0.00 | 0.00 | 79 | 1019.0 |
| 20260906193710 | 60 | 128 | 0.9 | 6.1 | 0.00 | 0.00 | 0.00 | 79 | 1019.0 |
| 20260906193702 | 60 | 128 | 0.9 | 6.1 | 0.00 | 0.00 | 0.00 | 79 | 1018.0 |
| 20260906193647 | 60 | 164 | 4.3 | 6.1 | 0.00 | 0.00 | 0.00 | 79 | 1018.0 |
| 20260906193633 | 60 | 108 | 1.7 | 5.2 | 0.00 | 0.00 | 0.00 | 79 | 1018.0 |
| 20260906193620 | 60 | 131 | 3.5 | 5.2 | 0.00 | 0.00 | 0.00 | 79 | 1018.0 |
| 20260906193550 | 60 | 145 | 2.6 | 5.2 | 0.00 | 0.00 | 0.00 | 79 | 1019.0 |
| 20260906193534 | 60 | 112 | 0.9 | 5.2 | 0.00 | 0.00 | 0.00 | 79 | 1019.0 |
| 20260906193518 | 60 | 114 | 1.7 | 5.2 | 0.00 | 0.00 | 0.00 | 79 | 1019.0 |
| 20260906193502 | 60 | 145 | 1.7 | 5.2 | 0.00 | 0.00 | 0.00 | 79 | 1019.0 |
| 20260906193446 | 60 | 108 | 2.6 | 5.2 | 0.00 | 0.00 | 0.00 | 79 | 1019.0 |
| 20260906193438 | 60 | 133 | 1.7 | 2.6 | 0.00 | 0.00 | 0.00 | 79 | 1019.0 |
| 20260906193430 | 60 | 133 | 1.7 | 2.6 | 0.00 | 0.00 | 0.00 | 78 | 1019.0 |
| 20260906193414 | 60 | 146 | 1.7 | 2.6 | 0.00 | 0.00 | 0.00 | 78 | 1019.0 |
| 20260906193401 | 60 | 155 | 1.7 | 2.6 | 0.00 | 0.00 | 0.00 | 78 | 1018.0 |
| 20260906193342 | 60 | 94 | 2.6 | 2.6 | 0.00 | 0.00 | 0.00 | 78 | 1018.0 |
| 20260906193336 | 60 | 103 | 0.9 | 2.6 | 0.00 | 0.00 | 0.00 | 78 | 1018.0 |
| 20260906193310 | 60 | 222 | 2.6 | 2.6 | 0.00 | 0.00 | 0.00 | 78 | 1018.0 |
| 20260906193302 | 60 | 122 | 0.9 | 5.2 | 0.00 | 0.00 | 0.00 | 78 | 1019.0 |
| 20260906193254 | 60 | 122 | 0.9 | 5.2 | 0.00 | 0.00 | 0.00 | 78 | 1019.0 |
| 20260906193238 | 60 | 91 | 0.9 | 5.2 | 0.00 | 0.00 | 0.00 | 78 | 1019.0 |
| 20260906193232 | 60 | 120 | 1.7 | 6.1 | 0.00 | 0.00 | 0.00 | 78 | 1019.0 |
| 20260906193214 | 60 | 132 | 0.9 | 6.1 | 0.00 | 0.00 | 0.00 | 78 | 1019.0 |
| 20260906193208 | 60 | 132 | 0.9 | 9.6 | 0.00 | 0.00 | 0.00 | 78 | 1019.0 |
| 20260906193151 | 60 | 144 | 0.9 | 9.6 | 0.00 | 0.00 | 0.00 | 78 | 1019.0 |
| 20260906193129 | 60 | 108 | 0.9 | 9.6 | 0.00 | 0.00 | 0.00 | 78 | 1019.0 |
| 20260906193110 | 60 | 209 | 3.5 | 9.6 | 0.00 | 0.00 | 0.00 | 78 | 1019.0 |
| 20260906193102 | 60 | 148 | 3.5 | 9.6 | 0.00 | 0.00 | 0.00 | 78 | 1019.0 |
| 20260906193057 | 60 | 148 | 3.5 | 9.6 | 0.00 | 0.00 | 0.00 | 78 | 1019.0 |
| 20260906193041 | 60 | 149 | 4.3 | 9.6 | 0.00 | 0.00 | 0.00 | 78 | 1019.0 |
| 20260906193022 | 60 | 135 | 5.2 | 9.6 | 0.00 | 0.00 | 0.00 | 78 | 1019.0 |
| 20260906193014 | 60 | 140 | 0.9 | 3.5 | 0.00 | 0.00 | 0.00 | 79 | 1019.0 |
| 20260906193006 | 60 | 140 | 0.9 | 3.5 | 0.00 | 0.00 | 0.00 | 79 | 1018.0 |
| 20260906192953 | 60 | 175 | 1.7 | 3.5 | 0.00 | 0.00 | 0.00 | 79 | 1018.0 |
| 20260906192936 | 60 | 147 | 1.7 | 3.5 | 0.00 | 0.00 | 0.00 | 79 | 1018.0 |
| 20260906192921 | 60 | 142 | 2.6 | 3.5 | 0.00 | 0.00 | 0.00 | 79 | 1018.0 |
| 20260906192902 | 60 | 142 | 2.6 | 3.5 | 0.00 | 0.00 | 0.00 | 79 | 1019.0 |
| 20260906192846 | 60 | 144 | 2.6 | 3.5 | 0.00 | 0.00 | 0.00 | 79 | 1019.0 |
| 20260906192830 | 60 | 137 | 1.7 | 2.6 | 0.00 | 0.00 | 0.00 | 79 | 1019.0 |
| 20260906192816 | 60 | 241 | 0.9 | 2.6 | 0.00 | 0.00 | 0.00 | 79 | 1019.0 |
| 20260906192800 | 60 | 146 | 0.9 | 2.6 | 0.00 | 0.00 | 0.00 | 78 | 1019.0 |
| 20260906192742 | 60 | 181 | 0.9 | 2.6 | 0.00 | 0.00 | 0.00 | 78 | 1019.0 |
| 20260906192718 | 60 | 101 | 1.7 | 2.6 | 0.00 | 0.00 | 0.00 | 78 | 1019.0 |
| 20260906192710 | 60 | 55 | 0.9 | 2.6 | 0.00 | 0.00 | 0.00 | 78 | 1019.0 |
| 20260906192702 | 60 | 55 | 0.9 | 3.5 | 0.00 | 0.00 | 0.00 | 78 | 1019.0 |
| 20260906192657 | 60 | 93 | 0.9 | 3.5 | 0.00 | 0.00 | 0.00 | 78 | 1019.0 |
| 20260906192630 | 60 | 140 | 0.9 | 3.5 | 0.00 | 0.00 | 0.00 | 78 | 1019.0 |
| 20260906192614 | 60 | 140 | 0.9 | 3.5 | 0.00 | 0.00 | 0.00 | 78 | 1019.0 |
| 20260906192606 | 60 | 103 | 1.7 | 3.5 | 0.00 | 0.00 | 0.00 | 78 | 1018.0 |
| 20260906192558 | 60 | 103 | 1.7 | 3.5 | 0.00 | 0.00 | 0.00 | 78 | 1018.0 |
| 20260906192542 | 60 | 112 | 2.6 | 3.5 | 0.00 | 0.00 | 0.00 | 78 | 1018.0 |
| 20260906192526 | 60 | 62 | 3.5 | 3.5 | 0.00 | 0.00 | 0.00 | 78 | 1018.0 |
| 20260906192510 | 60 | 149 | 1.7 | 3.5 | 0.00 | 0.00 | 0.00 | 78 | 1018.0 |
| 20260906192503 | 60 | 106 | 1.7 | 3.5 | 0.00 | 0.00 | 0.00 | 78 | 1019.0 |
| 20260906192454 | 61 | 106 | 1.7 | 3.5 | 0.00 | 0.00 | 0.00 | 78 | 1019.0 |
| 20260906192443 | 61 | 139 | 1.7 | 3.5 | 0.00 | 0.00 | 0.00 | 78 | 1019.0 |
| 20260906192414 | 61 | 176 | 0.9 | 2.6 | 0.00 | 0.00 | 0.00 | 78 | 1019.0 |
| 20260906192406 | 61 | 176 | 0.9 | 3.5 | 0.00 | 0.00 | 0.00 | 78 | 1018.0 |
| 20260906192350 | 61 | 135 | 1.7 | 3.5 | 0.00 | 0.00 | 0.00 | 78 | 1018.0 |
| 20260906192334 | 61 | 107 | 0.0 | 3.5 | 0.00 | 0.00 | 0.00 | 78 | 1018.0 |
| 20260906192318 | 61 | 129 | 0.9 | 3.5 | 0.00 | 0.00 | 0.00 | 78 | 1018.0 |
| 20260906192312 | 61 | 103 | 0.9 | 3.5 | 0.00 | 0.00 | 0.00 | 78 | 1018.0 |
| 20260906192248 | 61 | 142 | 0.9 | 3.5 | 0.00 | 0.00 | 0.00 | 78 | 1018.0 |
| 20260906192222 | 61 | 131 | 2.6 | 3.5 | 0.00 | 0.00 | 0.00 | 78 | 1018.0 |
| 20260906192206 | 61 | 93 | 1.7 | 3.5 | 0.00 | 0.00 | 0.00 | 78 | 1018.0 |
| 20260906192150 | 61 | 86 | 0.0 | 3.5 | 0.00 | 0.00 | 0.00 | 78 | 1018.0 |
| 20260906192128 | 61 | 102 | 0.9 | 3.5 | 0.00 | 0.00 | 0.00 | 78 | 1018.0 |
| 20260906192104 | 61 | 107 | 1.7 | 3.5 | 0.00 | 0.00 | 0.00 | 78 | 1018.0 |
| 20260906192046 | 61 | 130 | 1.7 | 3.5 | 0.00 | 0.00 | 0.00 | 78 | 1018.0 |
| 20260906192038 | 61 | 162 | 1.7 | 2.6 | 0.00 | 0.00 | 0.00 | 78 | 1018.0 |
| 20260906192032 | 61 | 162 | 1.7 | 5.2 | 0.00 | 0.00 | 0.00 | 78 | 1018.0 |
| 20260906191942 | 61 | 34 | 1.7 | 5.2 | 0.00 | 0.00 | 0.00 | 78 | 1019.0 |
| 20260906191926 | 61 | 146 | 1.7 | 5.2 | 0.00 | 0.00 | 0.00 | 78 | 1019.0 |
| 20260906191910 | 61 | 61 | 3.5 | 5.2 | 0.00 | 0.00 | 0.00 | 78 | 1019.0 |
| 20260906191905 | 61 | 53 | 2.6 | 3.5 | 0.00 | 0.00 | 0.00 | 78 | 1018.0 |
| 20260906191849 | 61 | 68 | 0.9 | 2.6 | 0.00 | 0.00 | 0.00 | 78 | 1018.0 |
| 20260906191824 | 61 | 175 | 1.7 | 2.6 | 0.00 | 0.00 | 0.00 | 78 | 1018.0 |
| 20260906191810 | 61 | 136 | 2.6 | 2.6 | 0.00 | 0.00 | 0.00 | 78 | 1019.0 |
| 20260906191744 | 61 | 102 | 0.9 | 2.6 | 0.00 | 0.00 | 0.00 | 78 | 1019.0 |
| 20260906191726 | 61 | 135 | 0.9 | 2.6 | 0.00 | 0.00 | 0.00 | 78 | 1019.0 |
| 20260906191710 | 61 | 100 | 0.9 | 2.6 | 0.00 | 0.00 | 0.00 | 78 | 1019.0 |
| 20260906191702 | 61 | 170 | 1.7 | 2.6 | 0.00 | 0.00 | 0.00 | 78 | 1018.0 |
| 20260906191654 | 61 | 170 | 1.7 | 2.6 | 0.00 | 0.00 | 0.00 | 78 | 1018.0 |
| 20260906191640 | 61 | 134 | 0.9 | 2.6 | 0.00 | 0.00 | 0.00 | 78 | 1018.0 |
| 20260906191622 | 61 | 144 | 0.0 | 2.6 | 0.00 | 0.00 | 0.00 | 78 | 1018.0 |
| 20260906191614 | 61 | 122 | 0.9 | 2.6 | 0.00 | 0.00 | 0.00 | 78 | 1018.0 |
| 20260906191606 | 61 | 122 | 0.9 | 2.6 | 0.00 | 0.00 | 0.00 | 78 | 1019.0 |
| 20260906191550 | 61 | 138 | 1.7 | 2.6 | 0.00 | 0.00 | 0.00 | 78 | 1019.0 |
| 20260906191542 | 61 | 134 | 1.7 | 2.6 | 0.00 | 0.00 | 0.00 | 78 | 1019.0 |
| 20260906191534 | 61 | 134 | 1.7 | 3.5 | 0.00 | 0.00 | 0.00 | 78 | 1019.0 |
| 20260906191528 | 61 | 135 | 1.7 | 3.5 | 0.00 | 0.00 | 0.00 | 78 | 1019.0 |
| 20260906191510 | 61 | 132 | 1.7 | 3.5 | 0.00 | 0.00 | 0.00 | 78 | 1019.0 |
| 20260906191502 | 61 | 132 | 1.7 | 5.2 | 0.00 | 0.00 | 0.00 | 78 | 1019.0 |
| 20260906191459 | 61 | 124 | 1.7 | 5.2 | 0.00 | 0.00 | 0.00 | 78 | 1019.0 |
| 20260906191432 | 61 | 114 | 0.0 | 5.2 | 0.00 | 0.00 | 0.00 | 78 | 1019.0 |
| 20260906191415 | 60 | 281 | 0.9 | 5.2 | 0.00 | 0.00 | 0.00 | 78 | 1019.0 |
| 20260906191401 | 60 | 109 | 1.7 | 5.2 | 0.00 | 0.00 | 0.00 | 78 | 1019.0 |
| 20260906191334 | 60 | 186 | 2.6 | 5.2 | 0.00 | 0.00 | 0.00 | 78 | 1019.0 |
| 20260906191317 | 60 | 114 | 1.7 | 5.2 | 0.00 | 0.00 | 0.00 | 78 | 1019.0 |
| 20260906191301 | 60 | 156 | 2.6 | 3.5 | 0.00 | 0.00 | 0.00 | 78 | 1019.0 |
| 20260906191257 | 60 | 127 | 2.6 | 3.5 | 0.00 | 0.00 | 0.00 | 78 | 1019.0 |
| 20260906191229 | 60 | 174 | 1.7 | 1.7 | 0.00 | 0.00 | 0.00 | 78 | 1019.0 |
| 20260906191213 | 60 | 55 | 1.7 | 1.7 | 0.00 | 0.00 | 0.00 | 78 | 1019.0 |
| 20260906191201 | 60 | 114 | 0.9 | 3.5 | 0.00 | 0.00 | 0.00 | 78 | 1019.0 |
| 20260906191141 | 60 | 82 | 0.0 | 3.5 | 0.00 | 0.00 | 0.00 | 78 | 1019.0 |
| 20260906191135 | 60 | 155 | 0.0 | 3.5 | 0.00 | 0.00 | 0.00 | 78 | 1019.0 |
| 20260906191119 | 60 | 171 | 0.0 | 3.5 | 0.00 | 0.00 | 0.00 | 78 | 1019.0 |
| 20260906191101 | 60 | 136 | 1.7 | 3.5 | 0.00 | 0.00 | 0.00 | 78 | 1019.0 |
| 20260906191054 | 60 | 136 | 1.7 | 3.5 | 0.00 | 0.00 | 0.00 | 78 | 1019.0 |
| 20260906191048 | 60 | 232 | 1.7 | 3.5 | 0.00 | 0.00 | 0.00 | 78 | 1019.0 |
| 20260906191021 | 60 | 211 | 1.7 | 3.5 | 0.00 | 0.00 | 0.00 | 78 | 1019.0 |
| 20260906191016 | 60 | 146 | 1.7 | 3.5 | 0.00 | 0.00 | 0.00 | 78 | 1019.0 |
| 20260906190950 | 61 | 241 | 1.7 | 3.5 | 0.00 | 0.00 | 0.00 | 78 | 1018.0 |
| 20260906190925 | 61 | 158 | 1.7 | 3.5 | 0.00 | 0.00 | 0.00 | 78 | 1018.0 |
| 20260906190910 | 61 | 147 | 0.9 | 3.5 | 0.00 | 0.00 | 0.00 | 78 | 1018.0 |
| 20260906190901 | 61 | 172 | 1.7 | 6.1 | 0.00 | 0.00 | 0.00 | 78 | 1019.0 |
| 20260906190854 | 61 | 172 | 1.7 | 6.1 | 0.00 | 0.00 | 0.00 | 78 | 1019.0 |
| 20260906190837 | 61 | 149 | 2.6 | 6.1 | 0.00 | 0.00 | 0.00 | 78 | 1019.0 |
| 20260906190822 | 61 | 138 | 2.6 | 6.1 | 0.00 | 0.00 | 0.00 | 78 | 1019.0 |
| 20260906190814 | 61 | 258 | 2.6 | 6.1 | 0.00 | 0.00 | 0.00 | 78 | 1019.0 |
| 20260906190805 | 61 | 258 | 2.6 | 6.1 | 0.00 | 0.00 | 0.00 | 78 | 1018.0 |
| 20260906190749 | 61 | 142 | 1.7 | 6.1 | 0.00 | 0.00 | 0.00 | 78 | 1018.0 |
| 20260906190734 | 61 | 234 | 2.6 | 6.1 | 0.00 | 0.00 | 0.00 | 78 | 1018.0 |
| 20260906190717 | 61 | 140 | 2.6 | 5.2 | 0.00 | 0.00 | 0.00 | 78 | 1018.0 |
| 20260906190712 | 61 | 118 | 0.9 | 5.2 | 0.00 | 0.00 | 0.00 | 78 | 1018.0 |
| 20260906190645 | 61 | 127 | 1.7 | 5.2 | 0.00 | 0.00 | 0.00 | 78 | 1019.0 |
| 20260906190631 | 61 | 148 | 1.7 | 5.2 | 0.00 | 0.00 | 0.00 | 78 | 1019.0 |
| 20260906190613 | 61 | 102 | 3.5 | 5.2 | 0.00 | 0.00 | 0.00 | 78 | 1019.0 |
| 20260906190605 | 61 | 127 | 0.9 | 1.7 | 0.00 | 0.00 | 0.00 | 78 | 1019.0 |
| 20260906190541 | 61 | 127 | 0.9 | 1.7 | 0.00 | 0.00 | 0.00 | 78 | 1019.0 |
| 20260906190525 | 61 | 117 | 0.9 | 1.7 | 0.00 | 0.00 | 0.00 | 78 | 1019.0 |
| 20260906190510 | 61 | 147 | 0.9 | 1.7 | 0.00 | 0.00 | 0.00 | 78 | 1019.0 |
| 20260906190501 | 61 | 147 | 0.9 | 2.6 | 0.00 | 0.00 | 0.00 | 78 | 1019.0 |
| 20260906190445 | 61 | 142 | 0.9 | 2.6 | 0.00 | 0.00 | 0.00 | 78 | 1019.0 |
| 20260906190429 | 61 | 157 | 1.7 | 2.6 | 0.00 | 0.00 | 0.00 | 78 | 1019.0 |
| 20260906190413 | 61 | 133 | 0.9 | 2.6 | 0.00 | 0.00 | 0.00 | 78 | 1019.0 |
| 20260906190406 | 61 | 134 | 0.9 | 3.5 | 0.00 | 0.00 | 0.00 | 78 | 1019.0 |
| 20260906190357 | 61 | 134 | 0.9 | 3.5 | 0.00 | 0.00 | 0.00 | 78 | 1019.0 |
| 20260906190341 | 61 | 147 | 1.7 | 3.5 | 0.00 | 0.00 | 0.00 | 78 | 1019.0 |
| 20260906190337 | 61 | 123 | 1.7 | 3.5 | 0.00 | 0.00 | 0.00 | 78 | 1019.0 |
| 20260906190310 | 61 | 108 | 2.6 | 3.5 | 0.00 | 0.00 | 0.00 | 78 | 1019.0 |
| 20260906190302 | 61 | 130 | 1.7 | 3.5 | 0.00 | 0.00 | 0.00 | 78 | 1019.0 |
| 20260906190253 | 61 | 130 | 1.7 | 3.5 | 0.00 | 0.00 | 0.00 | 78 | 1019.0 |
| 20260906190237 | 61 | 127 | 2.6 | 3.5 | 0.00 | 0.00 | 0.00 | 78 | 1019.0 |
| 20260906190222 | 61 | 147 | 2.6 | 2.6 | 0.00 | 0.00 | 0.00 | 79 | 1019.0 |
| 20260906190214 | 61 | 92 | 1.7 | 1.7 | 0.00 | 0.00 | 0.00 | 79 | 1019.0 |
| 20260906190205 | 61 | 92 | 1.7 | 2.6 | 0.00 | 0.00 | 0.00 | 79 | 1018.0 |
| 20260906190151 | 61 | 146 | 0.0 | 2.6 | 0.00 | 0.00 | 0.00 | 79 | 1018.0 |
| 20260906190133 | 61 | 108 | 0.0 | 2.6 | 0.00 | 0.00 | 0.00 | 79 | 1018.0 |
| 20260906190128 | 60 | 97 | 0.0 | 2.6 | 0.00 | 0.00 | 0.00 | 79 | 1018.0 |
| 20260906190109 | 60 | 138 | 0.0 | 2.6 | 0.00 | 0.00 | 0.00 | 79 | 1018.0 |
| 20260906190039 | 60 | 254 | 1.7 | 2.6 | 0.00 | 0.00 | 0.00 | 79 | 1019.0 |
| 20260906190021 | 60 | 135 | 1.7 | 2.6 | 0.00 | 0.00 | 0.00 | 79 | 1019.0 |
| 20260906190005 | 60 | 102 | 0.9 | 1.7 | 0.00 | 0.00 | 0.00 | 79 | 1019.0 |
| 20260906185950 | 60 | 144 | 0.0 | 1.7 | 0.00 | 0.00 | 0.00 | 79 | 1019.0 |
| 20260906185933 | 60 | 106 | 0.9 | 1.7 | 0.00 | 0.00 | 0.00 | 79 | 1019.0 |
| 20260906185920 | 60 | 103 | 1.7 | 1.7 | 0.00 | 0.00 | 0.00 | 79 | 1019.0 |
| 20260906185902 | 60 | 242 | 1.7 | 1.7 | 0.00 | 0.00 | 0.00 | 79 | 1019.0 |
| 20260906185845 | 60 | 242 | 1.7 | 1.7 | 0.00 | 0.00 | 0.00 | 79 | 1019.0 |
| 20260906185837 | 60 | 115 | 0.9 | 1.7 | 0.00 | 0.00 | 0.00 | 79 | 1019.0 |
| 20260906185829 | 60 | 115 | 0.9 | 3.5 | 0.00 | 0.00 | 0.00 | 79 | 1019.0 |
| 20260906185826 | 60 | 147 | 0.9 | 3.5 | 0.00 | 0.00 | 0.00 | 79 | 1019.0 |
| 20260906185757 | 60 | 73 | 0.9 | 3.5 | 0.00 | 0.00 | 0.00 | 79 | 1018.0 |
| 20260906185749 | 60 | 155 | 0.0 | 3.5 | 0.00 | 0.00 | 0.00 | 79 | 1018.0 |
| 20260906185703 | 60 | 80 | 1.7 | 5.2 | 0.00 | 0.00 | 0.00 | 79 | 1019.0 |
| 20260906185654 | 60 | 80 | 1.7 | 5.2 | 0.00 | 0.00 | 0.00 | 79 | 1019.0 |
| 20260906185637 | 60 | 119 | 0.9 | 5.2 | 0.00 | 0.00 | 0.00 | 79 | 1019.0 |
| 20260906185624 | 60 | 98 | 0.9 | 5.2 | 0.00 | 0.00 | 0.00 | 79 | 1019.0 |
| 20260906185605 | 60 | 121 | 1.7 | 5.2 | 0.00 | 0.00 | 0.00 | 79 | 1019.0 |
| 20260906185541 | 60 | 124 | 1.7 | 3.5 | 0.00 | 0.00 | 0.00 | 79 | 1019.0 |
| 20260906185535 | 60 | 110 | 1.7 | 2.6 | 0.00 | 0.00 | 0.00 | 79 | 1019.0 |
| 20260906185509 | 60 | 99 | 2.6 | 2.6 | 0.00 | 0.00 | 0.00 | 79 | 1019.0 |
| 20260906185454 | 60 | 99 | 2.6 | 2.6 | 0.00 | 0.00 | 0.00 | 79 | 1019.0 |
| 20260906185449 | 60 | 82 | 0.0 | 2.6 | 0.00 | 0.00 | 0.00 | 79 | 1019.0 |
| 20260906185422 | 60 | 97 | 0.0 | 2.6 | 0.00 | 0.00 | 0.00 | 79 | 1019.0 |
| 20260906185414 | 60 | 151 | 0.9 | 2.6 | 0.00 | 0.00 | 0.00 | 79 | 1019.0 |
| 20260906185405 | 60 | 151 | 0.9 | 5.2 | 0.00 | 0.00 | 0.00 | 79 | 1019.0 |
| 20260906185350 | 60 | 46 | 0.9 | 5.2 | 0.00 | 0.00 | 0.00 | 79 | 1019.0 |
| 20260906185342 | 60 | 105 | 0.9 | 5.2 | 0.00 | 0.00 | 0.00 | 79 | 1019.0 |
| 20260906185336 | 60 | 105 | 0.9 | 7.0 | 0.00 | 0.00 | 0.00 | 79 | 1019.0 |
| 20260906185318 | 60 | 140 | 2.6 | 7.0 | 0.00 | 0.00 | 0.00 | 79 | 1019.0 |
| 20260906185309 | 60 | 142 | 1.7 | 7.0 | 0.00 | 0.00 | 0.00 | 79 | 1019.0 |
| 20260906185301 | 60 | 142 | 1.7 | 7.8 | 0.00 | 0.00 | 0.00 | 79 | 1019.0 |
| 20260906185247 | 60 | 135 | 2.6 | 7.8 | 0.00 | 0.00 | 0.00 | 78 | 1019.0 |
| 20260906185230 | 60 | 152 | 1.7 | 7.8 | 0.00 | 0.00 | 0.00 | 78 | 1019.0 |
| 20260906185226 | 60 | 154 | 2.6 | 7.8 | 0.00 | 0.00 | 0.00 | 78 | 1019.0 |
| 20260906185206 | 60 | 93 | 3.5 | 7.8 | 0.00 | 0.00 | 0.00 | 78 | 1019.0 |
| 20260906185151 | 60 | 93 | 3.5 | 7.8 | 0.00 | 0.00 | 0.00 | 78 | 1019.0 |
| 20260906185134 | 60 | 175 | 2.6 | 7.8 | 0.00 | 0.00 | 0.00 | 78 | 1019.0 |
| 20260906185118 | 60 | 113 | 0.9 | 5.2 | 0.00 | 0.00 | 0.00 | 78 | 1019.0 |
| 20260906185102 | 60 | 111 | 1.7 | 5.2 | 0.00 | 0.00 | 0.00 | 78 | 1019.0 |
| 20260906185054 | 60 | 93 | 2.6 | 5.2 | 0.00 | 0.00 | 0.00 | 78 | 1019.0 |
| 20260906185047 | 60 | 93 | 2.6 | 5.2 | 0.00 | 0.00 | 0.00 | 79 | 1019.0 |
| 20260906185031 | 60 | 100 | 4.3 | 5.2 | 0.00 | 0.00 | 0.00 | 79 | 1019.0 |
| 20260906185014 | 60 | 155 | 1.7 | 3.5 | 0.00 | 0.00 | 0.00 | 79 | 1019.0 |
| 20260906185007 | 60 | 136 | 0.0 | 3.5 | 0.00 | 0.00 | 0.00 | 79 | 1019.0 |
| 20260906184959 | 60 | 136 | 0.0 | 3.5 | 0.00 | 0.00 | 0.00 | 79 | 1019.0 |
| 20260906184950 | 60 | 124 | 0.9 | 3.5 | 0.00 | 0.00 | 0.00 | 79 | 1019.0 |
| 20260906184943 | 60 | 124 | 0.9 | 3.5 | 0.00 | 0.00 | 0.00 | 78 | 1019.0 |
| 20260906184926 | 60 | 144 | 1.7 | 3.5 | 0.00 | 0.00 | 0.00 | 78 | 1019.0 |
| 20260906184913 | 60 | 149 | 2.6 | 3.5 | 0.00 | 0.00 | 0.00 | 78 | 1019.0 |
| 20260906184854 | 60 | 114 | 1.7 | 3.5 | 0.00 | 0.00 | 0.00 | 78 | 1019.0 |
| 20260906184839 | 60 | 116 | 2.6 | 3.5 | 0.00 | 0.00 | 0.00 | 78 | 1019.0 |
| 20260906184822 | 60 | 164 | 1.7 | 3.5 | 0.00 | 0.00 | 0.00 | 78 | 1019.0 |
| 20260906184806 | 60 | 111 | 1.7 | 3.5 | 0.00 | 0.00 | 0.00 | 78 | 1019.0 |
| 20260906184750 | 60 | 105 | 0.9 | 3.5 | 0.00 | 0.00 | 0.00 | 78 | 1019.0 |
| 20260906184746 | 60 | 127 | 1.7 | 3.5 | 0.00 | 0.00 | 0.00 | 78 | 1019.0 |
| 20260906184730 | 60 | 127 | 1.7 | 5.2 | 0.00 | 0.00 | 0.00 | 78 | 1019.0 |
| 20260906184710 | 60 | 116 | 2.6 | 5.2 | 0.00 | 0.00 | 0.00 | 78 | 1019.0 |
| 20260906184707 | 60 | 75 | 1.7 | 5.2 | 0.00 | 0.00 | 0.00 | 78 | 1019.0 |
| 20260906184638 | 60 | 90 | 1.7 | 5.2 | 0.00 | 0.00 | 0.00 | 78 | 1019.0 |
| 20260906184624 | 60 | 99 | 1.7 | 5.2 | 0.00 | 0.00 | 0.00 | 78 | 1019.0 |
| 20260906184609 | 60 | 118 | 3.5 | 5.2 | 0.00 | 0.00 | 0.00 | 78 | 1019.0 |
| 20260906184550 | 60 | 125 | 3.5 | 5.2 | 0.00 | 0.00 | 0.00 | 78 | 1019.0 |
| 20260906184544 | 60 | 139 | 1.7 | 5.2 | 0.00 | 0.00 | 0.00 | 78 | 1019.0 |
| 20260906184518 | 60 | 129 | 2.6 | 5.2 | 0.00 | 0.00 | 0.00 | 78 | 1019.0 |
| 20260906184502 | 60 | 187 | 2.6 | 5.2 | 0.00 | 0.00 | 0.00 | 78 | 1019.0 |
| 20260906184457 | 60 | 157 | 3.5 | 5.2 | 0.00 | 0.00 | 0.00 | 78 | 1019.0 |
| 20260906184433 | 60 | 118 | 0.9 | 3.5 | 0.00 | 0.00 | 0.00 | 78 | 1019.0 |
| 20260906184414 | 60 | 156 | 1.7 | 3.5 | 0.00 | 0.00 | 0.00 | 79 | 1019.0 |
| 20260906184406 | 60 | 97 | 2.6 | 3.5 | 0.00 | 0.00 | 0.00 | 79 | 1019.0 |
| 20260906184359 | 60 | 97 | 2.6 | 3.5 | 0.00 | 0.00 | 0.00 | 79 | 1019.0 |
| 20260906184342 | 60 | 150 | 2.6 | 3.5 | 0.00 | 0.00 | 0.00 | 79 | 1019.0 |
| 20260906184330 | 60 | 149 | 1.7 | 5.2 | 0.00 | 0.00 | 0.00 | 79 | 1019.0 |
| 20260906184302 | 60 | 112 | 1.7 | 5.2 | 0.00 | 0.00 | 0.00 | 79 | 1019.0 |
| 20260906184246 | 60 | 150 | 1.7 | 5.2 | 0.00 | 0.00 | 0.00 | 79 | 1019.0 |
| 20260906184241 | 60 | 111 | 1.7 | 5.2 | 0.00 | 0.00 | 0.00 | 79 | 1019.0 |
| 20260906184214 | 60 | 157 | 1.7 | 5.2 | 0.00 | 0.00 | 0.00 | 79 | 1019.0 |
| 20260906184206 | 60 | 67 | 2.6 | 5.2 | 0.00 | 0.00 | 0.00 | 79 | 1019.0 |
| 20260906184159 | 60 | 67 | 2.6 | 5.2 | 0.00 | 0.00 | 0.00 | 79 | 1019.0 |
| 20260906184142 | 60 | 168 | 2.6 | 5.2 | 0.00 | 0.00 | 0.00 | 79 | 1019.0 |
| 20260906184138 | 60 | 103 | 3.5 | 5.2 | 0.00 | 0.00 | 0.00 | 79 | 1019.0 |
| 20260906184110 | 60 | 133 | 3.5 | 5.2 | 0.00 | 0.00 | 0.00 | 79 | 1019.0 |
| 20260906184102 | 60 | 83 | 2.6 | 3.5 | 0.00 | 0.00 | 0.00 | 79 | 1019.0 |
| 20260906184054 | 60 | 83 | 2.6 | 3.5 | 0.00 | 0.00 | 0.00 | 79 | 1019.0 |
| 20260906184038 | 60 | 260 | 1.7 | 2.6 | 0.00 | 0.00 | 0.00 | 79 | 1019.0 |
| 20260906184022 | 60 | 132 | 0.9 | 6.1 | 0.00 | 0.00 | 0.00 | 79 | 1019.0 |
| 20260906184006 | 60 | 143 | 0.0 | 6.1 | 0.00 | 0.00 | 0.00 | 79 | 1019.0 |
| 20260906184000 | 60 | 12 | 0.0 | 6.1 | 0.00 | 0.00 | 0.00 | 79 | 1019.0 |
| 20260906183934 | 60 | 53 | 1.7 | 6.1 | 0.00 | 0.00 | 0.00 | 79 | 1019.0 |
| 20260906183918 | 60 | 142 | 1.7 | 6.1 | 0.00 | 0.00 | 0.00 | 79 | 1019.0 |
| 20260906183910 | 60 | 101 | 3.5 | 6.1 | 0.00 | 0.00 | 0.00 | 79 | 1019.0 |
| 20260906183902 | 60 | 101 | 3.5 | 6.1 | 0.00 | 0.00 | 0.00 | 80 | 1019.0 |
| 20260906183838 | 60 | 172 | 3.5 | 5.2 | 0.00 | 0.00 | 0.00 | 80 | 1019.0 |
| 20260906183823 | 60 | 118 | 0.9 | 5.2 | 0.00 | 0.00 | 0.00 | 80 | 1019.0 |
| 20260906183806 | 60 | 117 | 0.0 | 5.2 | 0.00 | 0.00 | 0.00 | 80 | 1019.0 |
| 20260906183750 | 60 | 163 | 1.7 | 5.2 | 0.00 | 0.00 | 0.00 | 80 | 1019.0 |
| 20260906183734 | 60 | 115 | 3.5 | 5.2 | 0.00 | 0.00 | 0.00 | 80 | 1019.0 |
| 20260906183718 | 60 | 162 | 1.7 | 5.2 | 0.00 | 0.00 | 0.00 | 80 | 1019.0 |
| 20260906183702 | 60 | 109 | 3.5 | 5.2 | 0.00 | 0.00 | 0.00 | 80 | 1019.0 |
| 20260906183646 | 60 | 146 | 3.5 | 5.2 | 0.00 | 0.00 | 0.00 | 79 | 1019.0 |
| 20260906183638 | 60 | 98 | 0.9 | 2.6 | 0.00 | 0.00 | 0.00 | 79 | 1019.0 |
| 20260906183630 | 60 | 98 | 0.9 | 3.5 | 0.00 | 0.00 | 0.00 | 79 | 1019.0 |
| 20260906183617 | 60 | 153 | 2.6 | 3.5 | 0.00 | 0.00 | 0.00 | 79 | 1019.0 |
| 20260906183606 | 60 | 95 | 0.9 | 3.5 | 0.00 | 0.00 | 0.00 | 79 | 1019.0 |
| 20260906183558 | 60 | 95 | 0.9 | 3.5 | 0.00 | 0.00 | 0.00 | 79 | 1019.0 |
| 20260906183542 | 60 | 81 | 1.7 | 3.5 | 0.00 | 0.00 | 0.00 | 79 | 1019.0 |
| 20260906183526 | 60 | 168 | 0.9 | 3.5 | 0.00 | 0.00 | 0.00 | 79 | 1019.0 |
| 20260906183515 | 60 | 115 | 1.7 | 3.5 | 0.00 | 0.00 | 0.00 | 79 | 1019.0 |
| 20260906183438 | 60 | 167 | 2.6 | 3.5 | 0.00 | 0.00 | 0.00 | 79 | 1019.0 |
| 20260906183424 | 60 | 104 | 1.7 | 3.5 | 0.00 | 0.00 | 0.00 | 79 | 1019.0 |
| 20260906183407 | 60 | 163 | 2.6 | 3.5 | 0.00 | 0.00 | 0.00 | 79 | 1019.0 |
| 20260906183358 | 60 | 163 | 2.6 | 3.5 | 0.00 | 0.00 | 0.00 | 79 | 1019.0 |
| 20260906183342 | 60 | 104 | 1.7 | 3.5 | 0.00 | 0.00 | 0.00 | 79 | 1019.0 |
| 20260906183326 | 60 | 81 | 1.7 | 3.5 | 0.00 | 0.00 | 0.00 | 79 | 1019.0 |
| 20260906183310 | 60 | 166 | 1.7 | 3.5 | 0.00 | 0.00 | 0.00 | 79 | 1019.0 |
| 20260906183302 | 60 | 187 | 2.6 | 3.5 | 0.00 | 0.00 | 0.00 | 79 | 1019.0 |
| 20260906183254 | 60 | 187 | 2.6 | 3.5 | 0.00 | 0.00 | 0.00 | 79 | 1019.0 |
| 20260906183238 | 60 | 143 | 2.6 | 3.5 | 0.00 | 0.00 | 0.00 | 79 | 1019.0 |
| 20260906183222 | 60 | 169 | 1.7 | 2.6 | 0.00 | 0.00 | 0.00 | 79 | 1019.0 |
| 20260906183209 | 60 | 65 | 1.7 | 2.6 | 0.00 | 0.00 | 0.00 | 79 | 1019.0 |
| 20260906183150 | 60 | 116 | 1.7 | 2.6 | 0.00 | 0.00 | 0.00 | 79 | 1019.0 |
| 20260906183137 | 60 | 135 | 1.7 | 2.6 | 0.00 | 0.00 | 0.00 | 79 | 1019.0 |
| 20260906183119 | 60 | 77 | 0.0 | 2.6 | 0.00 | 0.00 | 0.00 | 79 | 1019.0 |
| 20260906183110 | 60 | 162 | 0.0 | 2.6 | 0.00 | 0.00 | 0.00 | 79 | 1019.0 |
| 20260906183102 | 60 | 162 | 0.0 | 3.5 | 0.00 | 0.00 | 0.00 | 79 | 1019.0 |
| 20260906183048 | 60 | 68 | 0.9 | 3.5 | 0.00 | 0.00 | 0.00 | 79 | 1019.0 |
| 20260906183030 | 60 | 64 | 0.9 | 3.5 | 0.00 | 0.00 | 0.00 | 79 | 1019.0 |
| 20260906183014 | 60 | 85 | 1.7 | 3.5 | 0.00 | 0.00 | 0.00 | 79 | 1019.0 |
| 20260906183006 | 60 | 117 | 1.7 | 3.5 | 0.00 | 0.00 | 0.00 | 79 | 1019.0 |
| 20260906182950 | 60 | 117 | 1.7 | 3.5 | 0.00 | 0.00 | 0.00 | 79 | 1019.0 |
| 20260906182935 | 60 | 101 | 1.7 | 3.5 | 0.00 | 0.00 | 0.00 | 79 | 1019.0 |
| 20260906182918 | 60 | 168 | 2.6 | 3.5 | 0.00 | 0.00 | 0.00 | 79 | 1019.0 |
| 20260906182902 | 60 | 118 | 2.6 | 3.5 | 0.00 | 0.00 | 0.00 | 79 | 1019.0 |
| 20260906182846 | 60 | 158 | 0.9 | 3.5 | 0.00 | 0.00 | 0.00 | 79 | 1019.0 |
| 20260906182830 | 60 | 116 | 2.6 | 3.5 | 0.00 | 0.00 | 0.00 | 79 | 1019.0 |
| 20260906182814 | 60 | 118 | 1.7 | 3.5 | 0.00 | 0.00 | 0.00 | 79 | 1019.0 |
| 20260906182806 | 60 | 99 | 0.9 | 3.5 | 0.00 | 0.00 | 0.00 | 79 | 1019.0 |
| 20260906182758 | 60 | 99 | 0.9 | 3.5 | 0.00 | 0.00 | 0.00 | 79 | 1019.0 |
| 20260906182742 | 60 | 137 | 2.6 | 3.5 | 0.00 | 0.00 | 0.00 | 79 | 1019.0 |
| 20260906182726 | 60 | 159 | 1.7 | 2.6 | 0.00 | 0.00 | 0.00 | 79 | 1019.0 |
| 20260906182723 | 60 | 102 | 0.9 | 2.6 | 0.00 | 0.00 | 0.00 | 79 | 1019.0 |
| 20260906182654 | 60 | 78 | 0.0 | 5.2 | 0.00 | 0.00 | 0.00 | 79 | 1019.0 |
| 20260906182639 | 60 | 146 | 0.9 | 5.2 | 0.00 | 0.00 | 0.00 | 79 | 1019.0 |
| 20260906182621 | 60 | 186 | 1.7 | 5.2 | 0.00 | 0.00 | 0.00 | 79 | 1019.0 |
| 20260906182609 | 60 | 130 | 1.7 | 5.2 | 0.00 | 0.00 | 0.00 | 80 | 1019.0 |
| 20260906182551 | 60 | 129 | 1.7 | 5.2 | 0.00 | 0.00 | 0.00 | 80 | 1019.0 |
| 20260906182542 | 60 | 135 | 2.6 | 5.2 | 0.00 | 0.00 | 0.00 | 80 | 1019.0 |
| 20260906182526 | 60 | 135 | 2.6 | 7.0 | 0.00 | 0.00 | 0.00 | 80 | 1019.0 |
| 20260906182510 | 60 | 117 | 2.6 | 7.0 | 0.00 | 0.00 | 0.00 | 80 | 1019.0 |
| 20260906182504 | 60 | 125 | 1.7 | 7.0 | 0.00 | 0.00 | 0.00 | 80 | 1019.0 |
| 20260906182438 | 60 | 223 | 2.6 | 7.0 | 0.00 | 0.00 | 0.00 | 80 | 1019.0 |
| 20260906182434 | 60 | 136 | 0.0 | 7.0 | 0.00 | 0.00 | 0.00 | 80 | 1019.0 |
| 20260906182414 | 60 | 97 | 4.3 | 7.0 | 0.00 | 0.00 | 0.00 | 80 | 1019.0 |
| 20260906182406 | 59 | 97 | 4.3 | 7.0 | 0.00 | 0.00 | 0.00 | 80 | 1019.0 |
| 20260906182350 | 59 | 97 | 4.3 | 7.0 | 0.00 | 0.00 | 0.00 | 80 | 1019.0 |
| 20260906182337 | 59 | 173 | 2.6 | 5.2 | 0.00 | 0.00 | 0.00 | 80 | 1019.0 |
| 20260906182318 | 59 | 141 | 0.9 | 3.5 | 0.00 | 0.00 | 0.00 | 80 | 1019.0 |
| 20260906182310 | 59 | 142 | 0.0 | 3.5 | 0.00 | 0.00 | 0.00 | 80 | 1019.0 |
| 20260906182306 | 59 | 142 | 0.0 | 3.5 | 0.00 | 0.00 | 0.00 | 79 | 1019.0 |
| 20260906182246 | 59 | 237 | 0.0 | 3.5 | 0.00 | 0.00 | 0.00 | 79 | 1019.0 |
| 20260906182230 | 59 | 102 | 0.0 | 3.5 | 0.00 | 0.00 | 0.00 | 79 | 1019.0 |
| 20260906182214 | 59 | 177 | 1.7 | 3.5 | 0.00 | 0.00 | 0.00 | 79 | 1019.0 |
| 20260906182210 | 59 | 145 | 0.9 | 5.2 | 0.00 | 0.00 | 0.00 | 79 | 1019.0 |
| 20260906182142 | 59 | 145 | 1.7 | 5.2 | 0.00 | 0.00 | 0.00 | 79 | 1019.0 |
| 20260906182126 | 59 | 179 | 0.0 | 5.2 | 0.00 | 0.00 | 0.00 | 79 | 1019.0 |
| 20260906182104 | 59 | 72 | 0.9 | 5.2 | 0.00 | 0.00 | 0.00 | 79 | 1019.0 |
| 20260906182048 | 59 | 111 | 0.9 | 5.2 | 0.00 | 0.00 | 0.00 | 79 | 1019.0 |
| 20260906182030 | 59 | 158 | 3.5 | 6.1 | 0.00 | 0.00 | 0.00 | 79 | 1019.0 |
| 20260906182014 | 59 | 126 | 1.7 | 6.1 | 0.00 | 0.00 | 0.00 | 79 | 1019.0 |
| 20260906182006 | 59 | 110 | 1.7 | 6.1 | 0.00 | 0.00 | 0.00 | 79 | 1019.0 |
| 20260906181958 | 59 | 110 | 1.7 | 6.1 | 0.00 | 0.00 | 0.00 | 79 | 1019.0 |
| 20260906181952 | 59 | 98 | 2.6 | 6.1 | 0.00 | 0.00 | 0.00 | 80 | 1019.0 |
| 20260906181927 | 59 | 132 | 3.5 | 6.1 | 0.00 | 0.00 | 0.00 | 80 | 1019.0 |
| 20260906181909 | 59 | 147 | 2.6 | 6.1 | 0.00 | 0.00 | 0.00 | 80 | 1019.0 |
| 20260906181902 | 59 | 141 | 3.5 | 6.1 | 0.00 | 0.00 | 0.00 | 80 | 1019.0 |
| 20260906181854 | 59 | 141 | 3.5 | 6.1 | 0.00 | 0.00 | 0.00 | 80 | 1019.0 |
| 20260906181840 | 59 | 160 | 1.7 | 2.6 | 0.00 | 0.00 | 0.00 | 79 | 1019.0 |
| 20260906181825 | 59 | 153 | 0.9 | 2.6 | 0.00 | 0.00 | 0.00 | 79 | 1019.0 |
| 20260906181806 | 59 | 142 | 0.0 | 2.6 | 0.00 | 0.00 | 0.00 | 79 | 1019.0 |
| 20260906181750 | 59 | 116 | 0.9 | 2.6 | 0.00 | 0.00 | 0.00 | 79 | 1019.0 |
| 20260906181733 | 59 | 133 | 1.7 | 2.6 | 0.00 | 0.00 | 0.00 | 79 | 1019.0 |
| 20260906181718 | 59 | 122 | 0.9 | 2.6 | 0.00 | 0.00 | 0.00 | 79 | 1019.0 |
| 20260906181704 | 59 | 45 | 0.0 | 2.6 | 0.00 | 0.00 | 0.00 | 79 | 1019.0 |
| 20260906181638 | 59 | 291 | 0.9 | 2.6 | 0.00 | 0.00 | 0.00 | 79 | 1019.0 |
| 20260906181622 | 59 | 111 | 1.7 | 3.5 | 0.00 | 0.00 | 0.00 | 79 | 1019.0 |
| 20260906181614 | 59 | 112 | 1.7 | 3.5 | 0.00 | 0.00 | 0.00 | 79 | 1019.0 |
| 20260906181607 | 59 | 112 | 1.7 | 5.2 | 0.00 | 0.00 | 0.00 | 79 | 1019.0 |
| 20260906181550 | 59 | 158 | 2.6 | 5.2 | 0.00 | 0.00 | 0.00 | 79 | 1019.0 |
| 20260906181544 | 59 | 57 | 0.9 | 5.2 | 0.00 | 0.00 | 0.00 | 79 | 1019.0 |
| 20260906181519 | 59 | 107 | 0.9 | 5.2 | 0.00 | 0.00 | 0.00 | 79 | 1019.0 |
| 20260906181504 | 59 | 135 | 1.7 | 5.2 | 0.00 | 0.00 | 0.00 | 79 | 1019.0 |
| 20260906181446 | 59 | 149 | 2.6 | 5.2 | 0.00 | 0.00 | 0.00 | 79 | 1019.0 |
| 20260906181440 | 59 | 137 | 1.7 | 5.2 | 0.00 | 0.00 | 0.00 | 79 | 1019.0 |
| 20260906181416 | 59 | 80 | 3.5 | 5.2 | 0.00 | 0.00 | 0.00 | 78 | 1019.0 |
| 20260906181358 | 59 | 85 | 2.6 | 5.2 | 0.00 | 0.00 | 0.00 | 78 | 1019.0 |
| 20260906181342 | 59 | 115 | 0.9 | 5.2 | 0.00 | 0.00 | 0.00 | 78 | 1019.0 |
| 20260906181333 | 59 | 146 | 1.7 | 5.2 | 0.00 | 0.00 | 0.00 | 78 | 1019.0 |
| 20260906181326 | 59 | 146 | 1.7 | 5.2 | 0.00 | 0.00 | 0.00 | 79 | 1019.0 |
| 20260906181310 | 59 | 120 | 2.6 | 5.2 | 0.00 | 0.00 | 0.00 | 79 | 1019.0 |
| 20260906181301 | 59 | 161 | 2.6 | 5.2 | 0.00 | 0.00 | 0.00 | 79 | 1019.0 |
| 20260906181254 | 59 | 161 | 2.6 | 5.2 | 0.00 | 0.00 | 0.00 | 79 | 1019.0 |
| 20260906181238 | 59 | 145 | 1.7 | 5.2 | 0.00 | 0.00 | 0.00 | 79 | 1019.0 |
| 20260906181229 | 59 | 63 | 3.5 | 5.2 | 0.00 | 0.00 | 0.00 | 79 | 1019.0 |
| 20260906181213 | 60 | 63 | 3.5 | 5.2 | 0.00 | 0.00 | 0.00 | 78 | 1019.0 |
| 20260906181200 | 60 | 96 | 2.6 | 5.2 | 0.00 | 0.00 | 0.00 | 78 | 1019.0 |
| 20260906181142 | 60 | 157 | 1.7 | 5.2 | 0.00 | 0.00 | 0.00 | 78 | 1019.0 |
| 20260906181136 | 60 | 160 | 0.9 | 5.2 | 0.00 | 0.00 | 0.00 | 78 | 1019.0 |
| 20260906181109 | 60 | 271 | 1.7 | 5.2 | 0.00 | 0.00 | 0.00 | 78 | 1019.0 |
| 20260906181104 | 60 | 155 | 2.6 | 7.8 | 0.00 | 0.00 | 0.00 | 78 | 1019.0 |
| 20260906181040 | 60 | 148 | 4.3 | 7.8 | 0.00 | 0.00 | 0.00 | 78 | 1019.0 |
| 20260906181024 | 60 | 120 | 2.6 | 7.8 | 0.00 | 0.00 | 0.00 | 78 | 1019.0 |
| 20260906181005 | 60 | 223 | 2.6 | 7.8 | 0.00 | 0.00 | 0.00 | 78 | 1019.0 |
| 20260906180949 | 60 | 156 | 1.7 | 7.8 | 0.00 | 0.00 | 0.00 | 78 | 1019.0 |
| 20260906180934 | 60 | 141 | 0.9 | 7.8 | 0.00 | 0.00 | 0.00 | 78 | 1019.0 |
| 20260906180917 | 60 | 111 | 4.3 | 7.8 | 0.00 | 0.00 | 0.00 | 78 | 1019.0 |
| 20260906180912 | 60 | 132 | 3.5 | 6.1 | 0.00 | 0.00 | 0.00 | 78 | 1019.0 |
| 20260906180845 | 60 | 146 | 2.6 | 5.2 | 0.00 | 0.00 | 0.00 | 78 | 1019.0 |
| 20260906180829 | 60 | 83 | 0.9 | 3.5 | 0.00 | 0.00 | 0.00 | 78 | 1019.0 |
| 20260906180806 | 60 | 84 | 2.6 | 3.5 | 0.00 | 0.00 | 0.00 | 78 | 1019.0 |
| 20260906180749 | 60 | 84 | 2.6 | 3.5 | 0.00 | 0.00 | 0.00 | 78 | 1019.0 |
| 20260906180739 | 60 | 174 | 1.7 | 3.5 | 0.00 | 0.00 | 0.00 | 78 | 1019.0 |
| 20260906180712 | 60 | 144 | 0.9 | 3.5 | 0.00 | 0.00 | 0.00 | 78 | 1019.0 |
| 20260906180645 | 60 | 167 | 1.7 | 3.5 | 0.00 | 0.00 | 0.00 | 78 | 1019.0 |
| 20260906180637 | 60 | 105 | 3.5 | 3.5 | 0.00 | 0.00 | 0.00 | 78 | 1019.0 |
| 20260906180630 | 60 | 105 | 3.5 | 5.2 | 0.00 | 0.00 | 0.00 | 78 | 1019.0 |
| 20260906180614 | 60 | 151 | 2.6 | 5.2 | 0.00 | 0.00 | 0.00 | 78 | 1019.0 |
| 20260906180605 | 60 | 140 | 0.9 | 5.2 | 0.00 | 0.00 | 0.00 | 78 | 1019.0 |
| 20260906180558 | 60 | 140 | 0.9 | 5.2 | 0.00 | 0.00 | 0.00 | 78 | 1019.0 |
| 20260906180552 | 60 | 161 | 1.7 | 5.2 | 0.00 | 0.00 | 0.00 | 78 | 1019.0 |
| 20260906180537 | 60 | 144 | 1.7 | 5.2 | 0.00 | 0.00 | 0.00 | 78 | 1019.0 |
| 20260906180509 | 60 | 99 | 3.5 | 5.2 | 0.00 | 0.00 | 0.00 | 78 | 1019.0 |
| 20260906180501 | 60 | 132 | 1.7 | 5.2 | 0.00 | 0.00 | 0.00 | 78 | 1019.0 |
| 20260906180453 | 60 | 132 | 1.7 | 5.2 | 0.00 | 0.00 | 0.00 | 78 | 1019.0 |
| 20260906180440 | 60 | 127 | 3.5 | 5.2 | 0.00 | 0.00 | 0.00 | 78 | 1019.0 |
| 20260906180422 | 60 | 94 | 1.7 | 3.5 | 0.00 | 0.00 | 0.00 | 78 | 1019.0 |
| 20260906180416 | 60 | 155 | 0.9 | 3.5 | 0.00 | 0.00 | 0.00 | 78 | 1019.0 |
| 20260906180349 | 60 | 137 | 0.9 | 3.5 | 0.00 | 0.00 | 0.00 | 78 | 1019.0 |
| 20260906180326 | 60 | 110 | 1.7 | 3.5 | 0.00 | 0.00 | 0.00 | 78 | 1019.0 |
| 20260906180309 | 60 | 181 | 2.6 | 3.5 | 0.00 | 0.00 | 0.00 | 78 | 1019.0 |
| 20260906180302 | 60 | 169 | 1.7 | 3.5 | 0.00 | 0.00 | 0.00 | 78 | 1019.0 |
| 20260906180254 | 60 | 169 | 1.7 | 3.5 | 0.00 | 0.00 | 0.00 | 78 | 1019.0 |
| 20260906180237 | 60 | 91 | 0.9 | 3.5 | 0.00 | 0.00 | 0.00 | 78 | 1019.0 |
| 20260906180221 | 60 | 178 | 1.7 | 3.5 | 0.00 | 0.00 | 0.00 | 78 | 1019.0 |
| 20260906180205 | 60 | 160 | 1.7 | 3.5 | 0.00 | 0.00 | 0.00 | 78 | 1019.0 |
| 20260906180203 | 60 | 165 | 0.9 | 3.5 | 0.00 | 0.00 | 0.00 | 78 | 1019.0 |
| 20260906180133 | 60 | 67 | 1.7 | 3.5 | 0.00 | 0.00 | 0.00 | 77 | 1019.0 |
| 20260906180117 | 60 | 173 | 1.7 | 2.6 | 0.00 | 0.00 | 0.00 | 77 | 1019.0 |
| 20260906180046 | 60 | 108 | 0.9 | 2.6 | 0.00 | 0.00 | 0.00 | 77 | 1019.0 |
| 20260906180030 | 60 | 97 | 1.7 | 2.6 | 0.00 | 0.00 | 0.00 | 77 | 1019.0 |
| 20260906180014 | 60 | 138 | 1.7 | 2.6 | 0.00 | 0.00 | 0.00 | 77 | 1019.0 |
| 20260906180006 | 60 | 105 | 0.9 | 3.5 | 0.00 | 0.00 | 0.00 | 77 | 1019.0 |
| 20260906175957 | 60 | 105 | 0.9 | 3.5 | 0.00 | 0.00 | 0.00 | 77 | 1019.0 |
| 20260906175941 | 60 | 93 | 0.9 | 3.5 | 0.00 | 0.00 | 0.00 | 77 | 1019.0 |
| 20260906175925 | 60 | 138 | 1.7 | 3.5 | 0.00 | 0.00 | 0.00 | 77 | 1019.0 |
| 20260906175902 | 60 | 87 | 1.7 | 3.5 | 0.00 | 0.00 | 0.00 | 77 | 1019.0 |
| 20260906175848 | 60 | 144 | 1.7 | 3.5 | 0.00 | 0.00 | 0.00 | 77 | 1019.0 |
| 20260906175830 | 60 | 144 | 3.5 | 3.5 | 0.00 | 0.00 | 0.00 | 78 | 1019.0 |
| 20260906175814 | 60 | 95 | 2.6 | 2.6 | 0.00 | 0.00 | 0.00 | 78 | 1019.0 |
| 20260906175805 | 60 | 191 | 2.6 | 2.6 | 0.00 | 0.00 | 0.00 | 78 | 1019.0 |
| 20260906175758 | 60 | 191 | 2.6 | 2.6 | 0.00 | 0.00 | 0.00 | 78 | 1019.0 |
| 20260906175733 | 60 | 116 | 0.9 | 1.7 | 0.00 | 0.00 | 0.00 | 78 | 1019.0 |
| 20260906175730 | 60 | 116 | 0.9 | 1.7 | 0.00 | 0.00 | 0.00 | 77 | 1019.0 |
| 20260906175701 | 60 | 95 | 1.7 | 2.6 | 0.00 | 0.00 | 0.00 | 77 | 1019.0 |
| 20260906175654 | 60 | 95 | 1.7 | 2.6 | 0.00 | 0.00 | 0.00 | 77 | 1019.0 |
| 20260906175648 | 60 | 95 | 1.7 | 2.6 | 0.00 | 0.00 | 0.00 | 77 | 1019.0 |
| 20260906175608 | 60 | 141 | 0.9 | 2.6 | 0.00 | 0.00 | 0.00 | 77 | 1019.0 |
| 20260906175551 | 60 | 169 | 0.9 | 2.6 | 0.00 | 0.00 | 0.00 | 77 | 1019.0 |
| 20260906175544 | 60 | 113 | 1.7 | 2.6 | 0.00 | 0.00 | 0.00 | 77 | 1019.0 |
| 20260906175517 | 60 | 127 | 1.7 | 2.6 | 0.00 | 0.00 | 0.00 | 77 | 1019.0 |
| 20260906175504 | 60 | 141 | 0.9 | 2.6 | 0.00 | 0.00 | 0.00 | 77 | 1019.0 |
| 20260906175440 | 60 | 133 | 1.7 | 2.6 | 0.00 | 0.00 | 0.00 | 77 | 1019.0 |
| 20260906175421 | 60 | 136 | 1.7 | 2.6 | 0.00 | 0.00 | 0.00 | 77 | 1019.0 |
| 20260906175408 | 60 | 198 | 0.9 | 2.6 | 0.00 | 0.00 | 0.00 | 77 | 1019.0 |
| 20260906175352 | 60 | 127 | 0.9 | 2.6 | 0.00 | 0.00 | 0.00 | 77 | 1019.0 |
| 20260906175333 | 60 | 92 | 0.9 | 2.6 | 0.00 | 0.00 | 0.00 | 77 | 1019.0 |
| 20260906175317 | 60 | 152 | 1.7 | 2.6 | 0.00 | 0.00 | 0.00 | 77 | 1019.0 |
| 20260906175306 | 60 | 96 | 1.7 | 2.6 | 0.00 | 0.00 | 0.00 | 77 | 1019.0 |
| 20260906175245 | 60 | 97 | 1.7 | 2.6 | 0.00 | 0.00 | 0.00 | 77 | 1019.0 |
| 20260906175242 | 60 | 82 | 1.7 | 2.6 | 0.00 | 0.00 | 0.00 | 77 | 1019.0 |
| 20260906175213 | 60 | 132 | 1.7 | 3.5 | 0.00 | 0.00 | 0.00 | 77 | 1019.0 |
| 20260906175210 | 61 | 94 | 1.7 | 6.1 | 0.00 | 0.00 | 0.00 | 76 | 1019.0 |
| 20260906175143 | 61 | 121 | 0.9 | 6.1 | 0.00 | 0.00 | 0.00 | 76 | 1019.0 |
| 20260906175109 | 61 | 136 | 1.7 | 6.1 | 0.00 | 0.00 | 0.00 | 76 | 1019.0 |
| 20260906175101 | 61 | 128 | 3.5 | 6.1 | 0.00 | 0.00 | 0.00 | 77 | 1019.0 |
| 20260906175053 | 61 | 128 | 3.5 | 6.1 | 0.00 | 0.00 | 0.00 | 77 | 1019.0 |
| 20260906175038 | 61 | 139 | 4.3 | 6.1 | 0.00 | 0.00 | 0.00 | 77 | 1019.0 |
| 20260906175013 | 61 | 165 | 3.5 | 5.2 | 0.00 | 0.00 | 0.00 | 77 | 1019.0 |
| 20260906175005 | 61 | 111 | 1.7 | 7.0 | 0.00 | 0.00 | 0.00 | 77 | 1019.0 |
| 20260906174958 | 61 | 111 | 1.7 | 7.0 | 0.00 | 0.00 | 0.00 | 77 | 1019.0 |
| 20260906174942 | 61 | 79 | 2.6 | 7.0 | 0.00 | 0.00 | 0.00 | 77 | 1019.0 |
| 20260906174925 | 61 | 183 | 2.6 | 7.0 | 0.00 | 0.00 | 0.00 | 77 | 1019.0 |
| 20260906174910 | 61 | 117 | 3.5 | 7.0 | 0.00 | 0.00 | 0.00 | 77 | 1019.0 |
| 20260906174901 | 61 | 103 | 2.6 | 7.0 | 0.00 | 0.00 | 0.00 | 77 | 1019.0 |
| 20260906174855 | 61 | 103 | 2.6 | 7.0 | 0.00 | 0.00 | 0.00 | 76 | 1019.0 |
| 20260906174837 | 61 | 126 | 2.6 | 7.0 | 0.00 | 0.00 | 0.00 | 76 | 1019.0 |
| 20260906174821 | 61 | 49 | 5.2 | 7.0 | 0.00 | 0.00 | 0.00 | 76 | 1019.0 |
| 20260906174806 | 61 | 87 | 0.9 | 7.0 | 0.00 | 0.00 | 0.00 | 76 | 1019.0 |
| 20260906174802 | 61 | 162 | 1.7 | 7.0 | 0.00 | 0.00 | 0.00 | 76 | 1019.0 |
| 20260906174734 | 61 | 103 | 0.9 | 7.0 | 0.00 | 0.00 | 0.00 | 76 | 1019.0 |
| 20260906174718 | 61 | 125 | 1.7 | 7.0 | 0.00 | 0.00 | 0.00 | 76 | 1019.0 |
| 20260906174701 | 61 | 108 | 1.7 | 7.0 | 0.00 | 0.00 | 0.00 | 76 | 1019.0 |
| 20260906174658 | 61 | 163 | 3.5 | 7.0 | 0.00 | 0.00 | 0.00 | 76 | 1019.0 |
| 20260906174631 | 61 | 132 | 4.3 | 5.2 | 0.00 | 0.00 | 0.00 | 76 | 1019.0 |
| 20260906174614 | 61 | 135 | 2.6 | 3.5 | 0.00 | 0.00 | 0.00 | 76 | 1019.0 |
| 20260906174605 | 61 | 120 | 2.6 | 3.5 | 0.00 | 0.00 | 0.00 | 76 | 1019.0 |
| 20260906174549 | 61 | 120 | 2.6 | 3.5 | 0.00 | 0.00 | 0.00 | 76 | 1019.0 |
| 20260906174533 | 61 | 131 | 1.7 | 3.5 | 0.00 | 0.00 | 0.00 | 76 | 1019.0 |
| 20260906174504 | 61 | 105 | 2.6 | 3.5 | 0.00 | 0.00 | 0.00 | 76 | 1019.0 |
| 20260906174445 | 61 | 131 | 1.7 | 2.6 | 0.00 | 0.00 | 0.00 | 76 | 1019.0 |
| 20260906174438 | 61 | 113 | 0.9 | 2.6 | 0.00 | 0.00 | 0.00 | 76 | 1019.0 |
| 20260906174429 | 61 | 113 | 0.9 | 5.2 | 0.00 | 0.00 | 0.00 | 76 | 1019.0 |
| 20260906174413 | 61 | 131 | 0.9 | 5.2 | 0.00 | 0.00 | 0.00 | 76 | 1019.0 |
| 20260906174405 | 61 | 139 | 0.9 | 5.2 | 0.00 | 0.00 | 0.00 | 76 | 1019.0 |
| 20260906174357 | 61 | 139 | 0.9 | 5.2 | 0.00 | 0.00 | 0.00 | 76 | 1019.0 |
| 20260906174341 | 61 | 95 | 1.7 | 5.2 | 0.00 | 0.00 | 0.00 | 76 | 1019.0 |
| 20260906174325 | 62 | 128 | 1.7 | 5.2 | 0.00 | 0.00 | 0.00 | 76 | 1019.0 |
| 20260906174311 | 62 | 133 | 3.5 | 5.2 | 0.00 | 0.00 | 0.00 | 76 | 1019.0 |
| 20260906174301 | 62 | 92 | 1.7 | 3.5 | 0.00 | 0.00 | 0.00 | 76 | 1019.0 |
| 20260906174240 | 62 | 92 | 1.7 | 3.5 | 0.00 | 0.00 | 0.00 | 76 | 1019.0 |
| 20260906174221 | 62 | 107 | 1.7 | 2.6 | 0.00 | 0.00 | 0.00 | 76 | 1019.0 |
| 20260906174213 | 62 | 115 | 0.9 | 1.7 | 0.00 | 0.00 | 0.00 | 76 | 1019.0 |
| 20260906174206 | 62 | 115 | 0.9 | 2.6 | 0.00 | 0.00 | 0.00 | 76 | 1019.0 |
| 20260906174151 | 62 | 107 | 0.0 | 2.6 | 0.00 | 0.00 | 0.00 | 76 | 1019.0 |
| 20260906174126 | 62 | 136 | 0.0 | 2.6 | 0.00 | 0.00 | 0.00 | 76 | 1019.0 |
| 20260906174119 | 62 | 136 | 0.9 | 2.6 | 0.00 | 0.00 | 0.00 | 76 | 1019.0 |
| 20260906174102 | 62 | 96 | 0.9 | 2.6 | 0.00 | 0.00 | 0.00 | 76 | 1019.0 |
| 20260906174053 | 62 | 96 | 0.9 | 2.6 | 0.00 | 0.00 | 0.00 | 76 | 1019.0 |
| 20260906174037 | 62 | 145 | 1.7 | 2.6 | 0.00 | 0.00 | 0.00 | 76 | 1019.0 |
| 20260906174029 | 62 | 154 | 1.7 | 2.6 | 0.00 | 0.00 | 0.00 | 76 | 1019.0 |
| 20260906174022 | 62 | 154 | 1.7 | 2.6 | 0.00 | 0.00 | 0.00 | 75 | 1019.0 |
| 20260906174006 | 62 | 117 | 0.0 | 1.7 | 0.00 | 0.00 | 0.00 | 75 | 1019.0 |
| 20260906173949 | 62 | 117 | 0.9 | 1.7 | 0.00 | 0.00 | 0.00 | 75 | 1019.0 |
| 20260906173933 | 62 | 119 | 1.7 | 1.7 | 0.00 | 0.00 | 0.00 | 75 | 1019.0 |
| 20260906173925 | 62 | 187 | 0.9 | 1.7 | 0.00 | 0.00 | 0.00 | 75 | 1019.0 |
| 20260906173917 | 62 | 187 | 0.9 | 1.7 | 0.00 | 0.00 | 0.00 | 76 | 1019.0 |
| 20260906173915 | 62 | 124 | 0.0 | 1.7 | 0.00 | 0.00 | 0.00 | 76 | 1019.0 |
| 20260906173847 | 62 | 118 | 0.0 | 3.5 | 0.00 | 0.00 | 0.00 | 76 | 1019.0 |
| 20260906173831 | 62 | 119 | 0.0 | 3.5 | 0.00 | 0.00 | 0.00 | 76 | 1019.0 |
| 20260906173813 | 62 | 153 | 0.9 | 3.5 | 0.00 | 0.00 | 0.00 | 76 | 1019.0 |
| 20260906173808 | 62 | 157 | 1.7 | 3.5 | 0.00 | 0.00 | 0.00 | 76 | 1019.0 |
| 20260906173744 | 62 | 111 | 1.7 | 3.5 | 0.00 | 0.00 | 0.00 | 76 | 1019.0 |
| 20260906173726 | 62 | 127 | 0.0 | 0.9 | 0.00 | 0.00 | 0.00 | 76 | 1019.0 |
| 20260906173701 | 62 | 143 | 0.0 | 0.9 | 0.00 | 0.00 | 0.00 | 76 | 1019.0 |
| 20260906173645 | 62 | 143 | 0.0 | 0.9 | 0.00 | 0.00 | 0.00 | 76 | 1019.0 |
| 20260906173629 | 62 | 146 | 0.9 | 0.9 | 0.00 | 0.00 | 0.00 | 76 | 1019.0 |
| 20260906173613 | 62 | 128 | 0.0 | 0.9 | 0.00 | 0.00 | 0.00 | 76 | 1019.0 |
| 20260906173605 | 62 | 170 | 0.9 | 0.9 | 0.00 | 0.00 | 0.00 | 76 | 1019.0 |
| 20260906173557 | 62 | 170 | 0.9 | 0.9 | 0.00 | 0.00 | 0.00 | 76 | 1019.0 |
| 20260906173554 | 62 | 130 | 0.0 | 0.9 | 0.00 | 0.00 | 0.00 | 76 | 1019.0 |
| 20260906173525 | 62 | 130 | 0.0 | 1.7 | 0.00 | 0.00 | 0.00 | 76 | 1019.0 |
| 20260906173509 | 62 | 130 | 0.0 | 1.7 | 0.00 | 0.00 | 0.00 | 76 | 1019.0 |
| 20260906173501 | 62 | 130 | 0.0 | 1.7 | 0.00 | 0.00 | 0.00 | 76 | 1019.0 |
| 20260906173453 | 62 | 130 | 0.0 | 1.7 | 0.00 | 0.00 | 0.00 | 76 | 1019.0 |
| 20260906173437 | 62 | 130 | 0.0 | 1.7 | 0.00 | 0.00 | 0.00 | 76 | 1019.0 |
| 20260906173421 | 62 | 130 | 0.9 | 1.7 | 0.00 | 0.00 | 0.00 | 76 | 1019.0 |
| 20260906173413 | 62 | 130 | 0.9 | 1.7 | 0.00 | 0.00 | 0.00 | 76 | 1019.0 |
| 20260906173405 | 62 | 130 | 0.9 | 2.6 | 0.00 | 0.00 | 0.00 | 76 | 1019.0 |
| 20260906173350 | 62 | 130 | 0.9 | 2.6 | 0.00 | 0.00 | 0.00 | 76 | 1019.0 |
| 20260906173333 | 62 | 133 | 0.0 | 2.6 | 0.00 | 0.00 | 0.00 | 76 | 1019.0 |
| 20260906173320 | 62 | 165 | 0.9 | 2.6 | 0.00 | 0.00 | 0.00 | 76 | 1019.0 |
| 20260906173301 | 62 | 173 | 0.9 | 6.1 | 0.00 | 0.00 | 0.00 | 76 | 1019.0 |
| 20260906173237 | 62 | 145 | 0.0 | 6.1 | 0.00 | 0.00 | 0.00 | 76 | 1019.0 |
| 20260906173223 | 62 | 135 | 1.7 | 6.1 | 0.00 | 0.00 | 0.00 | 76 | 1019.0 |
| 20260906173205 | 62 | 205 | 0.9 | 6.1 | 0.00 | 0.00 | 0.00 | 76 | 1019.0 |
| 20260906173157 | 62 | 144 | 0.9 | 6.1 | 0.00 | 0.00 | 0.00 | 76 | 1019.0 |
| 20260906173150 | 62 | 144 | 0.9 | 6.1 | 0.00 | 0.00 | 0.00 | 75 | 1019.0 |
| 20260906173133 | 62 | 177 | 4.3 | 6.1 | 0.00 | 0.00 | 0.00 | 75 | 1019.0 |
| 20260906173120 | 62 | 209 | 2.6 | 3.5 | 0.00 | 0.00 | 0.00 | 75 | 1019.0 |
| 20260906173101 | 62 | 106 | 0.9 | 5.2 | 0.00 | 0.00 | 0.00 | 75 | 1019.0 |
| 20260906173053 | 62 | 173 | 0.9 | 5.2 | 0.00 | 0.00 | 0.00 | 75 | 1019.0 |
| 20260906173045 | 62 | 173 | 0.9 | 5.2 | 0.00 | 0.00 | 0.00 | 76 | 1019.0 |
| 20260906173041 | 62 | 209 | 0.0 | 5.2 | 0.00 | 0.00 | 0.00 | 76 | 1019.0 |
| 20260906173014 | 62 | 107 | 0.9 | 5.2 | 0.00 | 0.00 | 0.00 | 76 | 1019.0 |
| 20260906173005 | 62 | 200 | 1.7 | 5.2 | 0.00 | 0.00 | 0.00 | 76 | 1019.0 |
| 20260906172957 | 62 | 200 | 1.7 | 5.2 | 0.00 | 0.00 | 0.00 | 76 | 1019.0 |
| 20260906172944 | 62 | 236 | 2.6 | 5.2 | 0.00 | 0.00 | 0.00 | 76 | 1019.0 |
| 20260906172927 | 62 | 165 | 1.7 | 5.2 | 0.00 | 0.00 | 0.00 | 76 | 1019.0 |
| 20260906172909 | 62 | 178 | 1.7 | 3.5 | 0.00 | 0.00 | 0.00 | 76 | 1019.0 |
| 20260906172901 | 62 | 246 | 2.6 | 2.6 | 0.00 | 0.00 | 0.00 | 76 | 1019.0 |
| 20260906172853 | 62 | 246 | 2.6 | 2.6 | 0.00 | 0.00 | 0.00 | 76 | 1019.0 |
| 20260906172845 | 62 | 214 | 0.9 | 1.7 | 0.00 | 0.00 | 0.00 | 76 | 1019.0 |
| 20260906172821 | 62 | 151 | 0.0 | 1.7 | 0.00 | 0.00 | 0.00 | 76 | 1019.0 |
| 20260906172806 | 62 | 218 | 0.9 | 2.6 | 0.00 | 0.00 | 0.00 | 76 | 1019.0 |
| 20260906172800 | 62 | 218 | 0.9 | 2.6 | 0.00 | 0.00 | 0.00 | 76 | 1019.0 |
| 20260906172735 | 62 | 153 | 0.0 | 2.6 | 0.00 | 0.00 | 0.00 | 76 | 1019.0 |
| 20260906172713 | 62 | 98 | 0.9 | 2.6 | 0.00 | 0.00 | 0.00 | 76 | 1019.0 |
| 20260906172655 | 62 | 121 | 0.9 | 2.6 | 0.00 | 0.00 | 0.00 | 76 | 1019.0 |
| 20260906172637 | 62 | 126 | 0.9 | 2.6 | 0.00 | 0.00 | 0.00 | 76 | 1019.0 |
| 20260906172622 | 62 | 122 | 1.7 | 2.6 | 0.00 | 0.00 | 0.00 | 76 | 1019.0 |
| 20260906172618 | 62 | 147 | 1.7 | 1.7 | 0.00 | 0.00 | 0.00 | 76 | 1019.0 |
| 20260906172550 | 62 | 211 | 0.9 | 1.7 | 0.00 | 0.00 | 0.00 | 76 | 1019.0 |
| 20260906172534 | 62 | 189 | 0.9 | 1.7 | 0.00 | 0.00 | 0.00 | 76 | 1019.0 |
| 20260906172518 | 62 | 198 | 1.7 | 1.7 | 0.00 | 0.00 | 0.00 | 76 | 1019.0 |
| 20260906172502 | 62 | 141 | 0.9 | 1.7 | 0.00 | 0.00 | 0.00 | 76 | 1019.0 |
| 20260906172445 | 62 | 102 | 0.9 | 1.7 | 0.00 | 0.00 | 0.00 | 76 | 1019.0 |
| 20260906172429 | 62 | 99 | 0.0 | 1.7 | 0.00 | 0.00 | 0.00 | 76 | 1019.0 |
| 20260906172416 | 62 | 127 | 0.0 | 1.7 | 0.00 | 0.00 | 0.00 | 76 | 1019.0 |
| 20260906172351 | 62 | 131 | 0.0 | 1.7 | 0.00 | 0.00 | 0.00 | 76 | 1019.0 |
| 20260906172334 | 62 | 142 | 0.9 | 1.7 | 0.00 | 0.00 | 0.00 | 76 | 1019.0 |
| 20260906172319 | 62 | 159 | 0.9 | 1.7 | 0.00 | 0.00 | 0.00 | 76 | 1019.0 |
| 20260906172310 | 62 | 147 | 0.0 | 1.7 | 0.00 | 0.00 | 0.00 | 76 | 1019.0 |
| 20260906172306 | 62 | 147 | 0.0 | 5.2 | 0.00 | 0.00 | 0.00 | 76 | 1019.0 |
| 20260906172246 | 62 | 158 | 0.9 | 5.2 | 0.00 | 0.00 | 0.00 | 76 | 1019.0 |
| 20260906172230 | 62 | 124 | 1.7 | 5.2 | 0.00 | 0.00 | 0.00 | 76 | 1019.0 |
| 20260906172222 | 62 | 135 | 1.7 | 5.2 | 0.00 | 0.00 | 0.00 | 76 | 1019.0 |
| 20260906172206 | 62 | 194 | 1.7 | 5.2 | 0.00 | 0.00 | 0.00 | 77 | 1019.0 |
| 20260906172158 | 62 | 194 | 1.7 | 5.2 | 0.00 | 0.00 | 0.00 | 77 | 1019.0 |
| 20260906172142 | 62 | 178 | 2.6 | 5.2 | 0.00 | 0.00 | 0.00 | 77 | 1019.0 |
| 20260906172130 | 62 | 186 | 1.7 | 3.5 | 0.00 | 0.00 | 0.00 | 77 | 1019.0 |
| 20260906172112 | 62 | 116 | 1.7 | 2.6 | 0.00 | 0.00 | 0.00 | 76 | 1019.0 |
| 20260906172102 | 62 | 157 | 1.7 | 2.6 | 0.00 | 0.00 | 0.00 | 76 | 1019.0 |
| 20260906172054 | 62 | 157 | 1.7 | 2.6 | 0.00 | 0.00 | 0.00 | 76 | 1019.0 |
| 20260906172043 | 62 | 209 | 0.9 | 1.7 | 0.00 | 0.00 | 0.00 | 76 | 1019.0 |
| 20260906172014 | 62 | 119 | 0.0 | 1.7 | 0.00 | 0.00 | 0.00 | 76 | 1019.0 |
| 20260906171950 | 62 | 91 | 0.0 | 1.7 | 0.00 | 0.00 | 0.00 | 76 | 1019.0 |
| 20260906171942 | 62 | 290 | 0.0 | 1.7 | 0.00 | 0.00 | 0.00 | 76 | 1019.0 |
| 20260906171926 | 62 | 290 | 0.0 | 2.6 | 0.00 | 0.00 | 0.00 | 76 | 1019.0 |
| 20260906171913 | 62 | 55 | 0.9 | 2.6 | 0.00 | 0.00 | 0.00 | 76 | 1019.0 |
| 20260906171854 | 62 | 133 | 0.9 | 3.5 | 0.00 | 0.00 | 0.00 | 75 | 1019.0 |
| 20260906171838 | 62 | 224 | 1.7 | 3.5 | 0.00 | 0.00 | 0.00 | 75 | 1019.0 |
| 20260906171823 | 62 | 356 | 0.0 | 3.5 | 0.00 | 0.00 | 0.00 | 75 | 1019.0 |
| 20260906171750 | 62 | 106 | 2.6 | 3.5 | 0.00 | 0.00 | 0.00 | 75 | 1019.0 |
| 20260906171742 | 62 | 159 | 1.7 | 3.5 | 0.00 | 0.00 | 0.00 | 75 | 1019.0 |
| 20260906171734 | 62 | 159 | 1.7 | 5.2 | 0.00 | 0.00 | 0.00 | 75 | 1019.0 |
| 20260906171718 | 62 | 134 | 1.7 | 5.2 | 0.00 | 0.00 | 0.00 | 75 | 1019.0 |
| 20260906171713 | 62 | 88 | 1.7 | 5.2 | 0.00 | 0.00 | 0.00 | 75 | 1019.0 |
| 20260906171647 | 62 | 139 | 1.7 | 5.2 | 0.00 | 0.00 | 0.00 | 76 | 1019.0 |
| 20260906171630 | 62 | 192 | 2.6 | 5.2 | 0.00 | 0.00 | 0.00 | 76 | 1019.0 |
| 20260906171624 | 62 | 139 | 2.6 | 5.2 | 0.00 | 0.00 | 0.00 | 76 | 1019.0 |
| 20260906171606 | 62 | 134 | 1.7 | 3.5 | 0.00 | 0.00 | 0.00 | 76 | 1019.0 |
| 20260906171558 | 62 | 134 | 1.7 | 3.5 | 0.00 | 0.00 | 0.00 | 76 | 1019.0 |
| 20260906171553 | 62 | 108 | 0.0 | 1.7 | 0.00 | 0.00 | 0.00 | 75 | 1019.0 |
| 20260906171527 | 62 | 118 | 0.0 | 3.5 | 0.00 | 0.00 | 0.00 | 75 | 1019.0 |
| 20260906171523 | 62 | 161 | 0.9 | 3.5 | 0.00 | 0.00 | 0.00 | 75 | 1019.0 |
| 20260906171454 | 62 | 139 | 0.9 | 3.5 | 0.00 | 0.00 | 0.00 | 75 | 1019.0 |
| 20260906171448 | 63 | 139 | 0.9 | 3.5 | 0.00 | 0.00 | 0.00 | 75 | 1019.0 |
| 20260906171430 | 63 | 168 | 0.9 | 3.5 | 0.00 | 0.00 | 0.00 | 75 | 1019.0 |
| 20260906171401 | 63 | 207 | 1.7 | 3.5 | 0.00 | 0.00 | 0.00 | 75 | 1019.0 |
| 20260906171342 | 63 | 156 | 1.7 | 3.5 | 0.00 | 0.00 | 0.00 | 75 | 1019.0 |
| 20260906171326 | 63 | 164 | 2.6 | 3.5 | 0.00 | 0.00 | 0.00 | 75 | 1019.0 |
| 20260906171322 | 63 | 163 | 2.6 | 3.5 | 0.00 | 0.00 | 0.00 | 75 | 1019.0 |
| 20260906171308 | 63 | 108 | 2.6 | 3.5 | 0.00 | 0.00 | 0.00 | 75 | 1019.0 |
| 20260906171239 | 63 | 116 | 1.7 | 3.5 | 0.00 | 0.00 | 0.00 | 75 | 1019.0 |
| 20260906171232 | 63 | 128 | 1.7 | 3.5 | 0.00 | 0.00 | 0.00 | 75 | 1019.0 |
| 20260906171216 | 63 | 137 | 1.7 | 2.6 | 0.00 | 0.00 | 0.00 | 75 | 1019.0 |
| 20260906171150 | 63 | 199 | 0.9 | 3.5 | 0.00 | 0.00 | 0.00 | 75 | 1019.0 |
| 20260906171142 | 63 | 102 | 0.0 | 3.5 | 0.00 | 0.00 | 0.00 | 75 | 1019.0 |
| 20260906171133 | 63 | 102 | 0.0 | 3.5 | 0.00 | 0.00 | 0.00 | 74 | 1019.0 |
| 20260906171117 | 63 | 107 | 0.0 | 3.5 | 0.00 | 0.00 | 0.00 | 74 | 1019.0 |
| 20260906171102 | 63 | 107 | 1.7 | 3.5 | 0.00 | 0.00 | 0.00 | 74 | 1019.0 |
| 20260906171042 | 63 | 131 | 3.5 | 3.5 | 0.00 | 0.00 | 0.00 | 74 | 1019.0 |
| 20260906171006 | 63 | 123 | 1.7 | 5.2 | 0.00 | 0.00 | 0.00 | 74 | 1019.0 |
| 20260906170950 | 63 | 182 | 1.7 | 5.2 | 0.00 | 0.00 | 0.00 | 74 | 1019.0 |
| 20260906170934 | 63 | 166 | 1.7 | 5.2 | 0.00 | 0.00 | 0.00 | 74 | 1019.0 |
| 20260906170922 | 63 | 218 | 1.7 | 5.2 | 0.00 | 0.00 | 0.00 | 75 | 1019.0 |
| 20260906170901 | 63 | 190 | 3.5 | 5.2 | 0.00 | 0.00 | 0.00 | 75 | 1019.0 |
| 20260906170848 | 63 | 211 | 1.7 | 3.5 | 0.00 | 0.00 | 0.00 | 75 | 1019.0 |
| 20260906170830 | 63 | 134 | 3.5 | 3.5 | 0.00 | 0.00 | 0.00 | 75 | 1019.0 |
| 20260906170824 | 63 | 175 | 1.7 | 2.6 | 0.00 | 0.00 | 0.00 | 78 | 1019.0 |
| 20260906170800 | 63 | 141 | 2.6 | 2.6 | 0.00 | 0.00 | 0.00 | 78 | 1019.0 |
| 20260906170741 | 63 | 155 | 2.6 | 2.6 | 0.00 | 0.00 | 0.00 | 78 | 1019.0 |
| 20260906170728 | 63 | 132 | 1.7 | 2.6 | 0.00 | 0.00 | 0.00 | 78 | 1019.0 |
| 20260906170710 | 63 | 145 | 0.0 | 1.7 | 0.00 | 0.00 | 0.00 | 78 | 1019.0 |
| 20260906170701 | 63 | 180 | 0.0 | 0.9 | 0.00 | 0.00 | 0.00 | 78 | 1019.0 |
| 20260906170653 | 63 | 180 | 0.0 | 0.9 | 0.00 | 0.00 | 0.00 | 78 | 1019.0 |
| 20260906170650 | 63 | 234 | 0.0 | 0.9 | 0.00 | 0.00 | 0.00 | 78 | 1019.0 |
| 20260906170622 | 63 | 116 | 0.9 | 1.7 | 0.00 | 0.00 | 0.00 | 78 | 1019.0 |
| 20260906170614 | 62 | 116 | 0.9 | 1.7 | 0.00 | 0.00 | 0.00 | 78 | 1019.0 |
| 20260906170605 | 62 | 139 | 0.9 | 5.2 | 0.00 | 0.00 | 0.00 | 78 | 1019.0 |
| 20260906170557 | 62 | 139 | 0.9 | 5.2 | 0.00 | 0.00 | 0.00 | 78 | 1019.0 |
| 20260906170552 | 62 | 98 | 0.9 | 5.2 | 0.00 | 0.00 | 0.00 | 78 | 1019.0 |
| 20260906170518 | 62 | 151 | 0.9 | 5.2 | 0.00 | 0.00 | 0.00 | 78 | 1019.0 |
| 20260906170509 | 62 | 151 | 0.9 | 5.2 | 0.00 | 0.00 | 0.00 | 77 | 1019.0 |
| 20260906170502 | 62 | 143 | 0.9 | 5.2 | 0.00 | 0.00 | 0.00 | 77 | 1019.0 |
| 20260906170453 | 62 | 143 | 0.9 | 5.2 | 0.00 | 0.00 | 0.00 | 77 | 1019.0 |
| 20260906170440 | 62 | 149 | 1.7 | 5.2 | 0.00 | 0.00 | 0.00 | 77 | 1019.0 |
| 20260906170421 | 62 | 158 | 3.5 | 5.2 | 0.00 | 0.00 | 0.00 | 77 | 1019.0 |
| 20260906170414 | 62 | 215 | 2.6 | 5.2 | 0.00 | 0.00 | 0.00 | 77 | 1019.0 |
| 20260906170408 | 62 | 215 | 2.6 | 5.2 | 0.00 | 0.00 | 0.00 | 78 | 1019.0 |
| 20260906170349 | 62 | 170 | 2.6 | 3.5 | 0.00 | 0.00 | 0.00 | 78 | 1019.0 |
| 20260906170335 | 62 | 238 | 2.6 | 2.6 | 0.00 | 0.00 | 0.00 | 78 | 1019.0 |
| 20260906170317 | 62 | 189 | 1.7 | 2.6 | 0.00 | 0.00 | 0.00 | 78 | 1019.0 |
| 20260906170310 | 62 | 173 | 0.9 | 1.7 | 0.00 | 0.00 | 0.00 | 78 | 1019.0 |
| 20260906170301 | 62 | 173 | 0.9 | 3.5 | 0.00 | 0.00 | 0.00 | 79 | 1019.0 |
| 20260906170245 | 62 | 138 | 0.9 | 3.5 | 0.00 | 0.00 | 0.00 | 79 | 1019.0 |
| 20260906170234 | 62 | 210 | 0.9 | 3.5 | 0.00 | 0.00 | 0.00 | 79 | 1019.0 |
| 20260906170206 | 62 | 139 | 0.9 | 3.5 | 0.00 | 0.00 | 0.00 | 79 | 1019.0 |
| 20260906170152 | 62 | 139 | 0.9 | 3.5 | 0.00 | 0.00 | 0.00 | 79 | 1019.0 |
| 20260906170137 | 62 | 223 | 3.5 | 3.5 | 0.00 | 0.00 | 0.00 | 79 | 1019.0 |
| 20260906170120 | 62 | 193 | 0.9 | 2.6 | 0.00 | 0.00 | 0.00 | 79 | 1019.0 |
| 20260906170045 | 62 | 173 | 1.7 | 2.6 | 0.00 | 0.00 | 0.00 | 79 | 1019.0 |
| 20260906170030 | 62 | 124 | 1.7 | 2.6 | 0.00 | 0.00 | 0.00 | 79 | 1019.0 |
| 20260906170013 | 62 | 115 | 1.7 | 2.6 | 0.00 | 0.00 | 0.00 | 79 | 1019.0 |
| 20260906170005 | 62 | 153 | 0.9 | 2.6 | 0.00 | 0.00 | 0.00 | 79 | 1019.0 |
| 20260906165958 | 62 | 153 | 0.9 | 2.6 | 0.00 | 0.00 | 0.00 | 79 | 1019.0 |
| 20260906165941 | 61 | 194 | 2.6 | 2.6 | 0.00 | 0.00 | 0.00 | 79 | 1019.0 |
| 20260906165928 | 61 | 120 | 0.9 | 2.6 | 0.00 | 0.00 | 0.00 | 79 | 1019.0 |
| 20260906165915 | 61 | 136 | 0.9 | 2.6 | 0.00 | 0.00 | 0.00 | 79 | 1019.0 |
| 20260906165848 | 61 | 146 | 0.0 | 2.6 | 0.00 | 0.00 | 0.00 | 79 | 1019.0 |
| 20260906165821 | 61 | 61 | 1.7 | 2.6 | 0.00 | 0.00 | 0.00 | 79 | 1019.0 |
| 20260906165813 | 61 | 95 | 1.7 | 1.7 | 0.00 | 0.00 | 0.00 | 79 | 1019.0 |
| 20260906165805 | 61 | 95 | 1.7 | 2.6 | 0.00 | 0.00 | 0.00 | 79 | 1019.0 |
| 20260906165802 | 61 | 149 | 1.7 | 2.6 | 0.00 | 0.00 | 0.00 | 79 | 1019.0 |
| 20260906165725 | 61 | 130 | 0.9 | 2.6 | 0.00 | 0.00 | 0.00 | 80 | 1019.0 |
| 20260906165711 | 61 | 121 | 0.0 | 2.6 | 0.00 | 0.00 | 0.00 | 80 | 1019.0 |
| 20260906165653 | 61 | 170 | 0.0 | 2.6 | 0.00 | 0.00 | 0.00 | 80 | 1019.0 |
| 20260906165637 | 61 | 78 | 1.7 | 2.6 | 0.00 | 0.00 | 0.00 | 80 | 1019.0 |
| 20260906165621 | 61 | 75 | 1.7 | 2.6 | 0.00 | 0.00 | 0.00 | 80 | 1019.0 |
| 20260906165610 | 61 | 136 | 1.7 | 2.6 | 0.00 | 0.00 | 0.00 | 80 | 1019.0 |
| 20260906165550 | 61 | 151 | 0.0 | 2.6 | 0.00 | 0.00 | 0.00 | 80 | 1019.0 |
| 20260906165542 | 61 | 155 | 1.7 | 2.6 | 0.00 | 0.00 | 0.00 | 80 | 1019.0 |
| 20260906165533 | 61 | 155 | 1.7 | 2.6 | 0.00 | 0.00 | 0.00 | 81 | 1019.0 |
| 20260906165519 | 61 | 174 | 1.7 | 2.6 | 0.00 | 0.00 | 0.00 | 81 | 1019.0 |
| 20260906165501 | 61 | 272 | 0.0 | 0.0 | 0.00 | 0.00 | 0.00 | 81 | 1019.0 |
| 20260906165445 | 61 | 272 | 0.0 | 0.0 | 0.00 | 0.00 | 0.00 | 81 | 1019.0 |
| 20260906165429 | 61 | 272 | 0.0 | 0.0 | 0.00 | 0.00 | 0.00 | 81 | 1019.0 |
| 20260906165424 | 61 | 272 | 0.0 | 0.0 | 0.00 | 0.00 | 0.00 | 81 | 1019.0 |
| 20260906165405 | 61 | 272 | 0.0 | 0.0 | 0.00 | 0.00 | 0.00 | 81 | 1019.0 |
| 20260906165357 | 61 | 272 | 0.0 | 0.0 | 0.00 | 0.00 | 0.00 | 81 | 1019.0 |
| 20260906165346 | 61 | 272 | 0.0 | 0.0 | 0.00 | 0.00 | 0.00 | 81 | 1019.0 |
| 20260906165325 | 60 | 272 | 0.0 | 0.9 | 0.00 | 0.00 | 0.00 | 81 | 1019.0 |
| 20260906165301 | 60 | 272 | 0.0 | 0.9 | 0.00 | 0.00 | 0.00 | 81 | 1019.0 |
| 20260906165245 | 60 | 272 | 0.0 | 0.9 | 0.00 | 0.00 | 0.00 | 81 | 1019.0 |
| 20260906165238 | 60 | 272 | 0.0 | 0.9 | 0.00 | 0.00 | 0.00 | 81 | 1019.0 |
| 20260906165232 | 60 | 272 | 0.0 | 2.6 | 0.00 | 0.00 | 0.00 | 81 | 1019.0 |
| 20260906165214 | 60 | 272 | 0.0 | 2.6 | 0.00 | 0.00 | 0.00 | 80 | 1019.0 |
| 20260906165208 | 60 | 272 | 0.0 | 2.6 | 0.00 | 0.00 | 0.00 | 80 | 1019.0 |
| 20260906165141 | 60 | 272 | 0.0 | 2.6 | 0.00 | 0.00 | 0.00 | 80 | 1019.0 |
| 20260906165125 | 60 | 273 | 0.0 | 2.6 | 0.00 | 0.00 | 0.00 | 80 | 1019.0 |
| 20260906165110 | 60 | 273 | 0.9 | 2.6 | 0.00 | 0.00 | 0.00 | 82 | 1019.0 |
| 20260906165104 | 60 | 150 | 1.7 | 2.6 | 0.00 | 0.00 | 0.00 | 82 | 1019.0 |
| 20260906165037 | 60 | 139 | 0.9 | 1.7 | 0.00 | 0.00 | 0.00 | 82 | 1019.0 |
| 20260906165021 | 60 | 89 | 0.9 | 1.7 | 0.00 | 0.00 | 0.00 | 82 | 1019.0 |
| 20260906165005 | 60 | 103 | 0.9 | 1.7 | 0.00 | 0.00 | 0.00 | 82 | 1019.0 |
| 20260906164950 | 60 | 103 | 0.9 | 1.7 | 0.00 | 0.00 | 0.00 | 82 | 1019.0 |
| 20260906164941 | 60 | 104 | 0.9 | 0.9 | 0.00 | 0.00 | 0.00 | 82 | 1019.0 |
| 20260906164933 | 60 | 104 | 0.9 | 1.7 | 0.00 | 0.00 | 0.00 | 82 | 1019.0 |
| 20260906164918 | 60 | 135 | 0.0 | 1.7 | 0.00 | 0.00 | 0.00 | 82 | 1019.0 |
| 20260906164912 | 60 | 148 | 0.9 | 1.7 | 0.00 | 0.00 | 0.00 | 82 | 1019.0 |
| 20260906164837 | 60 | 147 | 0.0 | 1.7 | 0.00 | 0.00 | 0.00 | 82 | 1019.0 |
| 20260906164833 | 60 | 140 | 0.9 | 1.7 | 0.00 | 0.00 | 0.00 | 82 | 1019.0 |
| 20260906164805 | 60 | 121 | 0.0 | 1.7 | 0.00 | 0.00 | 0.00 | 82 | 1019.0 |
| 20260906164749 | 60 | 258 | 0.9 | 1.7 | 0.00 | 0.00 | 0.00 | 82 | 1019.0 |
| 20260906164736 | 60 | 250 | 0.9 | 0.9 | 0.00 | 0.00 | 0.00 | 82 | 1019.0 |
| 20260906164701 | 60 | 157 | 0.0 | 0.0 | 0.00 | 0.00 | 0.00 | 82 | 1019.0 |
| 20260906164645 | 60 | 141 | 0.0 | 0.0 | 0.00 | 0.00 | 0.00 | 82 | 1019.0 |
| 20260906164629 | 60 | 141 | 0.0 | 0.0 | 0.00 | 0.00 | 0.00 | 82 | 1019.0 |
| 20260906164613 | 60 | 141 | 0.0 | 0.0 | 0.00 | 0.00 | 0.00 | 82 | 1019.0 |
| 20260906164605 | 60 | 148 | 0.0 | 0.0 | 0.00 | 0.00 | 0.00 | 82 | 1019.0 |
| 20260906164557 | 60 | 148 | 0.0 | 0.0 | 0.00 | 0.00 | 0.00 | 82 | 1019.0 |
| 20260906164544 | 60 | 148 | 0.0 | 0.0 | 0.00 | 0.00 | 0.00 | 82 | 1019.0 |
| 20260906164512 | 60 | 148 | 0.0 | 0.0 | 0.00 | 0.00 | 0.00 | 82 | 1019.0 |
| 20260906164456 | 60 | 148 | 0.0 | 0.0 | 0.00 | 0.00 | 0.00 | 81 | 1019.0 |
| 20260906164405 | 60 | 148 | 0.0 | 0.0 | 0.00 | 0.00 | 0.00 | 81 | 1019.0 |
| 20260906164357 | 60 | 148 | 0.0 | 0.0 | 0.00 | 0.00 | 0.00 | 81 | 1019.0 |
| 20260906164325 | 60 | 148 | 0.0 | 0.0 | 0.00 | 0.00 | 0.00 | 82 | 1019.0 |
| 20260906164310 | 60 | 148 | 0.0 | 0.0 | 0.00 | 0.00 | 0.00 | 82 | 1019.0 |
| 20260906164301 | 60 | 148 | 0.0 | 0.0 | 0.00 | 0.00 | 0.00 | 82 | 1019.0 |
| 20260906164253 | 60 | 148 | 0.0 | 0.0 | 0.00 | 0.00 | 0.00 | 82 | 1019.0 |
| 20260906164238 | 60 | 148 | 0.0 | 0.0 | 0.00 | 0.00 | 0.00 | 82 | 1019.0 |
| 20260906164224 | 60 | 148 | 0.0 | 0.0 | 0.00 | 0.00 | 0.00 | 82 | 1019.0 |
| 20260906164205 | 60 | 152 | 0.0 | 0.0 | 0.00 | 0.00 | 0.00 | 82 | 1019.0 |
| 20260906164149 | 60 | 152 | 0.0 | 0.0 | 0.00 | 0.00 | 0.00 | 82 | 1019.0 |
| 20260906164133 | 60 | 152 | 0.0 | 0.0 | 0.00 | 0.00 | 0.00 | 81 | 1019.0 |
| 20260906164118 | 60 | 152 | 0.0 | 0.0 | 0.00 | 0.00 | 0.00 | 81 | 1019.0 |
| 20260906164104 | 60 | 152 | 0.0 | 0.0 | 0.00 | 0.00 | 0.00 | 81 | 1019.0 |
| 20260906164047 | 60 | 152 | 0.0 | 0.0 | 0.00 | 0.00 | 0.00 | 81 | 1019.0 |
| 20260906164029 | 59 | 160 | 0.0 | 0.0 | 0.00 | 0.00 | 0.00 | 83 | 1019.0 |
| 20260906164014 | 59 | 205 | 0.0 | 0.0 | 0.00 | 0.00 | 0.00 | 83 | 1019.0 |
| 20260906164005 | 59 | 210 | 0.0 | 0.0 | 0.00 | 0.00 | 0.00 | 83 | 1019.0 |
| 20260906163949 | 59 | 210 | 0.0 | 0.0 | 0.00 | 0.00 | 0.00 | 83 | 1019.0 |
| 20260906163933 | 59 | 210 | 0.0 | 0.0 | 0.00 | 0.00 | 0.00 | 83 | 1019.0 |
| 20260906163930 | 59 | 207 | 0.0 | 0.0 | 0.00 | 0.00 | 0.00 | 83 | 1019.0 |
| 20260906163901 | 59 | 207 | 0.0 | 0.9 | 0.00 | 0.00 | 0.00 | 83 | 1019.0 |
| 20260906163845 | 59 | 189 | 0.0 | 0.9 | 0.00 | 0.00 | 0.00 | 83 | 1019.0 |
| 20260906163823 | 59 | 158 | 0.0 | 0.9 | 0.00 | 0.00 | 0.00 | 83 | 1019.0 |
| 20260906163806 | 59 | 190 | 0.0 | 2.6 | 0.00 | 0.00 | 0.00 | 83 | 1019.0 |
| 20260906163757 | 59 | 190 | 0.0 | 2.6 | 0.00 | 0.00 | 0.00 | 83 | 1019.0 |
| 20260906163741 | 59 | 244 | 0.0 | 2.6 | 0.00 | 0.00 | 0.00 | 83 | 1019.0 |
| 20260906163725 | 59 | 245 | 0.9 | 2.6 | 0.00 | 0.00 | 0.00 | 83 | 1019.0 |
| 20260906163709 | 59 | 197 | 0.0 | 2.6 | 0.00 | 0.00 | 0.00 | 83 | 1019.0 |
| 20260906163703 | 59 | 118 | 0.0 | 2.6 | 0.00 | 0.00 | 0.00 | 83 | 1019.0 |
| 20260906163653 | 59 | 118 | 0.0 | 2.6 | 0.00 | 0.00 | 0.00 | 83 | 1019.0 |
| 20260906163637 | 59 | 118 | 0.9 | 2.6 | 0.00 | 0.00 | 0.00 | 83 | 1019.0 |
| 20260906163629 | 59 | 172 | 1.7 | 1.7 | 0.00 | 0.00 | 0.00 | 83 | 1019.0 |
| 20260906163621 | 59 | 172 | 1.7 | 1.7 | 0.00 | 0.00 | 0.00 | 82 | 1019.0 |
| 20260906163605 | 59 | 239 | 0.9 | 1.7 | 0.00 | 0.00 | 0.00 | 82 | 1019.0 |
| 20260906163549 | 59 | 161 | 0.0 | 1.7 | 0.00 | 0.00 | 0.00 | 82 | 1019.0 |
| 20260906163525 | 59 | 146 | 0.0 | 1.7 | 0.00 | 0.00 | 0.00 | 82 | 1019.0 |
| 20260906163509 | 59 | 154 | 0.0 | 1.7 | 0.00 | 0.00 | 0.00 | 83 | 1019.0 |
| 20260906163505 | 59 | 139 | 0.0 | 1.7 | 0.00 | 0.00 | 0.00 | 83 | 1019.0 |
| 20260906163437 | 59 | 168 | 0.0 | 1.7 | 0.00 | 0.00 | 0.00 | 83 | 1019.0 |
| 20260906163423 | 59 | 169 | 0.9 | 2.6 | 0.00 | 0.00 | 0.00 | 83 | 1019.0 |
| 20260906163405 | 59 | 168 | 0.9 | 2.6 | 0.00 | 0.00 | 0.00 | 83 | 1019.0 |
| 20260906163349 | 59 | 134 | 0.0 | 2.6 | 0.00 | 0.00 | 0.00 | 83 | 1019.0 |
| 20260906163334 | 59 | 175 | 0.0 | 2.6 | 0.00 | 0.00 | 0.00 | 83 | 1019.0 |
| 20260906163317 | 59 | 175 | 0.9 | 2.6 | 0.00 | 0.00 | 0.00 | 83 | 1019.0 |
| 20260906163313 | 59 | 148 | 1.7 | 2.6 | 0.00 | 0.00 | 0.00 | 84 | 1019.0 |
| 20260906163248 | 59 | 223 | 1.7 | 2.6 | 0.00 | 0.00 | 0.00 | 84 | 1019.0 |
| 20260906163229 | 59 | 194 | 0.0 | 1.7 | 0.00 | 0.00 | 0.00 | 84 | 1019.0 |
| 20260906163213 | 59 | 195 | 1.7 | 1.7 | 0.00 | 0.00 | 0.00 | 84 | 1019.0 |
| 20260906163208 | 59 | 217 | 0.9 | 1.7 | 0.00 | 0.00 | 0.00 | 84 | 1019.0 |
| 20260906163141 | 59 | 234 | 0.0 | 1.7 | 0.00 | 0.00 | 0.00 | 84 | 1019.0 |
| 20260906163125 | 59 | 114 | 0.0 | 1.7 | 0.00 | 0.00 | 0.00 | 84 | 1019.0 |
| 20260906163109 | 59 | 164 | 0.0 | 1.7 | 0.00 | 0.00 | 0.00 | 84 | 1019.0 |
| 20260906163101 | 59 | 164 | 0.0 | 1.7 | 0.00 | 0.00 | 0.00 | 83 | 1019.0 |
| 20260906163046 | 59 | 205 | 1.7 | 1.7 | 0.00 | 0.00 | 0.00 | 83 | 1019.0 |
| 20260906163040 | 59 | 203 | 0.9 | 1.7 | 0.00 | 0.00 | 0.00 | 83 | 1019.0 |
| 20260906163018 | 59 | 152 | 0.9 | 0.9 | 0.00 | 0.00 | 0.00 | 83 | 1019.0 |
| 20260906162941 | 59 | 180 | 0.0 | 0.9 | 0.00 | 0.00 | 0.00 | 83 | 1019.0 |
| 20260906162927 | 59 | 180 | 0.0 | 1.7 | 0.00 | 0.00 | 0.00 | 83 | 1019.0 |
| 20260906162909 | 59 | 180 | 0.0 | 1.7 | 0.00 | 0.00 | 0.00 | 83 | 1019.0 |
| 20260906162903 | 59 | 69 | 0.0 | 1.7 | 0.00 | 0.00 | 0.00 | 83 | 1019.0 |
| 20260906162838 | 59 | 69 | 0.0 | 1.7 | 0.00 | 0.00 | 0.00 | 83 | 1019.0 |
| 20260906162825 | 59 | 69 | 0.0 | 1.7 | 0.00 | 0.00 | 0.00 | 83 | 1019.0 |
| 20260906162749 | 59 | 71 | 0.9 | 1.7 | 0.00 | 0.00 | 0.00 | 83 | 1019.0 |
| 20260906162735 | 59 | 90 | 0.9 | 1.7 | 0.00 | 0.00 | 0.00 | 83 | 1019.0 |
| 20260906162728 | 59 | 90 | 0.9 | 0.9 | 0.00 | 0.00 | 0.00 | 83 | 1019.0 |
| 20260906162701 | 59 | 92 | 0.9 | 0.9 | 0.00 | 0.00 | 0.00 | 83 | 1019.0 |
| 20260906162653 | 59 | 92 | 0.9 | 0.9 | 0.00 | 0.00 | 0.00 | 83 | 1019.0 |
| 20260906162645 | 59 | 92 | 0.9 | 0.9 | 0.00 | 0.00 | 0.00 | 84 | 1019.0 |
| 20260906162623 | 59 | 92 | 0.0 | 0.9 | 0.00 | 0.00 | 0.00 | 84 | 1019.0 |
| 20260906162605 | 59 | 128 | 0.0 | 1.7 | 0.00 | 0.00 | 0.00 | 84 | 1019.0 |
| 20260906162554 | 59 | 128 | 0.0 | 1.7 | 0.00 | 0.00 | 0.00 | 84 | 1019.0 |
| 20260906162517 | 59 | 128 | 0.0 | 1.7 | 0.00 | 0.00 | 0.00 | 84 | 1019.0 |
| 20260906162502 | 59 | 128 | 0.0 | 1.7 | 0.00 | 0.00 | 0.00 | 84 | 1019.0 |
| 20260906162445 | 59 | 128 | 0.9 | 1.7 | 0.00 | 0.00 | 0.00 | 84 | 1019.0 |
| 20260906162439 | 58 | 130 | 0.9 | 1.7 | 0.00 | 0.00 | 0.00 | 84 | 1019.0 |
| 20260906162413 | 58 | 131 | 1.7 | 1.7 | 0.00 | 0.00 | 0.00 | 84 | 1019.0 |
| 20260906162405 | 58 | 139 | 0.9 | 1.7 | 0.00 | 0.00 | 0.00 | 84 | 1019.0 |
| 20260906162345 | 58 | 165 | 0.0 | 1.7 | 0.00 | 0.00 | 0.00 | 84 | 1019.0 |
| 20260906162328 | 58 | 200 | 0.0 | 1.7 | 0.00 | 0.00 | 0.00 | 83 | 1019.0 |
| 20260906162305 | 58 | 126 | 0.9 | 1.7 | 0.00 | 0.00 | 0.00 | 83 | 1019.0 |
| 20260906162253 | 58 | 126 | 0.9 | 1.7 | 0.00 | 0.00 | 0.00 | 83 | 1019.0 |
| 20260906162237 | 58 | 141 | 0.0 | 1.7 | 0.00 | 0.00 | 0.00 | 83 | 1019.0 |
| 20260906162221 | 58 | 134 | 0.9 | 3.5 | 0.00 | 0.00 | 0.00 | 83 | 1019.0 |
| 20260906162206 | 58 | 144 | 0.9 | 3.5 | 0.00 | 0.00 | 0.00 | 83 | 1019.0 |
| 20260906162158 | 58 | 144 | 0.9 | 3.5 | 0.00 | 0.00 | 0.00 | 83 | 1019.0 |
| 20260906162142 | 58 | 139 | 0.9 | 3.5 | 0.00 | 0.00 | 0.00 | 83 | 1019.0 |
| 20260906162126 | 58 | 157 | 0.9 | 3.5 | 0.00 | 0.00 | 0.00 | 83 | 1019.0 |
| 20260906162114 | 58 | 140 | 0.9 | 3.5 | 0.00 | 0.00 | 0.00 | 83 | 1019.0 |
| 20260906162054 | 58 | 141 | 1.7 | 3.5 | 0.00 | 0.00 | 0.00 | 83 | 1019.0 |
| 20260906162038 | 58 | 128 | 0.9 | 2.6 | 0.00 | 0.00 | 0.00 | 83 | 1019.0 |
| 20260906162032 | 58 | 135 | 1.7 | 2.6 | 0.00 | 0.00 | 0.00 | 83 | 1019.0 |
| 20260906162017 | 59 | 172 | 2.6 | 2.6 | 0.00 | 0.00 | 0.00 | 84 | 1019.0 |
| 20260906161950 | 59 | 117 | 1.7 | 2.6 | 0.00 | 0.00 | 0.00 | 84 | 1019.0 |
| 20260906161934 | 59 | 130 | 1.7 | 2.6 | 0.00 | 0.00 | 0.00 | 84 | 1019.0 |
| 20260906161918 | 59 | 138 | 0.9 | 1.7 | 0.00 | 0.00 | 0.00 | 84 | 1019.0 |
| 20260906161902 | 59 | 141 | 0.9 | 1.7 | 0.00 | 0.00 | 0.00 | 84 | 1019.0 |
| 20260906161847 | 59 | 132 | 1.7 | 1.7 | 0.00 | 0.00 | 0.00 | 84 | 1019.0 |
| 20260906161830 | 59 | 116 | 0.9 | 1.7 | 0.00 | 0.00 | 0.00 | 84 | 1019.0 |
| 20260906161822 | 59 | 133 | 0.0 | 1.7 | 0.00 | 0.00 | 0.00 | 84 | 1019.0 |
| 20260906161814 | 58 | 133 | 0.0 | 1.7 | 0.00 | 0.00 | 0.00 | 84 | 1019.0 |
| 20260906161807 | 58 | 162 | 0.0 | 1.7 | 0.00 | 0.00 | 0.00 | 84 | 1019.0 |
| 20260906161750 | 58 | 162 | 0.0 | 1.7 | 0.00 | 0.00 | 0.00 | 84 | 1019.0 |
| 20260906161734 | 58 | 163 | 0.0 | 1.7 | 0.00 | 0.00 | 0.00 | 84 | 1019.0 |
| 20260906161718 | 58 | 57 | 0.9 | 1.7 | 0.00 | 0.00 | 0.00 | 84 | 1019.0 |
| 20260906161713 | 59 | 148 | 0.0 | 1.7 | 0.00 | 0.00 | 0.00 | 84 | 1019.0 |
| 20260906161646 | 59 | 150 | 0.0 | 2.6 | 0.00 | 0.00 | 0.00 | 84 | 1019.0 |
| 20260906161638 | 59 | 169 | 0.9 | 2.6 | 0.00 | 0.00 | 0.00 | 84 | 1019.0 |
| 20260906161630 | 59 | 169 | 0.9 | 5.2 | 0.00 | 0.00 | 0.00 | 84 | 1019.0 |
| 20260906161618 | 59 | 218 | 0.9 | 5.2 | 0.00 | 0.00 | 0.00 | 84 | 1019.0 |
| 20260906161544 | 58 | 234 | 1.7 | 5.2 | 0.00 | 0.00 | 0.00 | 84 | 1019.0 |
| 20260906161528 | 58 | 202 | 1.7 | 5.2 | 0.00 | 0.00 | 0.00 | 84 | 1019.0 |
| 20260906161520 | 58 | 225 | 2.6 | 5.2 | 0.00 | 0.00 | 0.00 | 84 | 1019.0 |
| 20260906161502 | 58 | 204 | 3.5 | 5.2 | 0.00 | 0.00 | 0.00 | 84 | 1019.0 |
| 20260906161455 | 58 | 204 | 3.5 | 5.2 | 0.00 | 0.00 | 0.00 | 84 | 1019.0 |
| 20260906161450 | 58 | 239 | 3.5 | 5.2 | 0.00 | 0.00 | 0.00 | 84 | 1019.0 |
| 20260906161422 | 58 | 207 | 1.7 | 5.2 | 0.00 | 0.00 | 0.00 | 84 | 1019.0 |
| 20260906161417 | 58 | 209 | 0.0 | 5.2 | 0.00 | 0.00 | 0.00 | 84 | 1019.0 |
| 20260906161352 | 58 | 195 | 0.0 | 5.2 | 0.00 | 0.00 | 0.00 | 84 | 1019.0 |
| 20260906161326 | 58 | 153 | 1.7 | 5.2 | 0.00 | 0.00 | 0.00 | 84 | 1019.0 |
| 20260906161310 | 58 | 137 | 0.9 | 5.2 | 0.00 | 0.00 | 0.00 | 84 | 1019.0 |
| 20260906161301 | 58 | 206 | 2.6 | 5.2 | 0.00 | 0.00 | 0.00 | 84 | 1019.0 |
| 20260906161253 | 58 | 206 | 2.6 | 5.2 | 0.00 | 0.00 | 0.00 | 85 | 1019.0 |
| 20260906161238 | 58 | 210 | 1.7 | 3.5 | 0.00 | 0.00 | 0.00 | 85 | 1019.0 |
| 20260906161222 | 58 | 145 | 1.7 | 2.6 | 0.00 | 0.00 | 0.00 | 85 | 1019.0 |
| 20260906161206 | 58 | 138 | 1.7 | 2.6 | 0.00 | 0.00 | 0.00 | 85 | 1019.0 |
| 20260906161149 | 58 | 129 | 0.9 | 2.6 | 0.00 | 0.00 | 0.00 | 85 | 1019.0 |
| 20260906161134 | 58 | 129 | 1.7 | 2.6 | 0.00 | 0.00 | 0.00 | 85 | 1019.0 |
| 20260906161128 | 58 | 143 | 1.7 | 2.6 | 0.00 | 0.00 | 0.00 | 85 | 1019.0 |
| 20260906161104 | 58 | 169 | 0.0 | 2.6 | 0.00 | 0.00 | 0.00 | 85 | 1019.0 |
| 20260906161048 | 58 | 182 | 0.0 | 2.6 | 0.00 | 0.00 | 0.00 | 85 | 1019.0 |
| 20260906161029 | 58 | 203 | 0.9 | 2.6 | 0.00 | 0.00 | 0.00 | 85 | 1019.0 |
| 20260906161017 | 58 | 194 | 1.7 | 2.6 | 0.00 | 0.00 | 0.00 | 85 | 1019.0 |
| 20260906160957 | 58 | 205 | 0.9 | 2.6 | 0.00 | 0.00 | 0.00 | 85 | 1020.0 |
| 20260906160941 | 58 | 193 | 0.0 | 2.6 | 0.00 | 0.00 | 0.00 | 85 | 1020.0 |
| 20260906160926 | 58 | 195 | 0.0 | 2.6 | 0.00 | 0.00 | 0.00 | 85 | 1020.0 |
| 20260906160910 | 58 | 121 | 0.9 | 2.6 | 0.00 | 0.00 | 0.00 | 85 | 1020.0 |
| 20260906160901 | 58 | 121 | 0.9 | 2.6 | 0.00 | 0.00 | 0.00 | 85 | 1019.0 |
| 20260906160851 | 58 | 215 | 0.9 | 2.6 | 0.00 | 0.00 | 0.00 | 85 | 1019.0 |
| 20260906160813 | 58 | 187 | 0.9 | 2.6 | 0.00 | 0.00 | 0.00 | 85 | 1019.0 |
| 20260906160805 | 58 | 147 | 0.9 | 2.6 | 0.00 | 0.00 | 0.00 | 85 | 1020.0 |
| 20260906160757 | 58 | 147 | 0.9 | 2.6 | 0.00 | 0.00 | 0.00 | 85 | 1020.0 |
| 20260906160751 | 58 | 141 | 0.9 | 2.6 | 0.00 | 0.00 | 0.00 | 85 | 1020.0 |
| 20260906160728 | 58 | 129 | 0.0 | 2.6 | 0.00 | 0.00 | 0.00 | 87 | 1020.0 |
| 20260906160709 | 58 | 202 | 1.7 | 2.6 | 0.00 | 0.00 | 0.00 | 87 | 1020.0 |
| 20260906160702 | 58 | 136 | 1.7 | 2.6 | 0.00 | 0.00 | 0.00 | 87 | 1019.0 |
| 20260906160653 | 58 | 136 | 1.7 | 2.6 | 0.00 | 0.00 | 0.00 | 87 | 1019.0 |
| 20260906160637 | 58 | 136 | 0.0 | 1.7 | 0.00 | 0.00 | 0.00 | 87 | 1019.0 |
| 20260906160621 | 58 | 58 | 0.0 | 2.6 | 0.00 | 0.00 | 0.00 | 86 | 1019.0 |
| 20260906160616 | 58 | 58 | 0.9 | 2.6 | 0.00 | 0.00 | 0.00 | 86 | 1019.0 |
| 20260906160600 | 58 | 182 | 0.0 | 2.6 | 0.00 | 0.00 | 0.00 | 86 | 1019.0 |
| 20260906160533 | 58 | 162 | 0.9 | 2.6 | 0.00 | 0.00 | 0.00 | 86 | 1019.0 |
| 20260906160530 | 58 | 211 | 0.9 | 2.6 | 0.00 | 0.00 | 0.00 | 86 | 1019.0 |
| 20260906160501 | 58 | 233 | 1.7 | 2.6 | 0.00 | 0.00 | 0.00 | 86 | 1019.0 |
| 20260906160438 | 58 | 225 | 1.7 | 2.6 | 0.00 | 0.00 | 0.00 | 86 | 1019.0 |
| 20260906160424 | 58 | 202 | 2.6 | 2.6 | 0.00 | 0.00 | 0.00 | 86 | 1019.0 |
| 20260906160406 | 58 | 230 | 0.9 | 2.6 | 0.00 | 0.00 | 0.00 | 86 | 1019.0 |
| 20260906160349 | 58 | 213 | 0.9 | 2.6 | 0.00 | 0.00 | 0.00 | 86 | 1019.0 |
| 20260906160341 | 58 | 135 | 0.9 | 2.6 | 0.00 | 0.00 | 0.00 | 86 | 1019.0 |
| 20260906160334 | 58 | 135 | 0.9 | 6.1 | 0.00 | 0.00 | 0.00 | 86 | 1019.0 |
| 20260906160317 | 58 | 110 | 0.9 | 6.1 | 0.00 | 0.00 | 0.00 | 86 | 1019.0 |
| 20260906160301 | 58 | 161 | 1.7 | 6.1 | 0.00 | 0.00 | 0.00 | 86 | 1019.0 |
| 20260906160246 | 58 | 150 | 2.6 | 6.1 | 0.00 | 0.00 | 0.00 | 86 | 1019.0 |
| 20260906160232 | 58 | 83 | 0.9 | 6.1 | 0.00 | 0.00 | 0.00 | 86 | 1019.0 |
| 20260906160213 | 57 | 208 | 0.9 | 6.1 | 0.00 | 0.00 | 0.00 | 86 | 1019.0 |
| 20260906160205 | 57 | 206 | 3.5 | 6.1 | 0.00 | 0.00 | 0.00 | 86 | 1019.0 |
| 20260906160158 | 57 | 206 | 3.5 | 6.1 | 0.00 | 0.00 | 0.00 | 86 | 1019.0 |
| 20260906160141 | 57 | 224 | 1.7 | 3.5 | 0.00 | 0.00 | 0.00 | 86 | 1019.0 |
| 20260906160128 | 57 | 154 | 0.0 | 1.7 | 0.00 | 0.00 | 0.00 | 86 | 1019.0 |
| 20260906160109 | 57 | 157 | 0.9 | 1.7 | 0.00 | 0.00 | 0.00 | 86 | 1019.0 |
| 20260906160104 | 57 | 155 | 1.7 | 1.7 | 0.00 | 0.00 | 0.00 | 86 | 1019.0 |
| 20260906160037 | 57 | 139 | 1.7 | 1.7 | 0.00 | 0.00 | 0.00 | 86 | 1019.0 |
| 20260906160014 | 57 | 132 | 1.7 | 1.7 | 0.00 | 0.00 | 0.00 | 86 | 1019.0 |
| 20260906160006 | 57 | 167 | 1.7 | 1.7 | 0.00 | 0.00 | 0.00 | 86 | 1019.0 |
| 20260906155957 | 57 | 167 | 1.7 | 1.7 | 0.00 | 0.00 | 0.00 | 86 | 1019.0 |
| 20260906155941 | 57 | 140 | 0.0 | 1.7 | 0.00 | 0.00 | 0.00 | 86 | 1019.0 |
| 20260906155925 | 57 | 141 | 0.0 | 1.7 | 0.00 | 0.00 | 0.00 | 86 | 1019.0 |
| 20260906155910 | 57 | 141 | 1.7 | 1.7 | 0.00 | 0.00 | 0.00 | 86 | 1019.0 |
| 20260906155901 | 57 | 131 | 0.9 | 1.7 | 0.00 | 0.00 | 0.00 | 86 | 1019.0 |
| 20260906155853 | 57 | 131 | 0.9 | 1.7 | 0.00 | 0.00 | 0.00 | 86 | 1019.0 |
| 20260906155840 | 57 | 153 | 0.0 | 0.0 | 0.00 | 0.00 | 0.00 | 86 | 1019.0 |
| 20260906155821 | 57 | 218 | 0.0 | 0.9 | 0.00 | 0.00 | 0.00 | 86 | 1019.0 |
| 20260906155805 | 57 | 218 | 0.0 | 0.9 | 0.00 | 0.00 | 0.00 | 86 | 1019.0 |
| 20260906155749 | 57 | 218 | 0.0 | 0.9 | 0.00 | 0.00 | 0.00 | 86 | 1019.0 |
| 20260906155741 | 57 | 172 | 0.0 | 0.9 | 0.00 | 0.00 | 0.00 | 86 | 1019.0 |
| 20260906155733 | 57 | 172 | 0.0 | 1.7 | 0.00 | 0.00 | 0.00 | 86 | 1019.0 |
| 20260906155717 | 57 | 172 | 0.0 | 1.7 | 0.00 | 0.00 | 0.00 | 86 | 1019.0 |
| 20260906155709 | 57 | 172 | 0.0 | 1.7 | 0.00 | 0.00 | 0.00 | 86 | 1019.0 |
| 20260906155702 | 57 | 172 | 0.0 | 2.6 | 0.00 | 0.00 | 0.00 | 86 | 1019.0 |
| 20260906155645 | 57 | 172 | 0.0 | 2.6 | 0.00 | 0.00 | 0.00 | 86 | 1019.0 |
| 20260906155629 | 57 | 172 | 0.9 | 2.6 | 0.00 | 0.00 | 0.00 | 86 | 1019.0 |
| 20260906155613 | 57 | 172 | 0.9 | 2.6 | 0.00 | 0.00 | 0.00 | 86 | 1019.0 |
| 20260906155608 | 57 | 215 | 0.9 | 2.6 | 0.00 | 0.00 | 0.00 | 86 | 1019.0 |
| 20260906155533 | 57 | 229 | 1.7 | 2.6 | 0.00 | 0.00 | 0.00 | 85 | 1019.0 |
| 20260906155528 | 57 | 211 | 0.9 | 1.7 | 0.00 | 0.00 | 0.00 | 85 | 1019.0 |
| 20260906155509 | 57 | 147 | 1.7 | 1.7 | 0.00 | 0.00 | 0.00 | 85 | 1019.0 |
| 20260906155502 | 57 | 147 | 1.7 | 3.5 | 0.00 | 0.00 | 0.00 | 85 | 1019.0 |
| 20260906155454 | 57 | 139 | 1.7 | 3.5 | 0.00 | 0.00 | 0.00 | 85 | 1019.0 |
| 20260906155448 | 57 | 139 | 1.7 | 3.5 | 0.00 | 0.00 | 0.00 | 86 | 1019.0 |
| 20260906155432 | 57 | 143 | 0.9 | 3.5 | 0.00 | 0.00 | 0.00 | 86 | 1019.0 |
| 20260906155413 | 57 | 143 | 1.7 | 3.5 | 0.00 | 0.00 | 0.00 | 86 | 1019.0 |
| 20260906155405 | 57 | 149 | 0.9 | 3.5 | 0.00 | 0.00 | 0.00 | 86 | 1019.0 |
| 20260906155357 | 57 | 149 | 0.9 | 3.5 | 0.00 | 0.00 | 0.00 | 86 | 1019.0 |
| 20260906155341 | 57 | 192 | 0.9 | 3.5 | 0.00 | 0.00 | 0.00 | 86 | 1019.0 |
| 20260906155326 | 57 | 216 | 1.7 | 3.5 | 0.00 | 0.00 | 0.00 | 86 | 1019.0 |
| 20260906155312 | 57 | 216 | 2.6 | 2.6 | 0.00 | 0.00 | 0.00 | 86 | 1019.0 |
| 20260906155254 | 57 | 226 | 1.7 | 2.6 | 0.00 | 0.00 | 0.00 | 86 | 1019.0 |
| 20260906155238 | 57 | 178 | 1.7 | 1.7 | 0.00 | 0.00 | 0.00 | 86 | 1019.0 |
| 20260906155221 | 57 | 202 | 0.0 | 1.7 | 0.00 | 0.00 | 0.00 | 86 | 1019.0 |
| 20260906155213 | 57 | 141 | 0.0 | 1.7 | 0.00 | 0.00 | 0.00 | 86 | 1019.0 |
| 20260906155205 | 57 | 141 | 0.0 | 2.6 | 0.00 | 0.00 | 0.00 | 86 | 1019.0 |
| 20260906155150 | 57 | 163 | 0.9 | 2.6 | 0.00 | 0.00 | 0.00 | 86 | 1019.0 |
| 20260906155135 | 57 | 168 | 0.9 | 2.6 | 0.00 | 0.00 | 0.00 | 86 | 1019.0 |
| 20260906155109 | 57 | 153 | 0.0 | 2.6 | 0.00 | 0.00 | 0.00 | 86 | 1019.0 |
| 20260906155101 | 57 | 138 | 0.9 | 2.6 | 0.00 | 0.00 | 0.00 | 86 | 1019.0 |
| 20260906155053 | 57 | 138 | 0.9 | 2.6 | 0.00 | 0.00 | 0.00 | 86 | 1019.0 |
| 20260906155038 | 57 | 136 | 0.9 | 2.6 | 0.00 | 0.00 | 0.00 | 86 | 1019.0 |
| 20260906155021 | 57 | 143 | 1.7 | 2.6 | 0.00 | 0.00 | 0.00 | 87 | 1019.0 |
| 20260906155005 | 57 | 142 | 1.7 | 2.6 | 0.00 | 0.00 | 0.00 | 87 | 1019.0 |
| 20260906154949 | 57 | 93 | 0.9 | 2.6 | 0.00 | 0.00 | 0.00 | 87 | 1019.0 |
| 20260906154944 | 57 | 96 | 0.9 | 2.6 | 0.00 | 0.00 | 0.00 | 87 | 1019.0 |
| 20260906154928 | 57 | 106 | 0.0 | 2.6 | 0.00 | 0.00 | 0.00 | 87 | 1019.0 |
| 20260906154901 | 57 | 94 | 0.9 | 2.6 | 0.00 | 0.00 | 0.00 | 87 | 1019.0 |
| 20260906154845 | 57 | 132 | 0.9 | 2.6 | 0.00 | 0.00 | 0.00 | 87 | 1019.0 |
| 20260906154829 | 57 | 92 | 0.9 | 2.6 | 0.00 | 0.00 | 0.00 | 87 | 1019.0 |
| 20260906154816 | 57 | 199 | 1.7 | 1.7 | 0.00 | 0.00 | 0.00 | 87 | 1019.0 |
| 20260906154757 | 57 | 144 | 0.0 | 0.9 | 0.00 | 0.00 | 0.00 | 87 | 1019.0 |
| 20260906154741 | 57 | 161 | 0.0 | 0.9 | 0.00 | 0.00 | 0.00 | 87 | 1019.0 |
| 20260906154727 | 57 | 166 | 0.9 | 1.7 | 0.00 | 0.00 | 0.00 | 87 | 1019.0 |
| 20260906154701 | 57 | 191 | 0.9 | 1.7 | 0.00 | 0.00 | 0.00 | 87 | 1019.0 |
| 20260906154645 | 57 | 191 | 0.9 | 1.7 | 0.00 | 0.00 | 0.00 | 87 | 1019.0 |
| 20260906154630 | 57 | 168 | 0.0 | 1.7 | 0.00 | 0.00 | 0.00 | 87 | 1019.0 |
| 20260906154613 | 57 | 117 | 0.9 | 1.7 | 0.00 | 0.00 | 0.00 | 87 | 1019.0 |
| 20260906154605 | 57 | 141 | 0.9 | 1.7 | 0.00 | 0.00 | 0.00 | 87 | 1019.0 |
| 20260906154600 | 57 | 141 | 0.9 | 1.7 | 0.00 | 0.00 | 0.00 | 87 | 1019.0 |
| 20260906154543 | 57 | 136 | 0.9 | 1.7 | 0.00 | 0.00 | 0.00 | 87 | 1019.0 |
| 20260906154525 | 57 | 125 | 1.7 | 1.7 | 0.00 | 0.00 | 0.00 | 87 | 1019.0 |
| 20260906154513 | 57 | 132 | 0.9 | 1.7 | 0.00 | 0.00 | 0.00 | 87 | 1019.0 |
| 20260906154453 | 57 | 115 | 0.9 | 1.7 | 0.00 | 0.00 | 0.00 | 87 | 1019.0 |
| 20260906154448 | 57 | 126 | 0.9 | 1.7 | 0.00 | 0.00 | 0.00 | 87 | 1019.0 |
| 20260906154432 | 57 | 155 | 1.7 | 1.7 | 0.00 | 0.00 | 0.00 | 87 | 1019.0 |
| 20260906154413 | 57 | 130 | 1.7 | 1.7 | 0.00 | 0.00 | 0.00 | 87 | 1019.0 |
| 20260906154405 | 57 | 130 | 1.7 | 2.6 | 0.00 | 0.00 | 0.00 | 87 | 1019.0 |
| 20260906154349 | 57 | 115 | 0.9 | 2.6 | 0.00 | 0.00 | 0.00 | 87 | 1019.0 |
| 20260906154333 | 57 | 120 | 0.9 | 2.6 | 0.00 | 0.00 | 0.00 | 87 | 1019.0 |
| 20260906154328 | 57 | 116 | 0.0 | 2.6 | 0.00 | 0.00 | 0.00 | 87 | 1019.0 |
| 20260906154309 | 57 | 286 | 0.9 | 2.6 | 0.00 | 0.00 | 0.00 | 87 | 1019.0 |
| 20260906154301 | 58 | 286 | 0.9 | 2.6 | 0.00 | 0.00 | 0.00 | 87 | 1019.0 |
| 20260906154237 | 58 | 157 | 1.7 | 2.6 | 0.00 | 0.00 | 0.00 | 87 | 1019.0 |
| 20260906154221 | 58 | 142 | 0.0 | 1.7 | 0.00 | 0.00 | 0.00 | 87 | 1019.0 |
| 20260906154214 | 58 | 169 | 0.9 | 1.7 | 0.00 | 0.00 | 0.00 | 87 | 1019.0 |
| 20260906154205 | 58 | 169 | 0.9 | 2.6 | 0.00 | 0.00 | 0.00 | 87 | 1019.0 |
| 20260906154159 | 58 | 119 | 0.0 | 2.6 | 0.00 | 0.00 | 0.00 | 87 | 1019.0 |
| 20260906154133 | 58 | 119 | 0.0 | 2.6 | 0.00 | 0.00 | 0.00 | 87 | 1019.0 |
| 20260906154118 | 58 | 119 | 0.9 | 2.6 | 0.00 | 0.00 | 0.00 | 87 | 1019.0 |
| 20260906154101 | 58 | 119 | 0.9 | 2.6 | 0.00 | 0.00 | 0.00 | 87 | 1019.0 |
| 20260906154045 | 58 | 135 | 0.9 | 2.6 | 0.00 | 0.00 | 0.00 | 87 | 1019.0 |
| 20260906154032 | 58 | 135 | 1.7 | 2.6 | 0.00 | 0.00 | 0.00 | 87 | 1019.0 |
| 20260906154021 | 58 | 136 | 1.7 | 2.6 | 0.00 | 0.00 | 0.00 | 87 | 1019.0 |
| 20260906153943 | 58 | 139 | 1.7 | 1.7 | 0.00 | 0.00 | 0.00 | 88 | 1019.0 |
| 20260906153925 | 58 | 169 | 0.9 | 0.9 | 0.00 | 0.00 | 0.00 | 88 | 1019.0 |
| 20260906153912 | 58 | 173 | 0.0 | 0.9 | 0.00 | 0.00 | 0.00 | 88 | 1019.0 |
| 20260906153856 | 58 | 173 | 0.0 | 0.9 | 0.00 | 0.00 | 0.00 | 88 | 1019.0 |
| 20260906153838 | 58 | 173 | 0.9 | 0.9 | 0.00 | 0.00 | 0.00 | 88 | 1019.0 |
| 20260906153821 | 58 | 178 | 0.9 | 0.9 | 0.00 | 0.00 | 0.00 | 88 | 1019.0 |
| 20260906153813 | 58 | 161 | 0.9 | 0.9 | 0.00 | 0.00 | 0.00 | 88 | 1019.0 |
| 20260906153805 | 58 | 161 | 0.9 | 1.7 | 0.00 | 0.00 | 0.00 | 88 | 1019.0 |
| 20260906153759 | 58 | 161 | 0.9 | 1.7 | 0.00 | 0.00 | 0.00 | 88 | 1019.0 |
| 20260906153741 | 58 | 163 | 0.9 | 1.7 | 0.00 | 0.00 | 0.00 | 88 | 1019.0 |
| 20260906153709 | 58 | 184 | 0.0 | 1.7 | 0.00 | 0.00 | 0.00 | 88 | 1019.0 |
| 20260906153702 | 58 | 146 | 0.0 | 2.6 | 0.00 | 0.00 | 0.00 | 88 | 1019.0 |
| 20260906153653 | 58 | 146 | 0.0 | 2.6 | 0.00 | 0.00 | 0.00 | 88 | 1019.0 |
| 20260906153645 | 58 | 169 | 0.9 | 2.6 | 0.00 | 0.00 | 0.00 | 88 | 1019.0 |
| 20260906153637 | 57 | 169 | 0.9 | 2.6 | 0.00 | 0.00 | 0.00 | 89 | 1019.0 |
| 20260906153621 | 57 | 161 | 0.9 | 2.6 | 0.00 | 0.00 | 0.00 | 89 | 1019.0 |
| 20260906153613 | 57 | 159 | 0.9 | 2.6 | 0.00 | 0.00 | 0.00 | 89 | 1019.0 |
| 20260906153605 | 57 | 159 | 0.9 | 2.6 | 0.00 | 0.00 | 0.00 | 89 | 1020.0 |
| 20260906153550 | 57 | 233 | 0.9 | 2.6 | 0.00 | 0.00 | 0.00 | 89 | 1020.0 |
| 20260906153533 | 57 | 215 | 1.7 | 2.6 | 0.00 | 0.00 | 0.00 | 89 | 1020.0 |
| 20260906153517 | 57 | 230 | 1.7 | 2.6 | 0.00 | 0.00 | 0.00 | 89 | 1020.0 |
| 20260906153509 | 57 | 186 | 1.7 | 2.6 | 0.00 | 0.00 | 0.00 | 89 | 1020.0 |
| 20260906153501 | 57 | 186 | 1.7 | 2.6 | 0.00 | 0.00 | 0.00 | 89 | 1019.0 |
| 20260906153445 | 57 | 174 | 1.7 | 2.6 | 0.00 | 0.00 | 0.00 | 89 | 1019.0 |
| 20260906153431 | 57 | 207 | 1.7 | 1.7 | 0.00 | 0.00 | 0.00 | 89 | 1019.0 |
| 20260906153413 | 57 | 211 | 0.9 | 1.7 | 0.00 | 0.00 | 0.00 | 89 | 1019.0 |
| 20260906153408 | 57 | 158 | 0.0 | 2.6 | 0.00 | 0.00 | 0.00 | 89 | 1019.0 |
| 20260906153333 | 57 | 158 | 0.9 | 2.6 | 0.00 | 0.00 | 0.00 | 89 | 1019.0 |
| 20260906153319 | 57 | 158 | 0.9 | 2.6 | 0.00 | 0.00 | 0.00 | 89 | 1019.0 |
| 20260906153301 | 57 | 184 | 0.9 | 2.6 | 0.00 | 0.00 | 0.00 | 89 | 1019.0 |
| 20260906153245 | 57 | 184 | 1.7 | 2.6 | 0.00 | 0.00 | 0.00 | 89 | 1019.0 |
| 20260906153229 | 57 | 225 | 1.7 | 2.6 | 0.00 | 0.00 | 0.00 | 89 | 1019.0 |
| 20260906153213 | 57 | 210 | 2.6 | 2.6 | 0.00 | 0.00 | 0.00 | 89 | 1019.0 |
| 20260906153205 | 57 | 208 | 0.0 | 0.9 | 0.00 | 0.00 | 0.00 | 89 | 1019.0 |
| 20260906153157 | 57 | 208 | 0.0 | 0.9 | 0.00 | 0.00 | 0.00 | 89 | 1019.0 |
| 20260906153142 | 57 | 182 | 0.0 | 0.0 | 0.00 | 0.00 | 0.00 | 89 | 1019.0 |
| 20260906153125 | 57 | 181 | 0.0 | 0.0 | 0.00 | 0.00 | 0.00 | 89 | 1019.0 |
| 20260906153109 | 57 | 180 | 0.0 | 0.0 | 0.00 | 0.00 | 0.00 | 89 | 1019.0 |
| 20260906153103 | 57 | 125 | 0.0 | 0.0 | 0.00 | 0.00 | 0.00 | 89 | 1020.0 |
| 20260906153037 | 57 | 124 | 0.0 | 0.0 | 0.00 | 0.00 | 0.00 | 89 | 1020.0 |
| 20260906153021 | 57 | 124 | 0.0 | 0.0 | 0.00 | 0.00 | 0.00 | 89 | 1020.0 |
| 20260906153006 | 57 | 124 | 0.0 | 0.0 | 0.00 | 0.00 | 0.00 | 88 | 1019.0 |
| 20260906152959 | 57 | 124 | 0.0 | 0.0 | 0.00 | 0.00 | 0.00 | 88 | 1019.0 |
| 20260906152941 | 57 | 124 | 0.0 | 0.0 | 0.00 | 0.00 | 0.00 | 88 | 1019.0 |
| 20260906152910 | 57 | 124 | 0.0 | 0.0 | 0.00 | 0.00 | 0.00 | 88 | 1019.0 |
| 20260906152902 | 57 | 124 | 0.0 | 0.0 | 0.00 | 0.00 | 0.00 | 88 | 1019.0 |
| 20260906152854 | 57 | 124 | 0.0 | 0.0 | 0.00 | 0.00 | 0.00 | 88 | 1019.0 |
| 20260906152841 | 57 | 124 | 0.0 | 0.0 | 0.00 | 0.00 | 0.00 | 88 | 1019.0 |
| 20260906152822 | 57 | 126 | 0.0 | 0.0 | 0.00 | 0.00 | 0.00 | 88 | 1019.0 |
| 20260906152814 | 57 | 146 | 0.0 | 0.0 | 0.00 | 0.00 | 0.00 | 88 | 1019.0 |
| 20260906152808 | 57 | 146 | 0.0 | 0.0 | 0.00 | 0.00 | 0.00 | 88 | 1020.0 |
| 20260906152749 | 57 | 161 | 0.0 | 0.0 | 0.00 | 0.00 | 0.00 | 88 | 1020.0 |
| 20260906152741 | 57 | 125 | 0.0 | 0.0 | 0.00 | 0.00 | 0.00 | 88 | 1020.0 |
| 20260906152734 | 57 | 125 | 0.0 | 2.6 | 0.00 | 0.00 | 0.00 | 88 | 1020.0 |
| 20260906152720 | 57 | 125 | 0.0 | 2.6 | 0.00 | 0.00 | 0.00 | 88 | 1020.0 |
| 20260906152712 | 57 | 125 | 0.0 | 2.6 | 0.00 | 0.00 | 0.00 | 88 | 1020.0 |
| 20260906152646 | 57 | 125 | 0.0 | 2.6 | 0.00 | 0.00 | 0.00 | 88 | 1019.0 |
| 20260906152630 | 57 | 125 | 0.0 | 2.6 | 0.00 | 0.00 | 0.00 | 88 | 1019.0 |
| 20260906152614 | 57 | 125 | 0.9 | 2.6 | 0.00 | 0.00 | 0.00 | 88 | 1019.0 |
| 20260906152606 | 57 | 125 | 1.7 | 2.6 | 0.00 | 0.00 | 0.00 | 88 | 1020.0 |
| 20260906152558 | 57 | 125 | 1.7 | 2.6 | 0.00 | 0.00 | 0.00 | 88 | 1020.0 |
| 20260906152542 | 57 | 133 | 1.7 | 1.7 | 0.00 | 0.00 | 0.00 | 88 | 1020.0 |
| 20260906152526 | 57 | 145 | 1.7 | 1.7 | 0.00 | 0.00 | 0.00 | 88 | 1020.0 |
| 20260906152510 | 57 | 127 | 0.0 | 0.9 | 0.00 | 0.00 | 0.00 | 88 | 1020.0 |
| 20260906152505 | 57 | 137 | 0.0 | 0.0 | 0.00 | 0.00 | 0.00 | 88 | 1020.0 |
| 20260906152446 | 56 | 137 | 0.0 | 0.0 | 0.00 | 0.00 | 0.00 | 88 | 1020.0 |
| 20260906152438 | 56 | 138 | 0.0 | 0.0 | 0.00 | 0.00 | 0.00 | 88 | 1020.0 |
| 20260906152430 | 56 | 138 | 0.0 | 1.7 | 0.00 | 0.00 | 0.00 | 88 | 1020.0 |
| 20260906152414 | 56 | 139 | 0.0 | 1.7 | 0.00 | 0.00 | 0.00 | 88 | 1020.0 |
| 20260906152406 | 56 | 134 | 0.0 | 2.6 | 0.00 | 0.00 | 0.00 | 88 | 1020.0 |
| 20260906152358 | 56 | 134 | 0.0 | 2.6 | 0.00 | 0.00 | 0.00 | 88 | 1020.0 |
| 20260906152344 | 56 | 136 | 0.0 | 2.6 | 0.00 | 0.00 | 0.00 | 88 | 1020.0 |
| 20260906152318 | 56 | 141 | 0.0 | 2.6 | 0.00 | 0.00 | 0.00 | 88 | 1020.0 |
| 20260906152302 | 56 | 137 | 0.9 | 2.6 | 0.00 | 0.00 | 0.00 | 88 | 1020.0 |
| 20260906152254 | 56 | 137 | 0.9 | 2.6 | 0.00 | 0.00 | 0.00 | 88 | 1020.0 |
| 20260906152238 | 56 | 138 | 1.7 | 2.6 | 0.00 | 0.00 | 0.00 | 88 | 1020.0 |
| 20260906152222 | 56 | 127 | 1.7 | 2.6 | 0.00 | 0.00 | 0.00 | 88 | 1020.0 |
| 20260906152213 | 56 | 128 | 1.7 | 2.6 | 0.00 | 0.00 | 0.00 | 88 | 1020.0 |
| 20260906152150 | 56 | 130 | 1.7 | 2.6 | 0.00 | 0.00 | 0.00 | 88 | 1020.0 |
| 20260906152134 | 56 | 138 | 0.9 | 1.7 | 0.00 | 0.00 | 0.00 | 88 | 1020.0 |
| 20260906152118 | 56 | 136 | 0.0 | 0.0 | 0.00 | 0.00 | 0.00 | 88 | 1020.0 |
| 20260906152110 | 56 | 136 | 0.0 | 0.0 | 0.00 | 0.00 | 0.00 | 88 | 1020.0 |
| 20260906152102 | 56 | 136 | 0.0 | 0.9 | 0.00 | 0.00 | 0.00 | 88 | 1020.0 |
| 20260906152040 | 56 | 136 | 0.0 | 0.9 | 0.00 | 0.00 | 0.00 | 88 | 1020.0 |
| 20260906152025 | 56 | 189 | 0.0 | 1.7 | 0.00 | 0.00 | 0.00 | 88 | 1020.0 |
| 20260906152006 | 56 | 180 | 0.0 | 1.7 | 0.00 | 0.00 | 0.00 | 88 | 1020.0 |
| 20260906151952 | 56 | 202 | 0.0 | 1.7 | 0.00 | 0.00 | 0.00 | 88 | 1020.0 |
| 20260906151934 | 56 | 202 | 0.9 | 2.6 | 0.00 | 0.00 | 0.00 | 88 | 1020.0 |
| 20260906151929 | 56 | 181 | 0.0 | 2.6 | 0.00 | 0.00 | 0.00 | 88 | 1020.0 |
| 20260906151910 | 56 | 155 | 0.9 | 2.6 | 0.00 | 0.00 | 0.00 | 88 | 1020.0 |
| 20260906151902 | 56 | 155 | 0.9 | 3.5 | 0.00 | 0.00 | 0.00 | 88 | 1020.0 |
| 20260906151846 | 56 | 130 | 0.9 | 3.5 | 0.00 | 0.00 | 0.00 | 88 | 1020.0 |
| 20260906151830 | 56 | 131 | 0.9 | 3.5 | 0.00 | 0.00 | 0.00 | 88 | 1020.0 |
| 20260906151814 | 56 | 119 | 0.9 | 3.5 | 0.00 | 0.00 | 0.00 | 88 | 1020.0 |
| 20260906151806 | 56 | 157 | 1.7 | 3.5 | 0.00 | 0.00 | 0.00 | 88 | 1020.0 |
| 20260906151759 | 56 | 157 | 1.7 | 3.5 | 0.00 | 0.00 | 0.00 | 88 | 1020.0 |
| 20260906151742 | 56 | 73 | 2.6 | 3.5 | 0.00 | 0.00 | 0.00 | 88 | 1020.0 |
| 20260906151726 | 56 | 133 | 1.7 | 2.6 | 0.00 | 0.00 | 0.00 | 88 | 1020.0 |
| 20260906151723 | 56 | 220 | 1.7 | 2.6 | 0.00 | 0.00 | 0.00 | 88 | 1020.0 |
| 20260906151654 | 56 | 149 | 1.7 | 2.6 | 0.00 | 0.00 | 0.00 | 88 | 1019.0 |
| 20260906151650 | 56 | 147 | 1.7 | 2.6 | 0.00 | 0.00 | 0.00 | 88 | 1019.0 |
| 20260906151622 | 56 | 130 | 0.0 | 2.6 | 0.00 | 0.00 | 0.00 | 88 | 1019.0 |
| 20260906151616 | 56 | 130 | 0.0 | 2.6 | 0.00 | 0.00 | 0.00 | 88 | 1019.0 |
| 20260906151558 | 56 | 130 | 0.0 | 2.6 | 0.00 | 0.00 | 0.00 | 88 | 1020.0 |
| 20260906151542 | 56 | 176 | 1.7 | 2.6 | 0.00 | 0.00 | 0.00 | 88 | 1020.0 |
| 20260906151536 | 56 | 139 | 1.7 | 2.6 | 0.00 | 0.00 | 0.00 | 88 | 1020.0 |
| 20260906151512 | 56 | 168 | 0.9 | 2.6 | 0.00 | 0.00 | 0.00 | 88 | 1020.0 |
| 20260906151454 | 56 | 245 | 0.0 | 2.6 | 0.00 | 0.00 | 0.00 | 88 | 1020.0 |
| 20260906151438 | 56 | 222 | 1.7 | 2.6 | 0.00 | 0.00 | 0.00 | 88 | 1020.0 |
| 20260906151427 | 56 | 131 | 0.9 | 1.7 | 0.00 | 0.00 | 0.00 | 88 | 1020.0 |
| 20260906151400 | 56 | 130 | 0.0 | 1.7 | 0.00 | 0.00 | 0.00 | 88 | 1020.0 |
| 20260906151334 | 56 | 134 | 0.0 | 1.7 | 0.00 | 0.00 | 0.00 | 88 | 1020.0 |
| 20260906151317 | 56 | 134 | 0.0 | 1.7 | 0.00 | 0.00 | 0.00 | 88 | 1020.0 |
| 20260906151309 | 56 | 134 | 0.9 | 1.7 | 0.00 | 0.00 | 0.00 | 89 | 1020.0 |
| 20260906151301 | 56 | 134 | 0.9 | 2.6 | 0.00 | 0.00 | 0.00 | 89 | 1020.0 |
| 20260906151245 | 56 | 179 | 0.9 | 2.6 | 0.00 | 0.00 | 0.00 | 89 | 1020.0 |
| 20260906151232 | 56 | 187 | 0.9 | 2.6 | 0.00 | 0.00 | 0.00 | 89 | 1020.0 |
| 20260906151213 | 56 | 148 | 0.9 | 2.6 | 0.00 | 0.00 | 0.00 | 89 | 1020.0 |
| 20260906151205 | 56 | 155 | 1.7 | 2.6 | 0.00 | 0.00 | 0.00 | 89 | 1020.0 |
| 20260906151157 | 56 | 155 | 1.7 | 2.6 | 0.00 | 0.00 | 0.00 | 89 | 1020.0 |
| 20260906151134 | 56 | 153 | 1.7 | 2.6 | 0.00 | 0.00 | 0.00 | 89 | 1020.0 |
| 20260906151117 | 56 | 156 | 1.7 | 2.6 | 0.00 | 0.00 | 0.00 | 89 | 1020.0 |
| 20260906151101 | 56 | 118 | 1.7 | 2.6 | 0.00 | 0.00 | 0.00 | 89 | 1020.0 |
| 20260906151045 | 56 | 131 | 1.7 | 1.7 | 0.00 | 0.00 | 0.00 | 89 | 1020.0 |
| 20260906151037 | 56 | 165 | 0.9 | 1.7 | 0.00 | 0.00 | 0.00 | 89 | 1020.0 |
| 20260906151030 | 56 | 165 | 0.9 | 2.6 | 0.00 | 0.00 | 0.00 | 89 | 1020.0 |
| 20260906151024 | 56 | 148 | 0.9 | 2.6 | 0.00 | 0.00 | 0.00 | 89 | 1020.0 |
| 20260906151005 | 56 | 138 | 0.9 | 5.2 | 0.00 | 0.00 | 0.00 | 89 | 1020.0 |
| 20260906150957 | 56 | 138 | 0.9 | 5.2 | 0.00 | 0.00 | 0.00 | 89 | 1020.0 |
| 20260906150941 | 56 | 139 | 0.9 | 5.2 | 0.00 | 0.00 | 0.00 | 89 | 1020.0 |
| 20260906150926 | 56 | 152 | 0.0 | 5.2 | 0.00 | 0.00 | 0.00 | 89 | 1020.0 |
| 20260906150909 | 56 | 153 | 0.9 | 5.2 | 0.00 | 0.00 | 0.00 | 89 | 1020.0 |
| 20260906150903 | 56 | 225 | 1.7 | 5.2 | 0.00 | 0.00 | 0.00 | 89 | 1020.0 |
| 20260906150837 | 56 | 195 | 2.6 | 5.2 | 0.00 | 0.00 | 0.00 | 90 | 1020.0 |
| 20260906150823 | 56 | 198 | 1.7 | 2.6 | 0.00 | 0.00 | 0.00 | 90 | 1020.0 |
| 20260906150806 | 56 | 228 | 0.9 | 2.6 | 0.00 | 0.00 | 0.00 | 90 | 1020.0 |
| 20260906150749 | 56 | 142 | 1.7 | 2.6 | 0.00 | 0.00 | 0.00 | 90 | 1020.0 |
| 20260906150733 | 56 | 212 | 1.7 | 2.6 | 0.00 | 0.00 | 0.00 | 90 | 1020.0 |
| 20260906150722 | 56 | 191 | 0.0 | 0.9 | 0.00 | 0.00 | 0.00 | 90 | 1020.0 |
| 20260906150653 | 56 | 270 | 0.0 | 0.0 | 0.00 | 0.00 | 0.00 | 90 | 1020.0 |
| 20260906150648 | 56 | 249 | 0.0 | 0.0 | 0.00 | 0.00 | 0.00 | 90 | 1020.0 |
| 20260906150621 | 56 | 176 | 0.0 | 0.0 | 0.00 | 0.00 | 0.00 | 90 | 1020.0 |
| 20260906150605 | 56 | 129 | 0.0 | 0.0 | 0.00 | 0.00 | 0.00 | 90 | 1020.0 |
| 20260906150549 | 56 | 139 | 0.0 | 0.0 | 0.00 | 0.00 | 0.00 | 90 | 1020.0 |
| 20260906150533 | 56 | 265 | 0.0 | 0.0 | 0.00 | 0.00 | 0.00 | 91 | 1020.0 |
| 20260906150517 | 56 | 246 | 0.0 | 0.0 | 0.00 | 0.00 | 0.00 | 91 | 1020.0 |
| 20260906150501 | 56 | 139 | 0.0 | 0.0 | 0.00 | 0.00 | 0.00 | 91 | 1020.0 |
| 20260906150456 | 56 | 132 | 0.0 | 0.0 | 0.00 | 0.00 | 0.00 | 91 | 1020.0 |
| 20260906150429 | 56 | 132 | 0.0 | 0.0 | 0.00 | 0.00 | 0.00 | 91 | 1020.0 |
| 20260906150427 | 56 | 132 | 0.0 | 0.0 | 0.00 | 0.00 | 0.00 | 91 | 1020.0 |
| 20260906150405 | 56 | 131 | 0.0 | 0.0 | 0.00 | 0.00 | 0.00 | 91 | 1020.0 |
| 20260906150357 | 56 | 131 | 0.0 | 0.0 | 0.00 | 0.00 | 0.00 | 91 | 1020.0 |
| 20260906150341 | 56 | 131 | 0.0 | 0.0 | 0.00 | 0.00 | 0.00 | 91 | 1020.0 |
| 20260906150325 | 56 | 131 | 0.0 | 0.0 | 0.00 | 0.00 | 0.00 | 91 | 1020.0 |
| 20260906150309 | 56 | 141 | 0.0 | 0.0 | 0.00 | 0.00 | 0.00 | 91 | 1020.0 |
| 20260906150301 | 56 | 144 | 0.0 | 0.0 | 0.00 | 0.00 | 0.00 | 91 | 1020.0 |
| 20260906150245 | 56 | 144 | 0.0 | 0.0 | 0.00 | 0.00 | 0.00 | 91 | 1020.0 |
| 20260906150241 | 56 | 145 | 0.0 | 0.0 | 0.00 | 0.00 | 0.00 | 91 | 1020.0 |
| 20260906150213 | 56 | 136 | 0.0 | 0.0 | 0.00 | 0.00 | 0.00 | 91 | 1020.0 |
| 20260906150205 | 56 | 132 | 0.0 | 0.0 | 0.00 | 0.00 | 0.00 | 91 | 1020.0 |
| 20260906150157 | 56 | 132 | 0.0 | 0.0 | 0.00 | 0.00 | 0.00 | 91 | 1020.0 |
| 20260906150141 | 56 | 121 | 0.0 | 0.0 | 0.00 | 0.00 | 0.00 | 91 | 1020.0 |
| 20260906150128 | 56 | 147 | 0.0 | 0.0 | 0.00 | 0.00 | 0.00 | 91 | 1020.0 |
| 20260906150110 | 56 | 158 | 0.0 | 0.0 | 0.00 | 0.00 | 0.00 | 91 | 1020.0 |
| 20260906150101 | 56 | 142 | 0.0 | 0.0 | 0.00 | 0.00 | 0.00 | 91 | 1020.0 |
| 20260906150054 | 56 | 142 | 0.0 | 0.0 | 0.00 | 0.00 | 0.00 | 91 | 1020.0 |
| 20260906150045 | 56 | 140 | 0.0 | 0.0 | 0.00 | 0.00 | 0.00 | 91 | 1020.0 |
| 20260906150021 | 56 | 107 | 0.0 | 0.0 | 0.00 | 0.00 | 0.00 | 91 | 1020.0 |
| 20260906150006 | 56 | 107 | 0.0 | 0.0 | 0.00 | 0.00 | 0.00 | 91 | 1020.0 |
| 20260906145959 | 56 | 107 | 0.0 | 0.0 | 0.00 | 0.00 | 0.00 | 91 | 1020.0 |
| 20260906145941 | 56 | 141 | 0.0 | 0.0 | 0.00 | 0.00 | 0.00 | 91 | 1020.0 |
| 20260906145933 | 56 | 141 | 0.0 | 1.7 | 0.00 | 0.00 | 0.00 | 91 | 1020.0 |
| 20260906145920 | 56 | 162 | 0.0 | 1.7 | 0.00 | 0.00 | 0.00 | 91 | 1020.0 |
| 20260906145901 | 56 | 140 | 0.0 | 1.7 | 0.00 | 0.00 | 0.00 | 91 | 1020.0 |
| 20260906145845 | 56 | 139 | 0.0 | 1.7 | 0.00 | 0.00 | 0.00 | 91 | 1020.0 |
| 20260906145822 | 56 | 140 | 0.0 | 1.7 | 0.00 | 0.00 | 0.00 | 91 | 1020.0 |
| 20260906145805 | 56 | 140 | 0.9 | 1.7 | 0.00 | 0.00 | 0.00 | 92 | 1020.0 |
| 20260906145752 | 56 | 145 | 0.9 | 1.7 | 0.00 | 0.00 | 0.00 | 92 | 1020.0 |
| 20260906145735 | 56 | 126 | 0.0 | 0.9 | 0.00 | 0.00 | 0.00 | 92 | 1020.0 |
| 20260906145717 | 56 | 129 | 0.0 | 0.0 | 0.00 | 0.00 | 0.00 | 92 | 1020.0 |
| 20260906145701 | 56 | 118 | 0.0 | 0.0 | 0.00 | 0.00 | 0.00 | 92 | 1020.0 |
| 20260906145645 | 56 | 141 | 0.0 | 0.0 | 0.00 | 0.00 | 0.00 | 92 | 1020.0 |
| 20260906145639 | 56 | 117 | 0.0 | 0.0 | 0.00 | 0.00 | 0.00 | 92 | 1020.0 |
| 20260906145613 | 56 | 239 | 0.0 | 0.0 | 0.00 | 0.00 | 0.00 | 92 | 1020.0 |
| 20260906145605 | 55 | 128 | 0.0 | 0.0 | 0.00 | 0.00 | 0.00 | 92 | 1020.0 |
| 20260906145541 | 55 | 128 | 0.0 | 0.0 | 0.00 | 0.00 | 0.00 | 92 | 1020.0 |
| 20260906145536 | 55 | 115 | 0.0 | 0.0 | 0.00 | 0.00 | 0.00 | 92 | 1020.0 |
| 20260906145519 | 55 | 134 | 0.0 | 0.0 | 0.00 | 0.00 | 0.00 | 92 | 1020.0 |
| 20260906145501 | 55 | 132 | 0.0 | 0.0 | 0.00 | 0.00 | 0.00 | 91 | 1020.0 |
| 20260906145453 | 55 | 132 | 0.0 | 0.0 | 0.00 | 0.00 | 0.00 | 91 | 1020.0 |
| 20260906145437 | 55 | 131 | 0.0 | 0.0 | 0.00 | 0.00 | 0.00 | 91 | 1020.0 |
| 20260906145421 | 55 | 132 | 0.0 | 0.9 | 0.00 | 0.00 | 0.00 | 91 | 1020.0 |
| 20260906145408 | 55 | 132 | 0.0 | 0.9 | 0.00 | 0.00 | 0.00 | 91 | 1020.0 |
| 20260906145349 | 55 | 132 | 0.0 | 0.9 | 0.00 | 0.00 | 0.00 | 91 | 1020.0 |
| 20260906145325 | 55 | 132 | 0.0 | 0.9 | 0.00 | 0.00 | 0.00 | 91 | 1020.0 |
| 20260906145310 | 55 | 133 | 0.0 | 0.9 | 0.00 | 0.00 | 0.00 | 91 | 1020.0 |
| 20260906145301 | 55 | 85 | 0.9 | 0.9 | 0.00 | 0.00 | 0.00 | 91 | 1020.0 |
| 20260906145253 | 55 | 85 | 0.9 | 0.9 | 0.00 | 0.00 | 0.00 | 91 | 1020.0 |
| 20260906145245 | 55 | 85 | 0.0 | 0.9 | 0.00 | 0.00 | 0.00 | 91 | 1020.0 |
| 20260906145232 | 55 | 126 | 0.0 | 0.9 | 0.00 | 0.00 | 0.00 | 91 | 1020.0 |
| 20260906145206 | 55 | 126 | 0.0 | 0.9 | 0.00 | 0.00 | 0.00 | 91 | 1020.0 |
| 20260906145158 | 55 | 130 | 0.0 | 0.9 | 0.00 | 0.00 | 0.00 | 91 | 1020.0 |
| 20260906145150 | 55 | 130 | 0.0 | 0.9 | 0.00 | 0.00 | 0.00 | 92 | 1020.0 |
| 20260906145145 | 55 | 132 | 0.0 | 0.9 | 0.00 | 0.00 | 0.00 | 92 | 1020.0 |
| 20260906145128 | 55 | 133 | 0.0 | 0.9 | 0.00 | 0.00 | 0.00 | 92 | 1020.0 |
| 20260906145112 | 55 | 136 | 0.0 | 0.9 | 0.00 | 0.00 | 0.00 | 92 | 1020.0 |
| 20260906145056 | 55 | 141 | 0.0 | 1.7 | 0.00 | 0.00 | 0.00 | 92 | 1020.0 |
| 20260906145038 | 55 | 151 | 0.0 | 1.7 | 0.00 | 0.00 | 0.00 | 92 | 1020.0 |
| 20260906145030 | 55 | 151 | 0.0 | 2.6 | 0.00 | 0.00 | 0.00 | 92 | 1020.0 |
| 20260906145024 | 55 | 143 | 0.9 | 2.6 | 0.00 | 0.00 | 0.00 | 92 | 1020.0 |
| 20260906145002 | 55 | 112 | 0.9 | 2.6 | 0.00 | 0.00 | 0.00 | 92 | 1020.0 |
| 20260906144918 | 55 | 119 | 1.7 | 2.6 | 0.00 | 0.00 | 0.00 | 92 | 1020.0 |
| 20260906144913 | 55 | 129 | 0.9 | 2.6 | 0.00 | 0.00 | 0.00 | 92 | 1020.0 |
| 20260906144846 | 55 | 140 | 2.6 | 2.6 | 0.00 | 0.00 | 0.00 | 92 | 1020.0 |
| 20260906144837 | 55 | 124 | 0.9 | 0.9 | 0.00 | 0.00 | 0.00 | 92 | 1020.0 |
| 20260906144814 | 55 | 131 | 0.0 | 0.9 | 0.00 | 0.00 | 0.00 | 92 | 1020.0 |
| 20260906144806 | 55 | 134 | 0.0 | 0.9 | 0.00 | 0.00 | 0.00 | 92 | 1020.0 |
| 20260906144759 | 55 | 134 | 0.0 | 0.9 | 0.00 | 0.00 | 0.00 | 92 | 1020.0 |
| 20260906144742 | 55 | 131 | 0.0 | 0.9 | 0.00 | 0.00 | 0.00 | 92 | 1020.0 |
| 20260906144726 | 55 | 137 | 0.0 | 0.9 | 0.00 | 0.00 | 0.00 | 92 | 1020.0 |
| 20260906144710 | 55 | 138 | 0.0 | 0.9 | 0.00 | 0.00 | 0.00 | 92 | 1020.0 |
| 20260906144702 | 55 | 150 | 0.9 | 1.7 | 0.00 | 0.00 | 0.00 | 92 | 1020.0 |
| 20260906144654 | 55 | 150 | 0.9 | 1.7 | 0.00 | 0.00 | 0.00 | 92 | 1020.0 |
| 20260906144638 | 55 | 105 | 0.0 | 1.7 | 0.00 | 0.00 | 0.00 | 92 | 1020.0 |
| 20260906144635 | 55 | 106 | 0.0 | 1.7 | 0.00 | 0.00 | 0.00 | 92 | 1020.0 |
| 20260906144606 | 55 | 106 | 0.0 | 1.7 | 0.00 | 0.00 | 0.00 | 92 | 1020.0 |
| 20260906144550 | 55 | 106 | 0.9 | 1.7 | 0.00 | 0.00 | 0.00 | 92 | 1020.0 |
| 20260906144534 | 55 | 116 | 0.9 | 1.7 | 0.00 | 0.00 | 0.00 | 92 | 1020.0 |
| 20260906144510 | 55 | 138 | 0.9 | 1.7 | 0.00 | 0.00 | 0.00 | 92 | 1020.0 |
| 20260906144502 | 55 | 142 | 1.7 | 1.7 | 0.00 | 0.00 | 0.00 | 92 | 1020.0 |
| 20260906144454 | 55 | 142 | 1.7 | 1.7 | 0.00 | 0.00 | 0.00 | 92 | 1020.0 |
| 20260906144438 | 55 | 131 | 0.9 | 1.7 | 0.00 | 0.00 | 0.00 | 92 | 1020.0 |
| 20260906144433 | 55 | 171 | 0.9 | 1.7 | 0.00 | 0.00 | 0.00 | 92 | 1020.0 |
| 20260906144417 | 55 | 291 | 0.9 | 1.7 | 0.00 | 0.00 | 0.00 | 92 | 1020.0 |
| 20260906144350 | 55 | 184 | 0.9 | 1.7 | 0.00 | 0.00 | 0.00 | 92 | 1020.0 |
| 20260906144334 | 55 | 105 | 0.9 | 1.7 | 0.00 | 0.00 | 0.00 | 92 | 1020.0 |
| 20260906144326 | 55 | 179 | 0.9 | 0.9 | 0.00 | 0.00 | 0.00 | 92 | 1020.0 |
| 20260906144302 | 55 | 121 | 0.0 | 0.9 | 0.00 | 0.00 | 0.00 | 92 | 1020.0 |
| 20260906144246 | 55 | 110 | 0.0 | 0.9 | 0.00 | 0.00 | 0.00 | 92 | 1020.0 |
| 20260906144231 | 55 | 110 | 0.0 | 0.9 | 0.00 | 0.00 | 0.00 | 92 | 1020.0 |
| 20260906144214 | 55 | 127 | 0.0 | 0.9 | 0.00 | 0.00 | 0.00 | 92 | 1020.0 |
| 20260906144202 | 55 | 127 | 0.9 | 0.9 | 0.00 | 0.00 | 0.00 | 92 | 1020.0 |
| 20260906144126 | 55 | 125 | 0.9 | 0.9 | 0.00 | 0.00 | 0.00 | 92 | 1020.0 |
| 20260906144110 | 55 | 117 | 0.0 | 0.0 | 0.00 | 0.00 | 0.00 | 92 | 1020.0 |
| 20260906144102 | 55 | 117 | 0.0 | 0.0 | 0.00 | 0.00 | 0.00 | 92 | 1020.0 |
| 20260906144046 | 55 | 117 | 0.0 | 0.0 | 0.00 | 0.00 | 0.00 | 92 | 1020.0 |
| 20260906144040 | 55 | 117 | 0.0 | 0.0 | 0.00 | 0.00 | 0.00 | 92 | 1020.0 |
| 20260906144018 | 55 | 117 | 0.0 | 0.0 | 0.00 | 0.00 | 0.00 | 92 | 1020.0 |
| 20260906143958 | 55 | 117 | 0.0 | 0.9 | 0.00 | 0.00 | 0.00 | 92 | 1020.0 |
| 20260906143942 | 55 | 117 | 0.0 | 0.9 | 0.00 | 0.00 | 0.00 | 92 | 1020.0 |
| 20260906143926 | 55 | 117 | 0.0 | 1.7 | 0.00 | 0.00 | 0.00 | 92 | 1020.0 |
| 20260906143910 | 55 | 117 | 0.0 | 1.7 | 0.00 | 0.00 | 0.00 | 92 | 1020.0 |
| 20260906143902 | 55 | 117 | 0.0 | 1.7 | 0.00 | 0.00 | 0.00 | 92 | 1020.0 |
| 20260906143857 | 55 | 117 | 0.0 | 1.7 | 0.00 | 0.00 | 0.00 | 92 | 1020.0 |
| 20260906143838 | 55 | 117 | 0.0 | 1.7 | 0.00 | 0.00 | 0.00 | 92 | 1020.0 |
| 20260906143822 | 55 | 117 | 0.9 | 1.7 | 0.00 | 0.00 | 0.00 | 92 | 1020.0 |
| 20260906143806 | 55 | 117 | 0.9 | 1.7 | 0.00 | 0.00 | 0.00 | 92 | 1020.0 |
| 20260906143750 | 55 | 117 | 0.9 | 1.7 | 0.00 | 0.00 | 0.00 | 92 | 1020.0 |
| 20260906143734 | 55 | 219 | 0.0 | 0.0 | 0.00 | 0.00 | 0.00 | 92 | 1020.0 |
| 20260906143730 | 55 | 219 | 0.0 | 0.0 | 0.00 | 0.00 | 0.00 | 92 | 1020.0 |
| 20260906143702 | 55 | 219 | 0.0 | 0.0 | 0.00 | 0.00 | 0.00 | 92 | 1020.0 |
| 20260906143659 | 55 | 219 | 0.0 | 0.0 | 0.00 | 0.00 | 0.00 | 92 | 1020.0 |
| 20260906143630 | 55 | 219 | 0.0 | 0.9 | 0.00 | 0.00 | 0.00 | 92 | 1020.0 |
| 20260906143619 | 55 | 219 | 0.0 | 0.9 | 0.00 | 0.00 | 0.00 | 92 | 1020.0 |
| 20260906143550 | 55 | 133 | 0.0 | 0.9 | 0.00 | 0.00 | 0.00 | 92 | 1020.0 |
| 20260906143534 | 55 | 133 | 0.0 | 0.9 | 0.00 | 0.00 | 0.00 | 92 | 1020.0 |
| 20260906143519 | 55 | 153 | 0.0 | 0.9 | 0.00 | 0.00 | 0.00 | 92 | 1020.0 |
| 20260906143503 | 55 | 157 | 0.0 | 0.9 | 0.00 | 0.00 | 0.00 | 92 | 1020.0 |
| 20260906143446 | 55 | 156 | 0.9 | 0.9 | 0.00 | 0.00 | 0.00 | 92 | 1020.0 |
| 20260906143430 | 55 | 139 | 0.9 | 0.9 | 0.00 | 0.00 | 0.00 | 92 | 1020.0 |
| 20260906143414 | 55 | 139 | 0.0 | 0.9 | 0.00 | 0.00 | 0.00 | 92 | 1020.0 |
| 20260906143405 | 55 | 140 | 0.0 | 0.9 | 0.00 | 0.00 | 0.00 | 92 | 1020.0 |
| 20260906143310 | 55 | 140 | 0.0 | 0.9 | 0.00 | 0.00 | 0.00 | 92 | 1020.0 |
| 20260906143302 | 55 | 140 | 0.0 | 0.9 | 0.00 | 0.00 | 0.00 | 92 | 1020.0 |
| 20260906143254 | 55 | 140 | 0.0 | 0.9 | 0.00 | 0.00 | 0.00 | 92 | 1020.0 |
| 20260906143241 | 55 | 140 | 0.0 | 0.9 | 0.00 | 0.00 | 0.00 | 92 | 1020.0 |
| 20260906143222 | 55 | 152 | 0.0 | 0.9 | 0.00 | 0.00 | 0.00 | 92 | 1020.0 |
| 20260906143206 | 55 | 200 | 0.0 | 0.9 | 0.00 | 0.00 | 0.00 | 92 | 1020.0 |
| 20260906143158 | 55 | 200 | 0.0 | 0.9 | 0.00 | 0.00 | 0.00 | 92 | 1020.0 |
| 20260906143142 | 55 | 186 | 0.0 | 0.9 | 0.00 | 0.00 | 0.00 | 92 | 1020.0 |
| 20260906143126 | 55 | 139 | 0.0 | 0.9 | 0.00 | 0.00 | 0.00 | 92 | 1020.0 |
| 20260906143102 | 55 | 139 | 0.0 | 0.9 | 0.00 | 0.00 | 0.00 | 92 | 1020.0 |
| 20260906143057 | 55 | 139 | 0.0 | 0.9 | 0.00 | 0.00 | 0.00 | 92 | 1020.0 |
| 20260906143040 | 55 | 139 | 0.0 | 0.9 | 0.00 | 0.00 | 0.00 | 92 | 1020.0 |
| 20260906143022 | 55 | 148 | 0.0 | 0.9 | 0.00 | 0.00 | 0.00 | 92 | 1020.0 |
| 20260906143011 | 55 | 177 | 0.9 | 0.9 | 0.00 | 0.00 | 0.00 | 92 | 1020.0 |
| 20260906142933 | 55 | 146 | 0.0 | 0.0 | 0.00 | 0.00 | 0.00 | 92 | 1020.0 |
| 20260906142923 | 55 | 140 | 0.0 | 0.0 | 0.00 | 0.00 | 0.00 | 92 | 1020.0 |
| 20260906142846 | 55 | 148 | 0.0 | 0.0 | 0.00 | 0.00 | 0.00 | 92 | 1020.0 |
| 20260906142829 | 55 | 148 | 0.0 | 0.0 | 0.00 | 0.00 | 0.00 | 92 | 1020.0 |
| 20260906142824 | 55 | 149 | 0.0 | 0.0 | 0.00 | 0.00 | 0.00 | 92 | 1020.0 |
| 20260906142806 | 55 | 149 | 0.0 | 0.9 | 0.00 | 0.00 | 0.00 | 92 | 1020.0 |
| 20260906142758 | 55 | 149 | 0.0 | 0.9 | 0.00 | 0.00 | 0.00 | 92 | 1020.0 |
| 20260906142736 | 55 | 150 | 0.0 | 0.9 | 0.00 | 0.00 | 0.00 | 92 | 1020.0 |
| 20260906142720 | 55 | 152 | 0.0 | 0.9 | 0.00 | 0.00 | 0.00 | 92 | 1020.0 |
| 20260906142702 | 55 | 144 | 0.0 | 0.9 | 0.00 | 0.00 | 0.00 | 92 | 1020.0 |
| 20260906142649 | 55 | 158 | 0.0 | 0.9 | 0.00 | 0.00 | 0.00 | 92 | 1020.0 |
| 20260906142630 | 55 | 162 | 0.0 | 2.6 | 0.00 | 0.00 | 0.00 | 92 | 1020.0 |
| 20260906142616 | 55 | 132 | 0.0 | 2.6 | 0.00 | 0.00 | 0.00 | 92 | 1020.0 |
| 20260906142600 | 55 | 156 | 0.9 | 2.6 | 0.00 | 0.00 | 0.00 | 92 | 1020.0 |
| 20260906142553 | 55 | 131 | 0.9 | 2.6 | 0.00 | 0.00 | 0.00 | 92 | 1020.0 |
| 20260906142528 | 55 | 137 | 0.9 | 2.6 | 0.00 | 0.00 | 0.00 | 92 | 1020.0 |
| 20260906142516 | 55 | 151 | 1.7 | 2.6 | 0.00 | 0.00 | 0.00 | 93 | 1020.0 |
| 20260906142438 | 55 | 142 | 0.9 | 2.6 | 0.00 | 0.00 | 0.00 | 93 | 1020.0 |
| 20260906142422 | 55 | 185 | 0.9 | 2.6 | 0.00 | 0.00 | 0.00 | 93 | 1020.0 |
| 20260906142406 | 55 | 169 | 1.7 | 2.6 | 0.00 | 0.00 | 0.00 | 93 | 1020.0 |
| 20260906142350 | 55 | 150 | 1.7 | 1.7 | 0.00 | 0.00 | 0.00 | 93 | 1020.0 |
| 20260906142342 | 55 | 150 | 0.9 | 1.7 | 0.00 | 0.00 | 0.00 | 93 | 1020.0 |
| 20260906142334 | 55 | 150 | 0.9 | 2.6 | 0.00 | 0.00 | 0.00 | 93 | 1020.0 |
| 20260906142309 | 55 | 139 | 0.9 | 2.6 | 0.00 | 0.00 | 0.00 | 93 | 1020.0 |
| 20260906142302 | 55 | 197 | 0.9 | 2.6 | 0.00 | 0.00 | 0.00 | 93 | 1020.0 |
| 20260906142254 | 55 | 197 | 0.9 | 2.6 | 0.00 | 0.00 | 0.00 | 93 | 1020.0 |
| 20260906142242 | 55 | 141 | 0.9 | 2.6 | 0.00 | 0.00 | 0.00 | 93 | 1020.0 |
| 20260906142221 | 55 | 163 | 0.9 | 2.6 | 0.00 | 0.00 | 0.00 | 93 | 1020.0 |
| 20260906142208 | 55 | 123 | 0.9 | 2.6 | 0.00 | 0.00 | 0.00 | 93 | 1020.0 |
| 20260906142152 | 55 | 148 | 0.9 | 2.6 | 0.00 | 0.00 | 0.00 | 93 | 1020.0 |
| 20260906142133 | 55 | 149 | 2.6 | 2.6 | 0.00 | 0.00 | 0.00 | 93 | 1020.0 |
| 20260906142118 | 55 | 147 | 0.9 | 2.6 | 0.00 | 0.00 | 0.00 | 93 | 1020.0 |
| 20260906142104 | 55 | 137 | 0.9 | 2.6 | 0.00 | 0.00 | 0.00 | 93 | 1020.0 |
| 20260906142046 | 55 | 133 | 1.7 | 2.6 | 0.00 | 0.00 | 0.00 | 93 | 1020.0 |
| 20260906142029 | 55 | 135 | 1.7 | 1.7 | 0.00 | 0.00 | 0.00 | 93 | 1020.0 |
| 20260906142013 | 55 | 133 | 0.9 | 1.7 | 0.00 | 0.00 | 0.00 | 93 | 1020.0 |
| 20260906142006 | 55 | 91 | 0.9 | 1.7 | 0.00 | 0.00 | 0.00 | 93 | 1020.0 |
| 20260906141958 | 55 | 91 | 0.9 | 1.7 | 0.00 | 0.00 | 0.00 | 93 | 1020.0 |
| 20260906141944 | 55 | 78 | 0.9 | 1.7 | 0.00 | 0.00 | 0.00 | 93 | 1020.0 |
| 20260906141902 | 55 | 125 | 0.9 | 1.7 | 0.00 | 0.00 | 0.00 | 93 | 1020.0 |
| 20260906141846 | 55 | 125 | 0.9 | 1.7 | 0.00 | 0.00 | 0.00 | 93 | 1020.0 |
| 20260906141840 | 55 | 137 | 0.0 | 0.0 | 0.00 | 0.00 | 0.00 | 93 | 1020.0 |
| 20260906141814 | 55 | 144 | 0.0 | 0.0 | 0.00 | 0.00 | 0.00 | 93 | 1020.0 |
| 20260906141806 | 55 | 140 | 0.0 | 0.0 | 0.00 | 0.00 | 0.00 | 93 | 1020.0 |
| 20260906141758 | 55 | 140 | 0.0 | 0.0 | 0.00 | 0.00 | 0.00 | 93 | 1020.0 |
| 20260906141742 | 55 | 123 | 0.0 | 0.0 | 0.00 | 0.00 | 0.00 | 93 | 1020.0 |
| 20260906141725 | 55 | 123 | 0.0 | 1.7 | 0.00 | 0.00 | 0.00 | 93 | 1020.0 |
| 20260906141710 | 55 | 117 | 0.0 | 1.7 | 0.00 | 0.00 | 0.00 | 93 | 1020.0 |
| 20260906141702 | 55 | 116 | 0.0 | 1.7 | 0.00 | 0.00 | 0.00 | 93 | 1020.0 |
| 20260906141637 | 55 | 116 | 0.0 | 1.7 | 0.00 | 0.00 | 0.00 | 93 | 1020.0 |
| 20260906141622 | 55 | 130 | 0.0 | 1.7 | 0.00 | 0.00 | 0.00 | 93 | 1020.0 |
| 20260906141606 | 55 | 131 | 0.0 | 1.7 | 0.00 | 0.00 | 0.00 | 93 | 1020.0 |
| 20260906141552 | 55 | 131 | 0.9 | 1.7 | 0.00 | 0.00 | 0.00 | 93 | 1020.0 |
| 20260906141534 | 55 | 137 | 0.9 | 2.6 | 0.00 | 0.00 | 0.00 | 93 | 1020.0 |
| 20260906141503 | 55 | 128 | 0.0 | 2.6 | 0.00 | 0.00 | 0.00 | 93 | 1020.0 |
| 20260906141446 | 55 | 128 | 0.0 | 2.6 | 0.00 | 0.00 | 0.00 | 93 | 1020.0 |
| 20260906141432 | 55 | 128 | 0.0 | 2.6 | 0.00 | 0.00 | 0.00 | 93 | 1020.0 |
| 20260906141420 | 55 | 128 | 1.7 | 2.6 | 0.00 | 0.00 | 0.00 | 93 | 1020.0 |
| 20260906141349 | 55 | 149 | 1.7 | 2.6 | 0.00 | 0.00 | 0.00 | 93 | 1020.0 |
| 20260906141336 | 55 | 150 | 1.7 | 2.6 | 0.00 | 0.00 | 0.00 | 93 | 1020.0 |
| 20260906141320 | 55 | 104 | 0.9 | 1.7 | 0.00 | 0.00 | 0.00 | 93 | 1020.0 |
| 20260906141246 | 55 | 110 | 0.0 | 0.9 | 0.00 | 0.00 | 0.00 | 93 | 1020.0 |
| 20260906141229 | 55 | 110 | 0.9 | 0.9 | 0.00 | 0.00 | 0.00 | 93 | 1020.0 |
| 20260906141215 | 54 | 101 | 0.0 | 0.9 | 0.00 | 0.00 | 0.00 | 93 | 1020.0 |
| 20260906141143 | 54 | 102 | 0.9 | 1.7 | 0.00 | 0.00 | 0.00 | 93 | 1020.0 |
| 20260906141126 | 54 | 126 | 0.9 | 1.7 | 0.00 | 0.00 | 0.00 | 93 | 1020.0 |
| 20260906141120 | 54 | 130 | 0.0 | 1.7 | 0.00 | 0.00 | 0.00 | 94 | 1020.0 |
| 20260906141058 | 54 | 130 | 0.9 | 1.7 | 0.00 | 0.00 | 0.00 | 94 | 1020.0 |
| 20260906141031 | 54 | 129 | 1.7 | 1.7 | 0.00 | 0.00 | 0.00 | 94 | 1020.0 |
| 20260906141002 | 54 | 124 | 0.0 | 1.7 | 0.00 | 0.00 | 0.00 | 94 | 1020.0 |
| 20260906140909 | 54 | 153 | 0.0 | 0.9 | 0.00 | 0.00 | 0.00 | 94 | 1020.0 |
| 20260906140901 | 54 | 151 | 0.9 | 0.9 | 0.00 | 0.00 | 0.00 | 94 | 1020.0 |
| 20260906140822 | 54 | 123 | 0.0 | 0.0 | 0.00 | 0.00 | 0.00 | 94 | 1020.0 |
| 20260906140809 | 54 | 123 | 0.0 | 0.0 | 0.00 | 0.00 | 0.00 | 94 | 1020.0 |
| 20260906140742 | 54 | 123 | 0.0 | 0.0 | 0.00 | 0.00 | 0.00 | 94 | 1020.0 |
| 20260906140718 | 54 | 123 | 0.0 | 0.9 | 0.00 | 0.00 | 0.00 | 94 | 1020.0 |
| 20260906140710 | 54 | 123 | 0.0 | 0.9 | 0.00 | 0.00 | 0.00 | 94 | 1020.0 |
| 20260906140702 | 54 | 123 | 0.0 | 1.7 | 0.00 | 0.00 | 0.00 | 94 | 1020.0 |
| 20260906140646 | 54 | 123 | 0.0 | 1.7 | 0.00 | 0.00 | 0.00 | 94 | 1020.0 |
| 20260906140635 | 54 | 123 | 0.0 | 1.7 | 0.00 | 0.00 | 0.00 | 94 | 1020.0 |
| 20260906140606 | 54 | 124 | 0.9 | 1.7 | 0.00 | 0.00 | 0.00 | 94 | 1020.0 |
| 20260906140558 | 54 | 124 | 0.9 | 1.7 | 0.00 | 0.00 | 0.00 | 94 | 1020.0 |
| 20260906140534 | 54 | 147 | 0.9 | 1.7 | 0.00 | 0.00 | 0.00 | 94 | 1020.0 |
| 20260906140518 | 54 | 147 | 0.0 | 0.0 | 0.00 | 0.00 | 0.00 | 94 | 1020.0 |
| 20260906140502 | 54 | 148 | 0.0 | 0.0 | 0.00 | 0.00 | 0.00 | 94 | 1020.0 |
| 20260906140449 | 54 | 147 | 0.0 | 0.0 | 0.00 | 0.00 | 0.00 | 94 | 1020.0 |
| 20260906140430 | 54 | 140 | 0.0 | 0.0 | 0.00 | 0.00 | 0.00 | 94 | 1020.0 |
| 20260906140414 | 54 | 125 | 0.0 | 0.0 | 0.00 | 0.00 | 0.00 | 94 | 1020.0 |
| 20260906140406 | 54 | 126 | 0.0 | 0.0 | 0.00 | 0.00 | 0.00 | 94 | 1020.0 |
| 20260906140359 | 54 | 126 | 0.0 | 0.0 | 0.00 | 0.00 | 0.00 | 94 | 1020.0 |
| 20260906140334 | 54 | 126 | 0.0 | 0.0 | 0.00 | 0.00 | 0.00 | 94 | 1020.0 |
| 20260906140310 | 54 | 144 | 0.0 | 0.0 | 0.00 | 0.00 | 0.00 | 94 | 1020.0 |
| 20260906140302 | 54 | 141 | 0.0 | 0.0 | 0.00 | 0.00 | 0.00 | 94 | 1020.0 |
| 20260906140254 | 54 | 141 | 0.0 | 0.0 | 0.00 | 0.00 | 0.00 | 94 | 1020.0 |
| 20260906140238 | 54 | 132 | 0.0 | 0.0 | 0.00 | 0.00 | 0.00 | 94 | 1020.0 |
| 20260906140222 | 54 | 134 | 0.0 | 0.0 | 0.00 | 0.00 | 0.00 | 94 | 1020.0 |
| 20260906140206 | 54 | 141 | 0.0 | 0.0 | 0.00 | 0.00 | 0.00 | 94 | 1020.0 |
| 20260906140200 | 54 | 140 | 0.0 | 0.0 | 0.00 | 0.00 | 0.00 | 94 | 1020.0 |
| 20260906140110 | 54 | 140 | 0.0 | 0.0 | 0.00 | 0.00 | 0.00 | 94 | 1020.0 |
| 20260906140041 | 54 | 140 | 0.0 | 0.0 | 0.00 | 0.00 | 0.00 | 94 | 1020.0 |
| 20260906140005 | 54 | 115 | 0.0 | 0.0 | 0.00 | 0.00 | 0.00 | 94 | 1020.0 |
| 20260906135950 | 54 | 115 | 0.0 | 0.0 | 0.00 | 0.00 | 0.00 | 94 | 1020.0 |
| 20260906135935 | 54 | 128 | 0.0 | 0.0 | 0.00 | 0.00 | 0.00 | 94 | 1020.0 |
| 20260906135918 | 54 | 131 | 0.0 | 0.0 | 0.00 | 0.00 | 0.00 | 94 | 1020.0 |
| 20260906135912 | 54 | 137 | 0.0 | 0.0 | 0.00 | 0.00 | 0.00 | 94 | 1020.0 |
| 20260906135841 | 54 | 127 | 0.0 | 0.0 | 0.00 | 0.00 | 0.00 | 94 | 1020.0 |
| 20260906135816 | 54 | 140 | 0.0 | 0.0 | 0.00 | 0.00 | 0.00 | 94 | 1020.0 |
| 20260906135741 | 54 | 140 | 0.0 | 0.0 | 0.00 | 0.00 | 0.00 | 94 | 1020.0 |
| 20260906135726 | 54 | 140 | 0.0 | 0.9 | 0.00 | 0.00 | 0.00 | 94 | 1020.0 |
| 20260906135711 | 54 | 140 | 0.0 | 0.9 | 0.00 | 0.00 | 0.00 | 94 | 1020.0 |
| 20260906135702 | 54 | 141 | 0.0 | 0.9 | 0.00 | 0.00 | 0.00 | 94 | 1020.0 |
| 20260906135656 | 54 | 141 | 0.0 | 0.9 | 0.00 | 0.00 | 0.00 | 94 | 1020.0 |
| 20260906135638 | 54 | 133 | 0.0 | 0.9 | 0.00 | 0.00 | 0.00 | 94 | 1020.0 |
| 20260906135635 | 54 | 133 | 0.0 | 1.7 | 0.00 | 0.00 | 0.00 | 94 | 1020.0 |
| 20260906135606 | 54 | 133 | 0.9 | 1.7 | 0.00 | 0.00 | 0.00 | 94 | 1020.0 |
| 20260906135558 | 54 | 133 | 0.9 | 1.7 | 0.00 | 0.00 | 0.00 | 94 | 1020.0 |
| 20260906135542 | 54 | 148 | 0.0 | 1.7 | 0.00 | 0.00 | 0.00 | 94 | 1020.0 |
| 20260906135527 | 54 | 148 | 0.0 | 1.7 | 0.00 | 0.00 | 0.00 | 94 | 1020.0 |
| 20260906135510 | 54 | 159 | 0.9 | 1.7 | 0.00 | 0.00 | 0.00 | 94 | 1020.0 |
| 20260906135502 | 54 | 81 | 1.7 | 1.7 | 0.00 | 0.00 | 0.00 | 94 | 1020.0 |
| 20260906135454 | 54 | 81 | 1.7 | 1.7 | 0.00 | 0.00 | 0.00 | 94 | 1020.0 |
| 20260906135440 | 54 | 67 | 1.7 | 1.7 | 0.00 | 0.00 | 0.00 | 94 | 1020.0 |
| 20260906135422 | 54 | 113 | 0.0 | 0.9 | 0.00 | 0.00 | 0.00 | 94 | 1020.0 |
| 20260906135408 | 54 | 130 | 0.0 | 0.0 | 0.00 | 0.00 | 0.00 | 94 | 1020.0 |
| 20260906135352 | 54 | 116 | 0.0 | 0.0 | 0.00 | 0.00 | 0.00 | 94 | 1020.0 |
| 20260906135337 | 54 | 118 | 0.0 | 0.0 | 0.00 | 0.00 | 0.00 | 94 | 1020.0 |
| 20260906135319 | 54 | 118 | 0.0 | 0.0 | 0.00 | 0.00 | 0.00 | 94 | 1020.0 |
| 20260906135306 | 54 | 112 | 0.0 | 0.0 | 0.00 | 0.00 | 0.00 | 94 | 1020.0 |
| 20260906135246 | 54 | 107 | 0.0 | 0.0 | 0.00 | 0.00 | 0.00 | 94 | 1020.0 |
| 20260906135225 | 54 | 119 | 0.0 | 0.0 | 0.00 | 0.00 | 0.00 | 94 | 1020.0 |
| 20260906135205 | 54 | 118 | 0.0 | 0.0 | 0.00 | 0.00 | 0.00 | 94 | 1020.0 |
| 20260906135153 | 54 | 113 | 0.0 | 0.0 | 0.00 | 0.00 | 0.00 | 94 | 1020.0 |
| 20260906135134 | 54 | 126 | 0.0 | 0.0 | 0.00 | 0.00 | 0.00 | 94 | 1020.0 |
| 20260906135102 | 54 | 101 | 0.0 | 0.0 | 0.00 | 0.00 | 0.00 | 94 | 1020.0 |
| 20260906135046 | 54 | 216 | 0.0 | 0.0 | 0.00 | 0.00 | 0.00 | 94 | 1020.0 |
| 20260906135040 | 54 | 145 | 0.0 | 0.0 | 0.00 | 0.00 | 0.00 | 94 | 1020.0 |
| 20260906135014 | 54 | 110 | 0.0 | 0.0 | 0.00 | 0.00 | 0.00 | 94 | 1020.0 |
| 20260906135012 | 54 | 137 | 0.0 | 0.0 | 0.00 | 0.00 | 0.00 | 94 | 1020.0 |
| 20260906134942 | 54 | 87 | 0.0 | 0.0 | 0.00 | 0.00 | 0.00 | 94 | 1020.0 |
| 20260906134926 | 54 | 171 | 0.0 | 0.0 | 0.00 | 0.00 | 0.00 | 94 | 1020.0 |
| 20260906134917 | 54 | 172 | 0.0 | 0.0 | 0.00 | 0.00 | 0.00 | 94 | 1020.0 |
| 20260906134837 | 54 | 66 | 0.0 | 0.0 | 0.00 | 0.00 | 0.00 | 94 | 1020.0 |
| 20260906134821 | 54 | 66 | 0.0 | 0.0 | 0.00 | 0.00 | 0.00 | 94 | 1020.0 |
| 20260906134805 | 54 | 114 | 0.0 | 0.0 | 0.00 | 0.00 | 0.00 | 94 | 1020.0 |
| 20260906134759 | 54 | 114 | 0.0 | 0.0 | 0.00 | 0.00 | 0.00 | 94 | 1020.0 |
| 20260906134726 | 54 | 183 | 0.0 | 0.0 | 0.00 | 0.00 | 0.00 | 94 | 1020.0 |
| 20260906134711 | 54 | 118 | 0.0 | 0.0 | 0.00 | 0.00 | 0.00 | 94 | 1020.0 |
| 20260906134701 | 54 | 120 | 0.0 | 0.0 | 0.00 | 0.00 | 0.00 | 94 | 1020.0 |
| 20260906134638 | 54 | 120 | 0.0 | 0.0 | 0.00 | 0.00 | 0.00 | 94 | 1020.0 |
| 20260906134622 | 54 | 122 | 0.0 | 0.0 | 0.00 | 0.00 | 0.00 | 94 | 1020.0 |
| 20260906134616 | 54 | 92 | 0.0 | 0.0 | 0.00 | 0.00 | 0.00 | 94 | 1020.0 |
| 20260906134550 | 54 | 92 | 0.0 | 0.0 | 0.00 | 0.00 | 0.00 | 94 | 1020.0 |
| 20260906134518 | 54 | 109 | 0.0 | 0.0 | 0.00 | 0.00 | 0.00 | 94 | 1020.0 |
| 20260906134513 | 54 | 109 | 0.0 | 0.0 | 0.00 | 0.00 | 0.00 | 94 | 1020.0 |
| 20260906134446 | 54 | 110 | 0.0 | 0.0 | 0.00 | 0.00 | 0.00 | 94 | 1020.0 |
| 20260906134430 | 54 | 101 | 0.0 | 0.0 | 0.00 | 0.00 | 0.00 | 94 | 1020.0 |
| 20260906134406 | 54 | 102 | 0.0 | 0.0 | 0.00 | 0.00 | 0.00 | 94 | 1020.0 |
| 20260906134333 | 54 | 102 | 0.0 | 0.0 | 0.00 | 0.00 | 0.00 | 94 | 1020.0 |
| 20260906134318 | 54 | 120 | 0.0 | 0.0 | 0.00 | 0.00 | 0.00 | 94 | 1020.0 |
| 20260906134302 | 54 | 112 | 0.0 | 0.0 | 0.00 | 0.00 | 0.00 | 94 | 1020.0 |
| 20260906134246 | 54 | 112 | 0.0 | 0.0 | 0.00 | 0.00 | 0.00 | 94 | 1020.0 |
| 20260906134230 | 54 | 121 | 0.0 | 0.0 | 0.00 | 0.00 | 0.00 | 94 | 1020.0 |
| 20260906134213 | 54 | 121 | 0.0 | 0.0 | 0.00 | 0.00 | 0.00 | 94 | 1020.0 |
| 20260906134206 | 54 | 120 | 0.0 | 0.0 | 0.00 | 0.00 | 0.00 | 94 | 1020.0 |
| 20260906134104 | 54 | 120 | 0.0 | 0.0 | 0.00 | 0.00 | 0.00 | 94 | 1020.0 |
| 20260906134005 | 54 | 119 | 0.0 | 0.0 | 0.00 | 0.00 | 0.00 | 94 | 1020.0 |
| 20260906133910 | 54 | 120 | 0.0 | 0.0 | 0.00 | 0.00 | 0.00 | 94 | 1020.0 |
| 20260906133901 | 54 | 127 | 0.0 | 0.0 | 0.00 | 0.00 | 0.00 | 94 | 1020.0 |
| 20260906133857 | 54 | 127 | 0.0 | 0.0 | 0.00 | 0.00 | 0.00 | 94 | 1020.0 |
| 20260906133838 | 54 | 124 | 0.0 | 0.0 | 0.00 | 0.00 | 0.00 | 94 | 1020.0 |
| 20260906133826 | 54 | 122 | 0.0 | 0.0 | 0.00 | 0.00 | 0.00 | 94 | 1020.0 |
| 20260906133750 | 54 | 118 | 0.0 | 0.0 | 0.00 | 0.00 | 0.00 | 94 | 1020.0 |
| 20260906133734 | 54 | 121 | 0.0 | 0.0 | 0.00 | 0.00 | 0.00 | 94 | 1020.0 |
| 20260906133704 | 54 | 111 | 0.0 | 0.0 | 0.00 | 0.00 | 0.00 | 94 | 1020.0 |
| 20260906133646 | 54 | 111 | 0.0 | 0.0 | 0.00 | 0.00 | 0.00 | 94 | 1020.0 |
| 20260906133605 | 54 | 114 | 0.0 | 0.0 | 0.00 | 0.00 | 0.00 | 94 | 1020.0 |
| 20260906133557 | 54 | 114 | 0.0 | 0.0 | 0.00 | 0.00 | 0.00 | 94 | 1020.0 |
| 20260906133548 | 54 | 116 | 0.0 | 0.0 | 0.00 | 0.00 | 0.00 | 94 | 1020.0 |
| 20260906133526 | 54 | 137 | 0.0 | 0.0 | 0.00 | 0.00 | 0.00 | 94 | 1020.0 |
| 20260906133510 | 54 | 128 | 0.0 | 0.0 | 0.00 | 0.00 | 0.00 | 94 | 1020.0 |
| 20260906133502 | 54 | 115 | 0.0 | 0.0 | 0.00 | 0.00 | 0.00 | 94 | 1020.0 |
| 20260906133445 | 54 | 115 | 0.0 | 0.0 | 0.00 | 0.00 | 0.00 | 94 | 1020.0 |
| 20260906133430 | 54 | 120 | 0.0 | 0.0 | 0.00 | 0.00 | 0.00 | 94 | 1020.0 |
| 20260906133414 | 54 | 117 | 0.0 | 0.0 | 0.00 | 0.00 | 0.00 | 94 | 1020.0 |
| 20260906133406 | 54 | 106 | 0.0 | 0.0 | 0.00 | 0.00 | 0.00 | 94 | 1020.0 |
| 20260906133357 | 54 | 106 | 0.0 | 0.0 | 0.00 | 0.00 | 0.00 | 94 | 1020.0 |
| 20260906133342 | 54 | 106 | 0.0 | 0.0 | 0.00 | 0.00 | 0.00 | 94 | 1020.0 |
| 20260906133326 | 54 | 109 | 0.0 | 0.0 | 0.00 | 0.00 | 0.00 | 94 | 1020.0 |
| 20260906133320 | 54 | 110 | 0.0 | 0.0 | 0.00 | 0.00 | 0.00 | 94 | 1020.0 |
| 20260906133304 | 54 | 118 | 0.0 | 0.0 | 0.00 | 0.00 | 0.00 | 94 | 1020.0 |
| 20260906133238 | 54 | 112 | 0.0 | 0.0 | 0.00 | 0.00 | 0.00 | 94 | 1020.0 |
| 20260906133222 | 54 | 111 | 0.0 | 0.0 | 0.00 | 0.00 | 0.00 | 94 | 1020.0 |
| 20260906133206 | 54 | 111 | 0.0 | 0.0 | 0.00 | 0.00 | 0.00 | 94 | 1020.0 |
| 20260906133133 | 54 | 111 | 0.0 | 0.0 | 0.00 | 0.00 | 0.00 | 94 | 1020.0 |
| 20260906133101 | 54 | 111 | 0.0 | 0.0 | 0.00 | 0.00 | 0.00 | 94 | 1020.0 |
| 20260906133056 | 54 | 111 | 0.0 | 0.0 | 0.00 | 0.00 | 0.00 | 94 | 1020.0 |
| 20260906133024 | 54 | 111 | 0.0 | 0.0 | 0.00 | 0.00 | 0.00 | 94 | 1020.0 |
| 20260906133010 | 54 | 126 | 0.0 | 0.0 | 0.00 | 0.00 | 0.00 | 94 | 1020.0 |
| 20260906132941 | 54 | 126 | 0.0 | 0.0 | 0.00 | 0.00 | 0.00 | 94 | 1020.0 |
| 20260906132902 | 54 | 126 | 0.0 | 0.0 | 0.00 | 0.00 | 0.00 | 94 | 1020.0 |
| 20260906132859 | 54 | 128 | 0.0 | 0.0 | 0.00 | 0.00 | 0.00 | 94 | 1020.0 |
| 20260906132830 | 54 | 131 | 0.0 | 0.0 | 0.00 | 0.00 | 0.00 | 94 | 1020.0 |
| 20260906132827 | 54 | 87 | 0.0 | 0.0 | 0.00 | 0.00 | 0.00 | 94 | 1020.0 |
| 20260906132758 | 54 | 80 | 0.0 | 0.0 | 0.00 | 0.00 | 0.00 | 94 | 1020.0 |
| 20260906132726 | 54 | 81 | 0.0 | 0.0 | 0.00 | 0.00 | 0.00 | 94 | 1020.0 |
| 20260906132710 | 54 | 80 | 0.0 | 0.0 | 0.00 | 0.00 | 0.00 | 94 | 1020.0 |
| 20260906132702 | 54 | 80 | 0.0 | 0.0 | 0.00 | 0.00 | 0.00 | 94 | 1020.0 |
| 20260906132606 | 54 | 80 | 0.0 | 0.0 | 0.00 | 0.00 | 0.00 | 94 | 1020.0 |
| 20260906132544 | 54 | 80 | 0.0 | 0.0 | 0.00 | 0.00 | 0.00 | 94 | 1020.0 |
| 20260906132502 | 54 | 80 | 0.0 | 0.0 | 0.00 | 0.00 | 0.00 | 94 | 1020.0 |
| 20260906132401 | 54 | 80 | 0.0 | 0.0 | 0.00 | 0.00 | 0.00 | 94 | 1020.0 |
| 20260906132306 | 54 | 80 | 0.0 | 0.0 | 0.00 | 0.00 | 0.00 | 94 | 1020.0 |
| 20260906132206 | 54 | 81 | 0.0 | 0.0 | 0.00 | 0.00 | 0.00 | 94 | 1020.0 |
| 20260906132104 | 54 | 81 | 0.0 | 0.0 | 0.00 | 0.00 | 0.00 | 94 | 1020.0 |
| 20260906132048 | 54 | 81 | 0.0 | 0.0 | 0.00 | 0.00 | 0.00 | 94 | 1020.0 |
| 20260906132008 | 54 | 81 | 0.0 | 0.0 | 0.00 | 0.00 | 0.00 | 94 | 1020.0 |
| 20260906131952 | 54 | 54 | 0.0 | 0.0 | 0.00 | 0.00 | 0.00 | 94 | 1020.0 |
| 20260906131928 | 54 | 78 | 0.0 | 0.0 | 0.00 | 0.00 | 0.00 | 94 | 1020.0 |
| 20260906131910 | 54 | 59 | 0.0 | 0.0 | 0.00 | 0.00 | 0.00 | 94 | 1020.0 |
| 20260906131901 | 54 | 91 | 0.0 | 0.0 | 0.00 | 0.00 | 0.00 | 94 | 1020.0 |
| 20260906131853 | 54 | 91 | 0.0 | 0.0 | 0.00 | 0.00 | 0.00 | 94 | 1020.0 |
| 20260906131837 | 54 | 82 | 0.0 | 0.0 | 0.00 | 0.00 | 0.00 | 94 | 1020.0 |
| 20260906131829 | 54 | 110 | 0.0 | 0.0 | 0.00 | 0.00 | 0.00 | 94 | 1020.0 |
| 20260906131749 | 54 | 126 | 0.0 | 0.0 | 0.00 | 0.00 | 0.00 | 94 | 1020.0 |
| 20260906131722 | 54 | 149 | 0.0 | 0.0 | 0.00 | 0.00 | 0.00 | 94 | 1020.0 |
| 20260906131640 | 54 | 105 | 0.0 | 0.0 | 0.00 | 0.00 | 0.00 | 94 | 1020.0 |
| 20260906131622 | 54 | 108 | 0.0 | 0.0 | 0.00 | 0.00 | 0.00 | 94 | 1020.0 |
| 20260906131606 | 54 | 102 | 0.0 | 0.0 | 0.00 | 0.00 | 0.00 | 94 | 1020.0 |
| 20260906131600 | 54 | 96 | 0.0 | 0.0 | 0.00 | 0.00 | 0.00 | 94 | 1020.0 |
| 20260906131535 | 54 | 100 | 0.0 | 0.0 | 0.00 | 0.00 | 0.00 | 94 | 1020.0 |
| 20260906131501 | 54 | 101 | 0.0 | 0.0 | 0.00 | 0.00 | 0.00 | 94 | 1020.0 |
| 20260906131400 | 54 | 101 | 0.0 | 0.0 | 0.00 | 0.00 | 0.00 | 94 | 1020.0 |
| 20260906131342 | 54 | 101 | 0.0 | 0.0 | 0.00 | 0.00 | 0.00 | 94 | 1020.0 |
| 20260906131301 | 54 | 101 | 0.0 | 0.0 | 0.00 | 0.00 | 0.00 | 94 | 1020.0 |
| 20260906131216 | 54 | 101 | 0.0 | 0.0 | 0.00 | 0.00 | 0.00 | 94 | 1020.0 |
| 20260906131125 | 54 | 101 | 0.0 | 0.0 | 0.00 | 0.00 | 0.00 | 94 | 1020.0 |
| 20260906131113 | 54 | 99 | 0.0 | 0.0 | 0.00 | 0.00 | 0.00 | 94 | 1020.0 |
| 20260906131054 | 54 | 154 | 0.0 | 0.0 | 0.00 | 0.00 | 0.00 | 94 | 1020.0 |
| 20260906131040 | 54 | 113 | 0.0 | 0.0 | 0.00 | 0.00 | 0.00 | 94 | 1020.0 |
| 20260906131005 | 54 | 110 | 0.0 | 0.0 | 0.00 | 0.00 | 0.00 | 94 | 1020.0 |
| 20260906130922 | 54 | 110 | 0.0 | 0.0 | 0.00 | 0.00 | 0.00 | 94 | 1020.0 |
| 20260906130901 | 54 | 136 | 0.0 | 0.0 | 0.00 | 0.00 | 0.00 | 94 | 1020.0 |
| 20260906130858 | 54 | 136 | 0.0 | 0.0 | 0.00 | 0.00 | 0.00 | 94 | 1020.0 |
| 20260906130825 | 54 | 127 | 0.0 | 0.0 | 0.00 | 0.00 | 0.00 | 94 | 1020.0 |
| 20260906130808 | 54 | 133 | 0.0 | 0.0 | 0.00 | 0.00 | 0.00 | 94 | 1020.0 |
| 20260906130751 | 54 | 120 | 0.0 | 0.0 | 0.00 | 0.00 | 0.00 | 94 | 1020.0 |
| 20260906130702 | 54 | 109 | 0.0 | 0.0 | 0.00 | 0.00 | 0.00 | 94 | 1020.0 |
| 20260906130634 | 54 | 111 | 0.0 | 0.0 | 0.00 | 0.00 | 0.00 | 94 | 1020.0 |
| 20260906130606 | 54 | 106 | 0.0 | 0.0 | 0.00 | 0.00 | 0.00 | 94 | 1020.0 |
| 20260906130542 | 54 | 106 | 0.0 | 0.0 | 0.00 | 0.00 | 0.00 | 94 | 1020.0 |
| 20260906130526 | 54 | 112 | 0.0 | 0.0 | 0.00 | 0.00 | 0.00 | 94 | 1020.0 |
| 20260906130502 | 54 | 117 | 0.0 | 0.0 | 0.00 | 0.00 | 0.00 | 94 | 1020.0 |
| 20260906130437 | 54 | 117 | 0.0 | 0.0 | 0.00 | 0.00 | 0.00 | 94 | 1020.0 |
| 20260906130421 | 54 | 105 | 0.0 | 0.0 | 0.00 | 0.00 | 0.00 | 94 | 1020.0 |
| 20260906130414 | 54 | 96 | 0.0 | 0.0 | 0.00 | 0.00 | 0.00 | 94 | 1020.0 |
| 20260906130409 | 54 | 96 | 0.0 | 0.9 | 0.00 | 0.00 | 0.00 | 94 | 1020.0 |
| 20260906130341 | 54 | 101 | 0.0 | 0.9 | 0.00 | 0.00 | 0.00 | 94 | 1020.0 |
| 20260906130325 | 54 | 141 | 0.0 | 0.9 | 0.00 | 0.00 | 0.00 | 94 | 1020.0 |
| 20260906130309 | 54 | 138 | 0.0 | 0.9 | 0.00 | 0.00 | 0.00 | 94 | 1020.0 |
| 20260906130304 | 54 | 108 | 0.0 | 0.9 | 0.00 | 0.00 | 0.00 | 94 | 1020.0 |
| 20260906130239 | 54 | 128 | 0.0 | 0.9 | 0.00 | 0.00 | 0.00 | 94 | 1020.0 |
| 20260906130221 | 54 | 80 | 0.0 | 1.7 | 0.00 | 0.00 | 0.00 | 94 | 1020.0 |
| 20260906130208 | 54 | 160 | 0.0 | 1.7 | 0.00 | 0.00 | 0.00 | 94 | 1020.0 |
| 20260906130149 | 54 | 112 | 0.0 | 1.7 | 0.00 | 0.00 | 0.00 | 94 | 1020.0 |
| 20260906130133 | 54 | 131 | 0.0 | 1.7 | 0.00 | 0.00 | 0.00 | 94 | 1020.0 |
| 20260906130117 | 54 | 79 | 0.0 | 1.7 | 0.00 | 0.00 | 0.00 | 94 | 1020.0 |
| 20260906130046 | 54 | 139 | 0.9 | 1.7 | 0.00 | 0.00 | 0.00 | 94 | 1020.0 |
| 20260906130029 | 54 | 144 | 0.9 | 0.9 | 0.00 | 0.00 | 0.00 | 94 | 1020.0 |
| 20260906130014 | 54 | 96 | 0.9 | 0.9 | 0.00 | 0.00 | 0.00 | 94 | 1020.0 |
| 20260906130006 | 54 | 186 | 0.0 | 0.9 | 0.00 | 0.00 | 0.00 | 94 | 1020.0 |
| 20260906125958 | 54 | 186 | 0.0 | 0.9 | 0.00 | 0.00 | 0.00 | 94 | 1020.0 |
| 20260906125934 | 54 | 114 | 0.0 | 0.0 | 0.00 | 0.00 | 0.00 | 94 | 1020.0 |
| 20260906125917 | 54 | 135 | 0.0 | 0.0 | 0.00 | 0.00 | 0.00 | 94 | 1020.0 |
| 20260906125914 | 54 | 125 | 0.0 | 0.0 | 0.00 | 0.00 | 0.00 | 94 | 1020.0 |
| 20260906125846 | 54 | 84 | 0.0 | 0.0 | 0.00 | 0.00 | 0.00 | 94 | 1020.0 |
| 20260906125805 | 54 | 94 | 0.0 | 0.0 | 0.00 | 0.00 | 0.00 | 94 | 1020.0 |
| 20260906125757 | 54 | 94 | 0.0 | 0.0 | 0.00 | 0.00 | 0.00 | 94 | 1020.0 |
| 20260906125741 | 54 | 131 | 0.0 | 0.0 | 0.00 | 0.00 | 0.00 | 94 | 1020.0 |
| 20260906125726 | 54 | 120 | 0.0 | 0.0 | 0.00 | 0.00 | 0.00 | 94 | 1020.0 |
| 20260906125720 | 54 | 123 | 0.0 | 0.0 | 0.00 | 0.00 | 0.00 | 94 | 1020.0 |
| 20260906125701 | 54 | 136 | 0.0 | 0.0 | 0.00 | 0.00 | 0.00 | 94 | 1020.0 |
| 20260906125653 | 54 | 136 | 0.0 | 0.0 | 0.00 | 0.00 | 0.00 | 94 | 1020.0 |
| 20260906125637 | 54 | 132 | 0.0 | 0.0 | 0.00 | 0.00 | 0.00 | 94 | 1020.0 |
| 20260906125607 | 54 | 81 | 0.0 | 0.0 | 0.00 | 0.00 | 0.00 | 94 | 1020.0 |
| 20260906125550 | 54 | 81 | 0.0 | 0.0 | 0.00 | 0.00 | 0.00 | 94 | 1020.0 |
| 20260906125509 | 54 | 103 | 0.0 | 0.0 | 0.00 | 0.00 | 0.00 | 94 | 1020.0 |
| 20260906125502 | 54 | 115 | 0.0 | 0.0 | 0.00 | 0.00 | 0.00 | 94 | 1020.0 |
| 20260906125437 | 54 | 115 | 0.0 | 0.0 | 0.00 | 0.00 | 0.00 | 94 | 1020.0 |
| 20260906125422 | 54 | 132 | 0.0 | 0.0 | 0.00 | 0.00 | 0.00 | 94 | 1020.0 |
| 20260906125416 | 54 | 147 | 0.0 | 0.0 | 0.00 | 0.00 | 0.00 | 94 | 1020.0 |
| 20260906125328 | 54 | 65 | 0.0 | 0.0 | 0.00 | 0.00 | 0.00 | 94 | 1020.0 |
| 20260906125301 | 54 | 64 | 0.0 | 0.0 | 0.00 | 0.00 | 0.00 | 94 | 1020.0 |
| 20260906125246 | 54 | 64 | 0.0 | 0.0 | 0.00 | 0.00 | 0.00 | 94 | 1020.0 |
| 20260906125231 | 54 | 64 | 0.0 | 0.0 | 0.00 | 0.00 | 0.00 | 94 | 1020.0 |
| 20260906125201 | 54 | 112 | 0.0 | 0.0 | 0.00 | 0.00 | 0.00 | 94 | 1020.0 |
| 20260906125141 | 54 | 118 | 0.0 | 0.0 | 0.00 | 0.00 | 0.00 | 94 | 1020.0 |
| 20260906125125 | 54 | 120 | 0.0 | 0.0 | 0.00 | 0.00 | 0.00 | 94 | 1020.0 |
| 20260906125110 | 54 | 78 | 0.0 | 0.0 | 0.00 | 0.00 | 0.00 | 94 | 1020.0 |
| 20260906125101 | 54 | 106 | 0.0 | 0.0 | 0.00 | 0.00 | 0.00 | 94 | 1020.0 |
| 20260906125045 | 54 | 106 | 0.0 | 0.0 | 0.00 | 0.00 | 0.00 | 94 | 1020.0 |
| 20260906125029 | 54 | 142 | 0.0 | 0.0 | 0.00 | 0.00 | 0.00 | 94 | 1020.0 |
| 20260906125013 | 54 | 154 | 0.0 | 0.0 | 0.00 | 0.00 | 0.00 | 94 | 1020.0 |
| 20260906125005 | 54 | 142 | 0.0 | 0.0 | 0.00 | 0.00 | 0.00 | 94 | 1021.0 |
| 20260906124957 | 54 | 142 | 0.0 | 0.0 | 0.00 | 0.00 | 0.00 | 94 | 1021.0 |
| 20260906124941 | 54 | 120 | 0.0 | 0.0 | 0.00 | 0.00 | 0.00 | 94 | 1021.0 |
| 20260906124909 | 54 | 83 | 0.0 | 0.0 | 0.00 | 0.00 | 0.00 | 94 | 1021.0 |
| 20260906124902 | 54 | 83 | 0.0 | 0.0 | 0.00 | 0.00 | 0.00 | 94 | 1020.0 |
| 20260906124837 | 54 | 83 | 0.0 | 0.0 | 0.00 | 0.00 | 0.00 | 94 | 1020.0 |
| 20260906124824 | 54 | 120 | 0.0 | 0.0 | 0.00 | 0.00 | 0.00 | 94 | 1020.0 |
| 20260906124806 | 54 | 135 | 0.0 | 0.0 | 0.00 | 0.00 | 0.00 | 94 | 1020.0 |
| 20260906124750 | 54 | 149 | 0.0 | 0.0 | 0.00 | 0.00 | 0.00 | 94 | 1020.0 |
| 20260906124741 | 54 | 145 | 0.0 | 0.0 | 0.00 | 0.00 | 0.00 | 94 | 1020.0 |
| 20260906124733 | 54 | 145 | 0.0 | 0.9 | 0.00 | 0.00 | 0.00 | 94 | 1020.0 |
| 20260906124720 | 54 | 88 | 0.0 | 0.9 | 0.00 | 0.00 | 0.00 | 94 | 1020.0 |
| 20260906124701 | 54 | 90 | 0.0 | 0.9 | 0.00 | 0.00 | 0.00 | 94 | 1020.0 |
| 20260906124646 | 54 | 120 | 0.0 | 0.9 | 0.00 | 0.00 | 0.00 | 94 | 1020.0 |
| 20260906124621 | 54 | 137 | 0.0 | 0.9 | 0.00 | 0.00 | 0.00 | 94 | 1020.0 |
| 20260906124616 | 54 | 137 | 0.9 | 0.9 | 0.00 | 0.00 | 0.00 | 94 | 1020.0 |
| 20260906124551 | 54 | 145 | 0.0 | 0.9 | 0.00 | 0.00 | 0.00 | 94 | 1020.0 |
| 20260906124541 | 54 | 151 | 0.0 | 0.9 | 0.00 | 0.00 | 0.00 | 94 | 1020.0 |
| 20260906124533 | 54 | 151 | 0.0 | 1.7 | 0.00 | 0.00 | 0.00 | 94 | 1020.0 |
| 20260906124517 | 54 | 147 | 0.9 | 1.7 | 0.00 | 0.00 | 0.00 | 94 | 1020.0 |
| 20260906124501 | 54 | 145 | 0.0 | 1.7 | 0.00 | 0.00 | 0.00 | 94 | 1020.0 |
| 20260906124445 | 54 | 104 | 0.0 | 1.7 | 0.00 | 0.00 | 0.00 | 94 | 1020.0 |
| 20260906124430 | 54 | 107 | 0.0 | 1.7 | 0.00 | 0.00 | 0.00 | 94 | 1020.0 |
| 20260906124413 | 54 | 106 | 0.0 | 1.7 | 0.00 | 0.00 | 0.00 | 94 | 1020.0 |
| 20260906124405 | 54 | 105 | 0.9 | 1.7 | 0.00 | 0.00 | 0.00 | 94 | 1020.0 |
| 20260906124357 | 54 | 105 | 0.9 | 1.7 | 0.00 | 0.00 | 0.00 | 94 | 1020.0 |
| 20260906124352 | 54 | 129 | 0.0 | 0.9 | 0.00 | 0.00 | 0.00 | 94 | 1020.0 |
| 20260906124335 | 54 | 115 | 0.0 | 0.9 | 0.00 | 0.00 | 0.00 | 94 | 1020.0 |
| 20260906124309 | 54 | 120 | 0.0 | 0.9 | 0.00 | 0.00 | 0.00 | 94 | 1020.0 |
| 20260906124304 | 54 | 120 | 0.0 | 1.7 | 0.00 | 0.00 | 0.00 | 94 | 1020.0 |
| 20260906124238 | 54 | 125 | 0.0 | 1.7 | 0.00 | 0.00 | 0.00 | 94 | 1020.0 |
| 20260906124221 | 54 | 120 | 0.0 | 1.7 | 0.00 | 0.00 | 0.00 | 94 | 1020.0 |
| 20260906124205 | 54 | 134 | 0.0 | 1.7 | 0.00 | 0.00 | 0.00 | 94 | 1020.0 |
| 20260906124200 | 54 | 134 | 0.0 | 1.7 | 0.00 | 0.00 | 0.00 | 94 | 1020.0 |
| 20260906124142 | 54 | 133 | 0.0 | 1.7 | 0.00 | 0.00 | 0.00 | 94 | 1020.0 |
| 20260906124125 | 54 | 136 | 0.9 | 1.7 | 0.00 | 0.00 | 0.00 | 94 | 1020.0 |
| 20260906124109 | 54 | 131 | 0.9 | 1.7 | 0.00 | 0.00 | 0.00 | 94 | 1020.0 |
| 20260906124101 | 54 | 107 | 0.0 | 1.7 | 0.00 | 0.00 | 0.00 | 94 | 1020.0 |
| 20260906124056 | 54 | 107 | 0.0 | 1.7 | 0.00 | 0.00 | 0.00 | 94 | 1020.0 |
| 20260906124037 | 54 | 159 | 0.0 | 1.7 | 0.00 | 0.00 | 0.00 | 94 | 1020.0 |
| 20260906124022 | 54 | 127 | 0.9 | 1.7 | 0.00 | 0.00 | 0.00 | 94 | 1020.0 |
| 20260906124015 | 54 | 134 | 0.9 | 1.7 | 0.00 | 0.00 | 0.00 | 94 | 1020.0 |
| 20260906123949 | 54 | 134 | 0.0 | 0.9 | 0.00 | 0.00 | 0.00 | 94 | 1020.0 |
| 20260906123933 | 54 | 140 | 0.0 | 0.0 | 0.00 | 0.00 | 0.00 | 94 | 1020.0 |
| 20260906123919 | 54 | 202 | 0.0 | 0.0 | 0.00 | 0.00 | 0.00 | 94 | 1020.0 |
| 20260906123901 | 54 | 128 | 0.0 | 0.0 | 0.00 | 0.00 | 0.00 | 94 | 1020.0 |
| 20260906123830 | 54 | 118 | 0.0 | 0.0 | 0.00 | 0.00 | 0.00 | 94 | 1020.0 |
| 20260906123814 | 54 | 134 | 0.0 | 0.0 | 0.00 | 0.00 | 0.00 | 94 | 1020.0 |
| 20260906123805 | 54 | 105 | 0.0 | 0.0 | 0.00 | 0.00 | 0.00 | 94 | 1020.0 |
| 20260906123757 | 54 | 105 | 0.0 | 0.0 | 0.00 | 0.00 | 0.00 | 94 | 1020.0 |
| 20260906123733 | 54 | 133 | 0.0 | 0.0 | 0.00 | 0.00 | 0.00 | 94 | 1020.0 |
| 20260906123720 | 54 | 105 | 0.0 | 0.0 | 0.00 | 0.00 | 0.00 | 94 | 1020.0 |
| 20260906123701 | 54 | 122 | 0.0 | 0.0 | 0.00 | 0.00 | 0.00 | 94 | 1020.0 |
| 20260906123647 | 54 | 119 | 0.0 | 0.0 | 0.00 | 0.00 | 0.00 | 94 | 1020.0 |
| 20260906123629 | 54 | 139 | 0.0 | 0.0 | 0.00 | 0.00 | 0.00 | 94 | 1020.0 |
| 20260906123618 | 54 | 135 | 0.0 | 0.0 | 0.00 | 0.00 | 0.00 | 94 | 1020.0 |
| 20260906123541 | 54 | 192 | 0.0 | 0.0 | 0.00 | 0.00 | 0.00 | 94 | 1020.0 |
| 20260906123528 | 54 | 127 | 0.0 | 0.0 | 0.00 | 0.00 | 0.00 | 94 | 1020.0 |
| 20260906123501 | 54 | 125 | 0.0 | 0.0 | 0.00 | 0.00 | 0.00 | 94 | 1020.0 |
| 20260906123453 | 54 | 125 | 0.0 | 0.0 | 0.00 | 0.00 | 0.00 | 94 | 1020.0 |
| 20260906123405 | 54 | 124 | 0.0 | 0.0 | 0.00 | 0.00 | 0.00 | 94 | 1020.0 |
| 20260906123349 | 54 | 124 | 0.0 | 0.0 | 0.00 | 0.00 | 0.00 | 94 | 1020.0 |
| 20260906123333 | 54 | 128 | 0.0 | 0.0 | 0.00 | 0.00 | 0.00 | 94 | 1020.0 |
| 20260906123301 | 54 | 131 | 0.0 | 0.0 | 0.00 | 0.00 | 0.00 | 94 | 1020.0 |
| 20260906123253 | 54 | 131 | 0.0 | 0.0 | 0.00 | 0.00 | 0.00 | 94 | 1020.0 |
| 20260906123238 | 54 | 133 | 0.0 | 0.0 | 0.00 | 0.00 | 0.00 | 94 | 1020.0 |
| 20260906123221 | 54 | 122 | 0.0 | 0.0 | 0.00 | 0.00 | 0.00 | 94 | 1020.0 |
| 20260906123206 | 54 | 125 | 0.0 | 0.0 | 0.00 | 0.00 | 0.00 | 94 | 1020.0 |
| 20260906123149 | 54 | 125 | 0.0 | 0.0 | 0.00 | 0.00 | 0.00 | 94 | 1020.0 |
| 20260906123133 | 54 | 91 | 0.0 | 0.0 | 0.00 | 0.00 | 0.00 | 94 | 1020.0 |
| 20260906123120 | 54 | 112 | 0.0 | 0.0 | 0.00 | 0.00 | 0.00 | 94 | 1020.0 |
| 20260906123101 | 54 | 133 | 0.0 | 0.0 | 0.00 | 0.00 | 0.00 | 94 | 1020.0 |
| 20260906123046 | 54 | 137 | 0.0 | 0.0 | 0.00 | 0.00 | 0.00 | 94 | 1020.0 |
| 20260906123029 | 54 | 149 | 0.0 | 0.0 | 0.00 | 0.00 | 0.00 | 94 | 1020.0 |
| 20260906123014 | 54 | 145 | 0.0 | 0.0 | 0.00 | 0.00 | 0.00 | 94 | 1020.0 |
| 20260906123007 | 54 | 98 | 0.0 | 0.0 | 0.00 | 0.00 | 0.00 | 94 | 1020.0 |
| 20260906122901 | 54 | 96 | 0.0 | 0.0 | 0.00 | 0.00 | 0.00 | 94 | 1020.0 |
| 20260906122816 | 54 | 96 | 0.0 | 0.0 | 0.00 | 0.00 | 0.00 | 94 | 1020.0 |
| 20260906122733 | 54 | 96 | 0.0 | 0.0 | 0.00 | 0.00 | 0.00 | 94 | 1020.0 |
| 20260906122703 | 54 | 96 | 0.0 | 0.0 | 0.00 | 0.00 | 0.00 | 94 | 1020.0 |
| 20260906122650 | 54 | 96 | 0.0 | 0.0 | 0.00 | 0.00 | 0.00 | 94 | 1020.0 |
| 20260906122621 | 54 | 89 | 0.0 | 0.0 | 0.00 | 0.00 | 0.00 | 94 | 1020.0 |
| 20260906122605 | 54 | 87 | 0.0 | 0.0 | 0.00 | 0.00 | 0.00 | 94 | 1020.0 |
| 20260906122549 | 54 | 104 | 0.0 | 0.0 | 0.00 | 0.00 | 0.00 | 94 | 1020.0 |
| 20260906122533 | 54 | 119 | 0.0 | 0.0 | 0.00 | 0.00 | 0.00 | 94 | 1020.0 |
| 20260906122517 | 54 | 125 | 0.0 | 0.0 | 0.00 | 0.00 | 0.00 | 94 | 1020.0 |
| 20260906122501 | 54 | 110 | 0.0 | 0.0 | 0.00 | 0.00 | 0.00 | 94 | 1020.0 |
| 20260906122445 | 54 | 110 | 0.0 | 0.0 | 0.00 | 0.00 | 0.00 | 94 | 1020.0 |
| 20260906122407 | 54 | 118 | 0.0 | 0.0 | 0.00 | 0.00 | 0.00 | 94 | 1020.0 |
| 20260906122350 | 54 | 99 | 0.0 | 0.0 | 0.00 | 0.00 | 0.00 | 94 | 1020.0 |
| 20260906122333 | 54 | 116 | 0.0 | 0.0 | 0.00 | 0.00 | 0.00 | 94 | 1020.0 |
| 20260906122317 | 54 | 114 | 0.0 | 0.0 | 0.00 | 0.00 | 0.00 | 94 | 1020.0 |
| 20260906122306 | 54 | 76 | 0.0 | 0.0 | 0.00 | 0.00 | 0.00 | 94 | 1020.0 |
| 20260906122215 | 54 | 75 | 0.0 | 0.0 | 0.00 | 0.00 | 0.00 | 94 | 1020.0 |
| 20260906122157 | 54 | 75 | 0.0 | 0.0 | 0.00 | 0.00 | 0.00 | 94 | 1020.0 |
| 20260906122152 | 54 | 74 | 0.0 | 0.0 | 0.00 | 0.00 | 0.00 | 94 | 1020.0 |
| 20260906122125 | 54 | 78 | 0.0 | 0.0 | 0.00 | 0.00 | 0.00 | 94 | 1020.0 |
| 20260906122109 | 54 | 97 | 0.0 | 0.0 | 0.00 | 0.00 | 0.00 | 94 | 1020.0 |
| 20260906122106 | 54 | 101 | 0.0 | 0.0 | 0.00 | 0.00 | 0.00 | 94 | 1020.0 |
| 20260906122037 | 54 | 122 | 0.0 | 0.0 | 0.00 | 0.00 | 0.00 | 94 | 1020.0 |
| 20260906122029 | 54 | 113 | 0.0 | 0.0 | 0.00 | 0.00 | 0.00 | 94 | 1020.0 |
| 20260906122021 | 53 | 113 | 0.0 | 0.0 | 0.00 | 0.00 | 0.00 | 94 | 1020.0 |
| 20260906122003 | 53 | 90 | 0.0 | 0.0 | 0.00 | 0.00 | 0.00 | 94 | 1020.0 |
| 20260906121925 | 53 | 117 | 0.0 | 0.0 | 0.00 | 0.00 | 0.00 | 94 | 1020.0 |
| 20260906121919 | 54 | 136 | 0.0 | 0.0 | 0.00 | 0.00 | 0.00 | 94 | 1020.0 |
| 20260906121901 | 54 | 152 | 0.0 | 0.0 | 0.00 | 0.00 | 0.00 | 94 | 1020.0 |
| 20260906121856 | 54 | 152 | 0.0 | 0.0 | 0.00 | 0.00 | 0.00 | 94 | 1020.0 |
| 20260906121838 | 54 | 138 | 0.0 | 0.0 | 0.00 | 0.00 | 0.00 | 94 | 1020.0 |
| 20260906121821 | 54 | 154 | 0.0 | 0.0 | 0.00 | 0.00 | 0.00 | 94 | 1020.0 |
| 20260906121805 | 53 | 144 | 0.0 | 0.0 | 0.00 | 0.00 | 0.00 | 94 | 1020.0 |
| 20260906121752 | 53 | 132 | 0.0 | 0.0 | 0.00 | 0.00 | 0.00 | 94 | 1020.0 |
| 20260906121737 | 53 | 137 | 0.0 | 0.0 | 0.00 | 0.00 | 0.00 | 94 | 1020.0 |
| 20260906121703 | 54 | 138 | 0.0 | 0.0 | 0.00 | 0.00 | 0.00 | 94 | 1020.0 |
| 20260906121645 | 54 | 131 | 0.0 | 0.0 | 0.00 | 0.00 | 0.00 | 94 | 1020.0 |
| 20260906121629 | 54 | 105 | 0.0 | 0.0 | 0.00 | 0.00 | 0.00 | 94 | 1020.0 |
| 20260906121613 | 54 | 65 | 0.0 | 0.0 | 0.00 | 0.00 | 0.00 | 94 | 1020.0 |
| 20260906121605 | 53 | 81 | 0.0 | 0.0 | 0.00 | 0.00 | 0.00 | 94 | 1020.0 |
| 20260906121557 | 53 | 81 | 0.0 | 0.0 | 0.00 | 0.00 | 0.00 | 94 | 1020.0 |
| 20260906121538 | 53 | 124 | 0.0 | 0.0 | 0.00 | 0.00 | 0.00 | 94 | 1020.0 |
| 20260906121517 | 53 | 136 | 0.0 | 0.0 | 0.00 | 0.00 | 0.00 | 94 | 1020.0 |
| 20260906121509 | 53 | 135 | 0.0 | 0.0 | 0.00 | 0.00 | 0.00 | 94 | 1020.0 |
| 20260906121503 | 54 | 135 | 0.0 | 0.0 | 0.00 | 0.00 | 0.00 | 94 | 1020.0 |
| 20260906121445 | 54 | 135 | 0.0 | 0.0 | 0.00 | 0.00 | 0.00 | 94 | 1020.0 |
| 20260906121405 | 54 | 138 | 0.0 | 0.0 | 0.00 | 0.00 | 0.00 | 94 | 1020.0 |
| 20260906121309 | 53 | 138 | 0.0 | 0.0 | 0.00 | 0.00 | 0.00 | 94 | 1020.0 |
| 20260906121301 | 53 | 137 | 0.0 | 0.0 | 0.00 | 0.00 | 0.00 | 94 | 1020.0 |
| 20260906121253 | 54 | 137 | 0.0 | 0.0 | 0.00 | 0.00 | 0.00 | 94 | 1020.0 |
| 20260906121248 | 54 | 132 | 0.0 | 0.0 | 0.00 | 0.00 | 0.00 | 94 | 1020.0 |
| 20260906121223 | 54 | 125 | 0.0 | 0.0 | 0.00 | 0.00 | 0.00 | 94 | 1020.0 |
| 20260906121205 | 54 | 136 | 0.0 | 0.0 | 0.00 | 0.00 | 0.00 | 94 | 1020.0 |
| 20260906121157 | 54 | 148 | 0.0 | 0.0 | 0.00 | 0.00 | 0.00 | 94 | 1020.0 |
| 20260906121149 | 53 | 148 | 0.0 | 0.0 | 0.00 | 0.00 | 0.00 | 94 | 1020.0 |
| 20260906121110 | 53 | 148 | 0.0 | 0.0 | 0.00 | 0.00 | 0.00 | 94 | 1020.0 |
| 20260906121102 | 53 | 150 | 0.0 | 0.0 | 0.00 | 0.00 | 0.00 | 94 | 1020.0 |
| 20260906121053 | 53 | 150 | 0.0 | 0.0 | 0.00 | 0.00 | 0.00 | 94 | 1020.0 |
| 20260906121030 | 53 | 151 | 0.0 | 0.0 | 0.00 | 0.00 | 0.00 | 94 | 1020.0 |
| 20260906121020 | 53 | 150 | 0.0 | 0.0 | 0.00 | 0.00 | 0.00 | 94 | 1020.0 |
| 20260906120934 | 53 | 161 | 0.0 | 0.0 | 0.00 | 0.00 | 0.00 | 94 | 1020.0 |
| 20260906120901 | 53 | 147 | 0.0 | 0.0 | 0.00 | 0.00 | 0.00 | 94 | 1020.0 |
| 20260906120857 | 53 | 147 | 0.0 | 0.0 | 0.00 | 0.00 | 0.00 | 94 | 1020.0 |
| 20260906120814 | 53 | 166 | 0.0 | 0.0 | 0.00 | 0.00 | 0.00 | 94 | 1020.0 |
| 20260906120800 | 53 | 188 | 0.0 | 0.0 | 0.00 | 0.00 | 0.00 | 94 | 1020.0 |
| 20260906120741 | 53 | 182 | 0.0 | 0.0 | 0.00 | 0.00 | 0.00 | 94 | 1020.0 |
| 20260906120725 | 53 | 149 | 0.0 | 0.0 | 0.00 | 0.00 | 0.00 | 94 | 1020.0 |
| 20260906120712 | 53 | 148 | 0.0 | 0.0 | 0.00 | 0.00 | 0.00 | 94 | 1020.0 |
| 20260906120702 | 53 | 147 | 0.0 | 0.0 | 0.00 | 0.00 | 0.00 | 94 | 1020.0 |
| 20260906120645 | 53 | 147 | 0.0 | 0.0 | 0.00 | 0.00 | 0.00 | 94 | 1020.0 |
| 20260906120629 | 53 | 139 | 0.0 | 0.0 | 0.00 | 0.00 | 0.00 | 94 | 1020.0 |
| 20260906120613 | 53 | 186 | 0.0 | 0.0 | 0.00 | 0.00 | 0.00 | 94 | 1020.0 |
| 20260906120606 | 53 | 197 | 0.0 | 0.0 | 0.00 | 0.00 | 0.00 | 94 | 1020.0 |
| 20260906120557 | 53 | 197 | 0.0 | 0.0 | 0.00 | 0.00 | 0.00 | 94 | 1020.0 |
| 20260906120541 | 53 | 158 | 0.0 | 0.0 | 0.00 | 0.00 | 0.00 | 94 | 1020.0 |
| 20260906120525 | 53 | 143 | 0.0 | 0.0 | 0.00 | 0.00 | 0.00 | 94 | 1020.0 |
| 20260906120502 | 53 | 133 | 0.0 | 0.0 | 0.00 | 0.00 | 0.00 | 94 | 1020.0 |
| 20260906120440 | 53 | 133 | 0.0 | 0.0 | 0.00 | 0.00 | 0.00 | 94 | 1020.0 |
| 20260906120405 | 54 | 133 | 0.0 | 0.0 | 0.00 | 0.00 | 0.00 | 94 | 1020.0 |
| 20260906120336 | 54 | 133 | 0.0 | 0.0 | 0.00 | 0.00 | 0.00 | 94 | 1020.0 |
| 20260906120317 | 53 | 133 | 0.0 | 0.0 | 0.00 | 0.00 | 0.00 | 94 | 1020.0 |
| 20260906120305 | 53 | 130 | 0.0 | 0.0 | 0.00 | 0.00 | 0.00 | 94 | 1020.0 |
| 20260906120206 | 53 | 129 | 0.0 | 0.0 | 0.00 | 0.00 | 0.00 | 94 | 1020.0 |
| 20260906120152 | 53 | 129 | 0.0 | 0.0 | 0.00 | 0.00 | 0.00 | 94 | 1020.0 |
| 20260906120138 | 53 | 117 | 0.0 | 0.0 | 0.00 | 0.00 | 0.00 | 94 | 1020.0 |
| 20260906120000 | 53 | 115 | 0.0 | 0.0 | 0.00 | 0.00 | 0.00 | 94 | 1020.0 |
| 20260906115941 | 53 | 115 | 0.0 | 0.0 | 0.00 | 0.00 | 0.00 | 94 | 1020.0 |
| 20260906115925 | 53 | 118 | 0.0 | 0.0 | 0.00 | 0.00 | 0.00 | 94 | 1020.0 |
| 20260906115901 | 53 | 124 | 0.0 | 0.0 | 0.00 | 0.00 | 0.00 | 94 | 1020.0 |
| 20260906115806 | 53 | 124 | 0.0 | 0.0 | 0.00 | 0.00 | 0.00 | 94 | 1020.0 |
| 20260906115738 | 53 | 124 | 0.0 | 0.0 | 0.00 | 0.00 | 0.00 | 94 | 1020.0 |
| 20260906115709 | 53 | 108 | 0.0 | 0.0 | 0.00 | 0.00 | 0.00 | 94 | 1020.0 |
| 20260906115703 | 53 | 98 | 0.0 | 0.0 | 0.00 | 0.00 | 0.00 | 94 | 1020.0 |
| 20260906115648 | 53 | 98 | 0.0 | 0.0 | 0.00 | 0.00 | 0.00 | 94 | 1020.0 |
| 20260906115621 | 53 | 97 | 0.0 | 0.0 | 0.00 | 0.00 | 0.00 | 94 | 1020.0 |
| 20260906115605 | 53 | 129 | 0.0 | 0.0 | 0.00 | 0.00 | 0.00 | 94 | 1020.0 |
| 20260906115553 | 53 | 129 | 0.0 | 0.0 | 0.00 | 0.00 | 0.00 | 94 | 1020.0 |
| 20260906115501 | 53 | 125 | 0.0 | 0.0 | 0.00 | 0.00 | 0.00 | 94 | 1020.0 |
| 20260906115405 | 53 | 125 | 0.0 | 0.0 | 0.00 | 0.00 | 0.00 | 94 | 1020.0 |
| 20260906115341 | 53 | 125 | 0.0 | 0.0 | 0.00 | 0.00 | 0.00 | 94 | 1020.0 |
| 20260906115301 | 53 | 125 | 0.0 | 0.0 | 0.00 | 0.00 | 0.00 | 94 | 1020.0 |
| 20260906115237 | 53 | 125 | 0.0 | 0.0 | 0.00 | 0.00 | 0.00 | 94 | 1020.0 |
| 20260906115205 | 53 | 125 | 0.0 | 0.9 | 0.00 | 0.00 | 0.00 | 94 | 1020.0 |
| 20260906115103 | 53 | 125 | 0.0 | 0.9 | 0.00 | 0.00 | 0.00 | 94 | 1020.0 |
| 20260906115048 | 53 | 129 | 0.0 | 0.9 | 0.00 | 0.00 | 0.00 | 94 | 1020.0 |
| 20260906115021 | 53 | 124 | 0.0 | 0.0 | 0.00 | 0.00 | 0.00 | 94 | 1020.0 |
| 20260906115016 | 53 | 125 | 0.0 | 0.0 | 0.00 | 0.00 | 0.00 | 94 | 1020.0 |
| 20260906114909 | 53 | 124 | 0.0 | 0.0 | 0.00 | 0.00 | 0.00 | 94 | 1020.0 |
| 20260906114901 | 53 | 124 | 0.0 | 2.6 | 0.00 | 0.00 | 0.00 | 94 | 1020.0 |
| 20260906114853 | 53 | 124 | 0.0 | 2.6 | 0.00 | 0.00 | 0.00 | 94 | 1020.0 |
| 20260906114837 | 53 | 120 | 0.0 | 2.6 | 0.00 | 0.00 | 0.00 | 94 | 1020.0 |
| 20260906114805 | 53 | 124 | 0.0 | 2.6 | 0.00 | 0.00 | 0.00 | 94 | 1020.0 |
| 20260906114749 | 53 | 164 | 0.0 | 2.6 | 0.00 | 0.00 | 0.00 | 94 | 1020.0 |
| 20260906114733 | 53 | 170 | 0.0 | 2.6 | 0.00 | 0.00 | 0.00 | 94 | 1020.0 |
| 20260906114717 | 53 | 174 | 1.7 | 2.6 | 0.00 | 0.00 | 0.00 | 94 | 1020.0 |
| 20260906114702 | 53 | 129 | 0.9 | 1.7 | 0.00 | 0.00 | 0.00 | 94 | 1020.0 |
| 20260906114645 | 53 | 47 | 0.9 | 1.7 | 0.00 | 0.00 | 0.00 | 94 | 1020.0 |
| 20260906114640 | 53 | 74 | 0.0 | 0.9 | 0.00 | 0.00 | 0.00 | 94 | 1020.0 |
| 20260906114613 | 53 | 73 | 0.0 | 0.9 | 0.00 | 0.00 | 0.00 | 94 | 1020.0 |
| 20260906114605 | 53 | 130 | 0.0 | 0.9 | 0.00 | 0.00 | 0.00 | 94 | 1020.0 |
| 20260906114557 | 53 | 130 | 0.0 | 0.9 | 0.00 | 0.00 | 0.00 | 94 | 1020.0 |
| 20260906114551 | 53 | 135 | 0.0 | 0.9 | 0.00 | 0.00 | 0.00 | 94 | 1020.0 |
| 20260906114525 | 53 | 113 | 0.0 | 0.0 | 0.00 | 0.00 | 0.00 | 94 | 1020.0 |
| 20260906114503 | 53 | 112 | 0.0 | 0.0 | 0.00 | 0.00 | 0.00 | 94 | 1020.0 |
| 20260906114437 | 53 | 112 | 0.0 | 0.0 | 0.00 | 0.00 | 0.00 | 94 | 1020.0 |
| 20260906114431 | 53 | 112 | 0.0 | 1.7 | 0.00 | 0.00 | 0.00 | 94 | 1020.0 |
| 20260906114417 | 53 | 117 | 0.0 | 1.7 | 0.00 | 0.00 | 0.00 | 94 | 1020.0 |
| 20260906114343 | 53 | 127 | 0.0 | 1.7 | 0.00 | 0.00 | 0.00 | 94 | 1020.0 |
| 20260906114309 | 53 | 129 | 0.0 | 1.7 | 0.00 | 0.00 | 0.00 | 94 | 1020.0 |
| 20260906114301 | 53 | 133 | 0.9 | 1.7 | 0.00 | 0.00 | 0.00 | 94 | 1020.0 |
| 20260906114253 | 53 | 133 | 0.9 | 1.7 | 0.00 | 0.00 | 0.00 | 94 | 1020.0 |
| 20260906114247 | 53 | 134 | 0.0 | 1.7 | 0.00 | 0.00 | 0.00 | 94 | 1020.0 |
| 20260906114221 | 53 | 88 | 0.0 | 0.9 | 0.00 | 0.00 | 0.00 | 94 | 1020.0 |
| 20260906114215 | 53 | 96 | 0.9 | 0.9 | 0.00 | 0.00 | 0.00 | 94 | 1020.0 |
| 20260906114149 | 53 | 96 | 0.9 | 0.9 | 0.00 | 0.00 | 0.00 | 94 | 1020.0 |
| 20260906114134 | 53 | 80 | 0.9 | 0.9 | 0.00 | 0.00 | 0.00 | 94 | 1020.0 |
| 20260906114118 | 53 | 84 | 0.0 | 0.0 | 0.00 | 0.00 | 0.00 | 94 | 1020.0 |
| 20260906114101 | 53 | 105 | 0.0 | 0.0 | 0.00 | 0.00 | 0.00 | 94 | 1020.0 |
| 20260906114037 | 53 | 125 | 0.0 | 0.0 | 0.00 | 0.00 | 0.00 | 94 | 1020.0 |
| 20260906114010 | 53 | 125 | 0.0 | 0.9 | 0.00 | 0.00 | 0.00 | 94 | 1020.0 |
| 20260906113917 | 53 | 125 | 0.0 | 0.9 | 0.00 | 0.00 | 0.00 | 94 | 1020.0 |
| 20260906113901 | 53 | 124 | 0.0 | 0.9 | 0.00 | 0.00 | 0.00 | 94 | 1020.0 |
| 20260906113845 | 53 | 151 | 0.9 | 0.9 | 0.00 | 0.00 | 0.00 | 94 | 1020.0 |
| 20260906113829 | 53 | 207 | 0.0 | 0.0 | 0.00 | 0.00 | 0.00 | 94 | 1020.0 |
| 20260906113813 | 53 | 116 | 0.0 | 0.0 | 0.00 | 0.00 | 0.00 | 94 | 1020.0 |
| 20260906113805 | 53 | 107 | 0.0 | 0.9 | 0.00 | 0.00 | 0.00 | 94 | 1020.0 |
| 20260906113725 | 53 | 107 | 0.0 | 0.9 | 0.00 | 0.00 | 0.00 | 94 | 1020.0 |
| 20260906113709 | 53 | 113 | 0.0 | 0.9 | 0.00 | 0.00 | 0.00 | 94 | 1020.0 |
| 20260906113701 | 53 | 125 | 0.0 | 0.9 | 0.00 | 0.00 | 0.00 | 94 | 1020.0 |
| 20260906113653 | 53 | 125 | 0.0 | 0.9 | 0.00 | 0.00 | 0.00 | 94 | 1020.0 |
| 20260906113638 | 53 | 127 | 0.0 | 0.9 | 0.00 | 0.00 | 0.00 | 94 | 1020.0 |
| 20260906113621 | 53 | 122 | 0.9 | 0.9 | 0.00 | 0.00 | 0.00 | 94 | 1020.0 |
| 20260906113615 | 53 | 82 | 0.9 | 0.9 | 0.00 | 0.00 | 0.00 | 94 | 1020.0 |
| 20260906113557 | 53 | 82 | 0.9 | 0.9 | 0.00 | 0.00 | 0.00 | 94 | 1020.0 |
| 20260906113542 | 53 | 107 | 0.0 | 0.0 | 0.00 | 0.00 | 0.00 | 94 | 1020.0 |
| 20260906113525 | 53 | 151 | 0.0 | 0.0 | 0.00 | 0.00 | 0.00 | 94 | 1020.0 |
| 20260906113519 | 53 | 152 | 0.0 | 0.0 | 0.00 | 0.00 | 0.00 | 94 | 1020.0 |
| 20260906113502 | 53 | 124 | 0.0 | 0.0 | 0.00 | 0.00 | 0.00 | 94 | 1020.0 |
| 20260906113453 | 53 | 124 | 0.0 | 0.0 | 0.00 | 0.00 | 0.00 | 94 | 1020.0 |
| 20260906113405 | 53 | 93 | 0.0 | 0.0 | 0.00 | 0.00 | 0.00 | 94 | 1020.0 |
| 20260906113402 | 53 | 72 | 0.0 | 0.0 | 0.00 | 0.00 | 0.00 | 94 | 1020.0 |
| 20260906113334 | 53 | 77 | 0.0 | 0.0 | 0.00 | 0.00 | 0.00 | 94 | 1020.0 |
| 20260906113309 | 53 | 43 | 0.0 | 0.0 | 0.00 | 0.00 | 0.00 | 94 | 1020.0 |
| 20260906113301 | 53 | 43 | 0.0 | 0.9 | 0.00 | 0.00 | 0.00 | 94 | 1020.0 |
| 20260906113255 | 53 | 44 | 0.0 | 0.9 | 0.00 | 0.00 | 0.00 | 94 | 1020.0 |
| 20260906113230 | 53 | 89 | 0.0 | 0.9 | 0.00 | 0.00 | 0.00 | 94 | 1020.0 |
| 20260906113216 | 53 | 88 | 0.0 | 0.9 | 0.00 | 0.00 | 0.00 | 94 | 1020.0 |
| 20260906113157 | 53 | 92 | 0.0 | 1.7 | 0.00 | 0.00 | 0.00 | 94 | 1020.0 |
| 20260906113136 | 53 | 101 | 0.0 | 1.7 | 0.00 | 0.00 | 0.00 | 94 | 1020.0 |
| 20260906113119 | 53 | 103 | 0.0 | 1.7 | 0.00 | 0.00 | 0.00 | 94 | 1020.0 |
| 20260906113101 | 53 | 64 | 0.0 | 1.7 | 0.00 | 0.00 | 0.00 | 94 | 1020.0 |
| 20260906113045 | 53 | 61 | 0.9 | 1.7 | 0.00 | 0.00 | 0.00 | 94 | 1020.0 |
| 20260906113029 | 53 | 88 | 0.9 | 1.7 | 0.00 | 0.00 | 0.00 | 94 | 1020.0 |
| 20260906113013 | 53 | 97 | 0.9 | 1.7 | 0.00 | 0.00 | 0.00 | 94 | 1020.0 |
| 20260906113005 | 53 | 82 | 1.7 | 1.7 | 0.00 | 0.00 | 0.00 | 94 | 1020.0 |
| 20260906112951 | 53 | 82 | 1.7 | 1.7 | 0.00 | 0.00 | 0.00 | 94 | 1020.0 |
| 20260906112928 | 53 | 109 | 0.0 | 0.0 | 0.00 | 0.00 | 0.00 | 94 | 1020.0 |
| 20260906112909 | 53 | 126 | 0.0 | 0.0 | 0.00 | 0.00 | 0.00 | 94 | 1020.0 |
| 20260906112901 | 53 | 123 | 0.0 | 0.0 | 0.00 | 0.00 | 0.00 | 94 | 1020.0 |
| 20260906112821 | 53 | 123 | 0.0 | 0.0 | 0.00 | 0.00 | 0.00 | 94 | 1020.0 |
| 20260906112805 | 53 | 127 | 0.0 | 0.0 | 0.00 | 0.00 | 0.00 | 94 | 1020.0 |
| 20260906112701 | 53 | 128 | 0.0 | 0.0 | 0.00 | 0.00 | 0.00 | 94 | 1020.0 |
| 20260906112606 | 53 | 128 | 0.0 | 0.0 | 0.00 | 0.00 | 0.00 | 94 | 1020.0 |
| 20260906112551 | 53 | 126 | 0.0 | 0.0 | 0.00 | 0.00 | 0.00 | 94 | 1020.0 |
| 20260906112533 | 53 | 234 | 0.0 | 0.0 | 0.00 | 0.00 | 0.00 | 94 | 1020.0 |
| 20260906112527 | 53 | 136 | 0.0 | 0.0 | 0.00 | 0.00 | 0.00 | 94 | 1020.0 |
| 20260906112503 | 53 | 128 | 0.0 | 0.0 | 0.00 | 0.00 | 0.00 | 94 | 1020.0 |
| 20260906112446 | 53 | 102 | 0.0 | 0.0 | 0.00 | 0.00 | 0.00 | 94 | 1020.0 |
| 20260906112434 | 53 | 66 | 0.0 | 0.0 | 0.00 | 0.00 | 0.00 | 94 | 1020.0 |
| 20260906112405 | 53 | 138 | 0.0 | 0.0 | 0.00 | 0.00 | 0.00 | 94 | 1020.0 |
| 20260906112322 | 53 | 138 | 0.0 | 0.0 | 0.00 | 0.00 | 0.00 | 94 | 1020.0 |
| 20260906112245 | 53 | 139 | 0.0 | 0.0 | 0.00 | 0.00 | 0.00 | 94 | 1020.0 |
| 20260906112229 | 53 | 136 | 0.0 | 0.0 | 0.00 | 0.00 | 0.00 | 94 | 1020.0 |
| 20260906112206 | 53 | 131 | 0.0 | 0.0 | 0.00 | 0.00 | 0.00 | 94 | 1020.0 |
| 20260906112122 | 53 | 131 | 0.0 | 0.0 | 0.00 | 0.00 | 0.00 | 94 | 1020.0 |
| 20260906112055 | 53 | 131 | 0.0 | 0.0 | 0.00 | 0.00 | 0.00 | 94 | 1020.0 |
| 20260906112039 | 53 | 163 | 0.0 | 0.0 | 0.00 | 0.00 | 0.00 | 94 | 1020.0 |
| 20260906112021 | 53 | 168 | 0.0 | 0.0 | 0.00 | 0.00 | 0.00 | 94 | 1020.0 |
| 20260906112005 | 53 | 129 | 0.0 | 0.0 | 0.00 | 0.00 | 0.00 | 94 | 1020.0 |
| 20260906111949 | 53 | 134 | 0.0 | 0.0 | 0.00 | 0.00 | 0.00 | 94 | 1020.0 |
| 20260906111944 | 53 | 110 | 0.0 | 0.0 | 0.00 | 0.00 | 0.00 | 94 | 1020.0 |
| 20260906111927 | 53 | 98 | 0.0 | 0.0 | 0.00 | 0.00 | 0.00 | 94 | 1020.0 |
| 20260906111901 | 53 | 91 | 0.0 | 0.0 | 0.00 | 0.00 | 0.00 | 94 | 1020.0 |
| 20260906111855 | 53 | 76 | 0.0 | 0.0 | 0.00 | 0.00 | 0.00 | 94 | 1020.0 |
| 20260906111821 | 53 | 68 | 0.0 | 0.0 | 0.00 | 0.00 | 0.00 | 94 | 1020.0 |
| 20260906111805 | 53 | 67 | 0.0 | 0.0 | 0.00 | 0.00 | 0.00 | 94 | 1020.0 |
| 20260906111749 | 53 | 79 | 0.0 | 0.0 | 0.00 | 0.00 | 0.00 | 94 | 1020.0 |
| 20260906111733 | 53 | 105 | 0.0 | 0.0 | 0.00 | 0.00 | 0.00 | 94 | 1020.0 |
| 20260906111705 | 53 | 120 | 0.0 | 0.0 | 0.00 | 0.00 | 0.00 | 94 | 1020.0 |
| 20260906111605 | 53 | 120 | 0.0 | 0.0 | 0.00 | 0.00 | 0.00 | 94 | 1020.0 |
| 20260906111557 | 53 | 120 | 0.0 | 0.0 | 0.00 | 0.00 | 0.00 | 94 | 1020.0 |
| 20260906111525 | 53 | 121 | 0.0 | 0.0 | 0.00 | 0.00 | 0.00 | 94 | 1020.0 |
| 20260906111522 | 53 | 120 | 0.0 | 0.0 | 0.00 | 0.00 | 0.00 | 94 | 1020.0 |
| 20260906111453 | 53 | 130 | 0.0 | 0.0 | 0.00 | 0.00 | 0.00 | 94 | 1020.0 |
| 20260906111421 | 53 | 152 | 0.0 | 0.0 | 0.00 | 0.00 | 0.00 | 94 | 1020.0 |
| 20260906111405 | 53 | 154 | 0.0 | 0.0 | 0.00 | 0.00 | 0.00 | 94 | 1020.0 |
| 20260906111356 | 53 | 154 | 0.0 | 0.0 | 0.00 | 0.00 | 0.00 | 94 | 1020.0 |
| 20260906111325 | 53 | 174 | 0.0 | 0.0 | 0.00 | 0.00 | 0.00 | 94 | 1020.0 |
| 20260906111320 | 53 | 89 | 0.0 | 0.0 | 0.00 | 0.00 | 0.00 | 94 | 1020.0 |
| 20260906111301 | 53 | 84 | 0.0 | 0.0 | 0.00 | 0.00 | 0.00 | 94 | 1020.0 |
| 20260906111205 | 53 | 84 | 0.0 | 0.0 | 0.00 | 0.00 | 0.00 | 94 | 1020.0 |
| 20260906111150 | 53 | 101 | 0.0 | 0.0 | 0.00 | 0.00 | 0.00 | 94 | 1020.0 |
| 20260906111133 | 53 | 114 | 0.0 | 0.0 | 0.00 | 0.00 | 0.00 | 94 | 1020.0 |
| 20260906111101 | 53 | 126 | 0.0 | 0.0 | 0.00 | 0.00 | 0.00 | 94 | 1020.0 |
| 20260906111013 | 53 | 126 | 0.0 | 0.0 | 0.00 | 0.00 | 0.00 | 94 | 1020.0 |
| 20260906111005 | 53 | 159 | 0.0 | 0.0 | 0.00 | 0.00 | 0.00 | 94 | 1020.0 |
| 20260906110933 | 53 | 159 | 0.0 | 0.0 | 0.00 | 0.00 | 0.00 | 94 | 1020.0 |
| 20260906110930 | 53 | 113 | 0.0 | 0.0 | 0.00 | 0.00 | 0.00 | 94 | 1020.0 |
| 20260906110901 | 53 | 74 | 0.0 | 0.0 | 0.00 | 0.00 | 0.00 | 94 | 1021.0 |
| 20260906110845 | 53 | 79 | 0.0 | 0.0 | 0.00 | 0.00 | 0.00 | 94 | 1021.0 |
| 20260906110831 | 53 | 132 | 0.0 | 0.0 | 0.00 | 0.00 | 0.00 | 94 | 1021.0 |
| 20260906110814 | 53 | 107 | 0.0 | 0.0 | 0.00 | 0.00 | 0.00 | 94 | 1021.0 |
| 20260906110805 | 53 | 110 | 0.0 | 0.0 | 0.00 | 0.00 | 0.00 | 94 | 1020.0 |
| 20260906110758 | 53 | 110 | 0.0 | 0.0 | 0.00 | 0.00 | 0.00 | 94 | 1020.0 |
| 20260906110741 | 53 | 130 | 0.0 | 0.0 | 0.00 | 0.00 | 0.00 | 94 | 1020.0 |
| 20260906110709 | 53 | 133 | 0.0 | 0.0 | 0.00 | 0.00 | 0.00 | 94 | 1020.0 |
| 20260906110701 | 53 | 133 | 0.0 | 0.0 | 0.00 | 0.00 | 0.00 | 94 | 1021.0 |
| 20260906110654 | 53 | 133 | 0.0 | 0.0 | 0.00 | 0.00 | 0.00 | 94 | 1021.0 |
| 20260906110637 | 53 | 118 | 0.0 | 0.0 | 0.00 | 0.00 | 0.00 | 94 | 1021.0 |
| 20260906110621 | 53 | 111 | 0.0 | 0.0 | 0.00 | 0.00 | 0.00 | 94 | 1021.0 |
| 20260906110613 | 53 | 108 | 0.0 | 0.0 | 0.00 | 0.00 | 0.00 | 94 | 1021.0 |
| 20260906110607 | 53 | 108 | 0.0 | 0.0 | 0.00 | 0.00 | 0.00 | 94 | 1020.0 |
| 20260906110600 | 53 | 107 | 0.0 | 0.0 | 0.00 | 0.00 | 0.00 | 94 | 1020.0 |
| 20260906110544 | 53 | 114 | 0.0 | 0.0 | 0.00 | 0.00 | 0.00 | 94 | 1020.0 |
| 20260906110502 | 53 | 145 | 0.0 | 0.0 | 0.00 | 0.00 | 0.00 | 94 | 1020.0 |
| 20260906110453 | 53 | 145 | 0.0 | 0.0 | 0.00 | 0.00 | 0.00 | 94 | 1020.0 |
| 20260906110405 | 53 | 156 | 0.0 | 0.0 | 0.00 | 0.00 | 0.00 | 94 | 1020.0 |
| 20260906110333 | 53 | 156 | 0.0 | 0.0 | 0.00 | 0.00 | 0.00 | 94 | 1020.0 |
| 20260906110317 | 53 | 130 | 0.0 | 0.0 | 0.00 | 0.00 | 0.00 | 94 | 1020.0 |
| 20260906110304 | 53 | 128 | 0.0 | 0.0 | 0.00 | 0.00 | 0.00 | 94 | 1020.0 |
| 20260906110245 | 53 | 120 | 0.0 | 0.0 | 0.00 | 0.00 | 0.00 | 94 | 1020.0 |
| 20260906110229 | 53 | 150 | 0.0 | 0.0 | 0.00 | 0.00 | 0.00 | 94 | 1020.0 |
| 20260906110213 | 53 | 160 | 0.0 | 0.0 | 0.00 | 0.00 | 0.00 | 94 | 1020.0 |
| 20260906110205 | 53 | 179 | 0.0 | 0.0 | 0.00 | 0.00 | 0.00 | 94 | 1020.0 |
| 20260906110157 | 53 | 179 | 0.0 | 0.0 | 0.00 | 0.00 | 0.00 | 94 | 1020.0 |
| 20260906110111 | 53 | 136 | 0.0 | 0.0 | 0.00 | 0.00 | 0.00 | 94 | 1020.0 |
| 20260906110045 | 53 | 136 | 0.0 | 0.0 | 0.00 | 0.00 | 0.00 | 94 | 1020.0 |
| 20260906110014 | 53 | 136 | 0.0 | 0.0 | 0.00 | 0.00 | 0.00 | 94 | 1020.0 |
| 20260906110005 | 53 | 139 | 0.0 | 0.0 | 0.00 | 0.00 | 0.00 | 94 | 1020.0 |
| 20260906105957 | 53 | 139 | 0.0 | 0.0 | 0.00 | 0.00 | 0.00 | 94 | 1020.0 |
| 20260906105901 | 53 | 141 | 0.0 | 0.0 | 0.00 | 0.00 | 0.00 | 94 | 1020.0 |
| 20260906105856 | 53 | 141 | 0.0 | 0.0 | 0.00 | 0.00 | 0.00 | 94 | 1020.0 |
| 20260906105840 | 53 | 137 | 0.0 | 0.0 | 0.00 | 0.00 | 0.00 | 94 | 1020.0 |
| 20260906105805 | 53 | 125 | 0.0 | 0.0 | 0.00 | 0.00 | 0.00 | 94 | 1020.0 |
| 20260906105749 | 53 | 101 | 0.0 | 0.0 | 0.00 | 0.00 | 0.00 | 94 | 1020.0 |
| 20260906105746 | 53 | 96 | 0.0 | 0.0 | 0.00 | 0.00 | 0.00 | 94 | 1020.0 |
| 20260906105712 | 53 | 117 | 0.0 | 0.9 | 0.00 | 0.00 | 0.00 | 94 | 1020.0 |
| 20260906105645 | 53 | 158 | 0.0 | 0.9 | 0.00 | 0.00 | 0.00 | 94 | 1021.0 |
| 20260906105638 | 53 | 123 | 0.0 | 0.9 | 0.00 | 0.00 | 0.00 | 94 | 1021.0 |
| 20260906105605 | 53 | 123 | 0.0 | 1.7 | 0.00 | 0.00 | 0.00 | 94 | 1021.0 |
| 20260906105550 | 53 | 123 | 0.9 | 1.7 | 0.00 | 0.00 | 0.00 | 94 | 1021.0 |
| 20260906105533 | 53 | 161 | 0.9 | 1.7 | 0.00 | 0.00 | 0.00 | 94 | 1021.0 |
| 20260906105527 | 53 | 137 | 0.9 | 1.7 | 0.00 | 0.00 | 0.00 | 94 | 1021.0 |
| 20260906105504 | 53 | 124 | 1.7 | 1.7 | 0.00 | 0.00 | 0.00 | 94 | 1021.0 |
| 20260906105445 | 53 | 73 | 0.0 | 0.9 | 0.00 | 0.00 | 0.00 | 94 | 1021.0 |
| 20260906105439 | 53 | 45 | 0.0 | 0.9 | 0.00 | 0.00 | 0.00 | 94 | 1021.0 |
| 20260906105424 | 53 | 147 | 0.0 | 0.9 | 0.00 | 0.00 | 0.00 | 94 | 1021.0 |
| 20260906105407 | 53 | 70 | 0.9 | 0.9 | 0.00 | 0.00 | 0.00 | 94 | 1020.0 |
| 20260906105357 | 53 | 70 | 0.9 | 0.9 | 0.00 | 0.00 | 0.00 | 94 | 1020.0 |
| 20260906105341 | 53 | 113 | 0.9 | 0.9 | 0.00 | 0.00 | 0.00 | 94 | 1020.0 |
| 20260906105325 | 53 | 70 | 0.0 | 1.7 | 0.00 | 0.00 | 0.00 | 94 | 1020.0 |
| 20260906105309 | 53 | 103 | 0.0 | 1.7 | 0.00 | 0.00 | 0.00 | 94 | 1020.0 |
| 20260906105305 | 53 | 103 | 0.0 | 2.6 | 0.00 | 0.00 | 0.00 | 94 | 1020.0 |
| 20260906105223 | 53 | 103 | 0.0 | 2.6 | 0.00 | 0.00 | 0.00 | 94 | 1020.0 |
| 20260906105205 | 53 | 127 | 0.0 | 2.6 | 0.00 | 0.00 | 0.00 | 94 | 1021.0 |
| 20260906105157 | 53 | 127 | 0.0 | 2.6 | 0.00 | 0.00 | 0.00 | 94 | 1021.0 |
| 20260906105141 | 53 | 123 | 0.9 | 2.6 | 0.00 | 0.00 | 0.00 | 94 | 1021.0 |
| 20260906105126 | 53 | 123 | 1.7 | 2.6 | 0.00 | 0.00 | 0.00 | 94 | 1021.0 |
| 20260906105109 | 53 | 67 | 1.7 | 2.6 | 0.00 | 0.00 | 0.00 | 94 | 1021.0 |
| 20260906105101 | 53 | 93 | 0.9 | 1.7 | 0.00 | 0.00 | 0.00 | 94 | 1020.0 |
| 20260906105037 | 53 | 93 | 0.9 | 1.7 | 0.00 | 0.00 | 0.00 | 94 | 1020.0 |
| 20260906105026 | 53 | 89 | 0.9 | 1.7 | 0.00 | 0.00 | 0.00 | 94 | 1020.0 |
| 20260906105003 | 53 | 90 | 0.0 | 1.7 | 0.00 | 0.00 | 0.00 | 94 | 1021.0 |
| 20260906104933 | 53 | 97 | 0.9 | 1.7 | 0.00 | 0.00 | 0.00 | 94 | 1021.0 |
| 20260906104917 | 53 | 79 | 0.0 | 1.7 | 0.00 | 0.00 | 0.00 | 94 | 1021.0 |
| 20260906104912 | 53 | 100 | 0.9 | 1.7 | 0.00 | 0.00 | 0.00 | 94 | 1021.0 |
| 20260906104846 | 53 | 88 | 1.7 | 1.7 | 0.00 | 0.00 | 0.00 | 94 | 1020.0 |
| 20260906104838 | 53 | 115 | 0.9 | 1.7 | 0.00 | 0.00 | 0.00 | 94 | 1020.0 |
| 20260906104829 | 53 | 115 | 0.9 | 2.6 | 0.00 | 0.00 | 0.00 | 94 | 1020.0 |
| 20260906104813 | 53 | 87 | 1.7 | 2.6 | 0.00 | 0.00 | 0.00 | 94 | 1020.0 |
| 20260906104805 | 53 | 109 | 0.9 | 2.6 | 0.00 | 0.00 | 0.00 | 94 | 1021.0 |
| 20260906104757 | 53 | 109 | 0.9 | 2.6 | 0.00 | 0.00 | 0.00 | 94 | 1021.0 |
| 20260906104752 | 53 | 54 | 0.9 | 2.6 | 0.00 | 0.00 | 0.00 | 94 | 1021.0 |
| 20260906104719 | 53 | 84 | 0.9 | 2.6 | 0.00 | 0.00 | 0.00 | 94 | 1021.0 |
| 20260906104701 | 53 | 100 | 1.7 | 2.6 | 0.00 | 0.00 | 0.00 | 94 | 1021.0 |
| 20260906104659 | 53 | 75 | 1.7 | 2.6 | 0.00 | 0.00 | 0.00 | 94 | 1021.0 |
| 20260906104629 | 53 | 92 | 0.9 | 1.7 | 0.00 | 0.00 | 0.00 | 94 | 1021.0 |
| 20260906104624 | 53 | 103 | 0.9 | 1.7 | 0.00 | 0.00 | 0.00 | 94 | 1021.0 |
| 20260906104605 | 53 | 61 | 0.9 | 1.7 | 0.00 | 0.00 | 0.00 | 94 | 1020.0 |
| 20260906104542 | 53 | 61 | 0.9 | 1.7 | 0.00 | 0.00 | 0.00 | 94 | 1020.0 |
| 20260906104525 | 53 | 76 | 0.9 | 1.7 | 0.00 | 0.00 | 0.00 | 94 | 1020.0 |
| 20260906104509 | 53 | 91 | 0.0 | 0.9 | 0.00 | 0.00 | 0.00 | 94 | 1020.0 |
| 20260906104501 | 53 | 82 | 0.9 | 1.7 | 0.00 | 0.00 | 0.00 | 94 | 1021.0 |
| 20260906104453 | 53 | 82 | 0.9 | 1.7 | 0.00 | 0.00 | 0.00 | 94 | 1021.0 |
| 20260906104448 | 53 | 75 | 0.0 | 1.7 | 0.00 | 0.00 | 0.00 | 94 | 1021.0 |
| 20260906104431 | 53 | 57 | 0.0 | 2.6 | 0.00 | 0.00 | 0.00 | 94 | 1021.0 |
| 20260906104405 | 53 | 111 | 0.0 | 2.6 | 0.00 | 0.00 | 0.00 | 94 | 1021.0 |
| 20260906104349 | 53 | 111 | 0.0 | 2.6 | 0.00 | 0.00 | 0.00 | 94 | 1021.0 |
| 20260906104336 | 53 | 102 | 0.0 | 2.6 | 0.00 | 0.00 | 0.00 | 94 | 1021.0 |
| 20260906104309 | 53 | 54 | 0.9 | 2.6 | 0.00 | 0.00 | 0.00 | 94 | 1021.0 |
| 20260906104301 | 53 | 115 | 1.7 | 2.6 | 0.00 | 0.00 | 0.00 | 94 | 1021.0 |
| 20260906104255 | 53 | 115 | 1.7 | 2.6 | 0.00 | 0.00 | 0.00 | 94 | 1021.0 |
| 20260906104237 | 53 | 125 | 0.9 | 1.7 | 0.00 | 0.00 | 0.00 | 94 | 1021.0 |
| 20260906104224 | 53 | 91 | 0.0 | 0.9 | 0.00 | 0.00 | 0.00 | 94 | 1021.0 |
| 20260906104205 | 53 | 110 | 0.0 | 1.7 | 0.00 | 0.00 | 0.00 | 94 | 1021.0 |
| 20260906104157 | 53 | 110 | 0.9 | 1.7 | 0.00 | 0.00 | 0.00 | 94 | 1021.0 |
| 20260906104101 | 53 | 112 | 0.0 | 1.7 | 0.00 | 0.00 | 0.00 | 94 | 1021.0 |
| 20260906104045 | 53 | 123 | 0.9 | 1.7 | 0.00 | 0.00 | 0.00 | 94 | 1021.0 |
| 20260906104029 | 53 | 82 | 1.7 | 1.7 | 0.00 | 0.00 | 0.00 | 94 | 1021.0 |
| 20260906104024 | 53 | 108 | 0.9 | 1.7 | 0.00 | 0.00 | 0.00 | 94 | 1021.0 |
| 20260906104006 | 53 | 94 | 0.0 | 1.7 | 0.00 | 0.00 | 0.00 | 94 | 1021.0 |
| 20260906103941 | 53 | 94 | 0.0 | 1.7 | 0.00 | 0.00 | 0.00 | 94 | 1021.0 |
| 20260906103928 | 53 | 97 | 0.9 | 1.7 | 0.00 | 0.00 | 0.00 | 94 | 1021.0 |
| 20260906103909 | 53 | 75 | 0.9 | 1.7 | 0.00 | 0.00 | 0.00 | 94 | 1021.0 |
| 20260906103901 | 53 | 136 | 0.9 | 0.9 | 0.00 | 0.00 | 0.00 | 94 | 1021.0 |
| 20260906103854 | 53 | 136 | 0.9 | 0.9 | 0.00 | 0.00 | 0.00 | 94 | 1021.0 |
| 20260906103829 | 53 | 87 | 0.0 | 0.9 | 0.00 | 0.00 | 0.00 | 94 | 1021.0 |
| 20260906103815 | 53 | 102 | 0.0 | 0.9 | 0.00 | 0.00 | 0.00 | 94 | 1021.0 |
| 20260906103757 | 53 | 102 | 0.0 | 1.7 | 0.00 | 0.00 | 0.00 | 94 | 1021.0 |
| 20260906103751 | 53 | 128 | 0.0 | 1.7 | 0.00 | 0.00 | 0.00 | 94 | 1021.0 |
| 20260906103725 | 53 | 128 | 0.0 | 2.6 | 0.00 | 0.00 | 0.00 | 94 | 1021.0 |
| 20260906103709 | 53 | 124 | 0.0 | 2.6 | 0.00 | 0.00 | 0.00 | 94 | 1021.0 |
| 20260906103703 | 53 | 96 | 0.9 | 2.6 | 0.00 | 0.00 | 0.00 | 94 | 1021.0 |
| 20260906103639 | 53 | 95 | 0.9 | 2.6 | 0.00 | 0.00 | 0.00 | 94 | 1021.0 |
| 20260906103624 | 53 | 66 | 1.7 | 2.6 | 0.00 | 0.00 | 0.00 | 94 | 1021.0 |
| 20260906103608 | 53 | 82 | 1.7 | 2.6 | 0.00 | 0.00 | 0.00 | 94 | 1021.0 |
| 20260906103552 | 53 | 84 | 0.9 | 1.7 | 0.00 | 0.00 | 0.00 | 94 | 1021.0 |
| 20260906103533 | 53 | 93 | 0.9 | 1.7 | 0.00 | 0.00 | 0.00 | 94 | 1021.0 |
| 20260906103518 | 53 | 129 | 0.9 | 1.7 | 0.00 | 0.00 | 0.00 | 94 | 1021.0 |
| 20260906103501 | 53 | 100 | 0.9 | 1.7 | 0.00 | 0.00 | 0.00 | 94 | 1021.0 |
| 20260906103456 | 53 | 94 | 0.0 | 0.9 | 0.00 | 0.00 | 0.00 | 94 | 1021.0 |
| 20260906103424 | 53 | 118 | 0.0 | 0.0 | 0.00 | 0.00 | 0.00 | 94 | 1021.0 |
| 20260906103405 | 53 | 117 | 0.0 | 0.9 | 0.00 | 0.00 | 0.00 | 94 | 1021.0 |
| 20260906103333 | 53 | 117 | 0.0 | 0.9 | 0.00 | 0.00 | 0.00 | 94 | 1021.0 |
| 20260906103301 | 53 | 113 | 0.0 | 0.9 | 0.00 | 0.00 | 0.00 | 94 | 1021.0 |
| 20260906103245 | 53 | 113 | 0.0 | 0.9 | 0.00 | 0.00 | 0.00 | 94 | 1021.0 |
| 20260906103229 | 53 | 114 | 0.0 | 0.9 | 0.00 | 0.00 | 0.00 | 94 | 1021.0 |
| 20260906103213 | 53 | 116 | 0.0 | 0.9 | 0.00 | 0.00 | 0.00 | 94 | 1021.0 |
| 20260906103205 | 53 | 104 | 0.0 | 0.9 | 0.00 | 0.00 | 0.00 | 94 | 1021.0 |
| 20260906103157 | 53 | 104 | 0.0 | 0.9 | 0.00 | 0.00 | 0.00 | 94 | 1021.0 |
| 20260906103141 | 53 | 107 | 0.9 | 0.9 | 0.00 | 0.00 | 0.00 | 94 | 1021.0 |
| 20260906103125 | 53 | 141 | 0.9 | 0.9 | 0.00 | 0.00 | 0.00 | 94 | 1021.0 |
| 20260906103109 | 53 | 122 | 0.0 | 0.9 | 0.00 | 0.00 | 0.00 | 94 | 1021.0 |
| 20260906103101 | 53 | 102 | 0.0 | 0.9 | 0.00 | 0.00 | 0.00 | 94 | 1021.0 |
| 20260906103053 | 53 | 102 | 0.0 | 0.9 | 0.00 | 0.00 | 0.00 | 94 | 1021.0 |
| 20260906103037 | 53 | 96 | 0.9 | 0.9 | 0.00 | 0.00 | 0.00 | 94 | 1021.0 |
| 20260906103023 | 53 | 50 | 0.9 | 0.9 | 0.00 | 0.00 | 0.00 | 94 | 1021.0 |
| 20260906103006 | 53 | 69 | 0.9 | 1.7 | 0.00 | 0.00 | 0.00 | 94 | 1021.0 |
| 20260906102959 | 53 | 69 | 0.9 | 1.7 | 0.00 | 0.00 | 0.00 | 94 | 1021.0 |
| 20260906102941 | 53 | 111 | 0.0 | 1.7 | 0.00 | 0.00 | 0.00 | 94 | 1021.0 |
| 20260906102938 | 53 | 107 | 0.0 | 1.7 | 0.00 | 0.00 | 0.00 | 94 | 1021.0 |
| 20260906102909 | 53 | 112 | 0.0 | 1.7 | 0.00 | 0.00 | 0.00 | 94 | 1021.0 |
| 20260906102901 | 53 | 160 | 0.0 | 1.7 | 0.00 | 0.00 | 0.00 | 94 | 1021.0 |
| 20260906102853 | 53 | 160 | 0.0 | 1.7 | 0.00 | 0.00 | 0.00 | 94 | 1021.0 |
| 20260906102837 | 53 | 163 | 0.9 | 1.7 | 0.00 | 0.00 | 0.00 | 94 | 1021.0 |
| 20260906102821 | 53 | 94 | 1.7 | 1.7 | 0.00 | 0.00 | 0.00 | 94 | 1021.0 |
| 20260906102805 | 53 | 83 | 1.7 | 1.7 | 0.00 | 0.00 | 0.00 | 94 | 1021.0 |
| 20260906102749 | 53 | 77 | 0.9 | 1.7 | 0.00 | 0.00 | 0.00 | 94 | 1021.0 |
| 20260906102733 | 53 | 70 | 1.7 | 1.7 | 0.00 | 0.00 | 0.00 | 94 | 1021.0 |
| 20260906102719 | 53 | 96 | 0.9 | 1.7 | 0.00 | 0.00 | 0.00 | 94 | 1021.0 |
| 20260906102701 | 53 | 86 | 1.7 | 1.7 | 0.00 | 0.00 | 0.00 | 94 | 1021.0 |
| 20260906102645 | 53 | 88 | 0.9 | 0.9 | 0.00 | 0.00 | 0.00 | 94 | 1021.0 |
| 20260906102629 | 53 | 131 | 0.9 | 0.9 | 0.00 | 0.00 | 0.00 | 94 | 1021.0 |
| 20260906102613 | 53 | 105 | 0.0 | 0.9 | 0.00 | 0.00 | 0.00 | 94 | 1021.0 |
| 20260906102605 | 53 | 94 | 0.9 | 0.9 | 0.00 | 0.00 | 0.00 | 94 | 1021.0 |
| 20260906102557 | 53 | 94 | 0.9 | 0.9 | 0.00 | 0.00 | 0.00 | 94 | 1021.0 |
| 20260906102533 | 53 | 110 | 0.9 | 0.9 | 0.00 | 0.00 | 0.00 | 94 | 1021.0 |
| 20260906102517 | 53 | 78 | 0.9 | 0.9 | 0.00 | 0.00 | 0.00 | 94 | 1021.0 |
| 20260906102501 | 53 | 97 | 0.9 | 0.9 | 0.00 | 0.00 | 0.00 | 94 | 1021.0 |
| 20260906102457 | 53 | 105 | 0.9 | 0.9 | 0.00 | 0.00 | 0.00 | 94 | 1021.0 |
| 20260906102431 | 53 | 123 | 0.0 | 0.9 | 0.00 | 0.00 | 0.00 | 94 | 1021.0 |
| 20260906102416 | 53 | 100 | 0.9 | 0.9 | 0.00 | 0.00 | 0.00 | 94 | 1021.0 |
| 20260906102357 | 53 | 88 | 0.0 | 0.9 | 0.00 | 0.00 | 0.00 | 94 | 1021.0 |
| 20260906102341 | 53 | 85 | 0.0 | 0.0 | 0.00 | 0.00 | 0.00 | 94 | 1021.0 |
| 20260906102327 | 53 | 82 | 0.0 | 0.0 | 0.00 | 0.00 | 0.00 | 94 | 1021.0 |
| 20260906102309 | 53 | 74 | 0.0 | 0.0 | 0.00 | 0.00 | 0.00 | 94 | 1021.0 |
| 20260906102301 | 53 | 68 | 0.0 | 0.0 | 0.00 | 0.00 | 0.00 | 94 | 1021.0 |
| 20260906102237 | 53 | 68 | 0.0 | 0.0 | 0.00 | 0.00 | 0.00 | 94 | 1021.0 |
| 20260906102221 | 53 | 66 | 0.0 | 0.0 | 0.00 | 0.00 | 0.00 | 94 | 1021.0 |
| 20260906102215 | 53 | 56 | 0.0 | 0.0 | 0.00 | 0.00 | 0.00 | 94 | 1021.0 |
| 20260906102149 | 53 | 117 | 0.0 | 0.9 | 0.00 | 0.00 | 0.00 | 94 | 1021.0 |
| 20260906102117 | 53 | 91 | 0.0 | 0.9 | 0.00 | 0.00 | 0.00 | 94 | 1021.0 |
| 20260906102102 | 53 | 95 | 0.0 | 0.9 | 0.00 | 0.00 | 0.00 | 94 | 1021.0 |
| 20260906102053 | 53 | 95 | 0.0 | 0.9 | 0.00 | 0.00 | 0.00 | 94 | 1021.0 |
| 20260906102047 | 53 | 91 | 0.0 | 0.9 | 0.00 | 0.00 | 0.00 | 94 | 1021.0 |
| 20260906102021 | 53 | 77 | 0.0 | 0.9 | 0.00 | 0.00 | 0.00 | 94 | 1021.0 |
| 20260906102013 | 53 | 86 | 0.0 | 0.9 | 0.00 | 0.00 | 0.00 | 94 | 1021.0 |
| 20260906102005 | 53 | 86 | 0.0 | 1.7 | 0.00 | 0.00 | 0.00 | 94 | 1021.0 |
| 20260906101901 | 53 | 108 | 0.0 | 1.7 | 0.00 | 0.00 | 0.00 | 94 | 1021.0 |
| 20260906101845 | 53 | 108 | 0.0 | 1.7 | 0.00 | 0.00 | 0.00 | 94 | 1021.0 |
| 20260906101829 | 53 | 109 | 0.0 | 1.7 | 0.00 | 0.00 | 0.00 | 94 | 1021.0 |
| 20260906101813 | 53 | 99 | 0.9 | 1.7 | 0.00 | 0.00 | 0.00 | 94 | 1021.0 |
| 20260906101805 | 53 | 97 | 0.9 | 1.7 | 0.00 | 0.00 | 0.00 | 94 | 1021.0 |
| 20260906101757 | 53 | 97 | 0.9 | 1.7 | 0.00 | 0.00 | 0.00 | 94 | 1021.0 |
| 20260906101746 | 53 | 91 | 0.9 | 1.7 | 0.00 | 0.00 | 0.00 | 94 | 1021.0 |
| 20260906101709 | 53 | 93 | 0.0 | 0.9 | 0.00 | 0.00 | 0.00 | 94 | 1021.0 |
| 20260906101701 | 53 | 91 | 0.0 | 0.9 | 0.00 | 0.00 | 0.00 | 94 | 1021.0 |
| 20260906101645 | 53 | 91 | 0.0 | 0.9 | 0.00 | 0.00 | 0.00 | 94 | 1021.0 |
| 20260906101629 | 53 | 113 | 0.0 | 0.9 | 0.00 | 0.00 | 0.00 | 94 | 1021.0 |
| 20260906101614 | 53 | 115 | 0.0 | 0.9 | 0.00 | 0.00 | 0.00 | 94 | 1021.0 |
| 20260906101605 | 53 | 107 | 0.0 | 0.9 | 0.00 | 0.00 | 0.00 | 94 | 1021.0 |
| 20260906101556 | 53 | 107 | 0.0 | 0.9 | 0.00 | 0.00 | 0.00 | 94 | 1021.0 |
| 20260906101524 | 53 | 91 | 0.0 | 0.0 | 0.00 | 0.00 | 0.00 | 94 | 1021.0 |
| 20260906101501 | 53 | 92 | 0.0 | 0.0 | 0.00 | 0.00 | 0.00 | 94 | 1021.0 |
| 20260906101437 | 53 | 91 | 0.0 | 0.0 | 0.00 | 0.00 | 0.00 | 94 | 1021.0 |
| 20260906101405 | 53 | 92 | 0.0 | 0.0 | 0.00 | 0.00 | 0.00 | 94 | 1021.0 |
| 20260906101333 | 53 | 101 | 0.0 | 0.0 | 0.00 | 0.00 | 0.00 | 94 | 1021.0 |
| 20260906101317 | 53 | 81 | 0.0 | 0.0 | 0.00 | 0.00 | 0.00 | 93 | 1021.0 |
| 20260906101301 | 53 | 80 | 0.0 | 0.0 | 0.00 | 0.00 | 0.00 | 93 | 1021.0 |
| 20260906101208 | 53 | 80 | 0.0 | 0.0 | 0.00 | 0.00 | 0.00 | 93 | 1021.0 |
| 20260906101118 | 53 | 78 | 0.0 | 0.0 | 0.00 | 0.00 | 0.00 | 93 | 1021.0 |
| 20260906101102 | 53 | 58 | 0.0 | 0.0 | 0.00 | 0.00 | 0.00 | 93 | 1021.0 |
| 20260906101047 | 53 | 68 | 0.0 | 0.0 | 0.00 | 0.00 | 0.00 | 93 | 1021.0 |
| 20260906101013 | 53 | 52 | 0.0 | 0.0 | 0.00 | 0.00 | 0.00 | 93 | 1021.0 |
| 20260906101005 | 53 | 57 | 0.0 | 0.0 | 0.00 | 0.00 | 0.00 | 93 | 1021.0 |
| 20260906100958 | 53 | 57 | 0.0 | 0.0 | 0.00 | 0.00 | 0.00 | 93 | 1021.0 |
| 20260906100936 | 53 | 72 | 0.0 | 0.0 | 0.00 | 0.00 | 0.00 | 93 | 1021.0 |
| 20260906100901 | 53 | 59 | 0.0 | 0.0 | 0.00 | 0.00 | 0.00 | 93 | 1021.0 |
| 20260906100800 | 53 | 59 | 0.0 | 0.0 | 0.00 | 0.00 | 0.00 | 93 | 1021.0 |
| 20260906100741 | 53 | 59 | 0.0 | 0.0 | 0.00 | 0.00 | 0.00 | 93 | 1021.0 |
| 20260906100702 | 53 | 68 | 0.0 | 0.0 | 0.00 | 0.00 | 0.00 | 93 | 1021.0 |
| 20260906100653 | 53 | 68 | 0.0 | 0.0 | 0.00 | 0.00 | 0.00 | 93 | 1021.0 |
| 20260906100637 | 53 | 69 | 0.0 | 0.0 | 0.00 | 0.00 | 0.00 | 93 | 1021.0 |
| 20260906100623 | 53 | 71 | 0.0 | 0.0 | 0.00 | 0.00 | 0.00 | 93 | 1021.0 |
| 20260906100605 | 53 | 70 | 0.0 | 0.0 | 0.00 | 0.00 | 0.00 | 93 | 1021.0 |
| 20260906100559 | 53 | 59 | 0.0 | 0.0 | 0.00 | 0.00 | 0.00 | 93 | 1021.0 |
| 20260906100533 | 53 | 69 | 0.0 | 0.0 | 0.00 | 0.00 | 0.00 | 93 | 1021.0 |
| 20260906100501 | 53 | 82 | 0.0 | 0.0 | 0.00 | 0.00 | 0.00 | 93 | 1021.0 |
| 20260906100410 | 53 | 82 | 0.0 | 0.0 | 0.00 | 0.00 | 0.00 | 93 | 1021.0 |
| 20260906100301 | 53 | 82 | 0.0 | 0.0 | 0.00 | 0.00 | 0.00 | 93 | 1021.0 |
| 20260906100230 | 53 | 82 | 0.0 | 0.0 | 0.00 | 0.00 | 0.00 | 93 | 1021.0 |
| 20260906100213 | 53 | 83 | 0.0 | 0.0 | 0.00 | 0.00 | 0.00 | 93 | 1021.0 |
| 20260906100205 | 53 | 75 | 0.0 | 0.0 | 0.00 | 0.00 | 0.00 | 93 | 1021.0 |
| 20260906100141 | 53 | 75 | 0.0 | 0.0 | 0.00 | 0.00 | 0.00 | 93 | 1021.0 |
| 20260906100125 | 53 | 76 | 0.0 | 0.0 | 0.00 | 0.00 | 0.00 | 93 | 1021.0 |
| 20260906100112 | 53 | 113 | 0.0 | 0.0 | 0.00 | 0.00 | 0.00 | 93 | 1021.0 |
| 20260906100056 | 53 | 113 | 0.0 | 0.0 | 0.00 | 0.00 | 0.00 | 93 | 1021.0 |
| 20260906100005 | 53 | 113 | 0.0 | 0.0 | 0.00 | 0.00 | 0.00 | 93 | 1021.0 |
| 20260906095951 | 53 | 114 | 0.0 | 0.0 | 0.00 | 0.00 | 0.00 | 93 | 1021.0 |
| 20260906095936 | 53 | 79 | 0.0 | 0.0 | 0.00 | 0.00 | 0.00 | 93 | 1021.0 |
| 20260906095909 | 53 | 80 | 0.0 | 0.0 | 0.00 | 0.00 | 0.00 | 93 | 1021.0 |
| 20260906095901 | 53 | 92 | 0.0 | 0.0 | 0.00 | 0.00 | 0.00 | 93 | 1021.0 |
| 20260906095805 | 53 | 92 | 0.0 | 0.0 | 0.00 | 0.00 | 0.00 | 93 | 1021.0 |
| 20260906095749 | 53 | 108 | 0.0 | 0.0 | 0.00 | 0.00 | 0.00 | 93 | 1021.0 |
| 20260906095741 | 53 | 85 | 0.0 | 0.0 | 0.00 | 0.00 | 0.00 | 93 | 1021.0 |
| 20260906095727 | 53 | 85 | 0.0 | 0.9 | 0.00 | 0.00 | 0.00 | 93 | 1021.0 |
| 20260906095710 | 53 | 86 | 0.0 | 0.9 | 0.00 | 0.00 | 0.00 | 93 | 1021.0 |
| 20260906095701 | 53 | 86 | 0.0 | 1.7 | 0.00 | 0.00 | 0.00 | 93 | 1021.0 |
| 20260906095645 | 53 | 76 | 0.0 | 1.7 | 0.00 | 0.00 | 0.00 | 93 | 1021.0 |
| 20260906095629 | 53 | 74 | 0.0 | 1.7 | 0.00 | 0.00 | 0.00 | 93 | 1021.0 |
| 20260906095616 | 53 | 57 | 0.0 | 1.7 | 0.00 | 0.00 | 0.00 | 93 | 1021.0 |
| 20260906095557 | 53 | 51 | 0.9 | 1.7 | 0.00 | 0.00 | 0.00 | 93 | 1021.0 |
| 20260906095552 | 53 | 70 | 0.9 | 1.7 | 0.00 | 0.00 | 0.00 | 93 | 1021.0 |
| 20260906095525 | 53 | 113 | 0.9 | 1.7 | 0.00 | 0.00 | 0.00 | 93 | 1021.0 |
| 20260906095520 | 53 | 73 | 0.9 | 0.9 | 0.00 | 0.00 | 0.00 | 93 | 1021.0 |
| 20260906095501 | 53 | 119 | 0.0 | 0.9 | 0.00 | 0.00 | 0.00 | 93 | 1020.0 |
| 20260906095429 | 53 | 119 | 0.0 | 0.9 | 0.00 | 0.00 | 0.00 | 93 | 1020.0 |
| 20260906095413 | 53 | 91 | 0.0 | 0.9 | 0.00 | 0.00 | 0.00 | 93 | 1020.0 |
| 20260906095405 | 53 | 90 | 0.0 | 0.9 | 0.00 | 0.00 | 0.00 | 93 | 1021.0 |
| 20260906095357 | 53 | 90 | 0.0 | 0.9 | 0.00 | 0.00 | 0.00 | 93 | 1021.0 |
| 20260906095341 | 53 | 103 | 0.0 | 0.9 | 0.00 | 0.00 | 0.00 | 93 | 1021.0 |
| 20260906095325 | 53 | 118 | 0.0 | 0.9 | 0.00 | 0.00 | 0.00 | 93 | 1021.0 |
| 20260906095322 | 53 | 104 | 0.9 | 0.9 | 0.00 | 0.00 | 0.00 | 93 | 1021.0 |
| 20260906095255 | 53 | 112 | 0.0 | 0.0 | 0.00 | 0.00 | 0.00 | 93 | 1021.0 |
| 20260906095237 | 53 | 75 | 0.0 | 0.0 | 0.00 | 0.00 | 0.00 | 93 | 1021.0 |
| 20260906095208 | 53 | 95 | 0.0 | 0.0 | 0.00 | 0.00 | 0.00 | 93 | 1021.0 |
| 20260906095149 | 53 | 95 | 0.0 | 0.0 | 0.00 | 0.00 | 0.00 | 93 | 1021.0 |
| 20260906095117 | 53 | 104 | 0.0 | 0.0 | 0.00 | 0.00 | 0.00 | 93 | 1021.0 |
| 20260906095101 | 53 | 107 | 0.0 | 0.0 | 0.00 | 0.00 | 0.00 | 93 | 1021.0 |
| 20260906095016 | 53 | 107 | 0.0 | 0.0 | 0.00 | 0.00 | 0.00 | 93 | 1021.0 |
| 20260906094909 | 53 | 107 | 0.0 | 0.0 | 0.00 | 0.00 | 0.00 | 93 | 1021.0 |
| 20260906094901 | 53 | 107 | 0.0 | 0.0 | 0.00 | 0.00 | 0.00 | 93 | 1020.0 |
| 20260906094823 | 53 | 107 | 0.0 | 0.0 | 0.00 | 0.00 | 0.00 | 93 | 1020.0 |
| 20260906094805 | 53 | 107 | 0.0 | 0.0 | 0.00 | 0.00 | 0.00 | 93 | 1021.0 |
| 20260906094701 | 53 | 107 | 0.0 | 0.0 | 0.00 | 0.00 | 0.00 | 93 | 1021.0 |
| 20260906094605 | 53 | 107 | 0.0 | 0.0 | 0.00 | 0.00 | 0.00 | 93 | 1021.0 |
| 20260906094503 | 53 | 107 | 0.0 | 0.0 | 0.00 | 0.00 | 0.00 | 93 | 1021.0 |
| 20260906094409 | 53 | 107 | 0.0 | 0.0 | 0.00 | 0.00 | 0.00 | 93 | 1021.0 |
| 20260906094312 | 53 | 107 | 0.0 | 0.0 | 0.00 | 0.00 | 0.00 | 93 | 1021.0 |
| 20260906094230 | 53 | 109 | 0.0 | 0.0 | 0.00 | 0.00 | 0.00 | 93 | 1021.0 |
| 20260906094205 | 53 | 110 | 0.0 | 0.0 | 0.00 | 0.00 | 0.00 | 93 | 1021.0 |
| 20260906094159 | 53 | 110 | 0.0 | 0.0 | 0.00 | 0.00 | 0.00 | 93 | 1021.0 |
| 20260906094144 | 53 | 113 | 0.0 | 0.0 | 0.00 | 0.00 | 0.00 | 93 | 1021.0 |
| 20260906094117 | 53 | 128 | 0.0 | 0.0 | 0.00 | 0.00 | 0.00 | 93 | 1021.0 |
| 20260906094111 | 53 | 129 | 0.0 | 0.0 | 0.00 | 0.00 | 0.00 | 93 | 1021.0 |
| 20260906094005 | 53 | 129 | 0.0 | 0.9 | 0.00 | 0.00 | 0.00 | 93 | 1021.0 |
| 20260906093941 | 53 | 129 | 0.0 | 0.9 | 0.00 | 0.00 | 0.00 | 93 | 1021.0 |
| 20260906093925 | 53 | 117 | 0.0 | 0.9 | 0.00 | 0.00 | 0.00 | 93 | 1021.0 |
| 20260906093909 | 53 | 127 | 0.0 | 0.9 | 0.00 | 0.00 | 0.00 | 93 | 1021.0 |
| 20260906093901 | 53 | 131 | 0.0 | 0.9 | 0.00 | 0.00 | 0.00 | 93 | 1021.0 |
| 20260906093821 | 53 | 131 | 0.0 | 0.9 | 0.00 | 0.00 | 0.00 | 93 | 1021.0 |
| 20260906093807 | 53 | 130 | 0.9 | 0.9 | 0.00 | 0.00 | 0.00 | 92 | 1021.0 |
| 20260906093749 | 53 | 120 | 0.0 | 0.9 | 0.00 | 0.00 | 0.00 | 92 | 1021.0 |
| 20260906093733 | 53 | 126 | 0.0 | 0.9 | 0.00 | 0.00 | 0.00 | 92 | 1021.0 |
| 20260906093717 | 53 | 103 | 0.0 | 0.0 | 0.00 | 0.00 | 0.00 | 92 | 1021.0 |
| 20260906093701 | 53 | 98 | 0.0 | 0.0 | 0.00 | 0.00 | 0.00 | 92 | 1021.0 |
| 20260906093654 | 53 | 98 | 0.0 | 0.0 | 0.00 | 0.00 | 0.00 | 92 | 1021.0 |
| 20260906093606 | 53 | 97 | 0.0 | 0.0 | 0.00 | 0.00 | 0.00 | 92 | 1021.0 |
| 20260906093512 | 53 | 97 | 0.0 | 0.0 | 0.00 | 0.00 | 0.00 | 92 | 1021.0 |
| 20260906093437 | 53 | 97 | 0.0 | 0.0 | 0.00 | 0.00 | 0.00 | 92 | 1021.0 |
| 20260906093359 | 53 | 97 | 0.0 | 0.0 | 0.00 | 0.00 | 0.00 | 92 | 1021.0 |
| 20260906093312 | 53 | 97 | 0.0 | 0.0 | 0.00 | 0.00 | 0.00 | 92 | 1021.0 |
| 20260906093253 | 53 | 97 | 0.0 | 0.0 | 0.00 | 0.00 | 0.00 | 92 | 1021.0 |
| 20260906093205 | 53 | 104 | 0.0 | 0.0 | 0.00 | 0.00 | 0.00 | 92 | 1021.0 |
| 20260906093142 | 53 | 104 | 0.0 | 0.0 | 0.00 | 0.00 | 0.00 | 92 | 1021.0 |
| 20260906093104 | 53 | 104 | 0.0 | 0.0 | 0.00 | 0.00 | 0.00 | 92 | 1021.0 |
| 20260906093005 | 53 | 106 | 0.0 | 0.0 | 0.00 | 0.00 | 0.00 | 92 | 1021.0 |
| 20260906092901 | 53 | 106 | 0.0 | 0.0 | 0.00 | 0.00 | 0.00 | 92 | 1021.0 |
| 20260906092845 | 53 | 114 | 0.0 | 0.0 | 0.00 | 0.00 | 0.00 | 92 | 1021.0 |
| 20260906092838 | 53 | 115 | 0.0 | 0.0 | 0.00 | 0.00 | 0.00 | 92 | 1021.0 |
| 20260906092818 | 53 | 115 | 0.0 | 0.9 | 0.00 | 0.00 | 0.00 | 92 | 1021.0 |
| 20260906092701 | 53 | 115 | 0.0 | 0.9 | 0.00 | 0.00 | 0.00 | 92 | 1021.0 |
| 20260906092656 | 53 | 115 | 0.0 | 0.9 | 0.00 | 0.00 | 0.00 | 92 | 1021.0 |
| 20260906092604 | 53 | 120 | 0.0 | 0.9 | 0.00 | 0.00 | 0.00 | 92 | 1021.0 |
| 20260906092557 | 53 | 120 | 0.0 | 0.9 | 0.00 | 0.00 | 0.00 | 92 | 1021.0 |
| 20260906092552 | 53 | 122 | 0.9 | 0.9 | 0.00 | 0.00 | 0.00 | 92 | 1021.0 |
| 20260906092525 | 53 | 130 | 0.9 | 1.7 | 0.00 | 0.00 | 0.00 | 92 | 1021.0 |
| 20260906092500 | 53 | 133 | 0.0 | 1.7 | 0.00 | 0.00 | 0.00 | 92 | 1021.0 |
| 20260906092453 | 53 | 133 | 0.0 | 1.7 | 0.00 | 0.00 | 0.00 | 92 | 1021.0 |
| 20260906092421 | 53 | 138 | 0.0 | 1.7 | 0.00 | 0.00 | 0.00 | 92 | 1021.0 |
| 20260906092405 | 53 | 127 | 0.9 | 1.7 | 0.00 | 0.00 | 0.00 | 92 | 1021.0 |
| 20260906092341 | 53 | 134 | 0.9 | 0.9 | 0.00 | 0.00 | 0.00 | 92 | 1021.0 |
| 20260906092325 | 53 | 117 | 0.0 | 0.0 | 0.00 | 0.00 | 0.00 | 92 | 1021.0 |
| 20260906092310 | 53 | 122 | 0.0 | 0.0 | 0.00 | 0.00 | 0.00 | 92 | 1021.0 |
| 20260906092301 | 53 | 160 | 0.0 | 0.0 | 0.00 | 0.00 | 0.00 | 92 | 1021.0 |
| 20260906092253 | 53 | 160 | 0.0 | 0.0 | 0.00 | 0.00 | 0.00 | 92 | 1021.0 |
| 20260906092250 | 53 | 132 | 0.0 | 0.0 | 0.00 | 0.00 | 0.00 | 92 | 1021.0 |
| 20260906092221 | 53 | 98 | 0.0 | 0.0 | 0.00 | 0.00 | 0.00 | 92 | 1021.0 |
| 20260906092207 | 53 | 68 | 0.0 | 0.0 | 0.00 | 0.00 | 0.00 | 92 | 1021.0 |
| 20260906092151 | 53 | 68 | 0.0 | 0.0 | 0.00 | 0.00 | 0.00 | 92 | 1021.0 |
| 20260906092134 | 53 | 77 | 0.0 | 0.0 | 0.00 | 0.00 | 0.00 | 92 | 1021.0 |
| 20260906092116 | 53 | 125 | 0.0 | 0.0 | 0.00 | 0.00 | 0.00 | 92 | 1021.0 |
| 20260906092100 | 53 | 135 | 0.0 | 0.0 | 0.00 | 0.00 | 0.00 | 92 | 1021.0 |
| 20260906092055 | 53 | 150 | 0.0 | 0.0 | 0.00 | 0.00 | 0.00 | 92 | 1021.0 |
| 20260906092029 | 53 | 105 | 0.0 | 0.0 | 0.00 | 0.00 | 0.00 | 92 | 1021.0 |
| 20260906092013 | 53 | 115 | 0.0 | 0.0 | 0.00 | 0.00 | 0.00 | 92 | 1021.0 |
| 20260906092005 | 53 | 129 | 0.0 | 0.0 | 0.00 | 0.00 | 0.00 | 92 | 1021.0 |
| 20260906091959 | 53 | 129 | 0.0 | 0.0 | 0.00 | 0.00 | 0.00 | 92 | 1021.0 |
| 20260906091940 | 53 | 109 | 0.0 | 0.0 | 0.00 | 0.00 | 0.00 | 92 | 1021.0 |
| 20260906091917 | 53 | 104 | 0.0 | 0.0 | 0.00 | 0.00 | 0.00 | 92 | 1021.0 |
| 20260906091909 | 53 | 103 | 0.0 | 0.0 | 0.00 | 0.00 | 0.00 | 92 | 1021.0 |
| 20260906091901 | 53 | 103 | 0.0 | 0.0 | 0.00 | 0.00 | 0.00 | 91 | 1021.0 |
| 20260906091829 | 53 | 103 | 0.0 | 0.0 | 0.00 | 0.00 | 0.00 | 91 | 1021.0 |
| 20260906091813 | 53 | 115 | 0.0 | 0.0 | 0.00 | 0.00 | 0.00 | 91 | 1021.0 |
| 20260906091806 | 53 | 88 | 0.0 | 0.0 | 0.00 | 0.00 | 0.00 | 91 | 1021.0 |
| 20260906091742 | 53 | 88 | 0.0 | 0.0 | 0.00 | 0.00 | 0.00 | 91 | 1021.0 |
| 20260906091726 | 53 | 89 | 0.0 | 0.0 | 0.00 | 0.00 | 0.00 | 91 | 1021.0 |
| 20260906091709 | 53 | 96 | 0.0 | 0.0 | 0.00 | 0.00 | 0.00 | 91 | 1021.0 |
| 20260906091657 | 53 | 73 | 0.0 | 0.0 | 0.00 | 0.00 | 0.00 | 91 | 1021.0 |
| 20260906091604 | 53 | 79 | 0.0 | 0.0 | 0.00 | 0.00 | 0.00 | 91 | 1021.0 |
| 20260906091532 | 53 | 88 | 0.0 | 0.0 | 0.00 | 0.00 | 0.00 | 91 | 1021.0 |
| 20260906091510 | 53 | 78 | 0.0 | 0.0 | 0.00 | 0.00 | 0.00 | 91 | 1021.0 |
| 20260906091503 | 53 | 70 | 0.0 | 0.0 | 0.00 | 0.00 | 0.00 | 91 | 1021.0 |
| 20260906091454 | 53 | 70 | 0.0 | 0.0 | 0.00 | 0.00 | 0.00 | 91 | 1021.0 |
| 20260906091438 | 53 | 108 | 0.0 | 0.0 | 0.00 | 0.00 | 0.00 | 91 | 1021.0 |
| 20260906091405 | 53 | 109 | 0.0 | 0.0 | 0.00 | 0.00 | 0.00 | 91 | 1021.0 |
| 20260906091349 | 53 | 108 | 0.0 | 0.0 | 0.00 | 0.00 | 0.00 | 91 | 1021.0 |
| 20260906091302 | 53 | 109 | 0.0 | 0.0 | 0.00 | 0.00 | 0.00 | 91 | 1021.0 |
| 20260906091229 | 53 | 108 | 0.0 | 0.0 | 0.00 | 0.00 | 0.00 | 91 | 1021.0 |
| 20260906091206 | 53 | 109 | 0.0 | 0.0 | 0.00 | 0.00 | 0.00 | 91 | 1021.0 |
| 20260906091112 | 53 | 109 | 0.0 | 0.0 | 0.00 | 0.00 | 0.00 | 91 | 1021.0 |
| 20260906091005 | 53 | 109 | 0.0 | 0.0 | 0.00 | 0.00 | 0.00 | 91 | 1021.0 |
| 20260906090901 | 53 | 109 | 0.0 | 0.0 | 0.00 | 0.00 | 0.00 | 91 | 1021.0 |
| 20260906090837 | 53 | 109 | 0.0 | 0.0 | 0.00 | 0.00 | 0.00 | 91 | 1021.0 |
| 20260906090826 | 53 | 117 | 0.0 | 0.0 | 0.00 | 0.00 | 0.00 | 91 | 1021.0 |
| 20260906090701 | 53 | 117 | 0.0 | 0.0 | 0.00 | 0.00 | 0.00 | 91 | 1021.0 |
| 20260906090647 | 53 | 117 | 0.0 | 0.0 | 0.00 | 0.00 | 0.00 | 91 | 1021.0 |
| 20260906090605 | 53 | 120 | 0.0 | 0.0 | 0.00 | 0.00 | 0.00 | 91 | 1021.0 |
| 20260906090550 | 53 | 120 | 0.0 | 0.0 | 0.00 | 0.00 | 0.00 | 91 | 1021.0 |
| 20260906090517 | 53 | 121 | 0.0 | 0.0 | 0.00 | 0.00 | 0.00 | 91 | 1021.0 |
| 20260906090504 | 53 | 135 | 0.0 | 0.0 | 0.00 | 0.00 | 0.00 | 91 | 1021.0 |
| 20260906090446 | 53 | 106 | 0.0 | 0.0 | 0.00 | 0.00 | 0.00 | 91 | 1021.0 |
| 20260906090415 | 53 | 107 | 0.0 | 0.0 | 0.00 | 0.00 | 0.00 | 91 | 1021.0 |
| 20260906090342 | 53 | 107 | 0.0 | 0.0 | 0.00 | 0.00 | 0.00 | 90 | 1021.0 |
| 20260906090302 | 53 | 106 | 0.0 | 0.0 | 0.00 | 0.00 | 0.00 | 90 | 1021.0 |
| 20260906090221 | 53 | 106 | 0.0 | 0.0 | 0.00 | 0.00 | 0.00 | 90 | 1021.0 |
| 20260906090209 | 53 | 107 | 0.0 | 0.0 | 0.00 | 0.00 | 0.00 | 90 | 1021.0 |
| 20260906090127 | 53 | 106 | 0.0 | 0.0 | 0.00 | 0.00 | 0.00 | 90 | 1021.0 |
| 20260906090104 | 53 | 107 | 0.0 | 0.0 | 0.00 | 0.00 | 0.00 | 90 | 1021.0 |
| 20260906090029 | 53 | 107 | 0.0 | 0.0 | 0.00 | 0.00 | 0.00 | 90 | 1021.0 |
| 20260906090015 | 53 | 106 | 0.0 | 0.0 | 0.00 | 0.00 | 0.00 | 90 | 1021.0 |
| 20260906085949 | 53 | 98 | 0.0 | 0.0 | 0.00 | 0.00 | 0.00 | 90 | 1021.0 |
| 20260906085933 | 53 | 119 | 0.0 | 0.0 | 0.00 | 0.00 | 0.00 | 90 | 1021.0 |
| 20260906085901 | 53 | 125 | 0.0 | 0.0 | 0.00 | 0.00 | 0.00 | 90 | 1021.0 |
| 20260906085829 | 53 | 132 | 0.0 | 0.0 | 0.00 | 0.00 | 0.00 | 90 | 1021.0 |
| 20260906085815 | 53 | 138 | 0.0 | 0.0 | 0.00 | 0.00 | 0.00 | 90 | 1021.0 |
| 20260906085757 | 53 | 136 | 0.0 | 0.0 | 0.00 | 0.00 | 0.00 | 90 | 1021.0 |
| 20260906085728 | 53 | 99 | 0.0 | 0.0 | 0.00 | 0.00 | 0.00 | 90 | 1021.0 |
| 20260906085703 | 53 | 100 | 0.0 | 0.0 | 0.00 | 0.00 | 0.00 | 90 | 1021.0 |
| 20260906085645 | 53 | 100 | 0.0 | 0.0 | 0.00 | 0.00 | 0.00 | 90 | 1021.0 |
| 20260906085632 | 53 | 100 | 0.0 | 0.0 | 0.00 | 0.00 | 0.00 | 89 | 1021.0 |
| 20260906085616 | 53 | 75 | 0.0 | 0.0 | 0.00 | 0.00 | 0.00 | 89 | 1021.0 |
| 20260906085557 | 53 | 66 | 0.0 | 0.0 | 0.00 | 0.00 | 0.00 | 89 | 1021.0 |
| 20260906085535 | 53 | 114 | 0.0 | 0.0 | 0.00 | 0.00 | 0.00 | 89 | 1021.0 |
| 20260906085509 | 53 | 163 | 0.0 | 0.0 | 0.00 | 0.00 | 0.00 | 89 | 1021.0 |
| 20260906085501 | 53 | 133 | 0.0 | 0.0 | 0.00 | 0.00 | 0.00 | 89 | 1021.0 |
| 20260906085453 | 53 | 133 | 0.0 | 0.0 | 0.00 | 0.00 | 0.00 | 89 | 1021.0 |
| 20260906085437 | 53 | 134 | 0.0 | 0.0 | 0.00 | 0.00 | 0.00 | 89 | 1021.0 |
| 20260906085405 | 53 | 134 | 0.0 | 0.0 | 0.00 | 0.00 | 0.00 | 89 | 1021.0 |
| 20260906085349 | 53 | 147 | 0.0 | 0.0 | 0.00 | 0.00 | 0.00 | 89 | 1021.0 |
| 20260906085333 | 53 | 141 | 0.0 | 0.0 | 0.00 | 0.00 | 0.00 | 89 | 1021.0 |
| 20260906085317 | 53 | 132 | 0.0 | 0.0 | 0.00 | 0.00 | 0.00 | 89 | 1021.0 |
| 20260906085301 | 53 | 119 | 0.0 | 0.0 | 0.00 | 0.00 | 0.00 | 89 | 1021.0 |
| 20260906085237 | 53 | 119 | 0.0 | 0.0 | 0.00 | 0.00 | 0.00 | 89 | 1021.0 |
| 20260906085221 | 53 | 130 | 0.0 | 0.0 | 0.00 | 0.00 | 0.00 | 89 | 1021.0 |
| 20260906085216 | 53 | 142 | 0.0 | 0.0 | 0.00 | 0.00 | 0.00 | 89 | 1021.0 |
| 20260906085133 | 53 | 146 | 0.0 | 0.0 | 0.00 | 0.00 | 0.00 | 89 | 1021.0 |
| 20260906085125 | 53 | 131 | 0.0 | 0.0 | 0.00 | 0.00 | 0.00 | 89 | 1021.0 |
| 20260906085117 | 54 | 131 | 0.0 | 0.0 | 0.00 | 0.00 | 0.00 | 89 | 1021.0 |
| 20260906085102 | 54 | 123 | 0.0 | 0.0 | 0.00 | 0.00 | 0.00 | 89 | 1021.0 |
| 20260906085045 | 54 | 112 | 0.0 | 0.0 | 0.00 | 0.00 | 0.00 | 89 | 1021.0 |
| 20260906085013 | 54 | 113 | 0.0 | 0.0 | 0.00 | 0.00 | 0.00 | 89 | 1021.0 |
| 20260906085009 | 54 | 113 | 0.0 | 0.9 | 0.00 | 0.00 | 0.00 | 89 | 1021.0 |
| 20260906084951 | 54 | 116 | 0.0 | 0.9 | 0.00 | 0.00 | 0.00 | 89 | 1021.0 |
| 20260906084925 | 54 | 133 | 0.0 | 0.9 | 0.00 | 0.00 | 0.00 | 89 | 1021.0 |
| 20260906084909 | 54 | 124 | 0.0 | 0.9 | 0.00 | 0.00 | 0.00 | 89 | 1021.0 |
| 20260906084904 | 54 | 117 | 0.0 | 0.9 | 0.00 | 0.00 | 0.00 | 89 | 1021.0 |
| 20260906084842 | 54 | 131 | 0.9 | 0.9 | 0.00 | 0.00 | 0.00 | 89 | 1021.0 |
| 20260906084813 | 54 | 138 | 0.0 | 0.9 | 0.00 | 0.00 | 0.00 | 89 | 1021.0 |
| 20260906084805 | 54 | 119 | 0.0 | 0.9 | 0.00 | 0.00 | 0.00 | 89 | 1021.0 |
| 20260906084757 | 54 | 119 | 0.0 | 0.9 | 0.00 | 0.00 | 0.00 | 89 | 1021.0 |
| 20260906084741 | 54 | 116 | 0.0 | 0.9 | 0.00 | 0.00 | 0.00 | 89 | 1021.0 |
| 20260906084725 | 54 | 115 | 0.9 | 0.9 | 0.00 | 0.00 | 0.00 | 89 | 1021.0 |
| 20260906084709 | 54 | 118 | 0.0 | 0.9 | 0.00 | 0.00 | 0.00 | 89 | 1021.0 |
| 20260906084705 | 54 | 119 | 0.0 | 0.9 | 0.00 | 0.00 | 0.00 | 89 | 1021.0 |
| 20260906084639 | 54 | 121 | 0.9 | 0.9 | 0.00 | 0.00 | 0.00 | 89 | 1021.0 |
| 20260906084621 | 54 | 133 | 0.9 | 0.9 | 0.00 | 0.00 | 0.00 | 89 | 1021.0 |
| 20260906084605 | 54 | 224 | 0.0 | 0.9 | 0.00 | 0.00 | 0.00 | 89 | 1021.0 |
| 20260906084602 | 54 | 9 | 0.9 | 0.9 | 0.00 | 0.00 | 0.00 | 88 | 1021.0 |
| 20260906084533 | 54 | 136 | 0.0 | 0.9 | 0.00 | 0.00 | 0.00 | 88 | 1021.0 |
| 20260906084519 | 54 | 133 | 0.0 | 0.9 | 0.00 | 0.00 | 0.00 | 88 | 1021.0 |
| 20260906084501 | 54 | 133 | 0.0 | 3.5 | 0.00 | 0.00 | 0.00 | 88 | 1021.0 |
| 20260906084445 | 54 | 134 | 0.9 | 3.5 | 0.00 | 0.00 | 0.00 | 88 | 1021.0 |
| 20260906084439 | 54 | 97 | 0.0 | 3.5 | 0.00 | 0.00 | 0.00 | 88 | 1021.0 |
| 20260906084405 | 54 | 66 | 0.0 | 3.5 | 0.00 | 0.00 | 0.00 | 88 | 1021.0 |
| 20260906084349 | 54 | 44 | 0.9 | 3.5 | 0.00 | 0.00 | 0.00 | 88 | 1021.0 |
| 20260906084333 | 54 | 123 | 0.9 | 3.5 | 0.00 | 0.00 | 0.00 | 88 | 1021.0 |
| 20260906084317 | 54 | 157 | 2.6 | 3.5 | 0.00 | 0.00 | 0.00 | 88 | 1021.0 |
| 20260906084309 | 54 | 138 | 1.7 | 1.7 | 0.00 | 0.00 | 0.00 | 88 | 1021.0 |
| 20260906084301 | 54 | 138 | 1.7 | 2.6 | 0.00 | 0.00 | 0.00 | 88 | 1021.0 |
| 20260906084248 | 54 | 144 | 0.9 | 2.6 | 0.00 | 0.00 | 0.00 | 88 | 1021.0 |
| 20260906084231 | 54 | 133 | 0.9 | 2.6 | 0.00 | 0.00 | 0.00 | 88 | 1021.0 |
| 20260906084213 | 54 | 102 | 0.0 | 2.6 | 0.00 | 0.00 | 0.00 | 88 | 1021.0 |
| 20260906084202 | 54 | 83 | 0.0 | 2.6 | 0.00 | 0.00 | 0.00 | 88 | 1021.0 |
| 20260906084125 | 54 | 175 | 1.7 | 2.6 | 0.00 | 0.00 | 0.00 | 88 | 1021.0 |
| 20260906084109 | 54 | 156 | 2.6 | 2.6 | 0.00 | 0.00 | 0.00 | 88 | 1021.0 |
| 20260906084101 | 54 | 130 | 0.9 | 2.6 | 0.00 | 0.00 | 0.00 | 88 | 1022.0 |
| 20260906084053 | 54 | 130 | 0.9 | 2.6 | 0.00 | 0.00 | 0.00 | 88 | 1022.0 |
| 20260906084048 | 54 | 129 | 0.9 | 2.6 | 0.00 | 0.00 | 0.00 | 88 | 1022.0 |
| 20260906084023 | 54 | 127 | 0.9 | 2.6 | 0.00 | 0.00 | 0.00 | 88 | 1022.0 |
| 20260906084005 | 54 | 127 | 0.0 | 2.6 | 0.00 | 0.00 | 0.00 | 88 | 1022.0 |
| 20260906083953 | 54 | 127 | 1.7 | 2.6 | 0.00 | 0.00 | 0.00 | 88 | 1022.0 |
| 20260906083925 | 54 | 120 | 1.7 | 2.6 | 0.00 | 0.00 | 0.00 | 88 | 1022.0 |
| 20260906083908 | 54 | 63 | 0.9 | 2.6 | 0.00 | 0.00 | 0.00 | 88 | 1022.0 |
| 20260906083903 | 54 | 258 | 1.7 | 2.6 | 0.00 | 0.00 | 0.00 | 88 | 1022.0 |
| 20260906083837 | 54 | 119 | 0.9 | 1.7 | 0.00 | 0.00 | 0.00 | 88 | 1022.0 |
| 20260906083821 | 54 | 126 | 1.7 | 1.7 | 0.00 | 0.00 | 0.00 | 88 | 1022.0 |
| 20260906083805 | 54 | 165 | 0.9 | 0.9 | 0.00 | 0.00 | 0.00 | 88 | 1022.0 |
| 20260906083750 | 54 | 159 | 0.0 | 0.9 | 0.00 | 0.00 | 0.00 | 88 | 1022.0 |
| 20260906083741 | 54 | 142 | 0.9 | 0.9 | 0.00 | 0.00 | 0.00 | 88 | 1022.0 |
| 20260906083733 | 54 | 142 | 0.9 | 1.7 | 0.00 | 0.00 | 0.00 | 88 | 1022.0 |
| 20260906083728 | 54 | 103 | 0.9 | 1.7 | 0.00 | 0.00 | 0.00 | 88 | 1022.0 |
| 20260906083701 | 54 | 107 | 0.0 | 1.7 | 0.00 | 0.00 | 0.00 | 88 | 1022.0 |
| 20260906083629 | 54 | 121 | 0.0 | 1.7 | 0.00 | 0.00 | 0.00 | 88 | 1022.0 |
| 20260906083614 | 54 | 127 | 0.9 | 1.7 | 0.00 | 0.00 | 0.00 | 88 | 1022.0 |
| 20260906083601 | 54 | 146 | 0.9 | 1.7 | 0.00 | 0.00 | 0.00 | 88 | 1022.0 |
| 20260906083525 | 54 | 108 | 0.9 | 1.7 | 0.00 | 0.00 | 0.00 | 88 | 1022.0 |
| 20260906083517 | 54 | 108 | 0.9 | 1.7 | 0.00 | 0.00 | 0.00 | 87 | 1022.0 |
| 20260906083510 | 54 | 118 | 1.7 | 1.7 | 0.00 | 0.00 | 0.00 | 87 | 1022.0 |
| 20260906083501 | 54 | 118 | 1.7 | 1.7 | 0.00 | 0.00 | 0.00 | 87 | 1021.0 |
| 20260906083455 | 54 | 144 | 0.0 | 0.9 | 0.00 | 0.00 | 0.00 | 87 | 1021.0 |
| 20260906083439 | 54 | 97 | 0.0 | 0.0 | 0.00 | 0.00 | 0.00 | 87 | 1021.0 |
| 20260906083413 | 54 | 97 | 0.0 | 0.9 | 0.00 | 0.00 | 0.00 | 87 | 1021.0 |
| 20260906083405 | 54 | 97 | 0.0 | 0.9 | 0.00 | 0.00 | 0.00 | 87 | 1022.0 |
| 20260906083335 | 54 | 97 | 0.0 | 0.9 | 0.00 | 0.00 | 0.00 | 87 | 1022.0 |
| 20260906083309 | 54 | 97 | 0.9 | 0.9 | 0.00 | 0.00 | 0.00 | 87 | 1022.0 |
| 20260906083301 | 54 | 133 | 0.0 | 0.9 | 0.00 | 0.00 | 0.00 | 87 | 1021.0 |
| 20260906083253 | 54 | 133 | 0.0 | 0.9 | 0.00 | 0.00 | 0.00 | 87 | 1021.0 |
| 20260906083249 | 54 | 123 | 0.9 | 0.9 | 0.00 | 0.00 | 0.00 | 87 | 1021.0 |
| 20260906083221 | 54 | 134 | 0.9 | 0.9 | 0.00 | 0.00 | 0.00 | 87 | 1021.0 |
| 20260906083205 | 54 | 140 | 0.9 | 0.9 | 0.00 | 0.00 | 0.00 | 87 | 1021.0 |
| 20260906083149 | 54 | 109 | 0.0 | 0.9 | 0.00 | 0.00 | 0.00 | 87 | 1021.0 |
| 20260906083144 | 54 | 142 | 0.0 | 0.9 | 0.00 | 0.00 | 0.00 | 87 | 1021.0 |
| 20260906083117 | 54 | 122 | 0.0 | 0.9 | 0.00 | 0.00 | 0.00 | 87 | 1021.0 |
| 20260906083109 | 54 | 139 | 0.0 | 0.9 | 0.00 | 0.00 | 0.00 | 87 | 1021.0 |
| 20260906083104 | 54 | 139 | 0.0 | 0.9 | 0.00 | 0.00 | 0.00 | 87 | 1022.0 |
| 20260906083036 | 54 | 126 | 0.9 | 0.9 | 0.00 | 0.00 | 0.00 | 87 | 1022.0 |
| 20260906083023 | 54 | 129 | 0.0 | 0.9 | 0.00 | 0.00 | 0.00 | 87 | 1022.0 |
| 20260906083005 | 54 | 146 | 0.0 | 0.9 | 0.00 | 0.00 | 0.00 | 87 | 1021.0 |
| 20260906082949 | 54 | 122 | 0.0 | 0.9 | 0.00 | 0.00 | 0.00 | 87 | 1021.0 |
| 20260906082943 | 54 | 149 | 0.0 | 0.9 | 0.00 | 0.00 | 0.00 | 87 | 1021.0 |
| 20260906082919 | 54 | 145 | 0.0 | 0.9 | 0.00 | 0.00 | 0.00 | 87 | 1021.0 |
| 20260906082900 | 54 | 156 | 0.0 | 0.9 | 0.00 | 0.00 | 0.00 | 87 | 1021.0 |
| 20260906082845 | 54 | 160 | 0.0 | 0.9 | 0.00 | 0.00 | 0.00 | 87 | 1021.0 |
| 20260906082829 | 54 | 115 | 0.0 | 0.0 | 0.00 | 0.00 | 0.00 | 87 | 1021.0 |
| 20260906082812 | 54 | 116 | 0.0 | 0.0 | 0.00 | 0.00 | 0.00 | 87 | 1021.0 |
| 20260906082805 | 54 | 124 | 0.0 | 0.0 | 0.00 | 0.00 | 0.00 | 87 | 1022.0 |
| 20260906082756 | 54 | 124 | 0.0 | 0.0 | 0.00 | 0.00 | 0.00 | 87 | 1022.0 |
| 20260906082741 | 54 | 145 | 0.0 | 0.0 | 0.00 | 0.00 | 0.00 | 87 | 1022.0 |
| 20260906082724 | 54 | 144 | 0.0 | 0.0 | 0.00 | 0.00 | 0.00 | 87 | 1022.0 |
| 20260906082708 | 54 | 139 | 0.0 | 0.0 | 0.00 | 0.00 | 0.00 | 87 | 1022.0 |
| 20260906082701 | 54 | 123 | 0.0 | 0.0 | 0.00 | 0.00 | 0.00 | 87 | 1021.0 |
| 20260906082652 | 54 | 123 | 0.0 | 0.0 | 0.00 | 0.00 | 0.00 | 87 | 1021.0 |
| 20260906082629 | 54 | 118 | 0.0 | 0.0 | 0.00 | 0.00 | 0.00 | 87 | 1021.0 |
| 20260906082616 | 54 | 117 | 0.0 | 0.0 | 0.00 | 0.00 | 0.00 | 87 | 1021.0 |
| 20260906082502 | 54 | 117 | 0.0 | 0.0 | 0.00 | 0.00 | 0.00 | 87 | 1021.0 |
| 20260906082441 | 54 | 117 | 0.0 | 0.0 | 0.00 | 0.00 | 0.00 | 87 | 1021.0 |
| 20260906082422 | 54 | 135 | 0.0 | 0.0 | 0.00 | 0.00 | 0.00 | 87 | 1021.0 |
| 20260906082418 | 54 | 146 | 0.0 | 0.0 | 0.00 | 0.00 | 0.00 | 87 | 1021.0 |
| 20260906082352 | 54 | 139 | 0.0 | 0.0 | 0.00 | 0.00 | 0.00 | 87 | 1021.0 |
| 20260906082317 | 54 | 111 | 0.0 | 0.0 | 0.00 | 0.00 | 0.00 | 87 | 1021.0 |
| 20260906082310 | 54 | 110 | 0.0 | 0.0 | 0.00 | 0.00 | 0.00 | 87 | 1021.0 |
| 20260906082305 | 54 | 110 | 0.0 | 0.0 | 0.00 | 0.00 | 0.00 | 87 | 1022.0 |
| 20260906082247 | 54 | 137 | 0.0 | 0.0 | 0.00 | 0.00 | 0.00 | 87 | 1022.0 |
| 20260906082213 | 54 | 145 | 0.0 | 0.0 | 0.00 | 0.00 | 0.00 | 87 | 1022.0 |
| 20260906082206 | 54 | 145 | 0.0 | 0.0 | 0.00 | 0.00 | 0.00 | 87 | 1021.0 |
| 20260906082143 | 54 | 140 | 0.0 | 0.0 | 0.00 | 0.00 | 0.00 | 87 | 1021.0 |
| 20260906082118 | 54 | 133 | 0.0 | 0.0 | 0.00 | 0.00 | 0.00 | 87 | 1021.0 |
| 20260906082109 | 54 | 130 | 0.0 | 0.0 | 0.00 | 0.00 | 0.00 | 87 | 1021.0 |
| 20260906082102 | 54 | 130 | 0.0 | 0.0 | 0.00 | 0.00 | 0.00 | 87 | 1022.0 |
| 20260906082030 | 54 | 101 | 0.0 | 0.0 | 0.00 | 0.00 | 0.00 | 87 | 1022.0 |
| 20260906082013 | 54 | 104 | 0.0 | 0.0 | 0.00 | 0.00 | 0.00 | 87 | 1022.0 |
| 20260906082000 | 54 | 105 | 0.0 | 0.0 | 0.00 | 0.00 | 0.00 | 87 | 1021.0 |
| 20260906081912 | 54 | 105 | 0.0 | 0.0 | 0.00 | 0.00 | 0.00 | 87 | 1021.0 |
| 20260906081838 | 54 | 105 | 0.0 | 0.0 | 0.00 | 0.00 | 0.00 | 87 | 1022.0 |
| 20260906081822 | 54 | 104 | 0.0 | 0.0 | 0.00 | 0.00 | 0.00 | 87 | 1022.0 |
| 20260906081808 | 54 | 112 | 0.0 | 0.0 | 0.00 | 0.00 | 0.00 | 87 | 1022.0 |
| 20260906081741 | 54 | 137 | 0.0 | 0.0 | 0.00 | 0.00 | 0.00 | 87 | 1022.0 |
| 20260906081728 | 54 | 116 | 0.0 | 0.0 | 0.00 | 0.00 | 0.00 | 87 | 1022.0 |
| 20260906081704 | 54 | 83 | 0.0 | 0.0 | 0.00 | 0.00 | 0.00 | 87 | 1022.0 |
| 20260906081622 | 54 | 83 | 0.0 | 0.0 | 0.00 | 0.00 | 0.00 | 87 | 1022.0 |
| 20260906081612 | 54 | 115 | 0.0 | 0.0 | 0.00 | 0.00 | 0.00 | 87 | 1022.0 |
| 20260906081533 | 54 | 143 | 0.0 | 0.0 | 0.00 | 0.00 | 0.00 | 87 | 1022.0 |
| 20260906081504 | 54 | 145 | 0.0 | 0.0 | 0.00 | 0.00 | 0.00 | 87 | 1022.0 |
| 20260906081432 | 54 | 145 | 0.0 | 0.0 | 0.00 | 0.00 | 0.00 | 87 | 1022.0 |
| 20260906081413 | 54 | 138 | 0.0 | 0.0 | 0.00 | 0.00 | 0.00 | 87 | 1022.0 |
| 20260906081405 | 54 | 144 | 0.0 | 0.0 | 0.00 | 0.00 | 0.00 | 87 | 1021.0 |
| 20260906081358 | 54 | 144 | 0.0 | 0.0 | 0.00 | 0.00 | 0.00 | 87 | 1021.0 |
| 20260906081342 | 54 | 146 | 0.0 | 0.0 | 0.00 | 0.00 | 0.00 | 87 | 1021.0 |
| 20260906081317 | 54 | 139 | 0.0 | 0.0 | 0.00 | 0.00 | 0.00 | 87 | 1021.0 |
| 20260906081301 | 54 | 78 | 0.0 | 0.0 | 0.00 | 0.00 | 0.00 | 87 | 1021.0 |
| 20260906081245 | 54 | 85 | 0.0 | 0.0 | 0.00 | 0.00 | 0.00 | 87 | 1021.0 |
| 20260906081213 | 54 | 135 | 0.0 | 0.0 | 0.00 | 0.00 | 0.00 | 87 | 1021.0 |
| 20260906081206 | 54 | 134 | 0.0 | 0.9 | 0.00 | 0.00 | 0.00 | 87 | 1022.0 |
| 20260906081142 | 54 | 134 | 0.0 | 0.9 | 0.00 | 0.00 | 0.00 | 87 | 1022.0 |
| 20260906081128 | 54 | 162 | 0.0 | 0.9 | 0.00 | 0.00 | 0.00 | 87 | 1022.0 |
| 20260906081109 | 54 | 129 | 0.0 | 0.9 | 0.00 | 0.00 | 0.00 | 87 | 1022.0 |
| 20260906081102 | 54 | 137 | 0.0 | 1.7 | 0.00 | 0.00 | 0.00 | 87 | 1021.0 |
| 20260906081053 | 54 | 137 | 0.0 | 1.7 | 0.00 | 0.00 | 0.00 | 87 | 1021.0 |
| 20260906081037 | 54 | 129 | 0.0 | 1.7 | 0.00 | 0.00 | 0.00 | 87 | 1021.0 |
| 20260906081021 | 54 | 147 | 0.0 | 1.7 | 0.00 | 0.00 | 0.00 | 87 | 1021.0 |
| 20260906081014 | 54 | 130 | 0.0 | 1.7 | 0.00 | 0.00 | 0.00 | 87 | 1021.0 |
| 20260906081006 | 54 | 130 | 0.0 | 3.5 | 0.00 | 0.00 | 0.00 | 87 | 1021.0 |
| 20260906081000 | 54 | 136 | 0.0 | 3.5 | 0.00 | 0.00 | 0.00 | 87 | 1021.0 |
| 20260906080934 | 54 | 136 | 0.0 | 3.5 | 0.00 | 0.00 | 0.00 | 87 | 1021.0 |
| 20260906080917 | 54 | 138 | 0.9 | 3.5 | 0.00 | 0.00 | 0.00 | 87 | 1021.0 |
| 20260906080910 | 54 | 118 | 0.9 | 3.5 | 0.00 | 0.00 | 0.00 | 87 | 1021.0 |
| 20260906080904 | 54 | 118 | 0.9 | 3.5 | 0.00 | 0.00 | 0.00 | 87 | 1022.0 |
| 20260906080839 | 54 | 137 | 0.9 | 3.5 | 0.00 | 0.00 | 0.00 | 87 | 1022.0 |
| 20260906080823 | 54 | 148 | 1.7 | 3.5 | 0.00 | 0.00 | 0.00 | 87 | 1022.0 |
| 20260906080805 | 54 | 138 | 0.0 | 1.7 | 0.00 | 0.00 | 0.00 | 87 | 1022.0 |
| 20260906080749 | 54 | 149 | 0.0 | 0.9 | 0.00 | 0.00 | 0.00 | 87 | 1022.0 |
| 20260906080741 | 54 | 144 | 0.0 | 0.9 | 0.00 | 0.00 | 0.00 | 87 | 1022.0 |
| 20260906080735 | 54 | 144 | 0.0 | 1.7 | 0.00 | 0.00 | 0.00 | 87 | 1022.0 |
| 20260906080718 | 54 | 114 | 0.0 | 1.7 | 0.00 | 0.00 | 0.00 | 87 | 1022.0 |
| 20260906080702 | 54 | 113 | 0.0 | 1.7 | 0.00 | 0.00 | 0.00 | 87 | 1022.0 |
| 20260906080630 | 54 | 145 | 0.9 | 1.7 | 0.00 | 0.00 | 0.00 | 87 | 1022.0 |
| 20260906080614 | 54 | 132 | 0.9 | 1.7 | 0.00 | 0.00 | 0.00 | 87 | 1022.0 |
| 20260906080605 | 54 | 111 | 0.9 | 1.7 | 0.00 | 0.00 | 0.00 | 87 | 1022.0 |
| 20260906080557 | 54 | 111 | 0.9 | 1.7 | 0.00 | 0.00 | 0.00 | 87 | 1022.0 |
| 20260906080544 | 54 | 140 | 0.0 | 0.9 | 0.00 | 0.00 | 0.00 | 87 | 1022.0 |
| 20260906080510 | 54 | 123 | 0.0 | 0.9 | 0.00 | 0.00 | 0.00 | 87 | 1022.0 |
| 20260906080501 | 54 | 123 | 0.9 | 0.9 | 0.00 | 0.00 | 0.00 | 87 | 1022.0 |
| 20260906080454 | 54 | 123 | 0.9 | 0.9 | 0.00 | 0.00 | 0.00 | 87 | 1022.0 |
| 20260906080415 | 54 | 115 | 0.0 | 0.9 | 0.00 | 0.00 | 0.00 | 87 | 1022.0 |
| 20260906080400 | 54 | 126 | 0.9 | 1.7 | 0.00 | 0.00 | 0.00 | 87 | 1022.0 |
| 20260906080341 | 54 | 99 | 0.9 | 1.7 | 0.00 | 0.00 | 0.00 | 87 | 1022.0 |
| 20260906080325 | 54 | 149 | 0.0 | 1.7 | 0.00 | 0.00 | 0.00 | 87 | 1022.0 |
| 20260906080309 | 54 | 125 | 0.0 | 1.7 | 0.00 | 0.00 | 0.00 | 87 | 1022.0 |
| 20260906080304 | 54 | 82 | 0.0 | 1.7 | 0.00 | 0.00 | 0.00 | 87 | 1022.0 |
| 20260906080237 | 54 | 82 | 0.9 | 1.7 | 0.00 | 0.00 | 0.00 | 87 | 1022.0 |
| 20260906080232 | 54 | 144 | 0.9 | 0.9 | 0.00 | 0.00 | 0.00 | 87 | 1022.0 |
| 20260906080205 | 54 | 95 | 0.0 | 0.0 | 0.00 | 0.00 | 0.00 | 87 | 1022.0 |
| 20260906080013 | 54 | 95 | 0.0 | 0.0 | 0.00 | 0.00 | 0.00 | 87 | 1022.0 |
| 20260906080006 | 54 | 95 | 0.0 | 0.0 | 0.00 | 0.00 | 0.00 | 87 | 1021.0 |
| 20260906075933 | 54 | 134 | 0.0 | 0.0 | 0.00 | 0.00 | 0.00 | 87 | 1021.0 |
| 20260906075923 | 54 | 138 | 0.0 | 0.0 | 0.00 | 0.00 | 0.00 | 87 | 1021.0 |
| 20260906075852 | 54 | 95 | 0.0 | 0.0 | 0.00 | 0.00 | 0.00 | 87 | 1022.0 |
| 20260906075815 | 54 | 94 | 0.0 | 0.0 | 0.00 | 0.00 | 0.00 | 87 | 1022.0 |
| 20260906075806 | 54 | 92 | 0.0 | 0.0 | 0.00 | 0.00 | 0.00 | 87 | 1021.0 |
| 20260906075709 | 54 | 92 | 0.0 | 0.0 | 0.00 | 0.00 | 0.00 | 87 | 1021.0 |
| 20260906075704 | 54 | 98 | 0.0 | 0.0 | 0.00 | 0.00 | 0.00 | 87 | 1021.0 |
| 20260906075637 | 54 | 98 | 0.0 | 0.0 | 0.00 | 0.00 | 0.00 | 87 | 1021.0 |
| 20260906075621 | 54 | 104 | 0.0 | 0.0 | 0.00 | 0.00 | 0.00 | 87 | 1021.0 |
| 20260906075613 | 54 | 112 | 0.0 | 0.0 | 0.00 | 0.00 | 0.00 | 87 | 1021.0 |
| 20260906075600 | 54 | 112 | 0.0 | 0.0 | 0.00 | 0.00 | 0.00 | 87 | 1022.0 |
| 20260906075509 | 54 | 112 | 0.0 | 0.0 | 0.00 | 0.00 | 0.00 | 87 | 1022.0 |
| 20260906075502 | 54 | 112 | 0.0 | 0.0 | 0.00 | 0.00 | 0.00 | 87 | 1021.0 |
| 20260906075413 | 54 | 112 | 0.0 | 0.0 | 0.00 | 0.00 | 0.00 | 87 | 1021.0 |
| 20260906075405 | 54 | 112 | 0.0 | 0.0 | 0.00 | 0.00 | 0.00 | 87 | 1022.0 |
| 20260906075312 | 54 | 112 | 0.0 | 0.0 | 0.00 | 0.00 | 0.00 | 87 | 1022.0 |
| 20260906075253 | 54 | 112 | 0.0 | 0.0 | 0.00 | 0.00 | 0.00 | 87 | 1021.0 |
| 20260906075214 | 54 | 112 | 0.0 | 0.0 | 0.00 | 0.00 | 0.00 | 87 | 1021.0 |
| 20260906075205 | 54 | 112 | 0.0 | 0.0 | 0.00 | 0.00 | 0.00 | 87 | 1022.0 |
| 20260906075157 | 54 | 112 | 0.0 | 0.0 | 0.00 | 0.00 | 0.00 | 87 | 1022.0 |
| 20260906075152 | 54 | 57 | 0.0 | 0.0 | 0.00 | 0.00 | 0.00 | 87 | 1022.0 |
| 20260906075109 | 54 | 206 | 0.0 | 0.0 | 0.00 | 0.00 | 0.00 | 87 | 1022.0 |
| 20260906075101 | 54 | 206 | 0.0 | 0.0 | 0.00 | 0.00 | 0.00 | 87 | 1021.0 |
| 20260906075023 | 54 | 206 | 0.0 | 0.0 | 0.00 | 0.00 | 0.00 | 87 | 1021.0 |
| 20260906075006 | 54 | 152 | 0.0 | 0.0 | 0.00 | 0.00 | 0.00 | 87 | 1022.0 |
| 20260906074957 | 54 | 152 | 0.0 | 0.0 | 0.00 | 0.00 | 0.00 | 87 | 1022.0 |
| 20260906074935 | 54 | 47 | 0.0 | 0.0 | 0.00 | 0.00 | 0.00 | 87 | 1022.0 |
| 20260906074912 | 54 | 46 | 0.0 | 0.0 | 0.00 | 0.00 | 0.00 | 87 | 1022.0 |
| 20260906074832 | 54 | 46 | 0.0 | 0.9 | 0.00 | 0.00 | 0.00 | 87 | 1021.0 |
| 20260906074817 | 54 | 47 | 0.0 | 0.9 | 0.00 | 0.00 | 0.00 | 87 | 1021.0 |
| 20260906074752 | 54 | 46 | 0.0 | 0.9 | 0.00 | 0.00 | 0.00 | 87 | 1021.0 |
| 20260906074734 | 54 | 47 | 0.0 | 0.9 | 0.00 | 0.00 | 0.00 | 87 | 1021.0 |
| 20260906074717 | 54 | 92 | 0.0 | 0.9 | 0.00 | 0.00 | 0.00 | 87 | 1021.0 |
| 20260906074701 | 54 | 52 | 0.0 | 0.0 | 0.00 | 0.00 | 0.00 | 87 | 1021.0 |
| 20260906074637 | 54 | 52 | 0.0 | 0.0 | 0.00 | 0.00 | 0.00 | 87 | 1021.0 |
| 20260906074607 | 54 | 51 | 0.0 | 0.0 | 0.00 | 0.00 | 0.00 | 87 | 1021.0 |
| 20260906074503 | 54 | 51 | 0.0 | 0.0 | 0.00 | 0.00 | 0.00 | 87 | 1021.0 |
| 20260906074405 | 54 | 74 | 0.0 | 0.9 | 0.00 | 0.00 | 0.00 | 87 | 1021.0 |
| 20260906074357 | 54 | 74 | 0.0 | 0.9 | 0.00 | 0.00 | 0.00 | 87 | 1021.0 |
| 20260906074354 | 54 | 77 | 0.0 | 0.9 | 0.00 | 0.00 | 0.00 | 87 | 1021.0 |
| 20260906074325 | 54 | 79 | 0.0 | 0.9 | 0.00 | 0.00 | 0.00 | 87 | 1021.0 |
| 20260906074309 | 54 | 84 | 0.0 | 0.9 | 0.00 | 0.00 | 0.00 | 87 | 1021.0 |
| 20260906074301 | 54 | 84 | 0.9 | 0.9 | 0.00 | 0.00 | 0.00 | 87 | 1021.0 |
| 20260906074253 | 54 | 84 | 0.9 | 0.9 | 0.00 | 0.00 | 0.00 | 87 | 1021.0 |
| 20260906074229 | 54 | 85 | 0.0 | 0.9 | 0.00 | 0.00 | 0.00 | 87 | 1021.0 |
| 20260906074224 | 54 | 106 | 0.9 | 0.9 | 0.00 | 0.00 | 0.00 | 87 | 1021.0 |
| 20260906074205 | 54 | 114 | 0.9 | 1.7 | 0.00 | 0.00 | 0.00 | 87 | 1021.0 |
| 20260906074158 | 54 | 114 | 0.9 | 1.7 | 0.00 | 0.00 | 0.00 | 87 | 1021.0 |
| 20260906074141 | 54 | 99 | 0.9 | 1.7 | 0.00 | 0.00 | 0.00 | 87 | 1021.0 |
| 20260906074125 | 54 | 106 | 0.9 | 1.7 | 0.00 | 0.00 | 0.00 | 87 | 1021.0 |
| 20260906074120 | 54 | 82 | 0.0 | 1.7 | 0.00 | 0.00 | 0.00 | 87 | 1021.0 |
| 20260906074102 | 54 | 78 | 0.9 | 1.7 | 0.00 | 0.00 | 0.00 | 87 | 1022.0 |
| 20260906074053 | 54 | 78 | 0.9 | 1.7 | 0.00 | 0.00 | 0.00 | 87 | 1022.0 |
| 20260906074041 | 54 | 53 | 1.7 | 1.7 | 0.00 | 0.00 | 0.00 | 87 | 1022.0 |
| 20260906074006 | 54 | 91 | 0.0 | 0.9 | 0.00 | 0.00 | 0.00 | 87 | 1022.0 |
| 20260906073949 | 54 | 98 | 0.0 | 0.0 | 0.00 | 0.00 | 0.00 | 87 | 1022.0 |
| 20260906073936 | 54 | 69 | 0.0 | 0.0 | 0.00 | 0.00 | 0.00 | 87 | 1022.0 |
| 20260906073917 | 54 | 115 | 0.0 | 0.0 | 0.00 | 0.00 | 0.00 | 87 | 1022.0 |
| 20260906073902 | 54 | 97 | 0.0 | 0.0 | 0.00 | 0.00 | 0.00 | 87 | 1022.0 |
| 20260906073845 | 54 | 85 | 0.0 | 0.0 | 0.00 | 0.00 | 0.00 | 87 | 1022.0 |
| 20260906073806 | 54 | 86 | 0.0 | 0.0 | 0.00 | 0.00 | 0.00 | 87 | 1022.0 |
| 20260906073709 | 54 | 86 | 0.0 | 0.0 | 0.00 | 0.00 | 0.00 | 87 | 1022.0 |
| 20260906073701 | 54 | 86 | 0.0 | 0.0 | 0.00 | 0.00 | 0.00 | 87 | 1021.0 |
| 20260906073613 | 54 | 86 | 0.0 | 0.0 | 0.00 | 0.00 | 0.00 | 87 | 1021.0 |
| 20260906073605 | 54 | 86 | 0.0 | 0.0 | 0.00 | 0.00 | 0.00 | 87 | 1022.0 |
| 20260906073541 | 54 | 86 | 0.0 | 0.0 | 0.00 | 0.00 | 0.00 | 87 | 1022.0 |
| 20260906073509 | 54 | 86 | 0.0 | 0.9 | 0.00 | 0.00 | 0.00 | 87 | 1022.0 |
| 20260906073501 | 54 | 86 | 0.0 | 1.7 | 0.00 | 0.00 | 0.00 | 87 | 1022.0 |
| 20260906073437 | 54 | 86 | 0.0 | 1.7 | 0.00 | 0.00 | 0.00 | 87 | 1022.0 |
| 20260906073406 | 54 | 88 | 0.0 | 1.7 | 0.00 | 0.00 | 0.00 | 87 | 1022.0 |
| 20260906073341 | 54 | 121 | 0.0 | 1.7 | 0.00 | 0.00 | 0.00 | 87 | 1022.0 |
| 20260906073325 | 54 | 121 | 0.9 | 1.7 | 0.00 | 0.00 | 0.00 | 87 | 1022.0 |
| 20260906073309 | 54 | 84 | 1.7 | 1.7 | 0.00 | 0.00 | 0.00 | 87 | 1022.0 |
| 20260906073301 | 54 | 75 | 1.7 | 1.7 | 0.00 | 0.00 | 0.00 | 87 | 1022.0 |
| 20260906073253 | 54 | 75 | 1.7 | 1.7 | 0.00 | 0.00 | 0.00 | 87 | 1022.0 |
| 20260906073238 | 54 | 69 | 0.9 | 1.7 | 0.00 | 0.00 | 0.00 | 87 | 1022.0 |
| 20260906073231 | 54 | 63 | 0.0 | 1.7 | 0.00 | 0.00 | 0.00 | 87 | 1022.0 |
| 20260906073205 | 54 | 82 | 0.9 | 1.7 | 0.00 | 0.00 | 0.00 | 87 | 1022.0 |
| 20260906073142 | 54 | 84 | 0.0 | 1.7 | 0.00 | 0.00 | 0.00 | 87 | 1022.0 |
| 20260906073138 | 54 | 84 | 0.0 | 3.5 | 0.00 | 0.00 | 0.00 | 87 | 1022.0 |
| 20260906073101 | 54 | 90 | 0.9 | 3.5 | 0.00 | 0.00 | 0.00 | 87 | 1022.0 |
| 20260906073045 | 54 | 94 | 0.9 | 3.5 | 0.00 | 0.00 | 0.00 | 87 | 1022.0 |
| 20260906073029 | 54 | 82 | 0.9 | 3.5 | 0.00 | 0.00 | 0.00 | 87 | 1022.0 |
| 20260906073013 | 54 | 96 | 0.9 | 3.5 | 0.00 | 0.00 | 0.00 | 87 | 1022.0 |
| 20260906073005 | 54 | 96 | 2.6 | 3.5 | 0.00 | 0.00 | 0.00 | 87 | 1022.0 |
| 20260906072957 | 54 | 96 | 2.6 | 3.5 | 0.00 | 0.00 | 0.00 | 87 | 1022.0 |
| 20260906072951 | 54 | 88 | 2.6 | 3.5 | 0.00 | 0.00 | 0.00 | 87 | 1022.0 |
| 20260906072919 | 54 | 67 | 2.6 | 2.6 | 0.00 | 0.00 | 0.00 | 87 | 1022.0 |
| 20260906072901 | 54 | 81 | 0.9 | 1.7 | 0.00 | 0.00 | 0.00 | 87 | 1022.0 |
| 20260906072845 | 54 | 101 | 0.0 | 1.7 | 0.00 | 0.00 | 0.00 | 87 | 1022.0 |
| 20260906072829 | 54 | 113 | 0.9 | 1.7 | 0.00 | 0.00 | 0.00 | 87 | 1022.0 |
| 20260906072815 | 54 | 118 | 0.9 | 1.7 | 0.00 | 0.00 | 0.00 | 87 | 1022.0 |
| 20260906072758 | 54 | 118 | 1.7 | 1.7 | 0.00 | 0.00 | 0.00 | 87 | 1022.0 |
| 20260906072741 | 54 | 91 | 0.9 | 1.7 | 0.00 | 0.00 | 0.00 | 87 | 1022.0 |
| 20260906072736 | 54 | 106 | 0.0 | 0.0 | 0.00 | 0.00 | 0.00 | 87 | 1022.0 |
| 20260906072712 | 54 | 113 | 0.0 | 0.0 | 0.00 | 0.00 | 0.00 | 87 | 1022.0 |
| 20260906072654 | 54 | 91 | 0.0 | 0.0 | 0.00 | 0.00 | 0.00 | 87 | 1022.0 |
| 20260906072637 | 54 | 105 | 0.0 | 0.0 | 0.00 | 0.00 | 0.00 | 87 | 1022.0 |
| 20260906072605 | 54 | 75 | 0.0 | 0.0 | 0.00 | 0.00 | 0.00 | 87 | 1022.0 |
| 20260906072549 | 54 | 89 | 0.0 | 0.0 | 0.00 | 0.00 | 0.00 | 87 | 1022.0 |
| 20260906072538 | 54 | 101 | 0.0 | 0.0 | 0.00 | 0.00 | 0.00 | 87 | 1022.0 |
| 20260906072501 | 54 | 87 | 0.0 | 0.0 | 0.00 | 0.00 | 0.00 | 87 | 1022.0 |
| 20260906072416 | 54 | 87 | 0.0 | 0.0 | 0.00 | 0.00 | 0.00 | 87 | 1022.0 |
| 20260906072312 | 54 | 87 | 0.0 | 0.0 | 0.00 | 0.00 | 0.00 | 87 | 1022.0 |
| 20260906072205 | 54 | 87 | 0.0 | 0.0 | 0.00 | 0.00 | 0.00 | 87 | 1022.0 |
| 20260906072141 | 54 | 87 | 0.0 | 0.0 | 0.00 | 0.00 | 0.00 | 87 | 1022.0 |
| 20260906072111 | 54 | 87 | 0.0 | 0.9 | 0.00 | 0.00 | 0.00 | 87 | 1022.0 |
| 20260906072001 | 54 | 87 | 0.0 | 0.9 | 0.00 | 0.00 | 0.00 | 87 | 1022.0 |
| 20260906071911 | 54 | 87 | 0.0 | 0.9 | 0.00 | 0.00 | 0.00 | 87 | 1022.0 |
| 20260906071821 | 54 | 87 | 0.0 | 0.9 | 0.00 | 0.00 | 0.00 | 87 | 1022.0 |
| 20260906071805 | 54 | 87 | 0.9 | 0.9 | 0.00 | 0.00 | 0.00 | 87 | 1022.0 |
| 20260906071750 | 54 | 87 | 0.0 | 0.9 | 0.00 | 0.00 | 0.00 | 87 | 1022.0 |
| 20260906071741 | 54 | 159 | 0.0 | 0.9 | 0.00 | 0.00 | 0.00 | 87 | 1022.0 |
| 20260906071701 | 54 | 159 | 0.0 | 0.9 | 0.00 | 0.00 | 0.00 | 87 | 1022.0 |
| 20260906071637 | 54 | 159 | 0.0 | 0.9 | 0.00 | 0.00 | 0.00 | 87 | 1022.0 |
| 20260906071629 | 54 | 159 | 0.0 | 1.7 | 0.00 | 0.00 | 0.00 | 87 | 1022.0 |
| 20260906071605 | 54 | 159 | 0.9 | 1.7 | 0.00 | 0.00 | 0.00 | 87 | 1022.0 |
| 20260906071559 | 54 | 183 | 0.0 | 1.7 | 0.00 | 0.00 | 0.00 | 87 | 1022.0 |
| 20260906071533 | 54 | 113 | 0.9 | 1.7 | 0.00 | 0.00 | 0.00 | 87 | 1022.0 |
| 20260906071530 | 54 | 146 | 0.9 | 1.7 | 0.00 | 0.00 | 0.00 | 87 | 1022.0 |
| 20260906071501 | 54 | 98 | 0.9 | 1.7 | 0.00 | 0.00 | 0.00 | 87 | 1022.0 |
| 20260906071455 | 54 | 133 | 0.9 | 1.7 | 0.00 | 0.00 | 0.00 | 87 | 1022.0 |
| 20260906071429 | 54 | 145 | 0.0 | 0.9 | 0.00 | 0.00 | 0.00 | 87 | 1022.0 |
| 20260906071413 | 54 | 150 | 0.0 | 0.0 | 0.00 | 0.00 | 0.00 | 87 | 1022.0 |
| 20260906071358 | 54 | 125 | 0.0 | 0.0 | 0.00 | 0.00 | 0.00 | 87 | 1022.0 |
| 20260906071352 | 54 | 132 | 0.0 | 0.0 | 0.00 | 0.00 | 0.00 | 87 | 1022.0 |
| 20260906071338 | 54 | 122 | 0.0 | 0.0 | 0.00 | 0.00 | 0.00 | 87 | 1022.0 |
| 20260906071302 | 54 | 140 | 0.0 | 0.0 | 0.00 | 0.00 | 0.00 | 87 | 1022.0 |
| 20260906071211 | 54 | 140 | 0.0 | 0.0 | 0.00 | 0.00 | 0.00 | 87 | 1022.0 |
| 20260906071102 | 54 | 140 | 0.0 | 0.0 | 0.00 | 0.00 | 0.00 | 87 | 1022.0 |
| 20260906071052 | 54 | 140 | 0.0 | 0.0 | 0.00 | 0.00 | 0.00 | 87 | 1022.0 |
| 20260906071006 | 54 | 140 | 0.0 | 0.0 | 0.00 | 0.00 | 0.00 | 87 | 1022.0 |
| 20260906070902 | 54 | 140 | 0.0 | 0.0 | 0.00 | 0.00 | 0.00 | 87 | 1022.0 |
| 20260906070806 | 54 | 140 | 0.0 | 0.0 | 0.00 | 0.00 | 0.00 | 87 | 1022.0 |
| 20260906070709 | 54 | 140 | 0.0 | 0.0 | 0.00 | 0.00 | 0.00 | 87 | 1022.0 |
| 20260906070706 | 54 | 140 | 0.0 | 1.7 | 0.00 | 0.00 | 0.00 | 87 | 1022.0 |
| 20260906070632 | 54 | 139 | 0.0 | 1.7 | 0.00 | 0.00 | 0.00 | 87 | 1022.0 |
| 20260906070605 | 54 | 135 | 0.0 | 1.7 | 0.00 | 0.00 | 0.00 | 87 | 1022.0 |
| 20260906070541 | 54 | 135 | 0.0 | 1.7 | 0.00 | 0.00 | 0.00 | 87 | 1022.0 |
| 20260906070526 | 54 | 135 | 0.9 | 1.7 | 0.00 | 0.00 | 0.00 | 87 | 1022.0 |
| 20260906070523 | 54 | 135 | 1.7 | 1.7 | 0.00 | 0.00 | 0.00 | 87 | 1022.0 |
| 20260906070453 | 54 | 90 | 0.9 | 2.6 | 0.00 | 0.00 | 0.00 | 87 | 1022.0 |
| 20260906070437 | 54 | 153 | 0.9 | 2.6 | 0.00 | 0.00 | 0.00 | 87 | 1022.0 |
| 20260906070432 | 54 | 79 | 0.9 | 2.6 | 0.00 | 0.00 | 0.00 | 87 | 1022.0 |
| 20260906070406 | 54 | 84 | 0.9 | 2.6 | 0.00 | 0.00 | 0.00 | 87 | 1022.0 |
| 20260906070349 | 54 | 89 | 1.7 | 2.6 | 0.00 | 0.00 | 0.00 | 87 | 1022.0 |
| 20260906070333 | 54 | 58 | 1.7 | 2.6 | 0.00 | 0.00 | 0.00 | 87 | 1022.0 |
| 20260906070317 | 54 | 70 | 1.7 | 2.6 | 0.00 | 0.00 | 0.00 | 87 | 1022.0 |
| 20260906070301 | 54 | 45 | 1.7 | 2.6 | 0.00 | 0.00 | 0.00 | 87 | 1022.0 |
| 20260906070253 | 54 | 45 | 1.7 | 2.6 | 0.00 | 0.00 | 0.00 | 87 | 1022.0 |
| 20260906070237 | 54 | 94 | 0.9 | 1.7 | 0.00 | 0.00 | 0.00 | 87 | 1022.0 |
| 20260906070232 | 54 | 58 | 0.9 | 1.7 | 0.00 | 0.00 | 0.00 | 87 | 1022.0 |
| 20260906070214 | 54 | 91 | 0.9 | 0.9 | 0.00 | 0.00 | 0.00 | 87 | 1022.0 |
| 20260906070205 | 54 | 91 | 0.9 | 1.7 | 0.00 | 0.00 | 0.00 | 87 | 1022.0 |
| 20260906070201 | 54 | 84 | 0.0 | 1.7 | 0.00 | 0.00 | 0.00 | 87 | 1022.0 |
| 20260906070133 | 54 | 92 | 0.0 | 1.7 | 0.00 | 0.00 | 0.00 | 87 | 1022.0 |
| 20260906070129 | 54 | 112 | 0.0 | 1.7 | 0.00 | 0.00 | 0.00 | 87 | 1022.0 |
| 20260906070112 | 54 | 104 | 0.9 | 1.7 | 0.00 | 0.00 | 0.00 | 87 | 1022.0 |
| 20260906070056 | 54 | 104 | 0.9 | 1.7 | 0.00 | 0.00 | 0.00 | 87 | 1022.0 |
| 20260906070040 | 54 | 65 | 0.9 | 1.7 | 0.00 | 0.00 | 0.00 | 87 | 1022.0 |
| 20260906070016 | 54 | 68 | 1.7 | 1.7 | 0.00 | 0.00 | 0.00 | 87 | 1022.0 |
| 20260906065958 | 54 | 117 | 0.9 | 1.7 | 0.00 | 0.00 | 0.00 | 87 | 1022.0 |
| 20260906065941 | 54 | 122 | 0.9 | 1.7 | 0.00 | 0.00 | 0.00 | 87 | 1022.0 |
| 20260906065925 | 54 | 82 | 0.0 | 0.9 | 0.00 | 0.00 | 0.00 | 87 | 1022.0 |
| 20260906065901 | 54 | 99 | 0.0 | 0.9 | 0.00 | 0.00 | 0.00 | 87 | 1022.0 |
| 20260906065838 | 54 | 99 | 0.0 | 0.9 | 0.00 | 0.00 | 0.00 | 87 | 1022.0 |
| 20260906065824 | 54 | 99 | 0.0 | 2.6 | 0.00 | 0.00 | 0.00 | 87 | 1022.0 |
| 20260906065808 | 54 | 83 | 0.0 | 2.6 | 0.00 | 0.00 | 0.00 | 87 | 1022.0 |
| 20260906065742 | 54 | 151 | 0.9 | 2.6 | 0.00 | 0.00 | 0.00 | 87 | 1022.0 |
| 20260906065725 | 54 | 101 | 0.9 | 2.6 | 0.00 | 0.00 | 0.00 | 87 | 1022.0 |
| 20260906065709 | 54 | 141 | 0.0 | 2.6 | 0.00 | 0.00 | 0.00 | 87 | 1022.0 |
| 20260906065702 | 54 | 115 | 1.7 | 2.6 | 0.00 | 0.00 | 0.00 | 87 | 1022.0 |
| 20260906065653 | 54 | 115 | 1.7 | 2.6 | 0.00 | 0.00 | 0.00 | 87 | 1022.0 |
| 20260906065641 | 54 | 78 | 0.0 | 0.9 | 0.00 | 0.00 | 0.00 | 87 | 1022.0 |
| 20260906065608 | 54 | 91 | 0.0 | 0.9 | 0.00 | 0.00 | 0.00 | 87 | 1022.0 |
| 20260906065552 | 54 | 100 | 0.9 | 0.9 | 0.00 | 0.00 | 0.00 | 87 | 1022.0 |
| 20260906065534 | 54 | 86 | 0.9 | 0.9 | 0.00 | 0.00 | 0.00 | 87 | 1022.0 |
| 20260906065517 | 54 | 92 | 0.9 | 0.9 | 0.00 | 0.00 | 0.00 | 87 | 1022.0 |
| 20260906065502 | 54 | 120 | 0.0 | 0.9 | 0.00 | 0.00 | 0.00 | 87 | 1022.0 |
| 20260906065456 | 54 | 94 | 0.0 | 0.0 | 0.00 | 0.00 | 0.00 | 87 | 1022.0 |
| 20260906065429 | 54 | 104 | 0.0 | 0.0 | 0.00 | 0.00 | 0.00 | 87 | 1022.0 |
| 20260906065417 | 54 | 105 | 0.0 | 0.0 | 0.00 | 0.00 | 0.00 | 87 | 1022.0 |
| 20260906065310 | 54 | 76 | 0.0 | 0.9 | 0.00 | 0.00 | 0.00 | 87 | 1022.0 |
| 20260906065305 | 54 | 76 | 0.0 | 1.7 | 0.00 | 0.00 | 0.00 | 87 | 1022.0 |
| 20260906065246 | 54 | 76 | 0.0 | 1.7 | 0.00 | 0.00 | 0.00 | 87 | 1022.0 |
| 20260906065237 | 54 | 85 | 0.0 | 1.7 | 0.00 | 0.00 | 0.00 | 87 | 1022.0 |
| 20260906065229 | 54 | 85 | 0.0 | 2.6 | 0.00 | 0.00 | 0.00 | 87 | 1022.0 |
| 20260906065216 | 54 | 107 | 0.0 | 2.6 | 0.00 | 0.00 | 0.00 | 87 | 1022.0 |
| 20260906065159 | 54 | 76 | 0.9 | 2.6 | 0.00 | 0.00 | 0.00 | 87 | 1022.0 |
| 20260906065141 | 54 | 119 | 0.9 | 2.6 | 0.00 | 0.00 | 0.00 | 87 | 1022.0 |
| 20260906065128 | 54 | 94 | 0.9 | 2.6 | 0.00 | 0.00 | 0.00 | 87 | 1022.0 |
| 20260906065110 | 54 | 73 | 1.7 | 2.6 | 0.00 | 0.00 | 0.00 | 87 | 1022.0 |
| 20260906065102 | 54 | 130 | 1.7 | 2.6 | 0.00 | 0.00 | 0.00 | 87 | 1022.0 |
| 20260906065053 | 54 | 130 | 1.7 | 2.6 | 0.00 | 0.00 | 0.00 | 87 | 1022.0 |
| 20260906065047 | 54 | 102 | 1.7 | 2.6 | 0.00 | 0.00 | 0.00 | 87 | 1022.0 |
| 20260906065021 | 54 | 135 | 0.0 | 0.9 | 0.00 | 0.00 | 0.00 | 87 | 1022.0 |
| 20260906065016 | 54 | 78 | 0.0 | 0.9 | 0.00 | 0.00 | 0.00 | 87 | 1022.0 |
| 20260906064941 | 54 | 78 | 0.0 | 1.7 | 0.00 | 0.00 | 0.00 | 87 | 1022.0 |
| 20260906064925 | 54 | 78 | 0.9 | 1.7 | 0.00 | 0.00 | 0.00 | 87 | 1022.0 |
| 20260906064909 | 54 | 132 | 0.0 | 1.7 | 0.00 | 0.00 | 0.00 | 87 | 1022.0 |
| 20260906064904 | 54 | 134 | 0.0 | 1.7 | 0.00 | 0.00 | 0.00 | 87 | 1022.0 |
| 20260906064837 | 54 | 109 | 0.9 | 1.7 | 0.00 | 0.00 | 0.00 | 87 | 1022.0 |
| 20260906064823 | 54 | 131 | 0.9 | 2.6 | 0.00 | 0.00 | 0.00 | 87 | 1022.0 |
| 20260906064805 | 54 | 94 | 0.9 | 2.6 | 0.00 | 0.00 | 0.00 | 87 | 1022.0 |
| 20260906064749 | 54 | 94 | 0.0 | 2.6 | 0.00 | 0.00 | 0.00 | 87 | 1022.0 |
| 20260906064733 | 54 | 106 | 0.0 | 2.6 | 0.00 | 0.00 | 0.00 | 87 | 1022.0 |
| 20260906064717 | 54 | 108 | 1.7 | 2.6 | 0.00 | 0.00 | 0.00 | 87 | 1022.0 |
| 20260906064701 | 54 | 74 | 0.9 | 2.6 | 0.00 | 0.00 | 0.00 | 87 | 1022.0 |
| 20260906064646 | 54 | 128 | 0.9 | 2.6 | 0.00 | 0.00 | 0.00 | 87 | 1022.0 |
| 20260906064629 | 54 | 163 | 1.7 | 1.7 | 0.00 | 0.00 | 0.00 | 87 | 1022.0 |
| 20260906064613 | 54 | 116 | 0.0 | 0.0 | 0.00 | 0.00 | 0.00 | 87 | 1022.0 |
| 20260906064606 | 54 | 89 | 0.0 | 0.0 | 0.00 | 0.00 | 0.00 | 87 | 1022.0 |
| 20260906064557 | 54 | 89 | 0.0 | 0.0 | 0.00 | 0.00 | 0.00 | 87 | 1022.0 |
| 20260906064542 | 54 | 95 | 0.0 | 0.0 | 0.00 | 0.00 | 0.00 | 87 | 1022.0 |
| 20260906064530 | 54 | 107 | 0.0 | 0.0 | 0.00 | 0.00 | 0.00 | 87 | 1022.0 |
| 20260906064502 | 54 | 76 | 0.0 | 0.0 | 0.00 | 0.00 | 0.00 | 87 | 1022.0 |
| 20260906064456 | 54 | 209 | 0.0 | 0.0 | 0.00 | 0.00 | 0.00 | 87 | 1022.0 |
| 20260906064429 | 54 | 142 | 0.0 | 0.0 | 0.00 | 0.00 | 0.00 | 87 | 1022.0 |
| 20260906064408 | 54 | 116 | 0.0 | 0.0 | 0.00 | 0.00 | 0.00 | 86 | 1022.0 |
| 20260906064341 | 54 | 122 | 0.0 | 0.0 | 0.00 | 0.00 | 0.00 | 86 | 1022.0 |
| 20260906064325 | 54 | 95 | 0.0 | 0.0 | 0.00 | 0.00 | 0.00 | 86 | 1022.0 |
| 20260906064309 | 54 | 85 | 0.0 | 0.0 | 0.00 | 0.00 | 0.00 | 86 | 1022.0 |
| 20260906064301 | 54 | 122 | 0.0 | 0.0 | 0.00 | 0.00 | 0.00 | 86 | 1022.0 |
| 20260906064221 | 54 | 122 | 0.0 | 0.0 | 0.00 | 0.00 | 0.00 | 86 | 1022.0 |
| 20260906064205 | 54 | 122 | 0.0 | 0.0 | 0.00 | 0.00 | 0.00 | 87 | 1022.0 |
| 20260906064133 | 54 | 122 | 0.0 | 0.0 | 0.00 | 0.00 | 0.00 | 87 | 1022.0 |
| 20260906064117 | 54 | 79 | 0.0 | 0.0 | 0.00 | 0.00 | 0.00 | 87 | 1022.0 |
| 20260906064102 | 54 | 102 | 0.0 | 0.0 | 0.00 | 0.00 | 0.00 | 87 | 1022.0 |
| 20260906064053 | 54 | 102 | 0.0 | 0.0 | 0.00 | 0.00 | 0.00 | 87 | 1022.0 |
| 20260906064048 | 54 | 121 | 0.0 | 0.0 | 0.00 | 0.00 | 0.00 | 87 | 1022.0 |
| 20260906064013 | 54 | 122 | 0.0 | 0.0 | 0.00 | 0.00 | 0.00 | 87 | 1022.0 |
| 20260906064005 | 54 | 122 | 0.0 | 0.0 | 0.00 | 0.00 | 0.00 | 86 | 1022.0 |
| 20260906063949 | 54 | 104 | 0.0 | 0.0 | 0.00 | 0.00 | 0.00 | 86 | 1022.0 |
| 20260906063941 | 54 | 102 | 0.0 | 0.0 | 0.00 | 0.00 | 0.00 | 86 | 1022.0 |
| 20260906063933 | 54 | 102 | 0.0 | 0.9 | 0.00 | 0.00 | 0.00 | 86 | 1022.0 |
| 20260906063917 | 54 | 158 | 0.0 | 0.9 | 0.00 | 0.00 | 0.00 | 86 | 1022.0 |
| 20260906063910 | 54 | 134 | 0.0 | 0.9 | 0.00 | 0.00 | 0.00 | 86 | 1022.0 |
| 20260906063901 | 54 | 134 | 0.0 | 1.7 | 0.00 | 0.00 | 0.00 | 86 | 1022.0 |
| 20260906063848 | 54 | 94 | 0.0 | 1.7 | 0.00 | 0.00 | 0.00 | 86 | 1022.0 |
| 20260906063829 | 54 | 75 | 0.0 | 1.7 | 0.00 | 0.00 | 0.00 | 86 | 1022.0 |
| 20260906063813 | 54 | 79 | 0.0 | 1.7 | 0.00 | 0.00 | 0.00 | 86 | 1022.0 |
| 20260906063805 | 54 | 83 | 0.0 | 1.7 | 0.00 | 0.00 | 0.00 | 86 | 1022.0 |
| 20260906063757 | 54 | 83 | 0.0 | 1.7 | 0.00 | 0.00 | 0.00 | 86 | 1022.0 |
| 20260906063741 | 54 | 82 | 1.7 | 1.7 | 0.00 | 0.00 | 0.00 | 86 | 1022.0 |
| 20260906063726 | 54 | 134 | 0.9 | 0.9 | 0.00 | 0.00 | 0.00 | 86 | 1022.0 |
| 20260906063647 | 54 | 108 | 0.0 | 1.7 | 0.00 | 0.00 | 0.00 | 86 | 1022.0 |
| 20260906063625 | 54 | 109 | 0.0 | 1.7 | 0.00 | 0.00 | 0.00 | 86 | 1022.0 |
| 20260906063605 | 54 | 108 | 0.0 | 1.7 | 0.00 | 0.00 | 0.00 | 86 | 1022.0 |
| 20260906063558 | 54 | 108 | 0.0 | 1.7 | 0.00 | 0.00 | 0.00 | 86 | 1022.0 |
| 20260906063541 | 54 | 109 | 0.9 | 1.7 | 0.00 | 0.00 | 0.00 | 86 | 1022.0 |
| 20260906063526 | 54 | 108 | 1.7 | 1.7 | 0.00 | 0.00 | 0.00 | 86 | 1022.0 |
| 20260906063509 | 54 | 60 | 0.9 | 1.7 | 0.00 | 0.00 | 0.00 | 86 | 1022.0 |
| 20260906063501 | 54 | 96 | 1.7 | 1.7 | 0.00 | 0.00 | 0.00 | 86 | 1022.0 |
| 20260906063453 | 54 | 96 | 1.7 | 1.7 | 0.00 | 0.00 | 0.00 | 86 | 1022.0 |
| 20260906063437 | 54 | 72 | 1.7 | 1.7 | 0.00 | 0.00 | 0.00 | 86 | 1022.0 |
| 20260906063422 | 54 | 122 | 1.7 | 1.7 | 0.00 | 0.00 | 0.00 | 86 | 1022.0 |
| 20260906063418 | 54 | 61 | 0.9 | 1.7 | 0.00 | 0.00 | 0.00 | 86 | 1022.0 |
| 20260906063330 | 54 | 53 | 0.0 | 0.0 | 0.00 | 0.00 | 0.00 | 86 | 1022.0 |
| 20260906063302 | 54 | 53 | 0.0 | 1.7 | 0.00 | 0.00 | 0.00 | 86 | 1022.0 |
| 20260906063214 | 54 | 52 | 0.0 | 1.7 | 0.00 | 0.00 | 0.00 | 86 | 1022.0 |
| 20260906063205 | 54 | 52 | 0.0 | 2.6 | 0.00 | 0.00 | 0.00 | 86 | 1022.0 |
| 20260906063133 | 54 | 51 | 0.0 | 2.6 | 0.00 | 0.00 | 0.00 | 86 | 1022.0 |
| 20260906063117 | 54 | 86 | 0.9 | 2.6 | 0.00 | 0.00 | 0.00 | 86 | 1022.0 |
| 20260906063101 | 54 | 81 | 1.7 | 2.6 | 0.00 | 0.00 | 0.00 | 86 | 1022.0 |
| 20260906063056 | 54 | 105 | 0.9 | 2.6 | 0.00 | 0.00 | 0.00 | 86 | 1022.0 |
| 20260906063040 | 54 | 80 | 0.9 | 2.6 | 0.00 | 0.00 | 0.00 | 86 | 1022.0 |
| 20260906063013 | 54 | 109 | 1.7 | 2.6 | 0.00 | 0.00 | 0.00 | 86 | 1022.0 |
| 20260906063006 | 54 | 73 | 0.9 | 1.7 | 0.00 | 0.00 | 0.00 | 86 | 1022.0 |
| 20260906062957 | 54 | 73 | 0.9 | 1.7 | 0.00 | 0.00 | 0.00 | 86 | 1022.0 |
| 20260906062942 | 54 | 93 | 0.9 | 0.9 | 0.00 | 0.00 | 0.00 | 86 | 1022.0 |
| 20260906062925 | 54 | 99 | 0.0 | 0.0 | 0.00 | 0.00 | 0.00 | 86 | 1022.0 |
| 20260906062909 | 54 | 149 | 0.0 | 0.0 | 0.00 | 0.00 | 0.00 | 86 | 1022.0 |
| 20260906062904 | 54 | 98 | 0.0 | 0.0 | 0.00 | 0.00 | 0.00 | 86 | 1022.0 |
| 20260906062821 | 54 | 84 | 0.0 | 0.0 | 0.00 | 0.00 | 0.00 | 86 | 1022.0 |
| 20260906062809 | 54 | 88 | 0.0 | 0.0 | 0.00 | 0.00 | 0.00 | 86 | 1022.0 |
| 20260906062719 | 54 | 101 | 0.0 | 0.0 | 0.00 | 0.00 | 0.00 | 86 | 1022.0 |
| 20260906062701 | 54 | 91 | 0.0 | 0.0 | 0.00 | 0.00 | 0.00 | 86 | 1022.0 |
| 20260906062653 | 54 | 91 | 0.0 | 0.0 | 0.00 | 0.00 | 0.00 | 86 | 1022.0 |
| 20260906062645 | 54 | 81 | 0.0 | 0.0 | 0.00 | 0.00 | 0.00 | 86 | 1022.0 |
| 20260906062608 | 54 | 59 | 0.0 | 0.0 | 0.00 | 0.00 | 0.00 | 86 | 1022.0 |
| 20260906062549 | 54 | 76 | 0.0 | 0.0 | 0.00 | 0.00 | 0.00 | 86 | 1022.0 |
| 20260906062533 | 54 | 65 | 0.0 | 0.0 | 0.00 | 0.00 | 0.00 | 86 | 1022.0 |
| 20260906062517 | 54 | 41 | 0.0 | 0.0 | 0.00 | 0.00 | 0.00 | 86 | 1022.0 |
| 20260906062509 | 54 | 11 | 0.0 | 0.0 | 0.00 | 0.00 | 0.00 | 86 | 1022.0 |
| 20260906062502 | 54 | 11 | 0.0 | 0.9 | 0.00 | 0.00 | 0.00 | 86 | 1022.0 |
| 20260906062445 | 54 | 13 | 0.0 | 0.9 | 0.00 | 0.00 | 0.00 | 86 | 1022.0 |
| 20260906062429 | 54 | 14 | 0.0 | 0.9 | 0.00 | 0.00 | 0.00 | 86 | 1022.0 |
| 20260906062413 | 54 | 42 | 0.0 | 0.9 | 0.00 | 0.00 | 0.00 | 86 | 1022.0 |
| 20260906062408 | 54 | 70 | 0.0 | 2.6 | 0.00 | 0.00 | 0.00 | 86 | 1022.0 |
| 20260906062351 | 54 | 80 | 0.0 | 2.6 | 0.00 | 0.00 | 0.00 | 86 | 1022.0 |
| 20260906062317 | 54 | 55 | 0.0 | 2.6 | 0.00 | 0.00 | 0.00 | 86 | 1022.0 |
| 20260906062306 | 54 | 84 | 0.0 | 2.6 | 0.00 | 0.00 | 0.00 | 86 | 1022.0 |
| 20260906062245 | 54 | 70 | 0.9 | 2.6 | 0.00 | 0.00 | 0.00 | 86 | 1022.0 |
| 20260906062229 | 54 | 83 | 1.7 | 2.6 | 0.00 | 0.00 | 0.00 | 86 | 1022.0 |
| 20260906062213 | 54 | 115 | 2.6 | 2.6 | 0.00 | 0.00 | 0.00 | 86 | 1022.0 |
| 20260906062200 | 54 | 103 | 1.7 | 2.6 | 0.00 | 0.00 | 0.00 | 86 | 1022.0 |
| 20260906062141 | 54 | 61 | 1.7 | 2.6 | 0.00 | 0.00 | 0.00 | 86 | 1022.0 |
| 20260906062135 | 54 | 94 | 1.7 | 2.6 | 0.00 | 0.00 | 0.00 | 86 | 1022.0 |
| 20260906062111 | 54 | 81 | 1.7 | 2.6 | 0.00 | 0.00 | 0.00 | 86 | 1022.0 |
| 20260906062053 | 54 | 113 | 1.7 | 2.6 | 0.00 | 0.00 | 0.00 | 86 | 1022.0 |
| 20260906062039 | 54 | 97 | 1.7 | 1.7 | 0.00 | 0.00 | 0.00 | 86 | 1022.0 |
| 20260906062013 | 54 | 67 | 0.0 | 0.0 | 0.00 | 0.00 | 0.00 | 86 | 1022.0 |
| 20260906062010 | 54 | 67 | 0.0 | 1.7 | 0.00 | 0.00 | 0.00 | 86 | 1022.0 |
| 20260906061933 | 54 | 78 | 0.0 | 1.7 | 0.00 | 0.00 | 0.00 | 86 | 1022.0 |
| 20260906061856 | 54 | 57 | 0.0 | 1.7 | 0.00 | 0.00 | 0.00 | 86 | 1022.0 |
| 20260906061838 | 54 | 54 | 0.9 | 1.7 | 0.00 | 0.00 | 0.00 | 86 | 1022.0 |
| 20260906061821 | 54 | 82 | 0.9 | 1.7 | 0.00 | 0.00 | 0.00 | 86 | 1022.0 |
| 20260906061805 | 54 | 97 | 0.9 | 1.7 | 0.00 | 0.00 | 0.00 | 86 | 1022.0 |
| 20260906061741 | 54 | 5 | 0.9 | 1.7 | 0.00 | 0.00 | 0.00 | 86 | 1022.0 |
| 20260906061734 | 54 | 5 | 0.9 | 2.6 | 0.00 | 0.00 | 0.00 | 86 | 1022.0 |
| 20260906061718 | 54 | 18 | 1.7 | 2.6 | 0.00 | 0.00 | 0.00 | 86 | 1022.0 |
| 20260906061701 | 54 | 18 | 0.9 | 2.6 | 0.00 | 0.00 | 0.00 | 86 | 1022.0 |
| 20260906061645 | 54 | 74 | 0.9 | 2.6 | 0.00 | 0.00 | 0.00 | 86 | 1022.0 |
| 20260906061630 | 54 | 66 | 0.9 | 2.6 | 0.00 | 0.00 | 0.00 | 86 | 1022.0 |
| 20260906061613 | 54 | 75 | 1.7 | 2.6 | 0.00 | 0.00 | 0.00 | 86 | 1022.0 |
| 20260906061605 | 54 | 77 | 1.7 | 2.6 | 0.00 | 0.00 | 0.00 | 86 | 1022.0 |
| 20260906061542 | 54 | 77 | 1.7 | 2.6 | 0.00 | 0.00 | 0.00 | 86 | 1022.0 |
| 20260906061526 | 54 | 86 | 2.6 | 2.6 | 0.00 | 0.00 | 0.00 | 86 | 1022.0 |
| 20260906061509 | 54 | 103 | 2.6 | 2.6 | 0.00 | 0.00 | 0.00 | 86 | 1022.0 |
| 20260906061504 | 54 | 69 | 1.7 | 3.5 | 0.00 | 0.00 | 0.00 | 86 | 1022.0 |
| 20260906061429 | 54 | 94 | 1.7 | 3.5 | 0.00 | 0.00 | 0.00 | 86 | 1022.0 |
| 20260906061424 | 54 | 102 | 2.6 | 3.5 | 0.00 | 0.00 | 0.00 | 86 | 1022.0 |
| 20260906061405 | 54 | 120 | 2.6 | 3.5 | 0.00 | 0.00 | 0.00 | 86 | 1022.0 |
| 20260906061357 | 54 | 120 | 2.6 | 3.5 | 0.00 | 0.00 | 0.00 | 86 | 1022.0 |
| 20260906061351 | 54 | 112 | 1.7 | 3.5 | 0.00 | 0.00 | 0.00 | 86 | 1022.0 |
| 20260906061328 | 54 | 88 | 2.6 | 5.2 | 0.00 | 0.00 | 0.00 | 86 | 1022.0 |
| 20260906061309 | 54 | 62 | 3.5 | 5.2 | 0.00 | 0.00 | 0.00 | 86 | 1022.0 |
| 20260906061301 | 54 | 116 | 1.7 | 5.2 | 0.00 | 0.00 | 0.00 | 86 | 1022.0 |
| 20260906061253 | 54 | 116 | 1.7 | 5.2 | 0.00 | 0.00 | 0.00 | 86 | 1022.0 |
| 20260906061237 | 54 | 83 | 1.7 | 5.2 | 0.00 | 0.00 | 0.00 | 86 | 1022.0 |
| 20260906061205 | 54 | 96 | 2.6 | 5.2 | 0.00 | 0.00 | 0.00 | 86 | 1022.0 |
| 20260906061153 | 54 | 95 | 3.5 | 5.2 | 0.00 | 0.00 | 0.00 | 86 | 1022.0 |
| 20260906061129 | 54 | 87 | 3.5 | 5.2 | 0.00 | 0.00 | 0.00 | 86 | 1022.0 |
| 20260906061101 | 54 | 103 | 2.6 | 3.5 | 0.00 | 0.00 | 0.00 | 86 | 1022.0 |
| 20260906061045 | 54 | 125 | 1.7 | 2.6 | 0.00 | 0.00 | 0.00 | 86 | 1022.0 |
| 20260906061029 | 54 | 85 | 2.6 | 2.6 | 0.00 | 0.00 | 0.00 | 86 | 1022.0 |
| 20260906061006 | 54 | 106 | 1.7 | 2.6 | 0.00 | 0.00 | 0.00 | 86 | 1022.0 |
| 20260906060949 | 54 | 81 | 1.7 | 2.6 | 0.00 | 0.00 | 0.00 | 86 | 1022.0 |
| 20260906060933 | 54 | 83 | 1.7 | 2.6 | 0.00 | 0.00 | 0.00 | 86 | 1022.0 |
| 20260906060918 | 54 | 69 | 1.7 | 1.7 | 0.00 | 0.00 | 0.00 | 86 | 1022.0 |
| 20260906060909 | 54 | 64 | 0.9 | 1.7 | 0.00 | 0.00 | 0.00 | 86 | 1022.0 |
| 20260906060901 | 54 | 64 | 0.9 | 2.6 | 0.00 | 0.00 | 0.00 | 86 | 1022.0 |
| 20260906060846 | 54 | 94 | 0.9 | 2.6 | 0.00 | 0.00 | 0.00 | 86 | 1022.0 |
| 20260906060829 | 54 | 101 | 0.9 | 2.6 | 0.00 | 0.00 | 0.00 | 86 | 1022.0 |
| 20260906060808 | 54 | 104 | 1.7 | 2.6 | 0.00 | 0.00 | 0.00 | 86 | 1022.0 |
| 20260906060741 | 54 | 51 | 1.7 | 2.6 | 0.00 | 0.00 | 0.00 | 86 | 1022.0 |
| 20260906060735 | 54 | 78 | 1.7 | 2.6 | 0.00 | 0.00 | 0.00 | 86 | 1022.0 |
| 20260906060710 | 54 | 64 | 0.9 | 2.6 | 0.00 | 0.00 | 0.00 | 86 | 1022.0 |
| 20260906060701 | 54 | 74 | 1.7 | 2.6 | 0.00 | 0.00 | 0.00 | 86 | 1022.0 |
| 20260906060653 | 54 | 74 | 1.7 | 2.6 | 0.00 | 0.00 | 0.00 | 86 | 1022.0 |
| 20260906060637 | 54 | 77 | 1.7 | 2.6 | 0.00 | 0.00 | 0.00 | 86 | 1022.0 |
| 20260906060621 | 54 | 59 | 0.9 | 2.6 | 0.00 | 0.00 | 0.00 | 86 | 1022.0 |
| 20260906060605 | 54 | 38 | 1.7 | 2.6 | 0.00 | 0.00 | 0.00 | 86 | 1022.0 |
| 20260906060543 | 54 | 82 | 2.6 | 2.6 | 0.00 | 0.00 | 0.00 | 86 | 1022.0 |
| 20260906060527 | 54 | 118 | 2.6 | 2.6 | 0.00 | 0.00 | 0.00 | 86 | 1022.0 |
| 20260906060509 | 54 | 104 | 2.6 | 2.6 | 0.00 | 0.00 | 0.00 | 86 | 1022.0 |
| 20260906060502 | 54 | 41 | 0.9 | 1.7 | 0.00 | 0.00 | 0.00 | 86 | 1022.0 |
| 20260906060452 | 54 | 62 | 0.9 | 0.9 | 0.00 | 0.00 | 0.00 | 86 | 1022.0 |
| 20260906060413 | 54 | 87 | 0.0 | 0.9 | 0.00 | 0.00 | 0.00 | 86 | 1022.0 |
| 20260906060405 | 54 | 87 | 0.0 | 1.7 | 0.00 | 0.00 | 0.00 | 86 | 1022.0 |
| 20260906060349 | 54 | 82 | 0.0 | 1.7 | 0.00 | 0.00 | 0.00 | 86 | 1022.0 |
| 20260906060341 | 54 | 89 | 0.9 | 1.7 | 0.00 | 0.00 | 0.00 | 86 | 1022.0 |
| 20260906060333 | 54 | 89 | 0.9 | 3.5 | 0.00 | 0.00 | 0.00 | 86 | 1022.0 |
| 20260906060317 | 54 | 74 | 0.9 | 3.5 | 0.00 | 0.00 | 0.00 | 86 | 1022.0 |
| 20260906060301 | 54 | 88 | 0.9 | 3.5 | 0.00 | 0.00 | 0.00 | 86 | 1022.0 |
| 20260906060245 | 54 | 97 | 0.9 | 3.5 | 0.00 | 0.00 | 0.00 | 86 | 1022.0 |
| 20260906060229 | 54 | 65 | 1.7 | 3.5 | 0.00 | 0.00 | 0.00 | 86 | 1022.0 |
| 20260906060213 | 54 | 89 | 1.7 | 3.5 | 0.00 | 0.00 | 0.00 | 86 | 1022.0 |
| 20260906060208 | 54 | 100 | 1.7 | 2.6 | 0.00 | 0.00 | 0.00 | 86 | 1022.0 |
| 20260906060141 | 54 | 63 | 0.9 | 1.7 | 0.00 | 0.00 | 0.00 | 86 | 1022.0 |
| 20260906060138 | 54 | 47 | 0.0 | 0.9 | 0.00 | 0.00 | 0.00 | 86 | 1022.0 |
| 20260906060106 | 54 | 50 | 0.0 | 0.0 | 0.00 | 0.00 | 0.00 | 86 | 1022.0 |
| 20260906060013 | 54 | 56 | 0.0 | 0.0 | 0.00 | 0.00 | 0.00 | 86 | 1022.0 |
| 20260906060006 | 54 | 53 | 0.0 | 0.0 | 0.00 | 0.00 | 0.00 | 86 | 1022.0 |
| 20260906055957 | 54 | 53 | 0.0 | 0.9 | 0.00 | 0.00 | 0.02 | 86 | 1022.0 |
| 20260906055942 | 54 | 42 | 0.0 | 0.9 | 0.00 | 0.00 | 0.02 | 86 | 1022.0 |
| 20260906055935 | 54 | 65 | 0.0 | 1.7 | 0.00 | 0.00 | 0.02 | 86 | 1022.0 |
| 20260906055911 | 54 | 40 | 0.0 | 1.7 | 0.00 | 0.00 | 0.02 | 86 | 1022.0 |
| 20260906055853 | 54 | 74 | 0.0 | 2.6 | 0.00 | 0.00 | 0.02 | 86 | 1022.0 |
| 20260906055850 | 54 | 47 | 0.9 | 2.6 | 0.00 | 0.00 | 0.02 | 86 | 1022.0 |
| 20260906055821 | 54 | 65 | 0.9 | 2.6 | 0.00 | 0.00 | 0.02 | 86 | 1022.0 |
| 20260906055810 | 54 | 75 | 0.9 | 2.6 | 0.00 | 0.00 | 0.02 | 86 | 1022.0 |
| 20260906055744 | 54 | 46 | 1.7 | 2.6 | 0.00 | 0.00 | 0.02 | 86 | 1022.0 |
| 20260906055720 | 54 | 53 | 0.9 | 1.7 | 0.00 | 0.00 | 0.02 | 86 | 1022.0 |
| 20260906055701 | 54 | 58 | 0.0 | 1.7 | 0.00 | 0.00 | 0.02 | 86 | 1022.0 |
| 20260906055653 | 54 | 58 | 0.0 | 1.7 | 0.00 | 0.00 | 0.02 | 86 | 1022.0 |
| 20260906055637 | 54 | 67 | 0.9 | 1.7 | 0.00 | 0.00 | 0.02 | 86 | 1022.0 |
| 20260906055629 | 54 | 70 | 0.9 | 1.7 | 0.00 | 0.00 | 0.02 | 86 | 1022.0 |
| 20260906055621 | 54 | 70 | 0.9 | 1.7 | 0.00 | 0.00 | 0.02 | 85 | 1022.0 |
| 20260906055605 | 54 | 89 | 0.9 | 0.9 | 0.00 | 0.00 | 0.02 | 85 | 1022.0 |
| 20260906055549 | 54 | 77 | 0.9 | 0.9 | 0.00 | 0.00 | 0.02 | 85 | 1022.0 |
| 20260906055536 | 54 | 76 | 0.0 | 0.9 | 0.00 | 0.00 | 0.02 | 85 | 1022.0 |
| 20260906055517 | 54 | 43 | 0.9 | 0.9 | 0.00 | 0.00 | 0.02 | 85 | 1022.0 |
| 20260906055501 | 54 | 67 | 0.9 | 0.9 | 0.00 | 0.00 | 0.02 | 85 | 1022.0 |
| 20260906055450 | 54 | 37 | 0.0 | 0.9 | 0.00 | 0.00 | 0.02 | 85 | 1022.0 |
| 20260906055423 | 54 | 52 | 0.9 | 1.7 | 0.00 | 0.00 | 0.02 | 85 | 1022.0 |
| 20260906055405 | 54 | 76 | 0.9 | 1.7 | 0.00 | 0.00 | 0.02 | 85 | 1022.0 |
| 20260906055357 | 54 | 76 | 0.9 | 1.7 | 0.00 | 0.00 | 0.02 | 85 | 1022.0 |
| 20260906055341 | 54 | 81 | 0.0 | 1.7 | 0.00 | 0.00 | 0.02 | 85 | 1022.0 |
| 20260906055325 | 54 | 54 | 0.0 | 1.7 | 0.00 | 0.00 | 0.02 | 85 | 1022.0 |
| 20260906055309 | 54 | 60 | 0.9 | 1.7 | 0.00 | 0.00 | 0.02 | 85 | 1022.0 |
| 20260906055301 | 54 | 43 | 1.7 | 1.7 | 0.00 | 0.00 | 0.02 | 85 | 1022.0 |
| 20260906055253 | 54 | 43 | 1.7 | 1.7 | 0.00 | 0.00 | 0.02 | 85 | 1022.0 |
| 20260906055230 | 54 | 75 | 0.9 | 1.7 | 0.00 | 0.00 | 0.02 | 85 | 1022.0 |
| 20260906055223 | 54 | 60 | 0.0 | 0.9 | 0.00 | 0.00 | 0.02 | 85 | 1022.0 |
| 20260906055207 | 54 | 57 | 0.0 | 0.9 | 0.00 | 0.00 | 0.02 | 85 | 1022.0 |
| 20260906055141 | 54 | 67 | 0.9 | 0.9 | 0.00 | 0.00 | 0.02 | 85 | 1022.0 |
| 20260906055130 | 54 | 63 | 0.0 | 0.9 | 0.00 | 0.00 | 0.02 | 85 | 1022.0 |
| 20260906055100 | 54 | 80 | 0.0 | 0.9 | 0.00 | 0.00 | 0.02 | 85 | 1022.0 |
| 20260906055021 | 54 | 60 | 0.0 | 0.9 | 0.00 | 0.00 | 0.02 | 85 | 1022.0 |
| 20260906055013 | 54 | 77 | 0.0 | 0.9 | 0.00 | 0.00 | 0.02 | 85 | 1022.0 |
| 20260906055004 | 54 | 77 | 0.0 | 2.6 | 0.00 | 0.00 | 0.02 | 85 | 1022.0 |
| 20260906054959 | 54 | 77 | 0.0 | 2.6 | 0.00 | 0.00 | 0.02 | 85 | 1022.0 |
| 20260906054941 | 54 | 76 | 0.9 | 2.6 | 0.00 | 0.00 | 0.02 | 85 | 1022.0 |
| 20260906054933 | 54 | 76 | 0.9 | 3.5 | 0.00 | 0.00 | 0.02 | 85 | 1022.0 |
| 20260906054917 | 54 | 111 | 0.9 | 3.5 | 0.00 | 0.00 | 0.02 | 85 | 1022.0 |
| 20260906054901 | 54 | 44 | 0.9 | 3.5 | 0.00 | 0.00 | 0.02 | 85 | 1022.0 |
| 20260906054829 | 54 | 85 | 1.7 | 3.5 | 0.00 | 0.00 | 0.02 | 85 | 1022.0 |
| 20260906054826 | 54 | 104 | 1.7 | 3.5 | 0.00 | 0.00 | 0.02 | 85 | 1022.0 |
| 20260906054749 | 54 | 56 | 2.6 | 3.5 | 0.00 | 0.00 | 0.02 | 85 | 1022.0 |
| 20260906054736 | 54 | 102 | 1.7 | 1.7 | 0.00 | 0.00 | 0.02 | 85 | 1022.0 |
| 20260906054719 | 54 | 92 | 0.9 | 1.7 | 0.00 | 0.00 | 0.02 | 85 | 1022.0 |
| 20260906054701 | 54 | 46 | 0.9 | 1.7 | 0.00 | 0.00 | 0.02 | 85 | 1022.0 |
| 20260906054645 | 54 | 100 | 0.9 | 1.7 | 0.00 | 0.00 | 0.02 | 85 | 1022.0 |
| 20260906054632 | 54 | 67 | 0.9 | 1.7 | 0.00 | 0.00 | 0.02 | 85 | 1022.0 |
| 20260906054613 | 54 | 73 | 0.9 | 1.7 | 0.00 | 0.00 | 0.02 | 85 | 1022.0 |
| 20260906054605 | 54 | 66 | 1.7 | 1.7 | 0.00 | 0.00 | 0.02 | 85 | 1022.0 |
| 20260906054557 | 54 | 66 | 1.7 | 1.7 | 0.00 | 0.00 | 0.02 | 85 | 1022.0 |
| 20260906054541 | 54 | 51 | 0.9 | 1.7 | 0.00 | 0.00 | 0.02 | 85 | 1022.0 |
| 20260906054536 | 54 | 41 | 0.9 | 1.7 | 0.00 | 0.00 | 0.02 | 85 | 1022.0 |
| 20260906054509 | 54 | 46 | 0.9 | 1.7 | 0.00 | 0.00 | 0.02 | 85 | 1022.0 |
| 20260906054501 | 54 | 72 | 0.9 | 2.6 | 0.00 | 0.00 | 0.02 | 85 | 1022.0 |
| 20260906054453 | 54 | 72 | 0.9 | 2.6 | 0.00 | 0.00 | 0.02 | 85 | 1022.0 |
| 20260906054437 | 54 | 55 | 1.7 | 2.6 | 0.00 | 0.00 | 0.02 | 85 | 1022.0 |
| 20260906054421 | 54 | 87 | 1.7 | 2.6 | 0.00 | 0.00 | 0.02 | 85 | 1022.0 |
| 20260906054405 | 54 | 94 | 0.9 | 2.6 | 0.00 | 0.00 | 0.02 | 85 | 1022.0 |
| 20260906054341 | 54 | 92 | 0.9 | 2.6 | 0.00 | 0.00 | 0.02 | 85 | 1022.0 |
| 20260906054335 | 54 | 85 | 1.7 | 2.6 | 0.00 | 0.00 | 0.02 | 85 | 1022.0 |
| 20260906054320 | 54 | 56 | 1.7 | 2.6 | 0.00 | 0.00 | 0.02 | 85 | 1022.0 |
| 20260906054301 | 54 | 348 | 0.9 | 2.6 | 0.00 | 0.00 | 0.02 | 85 | 1022.0 |
| 20260906054253 | 54 | 348 | 0.9 | 2.6 | 0.00 | 0.00 | 0.02 | 85 | 1022.0 |
| 20260906054238 | 54 | 94 | 0.9 | 2.6 | 0.00 | 0.00 | 0.02 | 85 | 1022.0 |
| 20260906054235 | 54 | 64 | 1.7 | 3.5 | 0.00 | 0.00 | 0.02 | 85 | 1022.0 |
| 20260906054205 | 54 | 107 | 1.7 | 5.2 | 0.00 | 0.00 | 0.02 | 85 | 1022.0 |
| 20260906054149 | 54 | 57 | 1.7 | 5.2 | 0.00 | 0.00 | 0.02 | 85 | 1022.0 |
| 20260906054132 | 54 | 128 | 1.7 | 5.2 | 0.00 | 0.00 | 0.02 | 85 | 1022.0 |
| 20260906054118 | 54 | 43 | 1.7 | 5.2 | 0.00 | 0.00 | 0.02 | 85 | 1022.0 |
| 20260906054101 | 54 | 114 | 2.6 | 5.2 | 0.00 | 0.00 | 0.02 | 85 | 1022.0 |
| 20260906054045 | 54 | 98 | 2.6 | 5.2 | 0.00 | 0.00 | 0.02 | 85 | 1022.0 |
| 20260906054029 | 54 | 81 | 2.6 | 5.2 | 0.00 | 0.00 | 0.02 | 85 | 1022.0 |
| 20260906054013 | 54 | 111 | 3.5 | 5.2 | 0.00 | 0.00 | 0.02 | 85 | 1022.0 |
| 20260906054005 | 54 | 75 | 0.9 | 1.7 | 0.00 | 0.00 | 0.02 | 85 | 1022.0 |
| 20260906053957 | 54 | 75 | 0.9 | 1.7 | 0.00 | 0.00 | 0.02 | 85 | 1022.0 |
| 20260906053941 | 54 | 89 | 0.0 | 0.9 | 0.00 | 0.00 | 0.02 | 85 | 1022.0 |
| 20260906053920 | 54 | 43 | 0.0 | 0.9 | 0.00 | 0.00 | 0.02 | 85 | 1022.0 |
| 20260906053903 | 54 | 337 | 0.0 | 1.7 | 0.00 | 0.00 | 0.02 | 85 | 1022.0 |
| 20260906053845 | 54 | 337 | 0.0 | 1.7 | 0.00 | 0.00 | 0.02 | 85 | 1022.0 |
| 20260906053829 | 54 | 66 | 0.9 | 1.7 | 0.00 | 0.00 | 0.02 | 85 | 1022.0 |
| 20260906053814 | 54 | 53 | 0.9 | 1.7 | 0.00 | 0.00 | 0.02 | 85 | 1022.0 |
| 20260906053804 | 54 | 44 | 0.9 | 2.6 | 0.00 | 0.00 | 0.02 | 85 | 1022.0 |
| 20260906053757 | 54 | 44 | 0.9 | 2.6 | 0.00 | 0.00 | 0.02 | 85 | 1022.0 |
| 20260906053741 | 54 | 80 | 0.9 | 2.6 | 0.00 | 0.00 | 0.02 | 85 | 1022.0 |
| 20260906053736 | 54 | 111 | 1.7 | 2.6 | 0.00 | 0.00 | 0.02 | 85 | 1022.0 |
| 20260906053709 | 54 | 76 | 0.9 | 2.6 | 0.00 | 0.00 | 0.02 | 85 | 1022.0 |
| 20260906053700 | 54 | 48 | 0.9 | 2.6 | 0.00 | 0.00 | 0.02 | 85 | 1022.0 |
| 20260906053653 | 54 | 48 | 0.9 | 2.6 | 0.00 | 0.00 | 0.02 | 85 | 1022.0 |
| 20260906053637 | 54 | 43 | 0.9 | 2.6 | 0.00 | 0.00 | 0.02 | 85 | 1022.0 |
| 20260906053621 | 54 | 74 | 1.7 | 2.6 | 0.00 | 0.00 | 0.02 | 85 | 1022.0 |
| 20260906053605 | 54 | 86 | 0.9 | 1.7 | 0.00 | 0.00 | 0.02 | 85 | 1022.0 |
| 20260906053549 | 54 | 77 | 1.7 | 1.7 | 0.00 | 0.00 | 0.02 | 85 | 1022.0 |
| 20260906053544 | 54 | 66 | 1.7 | 1.7 | 0.00 | 0.00 | 0.02 | 85 | 1022.0 |
| 20260906053517 | 54 | 55 | 0.9 | 3.5 | 0.00 | 0.00 | 0.02 | 85 | 1022.0 |
| 20260906053509 | 54 | 43 | 0.0 | 3.5 | 0.00 | 0.00 | 0.02 | 85 | 1022.0 |
| 20260906053504 | 54 | 43 | 0.0 | 5.2 | 0.00 | 0.00 | 0.02 | 85 | 1022.0 |
| 20260906053439 | 54 | 38 | 0.9 | 5.2 | 0.00 | 0.00 | 0.02 | 85 | 1022.0 |
| 20260906053421 | 54 | 70 | 0.9 | 5.2 | 0.00 | 0.00 | 0.02 | 85 | 1022.0 |
| 20260906053419 | 54 | 69 | 1.7 | 5.2 | 0.00 | 0.00 | 0.02 | 85 | 1022.0 |
| 20260906053349 | 54 | 90 | 3.5 | 5.2 | 0.00 | 0.00 | 0.02 | 85 | 1022.0 |
| 20260906053332 | 54 | 86 | 3.5 | 5.2 | 0.00 | 0.00 | 0.02 | 85 | 1022.0 |
| 20260906053327 | 54 | 96 | 3.5 | 3.5 | 0.00 | 0.00 | 0.02 | 85 | 1022.0 |
| 20260906053301 | 54 | 84 | 1.7 | 1.7 | 0.00 | 0.00 | 0.02 | 85 | 1022.0 |
| 20260906053244 | 54 | 68 | 0.9 | 1.7 | 0.00 | 0.00 | 0.02 | 85 | 1022.0 |
| 20260906053229 | 54 | 39 | 0.9 | 1.7 | 0.00 | 0.00 | 0.02 | 85 | 1022.0 |
| 20260906053212 | 54 | 93 | 0.9 | 1.7 | 0.00 | 0.00 | 0.02 | 85 | 1022.0 |
| 20260906053205 | 54 | 62 | 0.9 | 1.7 | 0.00 | 0.00 | 0.02 | 85 | 1022.0 |
| 20260906053157 | 54 | 62 | 0.9 | 1.7 | 0.00 | 0.00 | 0.02 | 85 | 1022.0 |
| 20260906053140 | 54 | 31 | 0.9 | 1.7 | 0.00 | 0.00 | 0.02 | 85 | 1022.0 |
| 20260906053127 | 54 | 74 | 1.7 | 1.7 | 0.00 | 0.00 | 0.02 | 85 | 1022.0 |
| 20260906053108 | 54 | 95 | 1.7 | 1.7 | 0.00 | 0.00 | 0.02 | 85 | 1022.0 |
| 20260906053101 | 54 | 96 | 1.7 | 1.7 | 0.00 | 0.00 | 0.02 | 85 | 1022.0 |
| 20260906053053 | 54 | 96 | 1.7 | 1.7 | 0.00 | 0.00 | 0.02 | 85 | 1022.0 |
| 20260906053037 | 54 | 73 | 1.7 | 1.7 | 0.00 | 0.00 | 0.02 | 85 | 1022.0 |
| 20260906053029 | 54 | 73 | 1.7 | 2.6 | 0.00 | 0.00 | 0.02 | 85 | 1022.0 |
| 20260906053023 | 54 | 85 | 1.7 | 2.6 | 0.00 | 0.00 | 0.02 | 85 | 1022.0 |
| 20260906053004 | 54 | 1 | 0.9 | 2.6 | 0.00 | 0.00 | 0.02 | 85 | 1022.0 |
| 20260906052957 | 54 | 1 | 0.9 | 2.6 | 0.00 | 0.00 | 0.02 | 85 | 1022.0 |
| 20260906052941 | 54 | 63 | 1.7 | 2.6 | 0.00 | 0.00 | 0.02 | 85 | 1022.0 |
| 20260906052925 | 54 | 42 | 0.9 | 2.6 | 0.00 | 0.00 | 0.02 | 85 | 1022.0 |
| 20260906052919 | 54 | 64 | 0.9 | 2.6 | 0.00 | 0.00 | 0.02 | 85 | 1022.0 |
| 20260906052904 | 54 | 62 | 1.7 | 2.6 | 0.00 | 0.00 | 0.02 | 85 | 1022.0 |
| 20260906052837 | 54 | 81 | 1.7 | 1.7 | 0.00 | 0.00 | 0.02 | 85 | 1022.0 |
| 20260906052821 | 54 | 74 | 1.7 | 2.6 | 0.00 | 0.00 | 0.02 | 85 | 1022.0 |
| 20260906052815 | 54 | 42 | 1.7 | 2.6 | 0.00 | 0.00 | 0.02 | 85 | 1022.0 |
| 20260906052732 | 54 | 55 | 0.9 | 2.6 | 0.00 | 0.00 | 0.02 | 85 | 1022.0 |
| 20260906052717 | 54 | 23 | 0.9 | 2.6 | 0.00 | 0.00 | 0.02 | 85 | 1022.0 |
| 20260906052714 | 54 | 49 | 2.6 | 2.6 | 0.00 | 0.00 | 0.02 | 85 | 1022.0 |
| 20260906052645 | 54 | 63 | 1.7 | 2.6 | 0.00 | 0.00 | 0.02 | 85 | 1022.0 |
| 20260906052629 | 54 | 83 | 1.7 | 2.6 | 0.00 | 0.00 | 0.02 | 85 | 1022.0 |
| 20260906052613 | 54 | 49 | 1.7 | 2.6 | 0.00 | 0.00 | 0.02 | 85 | 1022.0 |
| 20260906052605 | 54 | 89 | 1.7 | 2.6 | 0.00 | 0.00 | 0.02 | 85 | 1022.0 |
| 20260906052549 | 54 | 89 | 1.7 | 2.6 | 0.00 | 0.00 | 0.02 | 85 | 1022.0 |
| 20260906052534 | 54 | 76 | 1.7 | 2.6 | 0.00 | 0.00 | 0.02 | 85 | 1022.0 |
| 20260906052527 | 54 | 88 | 1.7 | 2.6 | 0.00 | 0.00 | 0.02 | 85 | 1022.0 |
| 20260906052509 | 54 | 78 | 0.9 | 1.7 | 0.00 | 0.00 | 0.02 | 85 | 1022.0 |
| 20260906052500 | 54 | 78 | 0.9 | 2.6 | 0.00 | 0.00 | 0.02 | 85 | 1022.0 |
| 20260906052445 | 54 | 72 | 1.7 | 2.6 | 0.00 | 0.00 | 0.02 | 85 | 1022.0 |
| 20260906052429 | 54 | 84 | 1.7 | 2.6 | 0.00 | 0.00 | 0.02 | 85 | 1022.0 |
| 20260906052412 | 54 | 109 | 1.7 | 2.6 | 0.00 | 0.00 | 0.02 | 85 | 1022.0 |
| 20260906052405 | 54 | 76 | 1.7 | 2.6 | 0.00 | 0.00 | 0.02 | 85 | 1022.0 |
| 20260906052357 | 54 | 76 | 1.7 | 2.6 | 0.00 | 0.00 | 0.02 | 85 | 1022.0 |
| 20260906052341 | 54 | 69 | 1.7 | 2.6 | 0.00 | 0.00 | 0.02 | 85 | 1022.0 |
| 20260906052325 | 54 | 64 | 1.7 | 2.6 | 0.00 | 0.00 | 0.02 | 85 | 1022.0 |
| 20260906052308 | 54 | 62 | 1.7 | 2.6 | 0.00 | 0.00 | 0.02 | 85 | 1022.0 |
| 20260906052305 | 54 | 65 | 1.7 | 2.6 | 0.00 | 0.00 | 0.02 | 85 | 1022.0 |
| 20260906052252 | 54 | 65 | 1.7 | 2.6 | 0.00 | 0.00 | 0.02 | 85 | 1022.0 |
| 20260906052237 | 54 | 84 | 1.7 | 2.6 | 0.00 | 0.00 | 0.02 | 85 | 1022.0 |
| 20260906052224 | 54 | 42 | 1.7 | 1.7 | 0.00 | 0.00 | 0.02 | 85 | 1022.0 |
| 20260906052205 | 54 | 91 | 0.9 | 1.7 | 0.00 | 0.00 | 0.02 | 85 | 1022.0 |
| 20260906052143 | 54 | 64 | 0.9 | 1.7 | 0.00 | 0.00 | 0.02 | 85 | 1022.0 |
| 20260906052128 | 54 | 97 | 0.9 | 1.7 | 0.00 | 0.00 | 0.02 | 85 | 1022.0 |
| 20260906052109 | 54 | 60 | 0.9 | 1.7 | 0.00 | 0.00 | 0.02 | 85 | 1022.0 |
| 20260906052100 | 54 | 78 | 1.7 | 2.6 | 0.00 | 0.00 | 0.02 | 85 | 1022.0 |
| 20260906052052 | 54 | 78 | 1.7 | 2.6 | 0.00 | 0.00 | 0.02 | 85 | 1022.0 |
| 20260906052047 | 54 | 69 | 0.9 | 2.6 | 0.00 | 0.00 | 0.02 | 85 | 1022.0 |
| 20260906052031 | 54 | 77 | 1.7 | 2.6 | 0.00 | 0.00 | 0.02 | 85 | 1022.0 |
| 20260906052005 | 54 | 21 | 0.9 | 2.6 | 0.00 | 0.00 | 0.02 | 85 | 1022.0 |
| 20260906051949 | 54 | 63 | 0.9 | 2.6 | 0.00 | 0.00 | 0.02 | 85 | 1022.0 |
| 20260906051933 | 54 | 115 | 1.7 | 2.6 | 0.00 | 0.00 | 0.02 | 85 | 1022.0 |
| 20260906051925 | 54 | 73 | 1.7 | 2.6 | 0.00 | 0.00 | 0.02 | 85 | 1022.0 |
| 20260906051901 | 54 | 81 | 0.9 | 2.6 | 0.00 | 0.00 | 0.02 | 85 | 1022.0 |
| 20260906051858 | 54 | 36 | 0.9 | 2.6 | 0.00 | 0.00 | 0.02 | 85 | 1022.0 |
| 20260906051829 | 54 | 47 | 1.7 | 2.6 | 0.00 | 0.00 | 0.02 | 85 | 1022.0 |
| 20260906051812 | 54 | 70 | 1.7 | 2.6 | 0.00 | 0.00 | 0.02 | 85 | 1022.0 |
| 20260906051758 | 54 | 56 | 1.7 | 2.6 | 0.00 | 0.00 | 0.02 | 85 | 1022.0 |
| 20260906051742 | 54 | 49 | 1.7 | 1.7 | 0.00 | 0.00 | 0.02 | 85 | 1022.0 |
| 20260906051717 | 54 | 81 | 1.7 | 1.7 | 0.00 | 0.00 | 0.02 | 85 | 1022.0 |
| 20260906051701 | 54 | 61 | 0.9 | 1.7 | 0.00 | 0.00 | 0.02 | 85 | 1022.0 |
| 20260906051653 | 54 | 53 | 0.9 | 1.7 | 0.00 | 0.00 | 0.02 | 85 | 1022.0 |
| 20260906051630 | 54 | 54 | 0.9 | 1.7 | 0.00 | 0.00 | 0.02 | 85 | 1022.0 |
| 20260906051614 | 54 | 51 | 0.0 | 1.7 | 0.00 | 0.00 | 0.02 | 85 | 1022.0 |
| 20260906051604 | 54 | 75 | 0.9 | 1.7 | 0.00 | 0.00 | 0.02 | 85 | 1022.0 |
| 20260906051542 | 54 | 46 | 0.9 | 1.7 | 0.00 | 0.00 | 0.02 | 85 | 1022.0 |
| 20260906051525 | 54 | 27 | 0.9 | 1.7 | 0.00 | 0.00 | 0.02 | 85 | 1022.0 |
| 20260906051508 | 54 | 49 | 0.0 | 1.7 | 0.00 | 0.00 | 0.02 | 85 | 1022.0 |
| 20260906051501 | 54 | 62 | 1.7 | 2.6 | 0.00 | 0.00 | 0.02 | 85 | 1022.0 |
| 20260906051438 | 54 | 75 | 0.9 | 2.6 | 0.00 | 0.00 | 0.02 | 85 | 1022.0 |
| 20260906051421 | 54 | 63 | 0.9 | 2.6 | 0.00 | 0.00 | 0.02 | 85 | 1022.0 |
| 20260906051406 | 54 | 85 | 0.9 | 2.6 | 0.00 | 0.00 | 0.02 | 85 | 1022.0 |
| 20260906051350 | 54 | 78 | 0.9 | 2.6 | 0.00 | 0.00 | 0.02 | 85 | 1022.0 |
| 20260906051344 | 54 | 60 | 0.9 | 2.6 | 0.00 | 0.00 | 0.02 | 85 | 1022.0 |
| 20260906051327 | 54 | 95 | 2.6 | 2.6 | 0.00 | 0.00 | 0.02 | 85 | 1022.0 |
| 20260906051307 | 54 | 95 | 0.9 | 2.6 | 0.00 | 0.00 | 0.02 | 85 | 1022.0 |
| 20260906051239 | 54 | 61 | 0.9 | 2.6 | 0.00 | 0.00 | 0.02 | 85 | 1022.0 |
| 20260906051221 | 54 | 67 | 1.7 | 3.5 | 0.00 | 0.00 | 0.02 | 85 | 1022.0 |
| 20260906051213 | 54 | 89 | 1.7 | 3.5 | 0.00 | 0.00 | 0.02 | 85 | 1022.0 |
| 20260906051205 | 54 | 89 | 1.7 | 5.2 | 0.00 | 0.00 | 0.02 | 85 | 1022.0 |
| 20260906051149 | 54 | 81 | 0.9 | 5.2 | 0.00 | 0.00 | 0.02 | 85 | 1022.0 |
| 20260906051133 | 54 | 52 | 0.9 | 5.2 | 0.00 | 0.00 | 0.02 | 85 | 1022.0 |
| 20260906051117 | 54 | 81 | 1.7 | 5.2 | 0.00 | 0.00 | 0.02 | 85 | 1022.0 |
| 20260906051101 | 54 | 73 | 1.7 | 5.2 | 0.00 | 0.00 | 0.02 | 85 | 1022.0 |
| 20260906051046 | 54 | 73 | 1.7 | 5.2 | 0.00 | 0.00 | 0.02 | 85 | 1022.0 |
| 20260906051039 | 54 | 85 | 3.5 | 5.2 | 0.00 | 0.00 | 0.02 | 85 | 1022.0 |
| 20260906051013 | 54 | 77 | 2.6 | 3.5 | 0.00 | 0.00 | 0.02 | 85 | 1022.0 |
| 20260906051006 | 54 | 70 | 1.7 | 1.7 | 0.00 | 0.00 | 0.02 | 85 | 1022.0 |
| 20260906050957 | 54 | 70 | 1.7 | 1.7 | 0.00 | 0.00 | 0.02 | 85 | 1022.0 |
| 20260906050952 | 54 | 82 | 0.9 | 1.7 | 0.00 | 0.00 | 0.02 | 85 | 1022.0 |
| 20260906050925 | 54 | 61 | 0.0 | 1.7 | 0.00 | 0.00 | 0.02 | 85 | 1022.0 |
| 20260906050909 | 54 | 58 | 0.0 | 1.7 | 0.00 | 0.00 | 0.02 | 85 | 1022.0 |
| 20260906050901 | 54 | 65 | 0.0 | 1.7 | 0.00 | 0.00 | 0.02 | 85 | 1022.0 |
| 20260906050853 | 54 | 65 | 0.0 | 1.7 | 0.00 | 0.00 | 0.02 | 85 | 1022.0 |
| 20260906050837 | 54 | 148 | 1.7 | 1.7 | 0.00 | 0.00 | 0.02 | 85 | 1022.0 |
| 20260906050829 | 54 | 148 | 1.7 | 2.6 | 0.00 | 0.00 | 0.02 | 85 | 1022.0 |
| 20260906050813 | 54 | 77 | 0.9 | 2.6 | 0.00 | 0.00 | 0.02 | 85 | 1022.0 |
| 20260906050807 | 54 | 92 | 0.9 | 2.6 | 0.00 | 0.00 | 0.02 | 85 | 1022.0 |
| 20260906050741 | 54 | 83 | 0.9 | 2.6 | 0.00 | 0.00 | 0.02 | 85 | 1022.0 |
| 20260906050725 | 54 | 81 | 0.9 | 2.6 | 0.00 | 0.00 | 0.02 | 85 | 1022.0 |
| 20260906050709 | 54 | 57 | 0.9 | 2.6 | 0.00 | 0.00 | 0.02 | 85 | 1022.0 |
| 20260906050701 | 54 | 56 | 1.7 | 3.5 | 0.00 | 0.00 | 0.02 | 85 | 1022.0 |
| 20260906050656 | 54 | 56 | 1.7 | 3.5 | 0.00 | 0.00 | 0.02 | 85 | 1022.0 |
| 20260906050638 | 54 | 80 | 0.9 | 3.5 | 0.00 | 0.00 | 0.02 | 85 | 1022.0 |
| 20260906050632 | 54 | 46 | 1.7 | 3.5 | 0.00 | 0.00 | 0.02 | 85 | 1022.0 |
| 20260906050615 | 54 | 63 | 1.7 | 3.5 | 0.00 | 0.00 | 0.02 | 85 | 1022.0 |
| 20260906050550 | 54 | 61 | 0.9 | 3.5 | 0.00 | 0.00 | 0.02 | 85 | 1022.0 |
| 20260906050534 | 54 | 67 | 1.7 | 3.5 | 0.00 | 0.00 | 0.02 | 85 | 1022.0 |
| 20260906050517 | 54 | 77 | 2.6 | 3.5 | 0.00 | 0.00 | 0.02 | 85 | 1022.0 |
| 20260906050501 | 54 | 94 | 2.6 | 3.5 | 0.00 | 0.00 | 0.02 | 85 | 1022.0 |
| 20260906050448 | 54 | 96 | 3.5 | 3.5 | 0.00 | 0.00 | 0.02 | 85 | 1022.0 |
| 20260906050432 | 54 | 62 | 2.6 | 2.6 | 0.00 | 0.00 | 0.02 | 85 | 1022.0 |
| 20260906050405 | 54 | 84 | 1.7 | 2.6 | 0.00 | 0.00 | 0.02 | 85 | 1022.0 |
| 20260906050352 | 54 | 47 | 0.9 | 2.6 | 0.00 | 0.00 | 0.02 | 85 | 1022.0 |
| 20260906050333 | 54 | 55 | 0.9 | 2.6 | 0.00 | 0.00 | 0.02 | 85 | 1022.0 |
| 20260906050330 | 54 | 27 | 1.7 | 2.6 | 0.00 | 0.00 | 0.02 | 85 | 1022.0 |
| 20260906050301 | 54 | 84 | 1.7 | 1.7 | 0.00 | 0.00 | 0.02 | 85 | 1022.0 |
| 20260906050256 | 54 | 115 | 1.7 | 1.7 | 0.00 | 0.00 | 0.02 | 85 | 1022.0 |
| 20260906050234 | 54 | 81 | 0.9 | 1.7 | 0.00 | 0.00 | 0.02 | 85 | 1022.0 |
| 20260906050213 | 54 | 70 | 0.9 | 1.7 | 0.00 | 0.00 | 0.02 | 85 | 1022.0 |
| 20260906050208 | 54 | 76 | 0.0 | 1.7 | 0.00 | 0.00 | 0.02 | 85 | 1022.0 |
| 20260906050144 | 54 | 40 | 0.9 | 1.7 | 0.00 | 0.00 | 0.02 | 85 | 1022.0 |
| 20260906050126 | 54 | 41 | 0.9 | 1.7 | 0.00 | 0.00 | 0.02 | 85 | 1022.0 |
| 20260906050109 | 54 | 84 | 0.9 | 1.7 | 0.00 | 0.00 | 0.02 | 85 | 1022.0 |
| 20260906050101 | 54 | 32 | 0.9 | 1.7 | 0.00 | 0.00 | 0.02 | 85 | 1022.0 |
| 20260906050053 | 54 | 32 | 0.9 | 1.7 | 0.00 | 0.00 | 0.02 | 85 | 1022.0 |
| 20260906050037 | 54 | 76 | 0.9 | 1.7 | 0.00 | 0.00 | 0.02 | 85 | 1022.0 |
| 20260906050021 | 54 | 25 | 0.9 | 1.7 | 0.00 | 0.00 | 0.02 | 85 | 1022.0 |
| 20260906050005 | 54 | 58 | 0.9 | 1.7 | 0.00 | 0.00 | 0.02 | 85 | 1022.0 |
| 20260906045949 | 54 | 71 | 0.9 | 0.9 | 0.00 | 0.00 | 0.02 | 85 | 1022.0 |
| 20260906045925 | 54 | 51 | 0.9 | 0.9 | 0.00 | 0.00 | 0.02 | 85 | 1022.0 |
| 20260906045909 | 54 | 76 | 0.0 | 0.9 | 0.00 | 0.00 | 0.02 | 85 | 1022.0 |
| 20260906045903 | 54 | 36 | 0.9 | 1.7 | 0.00 | 0.00 | 0.02 | 85 | 1022.0 |
| 20260906045848 | 54 | 82 | 0.9 | 1.7 | 0.00 | 0.00 | 0.02 | 85 | 1022.0 |
| 20260906045821 | 54 | 63 | 0.9 | 1.7 | 0.00 | 0.00 | 0.02 | 85 | 1022.0 |
| 20260906045805 | 54 | 65 | 0.9 | 1.7 | 0.00 | 0.00 | 0.02 | 85 | 1022.0 |
| 20260906045733 | 54 | 85 | 0.9 | 1.7 | 0.00 | 0.00 | 0.02 | 85 | 1022.0 |
| 20260906045717 | 54 | 78 | 0.9 | 1.7 | 0.00 | 0.00 | 0.02 | 85 | 1022.0 |
| 20260906045701 | 54 | 49 | 0.9 | 1.7 | 0.00 | 0.00 | 0.02 | 85 | 1022.0 |
| 20260906045645 | 54 | 103 | 0.9 | 1.7 | 0.00 | 0.00 | 0.02 | 85 | 1022.0 |
| 20260906045637 | 54 | 70 | 0.9 | 1.7 | 0.00 | 0.00 | 0.02 | 85 | 1022.0 |
| 20260906045629 | 54 | 70 | 0.9 | 2.6 | 0.00 | 0.00 | 0.02 | 85 | 1022.0 |
| 20260906045616 | 54 | 45 | 0.9 | 2.6 | 0.00 | 0.00 | 0.02 | 85 | 1022.0 |
| 20260906045557 | 54 | 88 | 0.9 | 2.6 | 0.00 | 0.00 | 0.02 | 85 | 1022.0 |
| 20260906045541 | 54 | 76 | 0.9 | 2.6 | 0.00 | 0.00 | 0.02 | 85 | 1022.0 |
| 20260906045517 | 54 | 39 | 1.7 | 2.6 | 0.00 | 0.00 | 0.02 | 85 | 1022.0 |
| 20260906045501 | 54 | 67 | 1.7 | 2.6 | 0.00 | 0.00 | 0.02 | 85 | 1022.0 |
| 20260906045445 | 54 | 146 | 1.7 | 2.6 | 0.00 | 0.00 | 0.02 | 85 | 1022.0 |
| 20260906045429 | 54 | 84 | 1.7 | 1.7 | 0.00 | 0.00 | 0.02 | 85 | 1022.0 |
| 20260906045413 | 54 | 74 | 1.7 | 1.7 | 0.00 | 0.00 | 0.02 | 85 | 1022.0 |
| 20260906045406 | 54 | 28 | 0.9 | 5.2 | 0.00 | 0.00 | 0.02 | 85 | 1022.0 |
| 20260906045357 | 54 | 28 | 0.9 | 5.2 | 0.00 | 0.00 | 0.02 | 85 | 1022.0 |
| 20260906045341 | 54 | 55 | 0.9 | 5.2 | 0.00 | 0.00 | 0.02 | 85 | 1022.0 |
| 20260906045327 | 54 | 45 | 0.0 | 5.2 | 0.00 | 0.00 | 0.02 | 85 | 1022.0 |
| 20260906045313 | 54 | 41 | 0.0 | 5.2 | 0.00 | 0.00 | 0.02 | 85 | 1022.0 |
| 20260906045256 | 54 | 41 | 0.9 | 5.2 | 0.00 | 0.00 | 0.02 | 85 | 1022.0 |
| 20260906045237 | 54 | 72 | 1.7 | 5.2 | 0.00 | 0.00 | 0.02 | 85 | 1022.0 |
| 20260906045221 | 54 | 103 | 3.5 | 5.2 | 0.00 | 0.00 | 0.02 | 85 | 1022.0 |
| 20260906045205 | 54 | 114 | 3.5 | 5.2 | 0.00 | 0.00 | 0.02 | 85 | 1022.0 |
| 20260906045200 | 54 | 101 | 3.5 | 3.5 | 0.00 | 0.00 | 0.02 | 85 | 1022.0 |
| 20260906045149 | 54 | 101 | 3.5 | 3.5 | 0.00 | 0.00 | 0.02 | 85 | 1022.0 |
| 20260906045133 | 54 | 84 | 2.6 | 3.5 | 0.00 | 0.00 | 0.02 | 85 | 1022.0 |
| 20260906045117 | 54 | 100 | 1.7 | 2.6 | 0.00 | 0.00 | 0.02 | 85 | 1022.0 |
| 20260906045109 | 54 | 48 | 1.7 | 2.6 | 0.00 | 0.00 | 0.02 | 85 | 1022.0 |
| 20260906045104 | 54 | 48 | 1.7 | 3.5 | 0.00 | 0.00 | 0.02 | 85 | 1022.0 |
| 20260906045048 | 54 | 103 | 1.7 | 3.5 | 0.00 | 0.00 | 0.02 | 85 | 1022.0 |
| 20260906045021 | 54 | 86 | 1.7 | 3.5 | 0.00 | 0.00 | 0.02 | 85 | 1022.0 |
| 20260906045009 | 54 | 102 | 1.7 | 3.5 | 0.00 | 0.00 | 0.02 | 84 | 1022.0 |
| 20260906044951 | 54 | 99 | 1.7 | 3.5 | 0.00 | 0.00 | 0.02 | 84 | 1022.0 |
| 20260906044933 | 54 | 120 | 2.6 | 3.5 | 0.00 | 0.00 | 0.02 | 84 | 1022.0 |
| 20260906044917 | 54 | 75 | 1.7 | 2.6 | 0.00 | 0.00 | 0.02 | 84 | 1022.0 |
| 20260906044901 | 54 | 85 | 1.7 | 2.6 | 0.00 | 0.00 | 0.02 | 84 | 1022.0 |
| 20260906044845 | 54 | 102 | 2.6 | 2.6 | 0.00 | 0.00 | 0.02 | 84 | 1022.0 |
| 20260906044830 | 54 | 47 | 1.7 | 2.6 | 0.00 | 0.00 | 0.02 | 84 | 1022.0 |
| 20260906044813 | 54 | 80 | 1.7 | 2.6 | 0.00 | 0.00 | 0.02 | 84 | 1022.0 |
| 20260906044805 | 54 | 88 | 1.7 | 2.6 | 0.00 | 0.00 | 0.02 | 84 | 1022.0 |
| 20260906044757 | 54 | 88 | 1.7 | 2.6 | 0.00 | 0.00 | 0.02 | 84 | 1022.0 |
| 20260906044754 | 54 | 36 | 1.7 | 2.6 | 0.00 | 0.00 | 0.02 | 84 | 1022.0 |
| 20260906044725 | 54 | 77 | 0.9 | 1.7 | 0.00 | 0.00 | 0.02 | 84 | 1022.0 |
| 20260906044714 | 54 | 89 | 1.7 | 1.7 | 0.00 | 0.00 | 0.02 | 84 | 1022.0 |
| 20260906044703 | 54 | 68 | 0.9 | 0.9 | 0.00 | 0.00 | 0.02 | 84 | 1022.0 |
| 20260906044637 | 54 | 79 | 0.0 | 0.9 | 0.00 | 0.00 | 0.02 | 84 | 1022.0 |
| 20260906044632 | 54 | 79 | 0.0 | 2.6 | 0.00 | 0.00 | 0.02 | 84 | 1022.0 |
| 20260906044616 | 54 | 47 | 0.0 | 2.6 | 0.00 | 0.00 | 0.02 | 84 | 1022.0 |
| 20260906044557 | 54 | 71 | 0.9 | 2.6 | 0.00 | 0.00 | 0.02 | 84 | 1022.0 |
| 20260906044541 | 54 | 48 | 0.9 | 2.6 | 0.00 | 0.00 | 0.02 | 84 | 1022.0 |
| 20260906044525 | 54 | 77 | 0.9 | 2.6 | 0.00 | 0.00 | 0.02 | 84 | 1022.0 |
| 20260906044509 | 54 | 105 | 1.7 | 2.6 | 0.00 | 0.00 | 0.02 | 84 | 1022.0 |
| 20260906044501 | 54 | 84 | 1.7 | 2.6 | 0.00 | 0.00 | 0.02 | 84 | 1022.0 |
| 20260906044456 | 54 | 84 | 1.7 | 2.6 | 0.00 | 0.00 | 0.02 | 84 | 1022.0 |
| 20260906044437 | 54 | 42 | 1.7 | 1.7 | 0.00 | 0.00 | 0.02 | 84 | 1022.0 |
| 20260906044421 | 54 | 77 | 0.9 | 3.5 | 0.00 | 0.00 | 0.02 | 84 | 1022.0 |
| 20260906044405 | 54 | 111 | 1.7 | 3.5 | 0.00 | 0.00 | 0.02 | 84 | 1022.0 |
| 20260906044352 | 54 | 82 | 0.9 | 3.5 | 0.00 | 0.00 | 0.02 | 84 | 1022.0 |
| 20260906044333 | 54 | 92 | 1.7 | 3.5 | 0.00 | 0.00 | 0.02 | 84 | 1022.0 |
| 20260906044317 | 54 | 91 | 0.9 | 3.5 | 0.00 | 0.00 | 0.02 | 84 | 1022.0 |
| 20260906044309 | 54 | 53 | 1.7 | 3.5 | 0.00 | 0.00 | 0.02 | 84 | 1022.0 |
| 20260906044300 | 54 | 53 | 1.7 | 5.2 | 0.00 | 0.00 | 0.02 | 84 | 1022.0 |
| 20260906044245 | 54 | 105 | 3.5 | 5.2 | 0.00 | 0.00 | 0.02 | 84 | 1022.0 |
| 20260906044231 | 54 | 102 | 2.6 | 5.2 | 0.00 | 0.00 | 0.02 | 84 | 1022.0 |
| 20260906044213 | 54 | 93 | 2.6 | 5.2 | 0.00 | 0.00 | 0.02 | 84 | 1022.0 |
| 20260906044205 | 54 | 88 | 2.6 | 5.2 | 0.00 | 0.00 | 0.02 | 84 | 1022.0 |
| 20260906044149 | 54 | 88 | 2.6 | 5.2 | 0.00 | 0.00 | 0.02 | 84 | 1022.0 |
| 20260906044135 | 54 | 133 | 2.6 | 5.2 | 0.00 | 0.00 | 0.02 | 84 | 1022.0 |
| 20260906044117 | 54 | 57 | 3.5 | 5.2 | 0.00 | 0.00 | 0.02 | 84 | 1022.0 |
| 20260906044101 | 54 | 102 | 1.7 | 2.6 | 0.00 | 0.00 | 0.02 | 84 | 1022.0 |
| 20260906044048 | 54 | 108 | 1.7 | 2.6 | 0.00 | 0.00 | 0.02 | 84 | 1022.0 |
| 20260906044029 | 54 | 104 | 0.9 | 2.6 | 0.00 | 0.00 | 0.02 | 84 | 1022.0 |
| 20260906044013 | 54 | 49 | 0.0 | 2.6 | 0.00 | 0.00 | 0.02 | 84 | 1022.0 |
| 20260906044005 | 54 | 43 | 0.0 | 3.5 | 0.00 | 0.00 | 0.02 | 84 | 1022.0 |
| 20260906043957 | 54 | 43 | 0.0 | 3.5 | 0.00 | 0.00 | 0.02 | 84 | 1022.0 |
| 20260906043941 | 54 | 55 | 0.0 | 3.5 | 0.00 | 0.00 | 0.02 | 84 | 1022.0 |
| 20260906043909 | 54 | 53 | 0.0 | 3.5 | 0.00 | 0.00 | 0.02 | 84 | 1022.0 |
| 20260906043901 | 54 | 31 | 1.7 | 3.5 | 0.00 | 0.00 | 0.02 | 84 | 1022.0 |
| 20260906043853 | 54 | 31 | 1.7 | 3.5 | 0.00 | 0.00 | 0.02 | 84 | 1022.0 |
| 20260906043840 | 54 | 83 | 1.7 | 3.5 | 0.00 | 0.00 | 0.02 | 84 | 1022.0 |
| 20260906043821 | 54 | 92 | 2.6 | 3.5 | 0.00 | 0.00 | 0.02 | 84 | 1022.0 |
| 20260906043807 | 54 | 47 | 3.5 | 3.5 | 0.00 | 0.00 | 0.02 | 84 | 1022.0 |
| 20260906043744 | 54 | 100 | 1.7 | 2.6 | 0.00 | 0.00 | 0.02 | 84 | 1022.0 |
| 20260906043727 | 54 | 63 | 0.9 | 2.6 | 0.00 | 0.00 | 0.02 | 84 | 1022.0 |
| 20260906043709 | 54 | 72 | 0.9 | 2.6 | 0.00 | 0.00 | 0.02 | 84 | 1022.0 |
| 20260906043701 | 54 | 72 | 0.9 | 3.5 | 0.00 | 0.00 | 0.02 | 84 | 1022.0 |
| 20260906043653 | 54 | 72 | 0.9 | 3.5 | 0.00 | 0.00 | 0.02 | 84 | 1022.0 |
| 20260906043637 | 54 | 36 | 1.7 | 3.5 | 0.00 | 0.00 | 0.02 | 84 | 1022.0 |
| 20260906043606 | 54 | 82 | 1.7 | 3.5 | 0.00 | 0.00 | 0.02 | 84 | 1022.0 |
| 20260906043549 | 54 | 80 | 1.7 | 3.5 | 0.00 | 0.00 | 0.02 | 84 | 1022.0 |
| 20260906043532 | 54 | 60 | 3.5 | 3.5 | 0.00 | 0.00 | 0.02 | 84 | 1022.0 |
| 20260906043529 | 54 | 64 | 2.6 | 3.5 | 0.00 | 0.00 | 0.02 | 84 | 1022.0 |
| 20260906043509 | 54 | 79 | 1.7 | 3.5 | 0.00 | 0.00 | 0.02 | 84 | 1022.0 |
| 20260906043500 | 54 | 79 | 1.7 | 5.2 | 0.00 | 0.00 | 0.02 | 84 | 1022.0 |
| 20260906043444 | 54 | 48 | 1.7 | 5.2 | 0.00 | 0.00 | 0.02 | 84 | 1022.0 |
| 20260906043432 | 54 | 65 | 0.9 | 5.2 | 0.00 | 0.00 | 0.02 | 84 | 1022.0 |
| 20260906043413 | 54 | 49 | 1.7 | 5.2 | 0.00 | 0.00 | 0.02 | 84 | 1022.0 |
| 20260906043409 | 54 | 79 | 2.6 | 6.1 | 0.00 | 0.00 | 0.02 | 84 | 1022.0 |
| 20260906043340 | 54 | 81 | 4.3 | 6.1 | 0.00 | 0.00 | 0.02 | 84 | 1022.0 |
| 20260906043337 | 54 | 68 | 2.6 | 6.1 | 0.00 | 0.00 | 0.02 | 84 | 1022.0 |
| 20260906043301 | 54 | 59 | 1.7 | 6.1 | 0.00 | 0.00 | 0.02 | 84 | 1022.0 |
| 20260906043245 | 54 | 59 | 2.6 | 6.1 | 0.00 | 0.00 | 0.02 | 84 | 1022.0 |
| 20260906043237 | 54 | 114 | 4.3 | 6.1 | 0.00 | 0.00 | 0.02 | 84 | 1022.0 |
| 20260906043205 | 54 | 69 | 3.5 | 5.2 | 0.00 | 0.00 | 0.02 | 84 | 1022.0 |
| 20260906043159 | 54 | 69 | 3.5 | 5.2 | 0.00 | 0.00 | 0.02 | 84 | 1022.0 |
| 20260906043141 | 54 | 98 | 3.5 | 3.5 | 0.00 | 0.00 | 0.02 | 84 | 1022.0 |
| 20260906043125 | 54 | 115 | 3.5 | 3.5 | 0.00 | 0.00 | 0.02 | 84 | 1022.0 |
| 20260906043109 | 54 | 73 | 2.6 | 3.5 | 0.00 | 0.00 | 0.02 | 84 | 1022.0 |
| 20260906043101 | 54 | 93 | 3.5 | 3.5 | 0.00 | 0.00 | 0.02 | 84 | 1022.0 |
| 20260906043053 | 54 | 93 | 3.5 | 3.5 | 0.00 | 0.00 | 0.02 | 84 | 1022.0 |
| 20260906043037 | 54 | 89 | 2.6 | 3.5 | 0.00 | 0.00 | 0.02 | 84 | 1022.0 |
| 20260906043032 | 54 | 98 | 2.6 | 2.6 | 0.00 | 0.00 | 0.02 | 84 | 1022.0 |
| 20260906043007 | 54 | 57 | 2.6 | 2.6 | 0.00 | 0.00 | 0.02 | 84 | 1022.0 |
| 20260906042949 | 54 | 93 | 1.7 | 1.7 | 0.00 | 0.00 | 0.02 | 84 | 1022.0 |
| 20260906042934 | 54 | 112 | 0.9 | 1.7 | 0.00 | 0.00 | 0.02 | 84 | 1022.0 |
| 20260906042917 | 54 | 94 | 0.9 | 1.7 | 0.00 | 0.00 | 0.02 | 84 | 1022.0 |
| 20260906042902 | 54 | 90 | 0.9 | 1.7 | 0.00 | 0.00 | 0.02 | 84 | 1022.0 |
| 20260906042853 | 54 | 90 | 0.9 | 1.7 | 0.00 | 0.00 | 0.02 | 84 | 1022.0 |
| 20260906042836 | 54 | 87 | 1.7 | 1.7 | 0.00 | 0.00 | 0.02 | 84 | 1022.0 |
| 20260906042828 | 54 | 49 | 1.7 | 2.6 | 0.00 | 0.00 | 0.02 | 84 | 1022.0 |
| 20260906042732 | 54 | 94 | 1.7 | 2.6 | 0.00 | 0.00 | 0.02 | 84 | 1022.0 |
| 20260906042720 | 54 | 65 | 1.7 | 2.6 | 0.00 | 0.00 | 0.02 | 84 | 1022.0 |
| 20260906042703 | 54 | 69 | 1.7 | 2.6 | 0.00 | 0.00 | 0.02 | 84 | 1022.0 |
| 20260906042647 | 54 | 57 | 1.7 | 2.6 | 0.00 | 0.00 | 0.02 | 84 | 1022.0 |
| 20260906042629 | 54 | 95 | 1.7 | 2.6 | 0.00 | 0.00 | 0.02 | 84 | 1022.0 |
| 20260906042618 | 54 | 59 | 1.7 | 2.6 | 0.00 | 0.00 | 0.02 | 84 | 1022.0 |
| 20260906042605 | 54 | 67 | 0.9 | 3.5 | 0.00 | 0.00 | 0.02 | 84 | 1022.0 |
| 20260906042556 | 54 | 67 | 0.9 | 3.5 | 0.00 | 0.00 | 0.02 | 84 | 1022.0 |
| 20260906042551 | 54 | 62 | 1.7 | 3.5 | 0.00 | 0.00 | 0.02 | 84 | 1022.0 |
| 20260906042525 | 54 | 88 | 0.9 | 3.5 | 0.00 | 0.00 | 0.02 | 84 | 1022.0 |
| 20260906042509 | 54 | 52 | 2.6 | 3.5 | 0.00 | 0.00 | 0.02 | 84 | 1022.0 |
| 20260906042501 | 54 | 81 | 2.6 | 3.5 | 0.00 | 0.00 | 0.02 | 84 | 1022.0 |
| 20260906042439 | 54 | 81 | 2.6 | 3.5 | 0.00 | 0.00 | 0.02 | 84 | 1022.0 |
| 20260906042405 | 54 | 64 | 1.7 | 5.2 | 0.00 | 0.00 | 0.02 | 84 | 1022.0 |
| 20260906042359 | 54 | 64 | 1.7 | 5.2 | 0.00 | 0.00 | 0.02 | 84 | 1022.0 |
| 20260906042341 | 54 | 69 | 2.6 | 5.2 | 0.00 | 0.00 | 0.02 | 84 | 1022.0 |
| 20260906042325 | 54 | 71 | 1.7 | 5.2 | 0.00 | 0.00 | 0.02 | 84 | 1022.0 |
| 20260906042313 | 54 | 94 | 3.5 | 5.2 | 0.00 | 0.00 | 0.02 | 84 | 1022.0 |
| 20260906042253 | 54 | 89 | 3.5 | 5.2 | 0.00 | 0.00 | 0.02 | 84 | 1022.0 |
| 20260906042236 | 54 | 110 | 1.7 | 5.2 | 0.00 | 0.00 | 0.02 | 84 | 1022.0 |
| 20260906042221 | 54 | 78 | 1.7 | 5.2 | 0.00 | 0.00 | 0.02 | 84 | 1022.0 |
| 20260906042206 | 54 | 71 | 2.6 | 5.2 | 0.00 | 0.00 | 0.02 | 84 | 1022.0 |
| 20260906042159 | 54 | 107 | 3.5 | 5.2 | 0.00 | 0.00 | 0.02 | 84 | 1022.0 |
| 20260906042143 | 54 | 87 | 4.3 | 5.2 | 0.00 | 0.00 | 0.02 | 84 | 1022.0 |
| 20260906042117 | 54 | 64 | 3.5 | 5.2 | 0.00 | 0.00 | 0.02 | 84 | 1022.0 |
| 20260906042107 | 54 | 68 | 3.5 | 5.2 | 0.00 | 0.00 | 0.02 | 84 | 1022.0 |
| 20260906042045 | 54 | 109 | 3.5 | 5.2 | 0.00 | 0.00 | 0.02 | 84 | 1022.0 |
| 20260906042029 | 54 | 91 | 3.5 | 3.5 | 0.00 | 0.00 | 0.02 | 84 | 1022.0 |
| 20260906042013 | 55 | 80 | 2.6 | 3.5 | 0.00 | 0.00 | 0.02 | 84 | 1022.0 |
| 20260906042008 | 55 | 109 | 2.6 | 6.1 | 0.00 | 0.00 | 0.02 | 84 | 1022.0 |
| 20260906041948 | 55 | 109 | 2.6 | 6.1 | 0.00 | 0.00 | 0.02 | 84 | 1022.0 |
| 20260906041933 | 55 | 105 | 2.6 | 6.1 | 0.00 | 0.00 | 0.02 | 84 | 1022.0 |
| 20260906041917 | 55 | 113 | 1.7 | 6.1 | 0.00 | 0.00 | 0.02 | 84 | 1022.0 |
| 20260906041849 | 55 | 54 | 1.7 | 6.1 | 0.00 | 0.00 | 0.02 | 84 | 1022.0 |
| 20260906041813 | 55 | 83 | 4.3 | 6.1 | 0.00 | 0.00 | 0.02 | 84 | 1022.0 |
| 20260906041805 | 55 | 114 | 0.9 | 6.1 | 0.00 | 0.00 | 0.02 | 84 | 1022.0 |
| 20260906041757 | 55 | 114 | 0.9 | 6.1 | 0.00 | 0.00 | 0.02 | 84 | 1022.0 |
| 20260906041751 | 55 | 54 | 3.5 | 6.1 | 0.00 | 0.00 | 0.02 | 84 | 1022.0 |
| 20260906041724 | 55 | 109 | 5.2 | 6.1 | 0.00 | 0.00 | 0.02 | 84 | 1022.0 |
| 20260906041709 | 55 | 87 | 2.6 | 5.2 | 0.00 | 0.00 | 0.02 | 84 | 1022.0 |
| 20260906041703 | 55 | 73 | 0.9 | 2.6 | 0.00 | 0.00 | 0.02 | 84 | 1022.0 |
| 20260906041639 | 55 | 65 | 0.9 | 2.6 | 0.00 | 0.00 | 0.02 | 84 | 1022.0 |
| 20260906041621 | 55 | 94 | 0.9 | 2.6 | 0.00 | 0.00 | 0.02 | 84 | 1022.0 |
| 20260906041613 | 55 | 89 | 0.9 | 2.6 | 0.00 | 0.00 | 0.02 | 84 | 1022.0 |
| 20260906041605 | 55 | 89 | 0.9 | 3.5 | 0.00 | 0.00 | 0.02 | 84 | 1022.0 |
| 20260906041550 | 55 | 73 | 0.9 | 3.5 | 0.00 | 0.00 | 0.02 | 84 | 1022.0 |
| 20260906041525 | 55 | 91 | 1.7 | 3.5 | 0.00 | 0.00 | 0.02 | 84 | 1022.0 |
| 20260906041519 | 55 | 98 | 0.9 | 3.5 | 0.00 | 0.00 | 0.02 | 84 | 1022.0 |
| 20260906041500 | 55 | 89 | 1.7 | 3.5 | 0.00 | 0.00 | 0.02 | 84 | 1022.0 |
| 20260906041452 | 55 | 89 | 1.7 | 3.5 | 0.00 | 0.00 | 0.02 | 84 | 1022.0 |
| 20260906041437 | 55 | 60 | 2.6 | 3.5 | 0.00 | 0.00 | 0.02 | 84 | 1022.0 |
| 20260906041421 | 55 | 117 | 3.5 | 3.5 | 0.00 | 0.00 | 0.02 | 84 | 1022.0 |
| 20260906041415 | 55 | 74 | 2.6 | 3.5 | 0.00 | 0.00 | 0.02 | 84 | 1022.0 |
| 20260906041349 | 55 | 116 | 2.6 | 6.1 | 0.00 | 0.00 | 0.02 | 84 | 1022.0 |
| 20260906041332 | 55 | 83 | 1.7 | 6.1 | 0.00 | 0.00 | 0.02 | 84 | 1022.0 |
| 20260906041317 | 55 | 71 | 0.9 | 6.1 | 0.00 | 0.00 | 0.02 | 84 | 1022.0 |
| 20260906041301 | 55 | 80 | 1.7 | 6.1 | 0.00 | 0.00 | 0.02 | 84 | 1022.0 |
| 20260906041253 | 55 | 88 | 1.7 | 6.1 | 0.00 | 0.00 | 0.02 | 84 | 1022.0 |
| 20260906041241 | 55 | 81 | 3.5 | 6.1 | 0.00 | 0.00 | 0.02 | 84 | 1022.0 |
| 20260906041229 | 55 | 81 | 3.5 | 7.0 | 0.00 | 0.00 | 0.02 | 84 | 1022.0 |
| 20260906041214 | 55 | 76 | 2.6 | 7.0 | 0.00 | 0.00 | 0.02 | 84 | 1022.0 |
| 20260906041205 | 55 | 86 | 1.7 | 7.0 | 0.00 | 0.00 | 0.02 | 84 | 1022.0 |
| 20260906041157 | 55 | 86 | 1.7 | 7.0 | 0.00 | 0.00 | 0.02 | 84 | 1022.0 |
| 20260906041144 | 55 | 41 | 1.7 | 7.0 | 0.00 | 0.00 | 0.02 | 84 | 1022.0 |
| 20260906041127 | 55 | 115 | 1.7 | 7.0 | 0.00 | 0.00 | 0.02 | 84 | 1022.0 |
| 20260906041101 | 55 | 79 | 3.5 | 7.0 | 0.00 | 0.00 | 0.02 | 84 | 1022.0 |
| 20260906041044 | 55 | 105 | 3.5 | 6.1 | 0.00 | 0.00 | 0.02 | 84 | 1022.0 |
| 20260906041030 | 55 | 90 | 2.6 | 5.2 | 0.00 | 0.00 | 0.02 | 84 | 1022.0 |
| 20260906041014 | 55 | 68 | 0.9 | 5.2 | 0.00 | 0.00 | 0.02 | 84 | 1022.0 |
| 20260906041003 | 55 | 92 | 2.6 | 5.2 | 0.00 | 0.00 | 0.02 | 84 | 1021.0 |
| 20260906040925 | 55 | 77 | 2.6 | 3.5 | 0.00 | 0.00 | 0.02 | 84 | 1021.0 |
| 20260906040912 | 55 | 73 | 1.7 | 2.6 | 0.00 | 0.00 | 0.02 | 84 | 1021.0 |
| 20260906040856 | 55 | 67 | 1.7 | 2.6 | 0.00 | 0.00 | 0.02 | 84 | 1022.0 |
| 20260906040838 | 55 | 60 | 1.7 | 2.6 | 0.00 | 0.00 | 0.02 | 84 | 1022.0 |
| 20260906040822 | 55 | 81 | 1.7 | 1.7 | 0.00 | 0.00 | 0.02 | 84 | 1022.0 |
| 20260906040805 | 55 | 39 | 0.9 | 1.7 | 0.00 | 0.00 | 0.02 | 84 | 1022.0 |
| 20260906040751 | 55 | 71 | 0.9 | 1.7 | 0.00 | 0.00 | 0.02 | 84 | 1022.0 |
| 20260906040737 | 55 | 74 | 0.9 | 1.7 | 0.00 | 0.00 | 0.02 | 84 | 1022.0 |
| 20260906040718 | 55 | 73 | 0.9 | 1.7 | 0.00 | 0.00 | 0.02 | 84 | 1022.0 |
| 20260906040701 | 55 | 103 | 1.7 | 1.7 | 0.00 | 0.00 | 0.02 | 84 | 1022.0 |
| 20260906040638 | 55 | 89 | 0.9 | 1.7 | 0.00 | 0.00 | 0.02 | 84 | 1022.0 |
| 20260906040621 | 55 | 60 | 1.7 | 1.7 | 0.00 | 0.00 | 0.02 | 84 | 1022.0 |
| 20260906040619 | 55 | 51 | 0.9 | 1.7 | 0.00 | 0.00 | 0.02 | 84 | 1022.0 |
| 20260906040550 | 55 | 68 | 0.9 | 1.7 | 0.00 | 0.00 | 0.02 | 84 | 1022.0 |
| 20260906040518 | 55 | 71 | 0.9 | 1.7 | 0.00 | 0.00 | 0.02 | 84 | 1022.0 |
| 20260906040509 | 55 | 62 | 0.9 | 1.7 | 0.00 | 0.00 | 0.02 | 84 | 1022.0 |
| 20260906040502 | 55 | 62 | 0.9 | 2.6 | 0.00 | 0.00 | 0.02 | 84 | 1022.0 |
| 20260906040445 | 55 | 72 | 1.7 | 2.6 | 0.00 | 0.00 | 0.02 | 84 | 1022.0 |
| 20260906040430 | 55 | 103 | 0.9 | 2.6 | 0.00 | 0.00 | 0.02 | 84 | 1022.0 |
| 20260906040414 | 55 | 38 | 1.7 | 2.6 | 0.00 | 0.00 | 0.02 | 84 | 1022.0 |
| 20260906040405 | 55 | 91 | 1.7 | 2.6 | 0.00 | 0.00 | 0.02 | 84 | 1022.0 |
| 20260906040358 | 55 | 91 | 1.7 | 2.6 | 0.00 | 0.00 | 0.02 | 84 | 1022.0 |
| 20260906040352 | 55 | 76 | 1.7 | 2.6 | 0.00 | 0.00 | 0.02 | 84 | 1022.0 |
| 20260906040334 | 55 | 77 | 1.7 | 5.2 | 0.00 | 0.00 | 0.02 | 84 | 1022.0 |
| 20260906040310 | 55 | 71 | 1.7 | 5.2 | 0.00 | 0.00 | 0.02 | 84 | 1022.0 |
| 20260906040301 | 55 | 59 | 1.7 | 5.2 | 0.00 | 0.00 | 0.02 | 84 | 1022.0 |
| 20260906040254 | 55 | 59 | 1.7 | 5.2 | 0.00 | 0.00 | 0.02 | 84 | 1022.0 |
| 20260906040237 | 55 | 76 | 1.7 | 5.2 | 0.00 | 0.00 | 0.02 | 84 | 1022.0 |
| 20260906040213 | 55 | 53 | 1.7 | 5.2 | 0.00 | 0.00 | 0.02 | 84 | 1022.0 |
| 20260906040206 | 55 | 50 | 3.5 | 5.2 | 0.00 | 0.00 | 0.02 | 84 | 1022.0 |
| 20260906040157 | 55 | 50 | 3.5 | 5.2 | 0.00 | 0.00 | 0.02 | 84 | 1022.0 |
| 20260906040142 | 55 | 16 | 3.5 | 5.2 | 0.00 | 0.00 | 0.02 | 84 | 1022.0 |
| 20260906040127 | 55 | 74 | 1.7 | 2.6 | 0.00 | 0.00 | 0.02 | 84 | 1022.0 |
| 20260906040053 | 55 | 66 | 0.9 | 2.6 | 0.00 | 0.00 | 0.02 | 84 | 1022.0 |
| 20260906040040 | 55 | 64 | 1.7 | 2.6 | 0.00 | 0.00 | 0.02 | 84 | 1022.0 |
| 20260906040013 | 55 | 75 | 1.7 | 2.6 | 0.00 | 0.00 | 0.02 | 84 | 1022.0 |
| 20260906035952 | 55 | 53 | 1.7 | 2.6 | 0.00 | 0.00 | 0.02 | 84 | 1022.0 |
| 20260906035933 | 55 | 91 | 1.7 | 3.5 | 0.00 | 0.00 | 0.02 | 84 | 1022.0 |
| 20260906035918 | 55 | 73 | 1.7 | 3.5 | 0.00 | 0.00 | 0.02 | 84 | 1022.0 |
| 20260906035901 | 55 | 58 | 1.7 | 3.5 | 0.00 | 0.00 | 0.02 | 84 | 1022.0 |
| 20260906035856 | 55 | 34 | 1.7 | 3.5 | 0.00 | 0.00 | 0.02 | 84 | 1022.0 |
| 20260906035829 | 55 | 68 | 1.7 | 3.5 | 0.00 | 0.00 | 0.02 | 84 | 1022.0 |
| 20260906035822 | 55 | 342 | 2.6 | 3.5 | 0.00 | 0.00 | 0.02 | 84 | 1022.0 |
| 20260906035802 | 55 | 37 | 1.7 | 2.6 | 0.00 | 0.00 | 0.02 | 84 | 1022.0 |
| 20260906035734 | 55 | 87 | 1.7 | 1.7 | 0.00 | 0.00 | 0.02 | 84 | 1022.0 |
| 20260906035717 | 55 | 75 | 1.7 | 1.7 | 0.00 | 0.00 | 0.02 | 84 | 1022.0 |
| 20260906035710 | 55 | 64 | 1.7 | 1.7 | 0.00 | 0.00 | 0.02 | 84 | 1022.0 |
| 20260906035701 | 55 | 64 | 1.7 | 2.6 | 0.00 | 0.00 | 0.02 | 84 | 1022.0 |
| 20260906035645 | 55 | 62 | 1.7 | 2.6 | 0.00 | 0.00 | 0.02 | 84 | 1022.0 |
| 20260906035629 | 55 | 39 | 0.9 | 2.6 | 0.00 | 0.00 | 0.02 | 84 | 1022.0 |
| 20260906035613 | 55 | 34 | 0.9 | 2.6 | 0.00 | 0.00 | 0.02 | 84 | 1022.0 |
| 20260906035607 | 55 | 76 | 0.9 | 2.6 | 0.00 | 0.00 | 0.02 | 84 | 1022.0 |
| 20260906035558 | 55 | 76 | 0.9 | 2.6 | 0.00 | 0.00 | 0.02 | 84 | 1022.0 |
| 20260906035544 | 55 | 68 | 0.9 | 2.6 | 0.00 | 0.00 | 0.02 | 84 | 1022.0 |
| 20260906035525 | 55 | 100 | 2.6 | 2.6 | 0.00 | 0.00 | 0.02 | 84 | 1022.0 |
| 20260906035510 | 55 | 85 | 1.7 | 2.6 | 0.00 | 0.00 | 0.02 | 84 | 1022.0 |
| 20260906035503 | 55 | 98 | 0.9 | 3.5 | 0.00 | 0.00 | 0.02 | 84 | 1022.0 |
| 20260906035453 | 55 | 98 | 0.9 | 3.5 | 0.00 | 0.00 | 0.02 | 84 | 1022.0 |
| 20260906035437 | 55 | 80 | 2.6 | 3.5 | 0.00 | 0.00 | 0.02 | 84 | 1022.0 |
| 20260906035424 | 55 | 84 | 0.9 | 3.5 | 0.00 | 0.00 | 0.02 | 84 | 1022.0 |
| 20260906035409 | 55 | 74 | 0.9 | 3.5 | 0.00 | 0.00 | 0.02 | 84 | 1022.0 |
| 20260906035349 | 55 | 52 | 0.9 | 3.5 | 0.00 | 0.00 | 0.02 | 84 | 1022.0 |
| 20260906035325 | 55 | 27 | 0.9 | 3.5 | 0.00 | 0.00 | 0.02 | 84 | 1022.0 |
| 20260906035320 | 55 | 66 | 1.7 | 3.5 | 0.00 | 0.00 | 0.02 | 84 | 1022.0 |
| 20260906035305 | 55 | 35 | 2.6 | 3.5 | 0.00 | 0.00 | 0.02 | 84 | 1022.0 |
| 20260906035253 | 55 | 35 | 2.6 | 3.5 | 0.00 | 0.00 | 0.02 | 84 | 1022.0 |
| 20260906035245 | 55 | 21 | 2.6 | 2.6 | 0.00 | 0.00 | 0.02 | 84 | 1022.0 |
| 20260906035237 | 55 | 21 | 2.6 | 2.6 | 0.00 | 0.00 | 0.02 | 83 | 1022.0 |
| 20260906035232 | 55 | 63 | 1.7 | 2.6 | 0.00 | 0.00 | 0.02 | 83 | 1022.0 |
| 20260906035216 | 55 | 40 | 0.9 | 2.6 | 0.00 | 0.00 | 0.02 | 83 | 1022.0 |
| 20260906035201 | 55 | 66 | 0.9 | 2.6 | 0.00 | 0.00 | 0.02 | 83 | 1022.0 |
| 20260906035149 | 55 | 66 | 0.9 | 2.6 | 0.00 | 0.00 | 0.02 | 83 | 1022.0 |
| 20260906035133 | 55 | 26 | 0.9 | 2.6 | 0.00 | 0.00 | 0.02 | 83 | 1022.0 |
| 20260906035128 | 55 | 94 | 0.9 | 2.6 | 0.00 | 0.00 | 0.02 | 83 | 1022.0 |
| 20260906035112 | 55 | 49 | 1.7 | 2.6 | 0.00 | 0.00 | 0.02 | 83 | 1022.0 |
| 20260906035046 | 55 | 64 | 1.7 | 2.6 | 0.00 | 0.00 | 0.02 | 83 | 1022.0 |
| 20260906035037 | 55 | 93 | 1.7 | 2.6 | 0.00 | 0.00 | 0.02 | 83 | 1022.0 |
| 20260906035029 | 55 | 93 | 1.7 | 3.5 | 0.00 | 0.00 | 0.02 | 83 | 1022.0 |
| 20260906035014 | 55 | 38 | 0.9 | 3.5 | 0.00 | 0.00 | 0.02 | 83 | 1022.0 |
| 20260906035006 | 55 | 53 | 1.7 | 3.5 | 0.00 | 0.00 | 0.02 | 83 | 1022.0 |
| 20260906034957 | 55 | 53 | 1.7 | 3.5 | 0.00 | 0.00 | 0.02 | 83 | 1022.0 |
| 20260906034944 | 55 | 69 | 2.6 | 3.5 | 0.00 | 0.00 | 0.02 | 83 | 1022.0 |
| 20260906034917 | 55 | 98 | 1.7 | 3.5 | 0.00 | 0.00 | 0.02 | 83 | 1022.0 |
| 20260906034902 | 55 | 92 | 1.7 | 3.5 | 0.00 | 0.00 | 0.02 | 83 | 1022.0 |
| 20260906034857 | 55 | 75 | 2.6 | 3.5 | 0.00 | 0.00 | 0.02 | 83 | 1022.0 |
| 20260906034829 | 55 | 66 | 2.6 | 3.5 | 0.00 | 0.00 | 0.02 | 83 | 1022.0 |
| 20260906034813 | 55 | 83 | 2.6 | 3.5 | 0.00 | 0.00 | 0.02 | 83 | 1022.0 |
| 20260906034801 | 55 | 80 | 2.6 | 5.2 | 0.00 | 0.00 | 0.02 | 83 | 1022.0 |
| 20260906034742 | 55 | 87 | 1.7 | 5.2 | 0.00 | 0.00 | 0.02 | 83 | 1022.0 |
| 20260906034725 | 55 | 66 | 1.7 | 5.2 | 0.00 | 0.00 | 0.02 | 83 | 1022.0 |
| 20260906034709 | 55 | 64 | 0.9 | 5.2 | 0.00 | 0.00 | 0.02 | 83 | 1022.0 |
| 20260906034701 | 55 | 39 | 1.7 | 5.2 | 0.00 | 0.00 | 0.02 | 83 | 1022.0 |
| 20260906034653 | 55 | 39 | 1.7 | 5.2 | 0.00 | 0.00 | 0.02 | 83 | 1022.0 |
| 20260906034638 | 55 | 99 | 3.5 | 5.2 | 0.00 | 0.00 | 0.02 | 83 | 1022.0 |
| 20260906034621 | 55 | 79 | 1.7 | 3.5 | 0.00 | 0.00 | 0.02 | 83 | 1022.0 |
| 20260906034616 | 55 | 54 | 2.6 | 3.5 | 0.00 | 0.00 | 0.02 | 83 | 1022.0 |
| 20260906034550 | 55 | 89 | 1.7 | 2.6 | 0.00 | 0.00 | 0.02 | 83 | 1022.0 |
| 20260906034534 | 55 | 39 | 0.9 | 0.9 | 0.00 | 0.00 | 0.02 | 83 | 1022.0 |
| 20260906034517 | 55 | 40 | 0.0 | 0.9 | 0.00 | 0.00 | 0.02 | 83 | 1022.0 |
| 20260906034501 | 55 | 34 | 0.0 | 0.9 | 0.00 | 0.00 | 0.02 | 83 | 1022.0 |
| 20260906034440 | 55 | 50 | 0.0 | 0.9 | 0.00 | 0.00 | 0.02 | 83 | 1022.0 |
| 20260906034422 | 55 | 46 | 0.0 | 0.9 | 0.00 | 0.00 | 0.02 | 83 | 1022.0 |
| 20260906034413 | 55 | 69 | 0.0 | 0.9 | 0.00 | 0.00 | 0.02 | 83 | 1022.0 |
| 20260906034408 | 55 | 69 | 0.0 | 1.7 | 0.00 | 0.00 | 0.02 | 83 | 1022.0 |
| 20260906034349 | 55 | 68 | 0.0 | 1.7 | 0.00 | 0.00 | 0.02 | 83 | 1022.0 |
| 20260906034341 | 55 | 70 | 0.0 | 1.7 | 0.00 | 0.00 | 0.02 | 83 | 1022.0 |
| 20260906034335 | 55 | 70 | 0.0 | 2.6 | 0.00 | 0.00 | 0.02 | 83 | 1022.0 |
| 20260906034317 | 55 | 37 | 0.0 | 2.6 | 0.00 | 0.00 | 0.02 | 83 | 1022.0 |
| 20260906034301 | 55 | 50 | 0.9 | 2.6 | 0.00 | 0.00 | 0.02 | 83 | 1022.0 |
| 20260906034246 | 55 | 48 | 0.0 | 2.6 | 0.00 | 0.00 | 0.02 | 83 | 1022.0 |
| 20260906034230 | 55 | 38 | 0.9 | 2.6 | 0.00 | 0.00 | 0.02 | 83 | 1022.0 |
| 20260906034213 | 55 | 45 | 0.9 | 2.6 | 0.00 | 0.00 | 0.02 | 83 | 1022.0 |
| 20260906034205 | 55 | 36 | 0.9 | 2.6 | 0.00 | 0.00 | 0.02 | 83 | 1022.0 |
| 20260906034157 | 55 | 36 | 0.9 | 2.6 | 0.00 | 0.00 | 0.02 | 83 | 1022.0 |
| 20260906034152 | 55 | 26 | 0.9 | 1.7 | 0.00 | 0.00 | 0.02 | 83 | 1022.0 |
| 20260906034139 | 55 | 57 | 0.9 | 1.7 | 0.00 | 0.00 | 0.02 | 83 | 1022.0 |
| 20260906034110 | 55 | 50 | 1.7 | 1.7 | 0.00 | 0.00 | 0.02 | 83 | 1022.0 |
| 20260906034101 | 55 | 67 | 0.0 | 1.7 | 0.00 | 0.00 | 0.02 | 83 | 1022.0 |
| 20260906034054 | 55 | 67 | 0.0 | 1.7 | 0.00 | 0.00 | 0.02 | 83 | 1022.0 |
| 20260906034037 | 55 | 76 | 0.9 | 1.7 | 0.00 | 0.00 | 0.02 | 83 | 1022.0 |
| 20260906034013 | 55 | 70 | 0.0 | 1.7 | 0.00 | 0.00 | 0.02 | 83 | 1022.0 |
| 20260906034005 | 55 | 69 | 0.9 | 2.6 | 0.00 | 0.00 | 0.02 | 83 | 1022.0 |
| 20260906033957 | 55 | 69 | 0.9 | 2.6 | 0.00 | 0.00 | 0.02 | 83 | 1022.0 |
| 20260906033951 | 55 | 53 | 1.7 | 2.6 | 0.00 | 0.00 | 0.02 | 83 | 1022.0 |
| 20260906033937 | 55 | 77 | 1.7 | 2.6 | 0.00 | 0.00 | 0.02 | 83 | 1022.0 |
| 20260906033909 | 55 | 92 | 0.9 | 2.6 | 0.00 | 0.00 | 0.02 | 83 | 1022.0 |
| 20260906033901 | 55 | 65 | 0.9 | 2.6 | 0.00 | 0.00 | 0.02 | 83 | 1022.0 |
| 20260906033853 | 55 | 65 | 0.9 | 2.6 | 0.00 | 0.00 | 0.02 | 83 | 1022.0 |
| 20260906033837 | 55 | 53 | 1.7 | 2.6 | 0.00 | 0.00 | 0.02 | 83 | 1022.0 |
| 20260906033822 | 55 | 106 | 2.6 | 2.6 | 0.00 | 0.00 | 0.02 | 83 | 1022.0 |
| 20260906033805 | 55 | 97 | 2.6 | 2.6 | 0.00 | 0.00 | 0.02 | 83 | 1022.0 |
| 20260906033749 | 55 | 100 | 1.7 | 2.6 | 0.00 | 0.00 | 0.02 | 83 | 1022.0 |
| 20260906033742 | 55 | 86 | 0.9 | 2.6 | 0.00 | 0.00 | 0.02 | 83 | 1022.0 |
| 20260906033734 | 55 | 86 | 0.9 | 3.5 | 0.00 | 0.00 | 0.02 | 83 | 1022.0 |
| 20260906033718 | 55 | 65 | 0.9 | 3.5 | 0.00 | 0.00 | 0.02 | 83 | 1022.0 |
| 20260906033701 | 55 | 85 | 1.7 | 3.5 | 0.00 | 0.00 | 0.02 | 83 | 1022.0 |
| 20260906033645 | 55 | 80 | 1.7 | 3.5 | 0.00 | 0.00 | 0.02 | 83 | 1022.0 |
| 20260906033640 | 55 | 102 | 1.7 | 3.5 | 0.00 | 0.00 | 0.02 | 83 | 1022.0 |
| 20260906033614 | 55 | 52 | 2.6 | 3.5 | 0.00 | 0.00 | 0.02 | 83 | 1022.0 |
| 20260906033600 | 55 | 83 | 2.6 | 3.5 | 0.00 | 0.00 | 0.02 | 83 | 1022.0 |
| 20260906033533 | 55 | 79 | 2.6 | 2.6 | 0.00 | 0.00 | 0.02 | 83 | 1022.0 |
| 20260906033528 | 55 | 74 | 1.7 | 2.6 | 0.00 | 0.00 | 0.02 | 83 | 1022.0 |
| 20260906033501 | 55 | 102 | 1.7 | 1.7 | 0.00 | 0.00 | 0.02 | 83 | 1022.0 |
| 20260906033445 | 55 | 83 | 0.9 | 1.7 | 0.00 | 0.00 | 0.02 | 83 | 1022.0 |
| 20260906033431 | 55 | 72 | 0.9 | 1.7 | 0.00 | 0.00 | 0.02 | 83 | 1022.0 |
| 20260906033413 | 55 | 30 | 0.9 | 1.7 | 0.00 | 0.00 | 0.02 | 83 | 1022.0 |
| 20260906033406 | 55 | 55 | 1.7 | 2.6 | 0.00 | 0.00 | 0.02 | 83 | 1022.0 |
| 20260906033357 | 55 | 55 | 1.7 | 2.6 | 0.00 | 0.00 | 0.02 | 83 | 1022.0 |
| 20260906033341 | 55 | 61 | 0.9 | 2.6 | 0.00 | 0.00 | 0.02 | 83 | 1022.0 |
| 20260906033326 | 55 | 95 | 0.9 | 2.6 | 0.00 | 0.00 | 0.02 | 83 | 1022.0 |
| 20260906033320 | 55 | 80 | 0.9 | 2.6 | 0.00 | 0.00 | 0.02 | 83 | 1022.0 |
| 20260906033238 | 55 | 65 | 0.9 | 2.6 | 0.00 | 0.00 | 0.02 | 83 | 1022.0 |
| 20260906033221 | 55 | 97 | 1.7 | 2.6 | 0.00 | 0.00 | 0.02 | 83 | 1022.0 |
| 20260906033206 | 55 | 98 | 2.6 | 2.6 | 0.00 | 0.00 | 0.02 | 83 | 1022.0 |
| 20260906033150 | 55 | 111 | 1.7 | 2.6 | 0.00 | 0.00 | 0.02 | 83 | 1022.0 |
| 20260906033125 | 55 | 64 | 1.7 | 2.6 | 0.00 | 0.00 | 0.02 | 83 | 1022.0 |
| 20260906033109 | 55 | 57 | 1.7 | 2.6 | 0.00 | 0.00 | 0.02 | 83 | 1022.0 |
| 20260906033102 | 55 | 59 | 1.7 | 1.7 | 0.00 | 0.00 | 0.02 | 83 | 1022.0 |
| 20260906033056 | 55 | 59 | 1.7 | 1.7 | 0.00 | 0.00 | 0.02 | 83 | 1022.0 |
| 20260906033037 | 55 | 80 | 0.9 | 1.7 | 0.00 | 0.00 | 0.02 | 83 | 1022.0 |
| 20260906033023 | 55 | 58 | 0.9 | 3.5 | 0.00 | 0.00 | 0.02 | 83 | 1022.0 |
| 20260906033005 | 55 | 70 | 0.9 | 3.5 | 0.00 | 0.00 | 0.02 | 83 | 1022.0 |
| 20260906032949 | 55 | 67 | 0.9 | 3.5 | 0.00 | 0.00 | 0.02 | 83 | 1022.0 |
| 20260906032944 | 55 | 45 | 0.0 | 3.5 | 0.00 | 0.00 | 0.02 | 83 | 1022.0 |
| 20260906032920 | 55 | 62 | 1.7 | 3.5 | 0.00 | 0.00 | 0.02 | 83 | 1022.0 |
| 20260906032901 | 55 | 65 | 1.7 | 3.5 | 0.00 | 0.00 | 0.02 | 83 | 1022.0 |
| 20260906032846 | 55 | 65 | 2.6 | 3.5 | 0.00 | 0.00 | 0.02 | 83 | 1022.0 |
| 20260906032832 | 55 | 92 | 1.7 | 2.6 | 0.00 | 0.00 | 0.02 | 83 | 1022.0 |
| 20260906032813 | 55 | 85 | 0.9 | 2.6 | 0.00 | 0.00 | 0.02 | 83 | 1022.0 |
| 20260906032806 | 55 | 73 | 1.7 | 2.6 | 0.00 | 0.00 | 0.02 | 83 | 1022.0 |
| 20260906032757 | 55 | 73 | 1.7 | 2.6 | 0.00 | 0.00 | 0.02 | 83 | 1022.0 |
| 20260906032743 | 55 | 95 | 1.7 | 2.6 | 0.00 | 0.00 | 0.02 | 83 | 1022.0 |
| 20260906032730 | 55 | 66 | 1.7 | 2.6 | 0.00 | 0.00 | 0.02 | 83 | 1022.0 |
| 20260906032703 | 55 | 90 | 0.9 | 1.7 | 0.00 | 0.00 | 0.02 | 83 | 1022.0 |
| 20260906032646 | 55 | 90 | 0.9 | 1.7 | 0.00 | 0.00 | 0.02 | 83 | 1022.0 |
| 20260906032637 | 55 | 75 | 0.9 | 1.7 | 0.00 | 0.00 | 0.02 | 83 | 1022.0 |
| 20260906032634 | 55 | 75 | 0.9 | 2.6 | 0.00 | 0.00 | 0.02 | 83 | 1022.0 |
| 20260906032613 | 55 | 85 | 0.9 | 2.6 | 0.00 | 0.00 | 0.02 | 83 | 1022.0 |
| 20260906032605 | 55 | 79 | 0.9 | 3.5 | 0.00 | 0.00 | 0.02 | 83 | 1022.0 |
| 20260906032557 | 55 | 79 | 0.9 | 3.5 | 0.00 | 0.00 | 0.02 | 83 | 1022.0 |
| 20260906032542 | 55 | 65 | 0.9 | 3.5 | 0.00 | 0.00 | 0.02 | 83 | 1022.0 |
| 20260906032537 | 55 | 86 | 0.9 | 3.5 | 0.00 | 0.00 | 0.02 | 83 | 1022.0 |
| 20260906032509 | 55 | 88 | 0.9 | 3.5 | 0.00 | 0.00 | 0.02 | 83 | 1022.0 |
| 20260906032502 | 55 | 52 | 1.7 | 3.5 | 0.00 | 0.00 | 0.02 | 83 | 1022.0 |
| 20260906032453 | 55 | 52 | 1.7 | 3.5 | 0.00 | 0.00 | 0.02 | 83 | 1022.0 |
| 20260906032440 | 55 | 62 | 0.9 | 3.5 | 0.00 | 0.00 | 0.02 | 83 | 1022.0 |
| 20260906032424 | 55 | 42 | 2.6 | 3.5 | 0.00 | 0.00 | 0.02 | 83 | 1022.0 |
| 20260906032405 | 55 | 94 | 3.5 | 3.5 | 0.00 | 0.00 | 0.02 | 83 | 1022.0 |
| 20260906032358 | 55 | 87 | 0.9 | 2.6 | 0.00 | 0.00 | 0.02 | 83 | 1022.0 |
| 20260906032346 | 55 | 52 | 0.0 | 0.0 | 0.00 | 0.00 | 0.02 | 83 | 1022.0 |
| 20260906032305 | 55 | 27 | 0.0 | 0.0 | 0.00 | 0.00 | 0.02 | 83 | 1022.0 |
| 20260906032238 | 55 | 27 | 0.0 | 0.0 | 0.00 | 0.00 | 0.02 | 83 | 1022.0 |
| 20260906032231 | 55 | 52 | 0.0 | 0.9 | 0.00 | 0.00 | 0.02 | 83 | 1022.0 |
| 20260906032205 | 55 | 61 | 0.0 | 0.9 | 0.00 | 0.00 | 0.02 | 83 | 1022.0 |
| 20260906032152 | 55 | 81 | 0.0 | 0.9 | 0.00 | 0.00 | 0.02 | 83 | 1022.0 |
| 20260906032134 | 55 | 44 | 0.0 | 0.9 | 0.00 | 0.00 | 0.02 | 83 | 1022.0 |
| 20260906032117 | 55 | 41 | 0.0 | 0.9 | 0.00 | 0.00 | 0.02 | 83 | 1022.0 |
| 20260906032101 | 55 | 43 | 0.0 | 0.9 | 0.00 | 0.00 | 0.02 | 83 | 1022.0 |
| 20260906032045 | 55 | 59 | 0.0 | 0.9 | 0.00 | 0.00 | 0.02 | 83 | 1022.0 |
| 20260906032030 | 55 | 63 | 0.0 | 0.9 | 0.00 | 0.00 | 0.02 | 83 | 1022.0 |
| 20260906032013 | 55 | 45 | 0.0 | 0.9 | 0.00 | 0.00 | 0.02 | 83 | 1022.0 |
| 20260906032005 | 55 | 71 | 0.9 | 1.7 | 0.00 | 0.00 | 0.02 | 83 | 1022.0 |
| 20260906031957 | 55 | 71 | 0.9 | 1.7 | 0.00 | 0.00 | 0.02 | 83 | 1022.0 |
| 20260906031946 | 55 | 54 | 0.9 | 1.7 | 0.00 | 0.00 | 0.02 | 83 | 1022.0 |
| 20260906031917 | 55 | 92 | 0.0 | 1.7 | 0.00 | 0.00 | 0.02 | 83 | 1022.0 |
| 20260906031907 | 55 | 81 | 0.0 | 1.7 | 0.00 | 0.00 | 0.02 | 83 | 1022.0 |
| 20260906031837 | 55 | 81 | 0.0 | 1.7 | 0.00 | 0.00 | 0.02 | 83 | 1022.0 |
| 20260906031813 | 55 | 100 | 0.9 | 1.7 | 0.00 | 0.00 | 0.02 | 83 | 1022.0 |
| 20260906031800 | 55 | 107 | 0.9 | 1.7 | 0.00 | 0.00 | 0.02 | 83 | 1022.0 |
| 20260906031741 | 55 | 79 | 0.9 | 1.7 | 0.00 | 0.00 | 0.02 | 83 | 1022.0 |
| 20260906031734 | 55 | 83 | 0.9 | 2.6 | 0.00 | 0.00 | 0.02 | 83 | 1022.0 |
| 20260906031725 | 55 | 83 | 0.9 | 2.6 | 0.00 | 0.00 | 0.02 | 82 | 1022.0 |
| 20260906031709 | 55 | 100 | 0.9 | 2.6 | 0.00 | 0.00 | 0.02 | 82 | 1022.0 |
| 20260906031701 | 55 | 81 | 0.9 | 2.6 | 0.00 | 0.00 | 0.02 | 82 | 1022.0 |
| 20260906031653 | 55 | 81 | 0.9 | 2.6 | 0.00 | 0.00 | 0.02 | 82 | 1022.0 |
| 20260906031638 | 55 | 121 | 0.9 | 2.6 | 0.00 | 0.00 | 0.02 | 82 | 1022.0 |
| 20260906031621 | 55 | 95 | 0.9 | 2.6 | 0.00 | 0.00 | 0.02 | 83 | 1022.0 |
| 20260906031608 | 55 | 107 | 0.9 | 2.6 | 0.00 | 0.00 | 0.02 | 83 | 1022.0 |
| 20260906031549 | 55 | 46 | 1.7 | 2.6 | 0.00 | 0.00 | 0.02 | 83 | 1022.0 |
| 20260906031533 | 55 | 66 | 2.6 | 2.6 | 0.00 | 0.00 | 0.02 | 83 | 1022.0 |
| 20260906031531 | 55 | 86 | 1.7 | 2.6 | 0.00 | 0.00 | 0.02 | 83 | 1022.0 |
| 20260906031503 | 55 | 97 | 0.9 | 0.9 | 0.00 | 0.00 | 0.02 | 83 | 1022.0 |
| 20260906031445 | 55 | 65 | 0.0 | 0.9 | 0.00 | 0.00 | 0.02 | 83 | 1022.0 |
| 20260906031437 | 55 | 72 | 0.0 | 0.9 | 0.00 | 0.00 | 0.02 | 83 | 1022.0 |
| 20260906031423 | 55 | 72 | 0.0 | 1.7 | 0.00 | 0.00 | 0.02 | 83 | 1022.0 |
| 20260906031406 | 55 | 97 | 0.9 | 1.7 | 0.00 | 0.00 | 0.02 | 82 | 1022.0 |
| 20260906031349 | 55 | 97 | 0.9 | 1.7 | 0.00 | 0.00 | 0.02 | 82 | 1022.0 |
| 20260906031341 | 55 | 95 | 0.9 | 1.7 | 0.00 | 0.00 | 0.02 | 82 | 1022.0 |
| 20260906031333 | 55 | 95 | 0.9 | 2.6 | 0.00 | 0.00 | 0.02 | 82 | 1022.0 |
| 20260906031317 | 55 | 98 | 0.9 | 2.6 | 0.00 | 0.00 | 0.02 | 82 | 1022.0 |
| 20260906031305 | 55 | 104 | 1.7 | 2.6 | 0.00 | 0.00 | 0.02 | 83 | 1022.0 |
| 20260906031246 | 55 | 88 | 1.7 | 2.6 | 0.00 | 0.00 | 0.02 | 83 | 1022.0 |
| 20260906031230 | 55 | 83 | 0.9 | 2.6 | 0.00 | 0.00 | 0.02 | 83 | 1022.0 |
| 20260906031213 | 55 | 73 | 0.9 | 2.6 | 0.00 | 0.00 | 0.02 | 83 | 1022.0 |
| 20260906031209 | 55 | 72 | 1.7 | 2.6 | 0.00 | 0.00 | 0.02 | 82 | 1022.0 |
| 20260906031141 | 55 | 101 | 1.7 | 2.6 | 0.00 | 0.00 | 0.02 | 82 | 1022.0 |
| 20260906031128 | 55 | 54 | 1.7 | 1.7 | 0.00 | 0.00 | 0.02 | 82 | 1022.0 |
| 20260906031112 | 55 | 78 | 0.9 | 1.7 | 0.00 | 0.00 | 0.02 | 82 | 1022.0 |
| 20260906031055 | 55 | 57 | 1.7 | 2.6 | 0.00 | 0.00 | 0.02 | 82 | 1022.0 |
| 20260906031037 | 55 | 65 | 0.9 | 2.6 | 0.00 | 0.00 | 0.02 | 82 | 1022.0 |
| 20260906031021 | 55 | 83 | 0.9 | 2.6 | 0.00 | 0.00 | 0.02 | 82 | 1022.0 |
| 20260906031015 | 55 | 71 | 0.9 | 2.6 | 0.00 | 0.00 | 0.02 | 82 | 1022.0 |
| 20260906030949 | 55 | 68 | 0.9 | 2.6 | 0.00 | 0.00 | 0.02 | 83 | 1022.0 |
| 20260906030925 | 55 | 71 | 0.9 | 2.6 | 0.00 | 0.00 | 0.02 | 83 | 1022.0 |
| 20260906030909 | 55 | 83 | 1.7 | 2.6 | 0.00 | 0.00 | 0.02 | 83 | 1022.0 |
| 20260906030901 | 55 | 91 | 0.9 | 2.6 | 0.00 | 0.00 | 0.02 | 83 | 1022.0 |
| 20260906030854 | 55 | 91 | 0.9 | 2.6 | 0.00 | 0.00 | 0.02 | 83 | 1022.0 |
| 20260906030847 | 55 | 95 | 0.9 | 2.6 | 0.00 | 0.00 | 0.02 | 83 | 1022.0 |
| 20260906030823 | 55 | 88 | 1.7 | 2.6 | 0.00 | 0.00 | 0.02 | 83 | 1022.0 |
| 20260906030804 | 55 | 109 | 2.6 | 2.6 | 0.00 | 0.00 | 0.02 | 83 | 1022.0 |
| 20260906030800 | 55 | 95 | 1.7 | 1.7 | 0.00 | 0.00 | 0.02 | 83 | 1022.0 |
| 20260906030732 | 55 | 73 | 1.7 | 1.7 | 0.00 | 0.00 | 0.02 | 83 | 1022.0 |
| 20260906030719 | 55 | 66 | 0.0 | 0.9 | 0.00 | 0.00 | 0.02 | 83 | 1022.0 |
| 20260906030706 | 55 | 50 | 0.0 | 1.7 | 0.00 | 0.00 | 0.02 | 83 | 1022.0 |
| 20260906030645 | 55 | 77 | 0.0 | 1.7 | 0.00 | 0.00 | 0.02 | 83 | 1022.0 |
| 20260906030629 | 55 | 64 | 0.0 | 1.7 | 0.00 | 0.00 | 0.02 | 83 | 1022.0 |
| 20260906030612 | 55 | 34 | 0.0 | 1.7 | 0.00 | 0.00 | 0.02 | 83 | 1022.0 |
| 20260906030608 | 55 | 67 | 0.0 | 2.6 | 0.00 | 0.00 | 0.02 | 83 | 1022.0 |
| 20260906030552 | 55 | 60 | 0.9 | 2.6 | 0.00 | 0.00 | 0.02 | 83 | 1022.0 |
| 20260906030525 | 55 | 79 | 0.9 | 2.6 | 0.00 | 0.00 | 0.02 | 83 | 1022.0 |
| 20260906030501 | 55 | 90 | 0.9 | 2.6 | 0.00 | 0.00 | 0.02 | 83 | 1022.0 |
| 20260906030429 | 55 | 65 | 0.9 | 2.6 | 0.00 | 0.00 | 0.02 | 83 | 1022.0 |
| 20260906030415 | 55 | 79 | 1.7 | 2.6 | 0.00 | 0.00 | 0.02 | 83 | 1022.0 |
| 20260906030357 | 55 | 77 | 1.7 | 2.6 | 0.00 | 0.00 | 0.02 | 83 | 1022.0 |
| 20260906030341 | 55 | 75 | 0.9 | 2.6 | 0.00 | 0.00 | 0.02 | 83 | 1022.0 |
| 20260906030325 | 55 | 72 | 1.7 | 2.6 | 0.00 | 0.00 | 0.02 | 83 | 1022.0 |
| 20260906030323 | 55 | 87 | 2.6 | 2.6 | 0.00 | 0.00 | 0.02 | 83 | 1022.0 |
| 20260906030221 | 55 | 42 | 0.9 | 1.7 | 0.00 | 0.00 | 0.02 | 83 | 1022.0 |
| 20260906030204 | 55 | 92 | 0.9 | 1.7 | 0.00 | 0.00 | 0.02 | 83 | 1022.0 |
| 20260906030132 | 55 | 85 | 0.0 | 1.7 | 0.00 | 0.00 | 0.02 | 83 | 1022.0 |
| 20260906030119 | 55 | 54 | 1.7 | 1.7 | 0.00 | 0.00 | 0.02 | 83 | 1022.0 |
| 20260906030100 | 55 | 80 | 0.9 | 1.7 | 0.00 | 0.00 | 0.02 | 83 | 1022.0 |
| 20260906030041 | 55 | 62 | 0.0 | 1.7 | 0.00 | 0.00 | 0.02 | 83 | 1022.0 |
| 20260906030024 | 55 | 75 | 0.0 | 2.6 | 0.00 | 0.00 | 0.02 | 83 | 1022.0 |
| 20260906030006 | 55 | 48 | 0.9 | 3.5 | 0.00 | 0.00 | 0.02 | 83 | 1022.0 |
| 20260906025949 | 55 | 77 | 0.9 | 3.5 | 0.00 | 0.00 | 0.02 | 83 | 1022.0 |
| 20260906025939 | 55 | 83 | 1.7 | 3.5 | 0.00 | 0.00 | 0.02 | 83 | 1022.0 |
| 20260906025901 | 55 | 59 | 1.7 | 3.5 | 0.00 | 0.00 | 0.02 | 83 | 1022.0 |
| 20260906025845 | 55 | 80 | 2.6 | 3.5 | 0.00 | 0.00 | 0.02 | 83 | 1022.0 |
| 20260906025836 | 55 | 64 | 2.6 | 3.5 | 0.00 | 0.00 | 0.02 | 83 | 1022.0 |
| 20260906025805 | 55 | 94 | 1.7 | 2.6 | 0.00 | 0.00 | 0.02 | 83 | 1022.0 |
| 20260906025756 | 55 | 94 | 1.7 | 2.6 | 0.00 | 0.00 | 0.02 | 83 | 1022.0 |
| 20260906025751 | 55 | 70 | 1.7 | 2.6 | 0.00 | 0.00 | 0.02 | 83 | 1022.0 |
| 20260906025737 | 55 | 51 | 1.7 | 2.6 | 0.00 | 0.00 | 0.02 | 83 | 1022.0 |
| 20260906025712 | 55 | 82 | 0.9 | 1.7 | 0.00 | 0.00 | 0.02 | 83 | 1022.0 |
| 20260906025652 | 55 | 70 | 0.9 | 1.7 | 0.00 | 0.00 | 0.02 | 83 | 1022.0 |
| 20260906025647 | 55 | 76 | 0.9 | 1.7 | 0.00 | 0.00 | 0.02 | 83 | 1022.0 |
| 20260906025615 | 55 | 83 | 0.9 | 1.7 | 0.00 | 0.00 | 0.02 | 83 | 1022.0 |
| 20260906025557 | 55 | 74 | 0.9 | 1.7 | 0.00 | 0.00 | 0.02 | 83 | 1022.0 |
| 20260906025541 | 55 | 45 | 0.9 | 1.7 | 0.00 | 0.00 | 0.02 | 83 | 1022.0 |
| 20260906025539 | 55 | 86 | 1.7 | 1.7 | 0.00 | 0.00 | 0.02 | 83 | 1022.0 |
| 20260906025520 | 55 | 74 | 0.9 | 1.7 | 0.00 | 0.00 | 0.02 | 83 | 1022.0 |
| 20260906025501 | 55 | 62 | 0.0 | 1.7 | 0.00 | 0.00 | 0.02 | 83 | 1022.0 |
| 20260906025453 | 55 | 62 | 0.0 | 1.7 | 0.00 | 0.00 | 0.02 | 83 | 1022.0 |
| 20260906025440 | 55 | 45 | 0.9 | 1.7 | 0.00 | 0.00 | 0.02 | 83 | 1022.0 |
| 20260906025421 | 55 | 89 | 0.0 | 1.7 | 0.00 | 0.00 | 0.02 | 83 | 1022.0 |
| 20260906025405 | 55 | 60 | 0.9 | 1.7 | 0.00 | 0.00 | 0.02 | 83 | 1022.0 |
| 20260906025349 | 55 | 72 | 1.7 | 1.7 | 0.00 | 0.00 | 0.02 | 83 | 1022.0 |
| 20260906025333 | 55 | 93 | 1.7 | 1.7 | 0.00 | 0.00 | 0.02 | 83 | 1022.0 |
| 20260906025317 | 55 | 58 | 0.0 | 1.7 | 0.00 | 0.00 | 0.02 | 83 | 1022.0 |
| 20260906025301 | 55 | 69 | 0.0 | 1.7 | 0.00 | 0.00 | 0.02 | 83 | 1022.0 |
| 20260906025245 | 55 | 85 | 0.9 | 1.7 | 0.00 | 0.00 | 0.02 | 83 | 1022.0 |
| 20260906025229 | 55 | 44 | 0.9 | 0.9 | 0.00 | 0.00 | 0.02 | 83 | 1022.0 |
| 20260906025214 | 55 | 55 | 0.0 | 0.0 | 0.00 | 0.00 | 0.02 | 83 | 1022.0 |
| 20260906025207 | 55 | 25 | 0.0 | 0.9 | 0.00 | 0.00 | 0.02 | 83 | 1022.0 |
| 20260906025155 | 55 | 25 | 0.0 | 0.9 | 0.00 | 0.00 | 0.02 | 83 | 1022.0 |
| 20260906025128 | 55 | 125 | 0.0 | 0.9 | 0.00 | 0.00 | 0.02 | 83 | 1022.0 |
| 20260906025101 | 55 | 109 | 0.0 | 0.9 | 0.00 | 0.00 | 0.02 | 83 | 1022.0 |
| 20260906025058 | 55 | 87 | 0.0 | 0.9 | 0.00 | 0.00 | 0.02 | 83 | 1022.0 |
| 20260906025013 | 55 | 87 | 0.0 | 0.9 | 0.00 | 0.00 | 0.02 | 84 | 1022.0 |
| 20260906025006 | 55 | 87 | 0.9 | 1.7 | 0.00 | 0.00 | 0.02 | 84 | 1022.0 |
| 20260906024940 | 55 | 84 | 0.0 | 1.7 | 0.00 | 0.00 | 0.02 | 84 | 1022.0 |
| 20260906024924 | 55 | 61 | 0.0 | 1.7 | 0.00 | 0.00 | 0.02 | 84 | 1022.0 |
| 20260906024910 | 55 | 82 | 0.9 | 1.7 | 0.00 | 0.00 | 0.02 | 84 | 1022.0 |
| 20260906024901 | 55 | 91 | 0.9 | 1.7 | 0.00 | 0.00 | 0.02 | 84 | 1022.0 |
| 20260906024853 | 55 | 91 | 0.9 | 1.7 | 0.00 | 0.00 | 0.02 | 84 | 1022.0 |
| 20260906024836 | 55 | 71 | 0.9 | 1.7 | 0.00 | 0.00 | 0.02 | 84 | 1022.0 |
| 20260906024832 | 55 | 101 | 0.9 | 1.7 | 0.00 | 0.00 | 0.02 | 84 | 1022.0 |
| 20260906024816 | 55 | 69 | 0.9 | 1.7 | 0.00 | 0.00 | 0.02 | 84 | 1022.0 |
| 20260906024748 | 55 | 105 | 0.9 | 1.7 | 0.00 | 0.00 | 0.02 | 84 | 1022.0 |
| 20260906024725 | 55 | 73 | 0.0 | 1.7 | 0.00 | 0.00 | 0.02 | 84 | 1022.0 |
| 20260906024710 | 55 | 78 | 0.9 | 1.7 | 0.00 | 0.00 | 0.02 | 84 | 1022.0 |
| 20260906024700 | 55 | 93 | 0.9 | 1.7 | 0.00 | 0.00 | 0.02 | 84 | 1022.0 |
| 20260906024653 | 55 | 93 | 0.9 | 1.7 | 0.00 | 0.00 | 0.02 | 84 | 1022.0 |
| 20260906024636 | 55 | 73 | 0.9 | 0.9 | 0.00 | 0.00 | 0.02 | 84 | 1022.0 |
| 20260906024621 | 55 | 62 | 0.0 | 1.7 | 0.00 | 0.00 | 0.02 | 84 | 1022.0 |
| 20260906024616 | 55 | 54 | 0.0 | 1.7 | 0.00 | 0.00 | 0.02 | 84 | 1022.0 |
| 20260906024549 | 55 | 76 | 0.9 | 1.7 | 0.00 | 0.00 | 0.02 | 84 | 1022.0 |
| 20260906024543 | 55 | 77 | 0.9 | 1.7 | 0.00 | 0.00 | 0.02 | 84 | 1022.0 |
| 20260906024517 | 55 | 92 | 0.9 | 1.7 | 0.00 | 0.00 | 0.02 | 84 | 1022.0 |
| 20260906024501 | 55 | 65 | 0.9 | 1.7 | 0.00 | 0.00 | 0.02 | 84 | 1022.0 |
| 20260906024456 | 55 | 84 | 1.7 | 1.7 | 0.00 | 0.00 | 0.02 | 84 | 1022.0 |
| 20260906024431 | 55 | 90 | 1.7 | 1.7 | 0.00 | 0.00 | 0.02 | 84 | 1022.0 |
| 20260906024413 | 55 | 51 | 0.9 | 1.7 | 0.00 | 0.00 | 0.02 | 84 | 1022.0 |
| 20260906024405 | 55 | 53 | 0.0 | 1.7 | 0.00 | 0.00 | 0.02 | 84 | 1022.0 |
| 20260906024357 | 55 | 53 | 0.0 | 1.7 | 0.00 | 0.00 | 0.02 | 84 | 1022.0 |
| 20260906024341 | 55 | 94 | 0.0 | 1.7 | 0.00 | 0.00 | 0.02 | 84 | 1022.0 |
| 20260906024335 | 55 | 67 | 0.9 | 1.7 | 0.00 | 0.00 | 0.02 | 84 | 1022.0 |
| 20260906024301 | 55 | 45 | 0.9 | 1.7 | 0.00 | 0.00 | 0.02 | 84 | 1022.0 |
| 20260906024244 | 55 | 60 | 1.7 | 1.7 | 0.00 | 0.00 | 0.02 | 84 | 1022.0 |
| 20260906024229 | 55 | 93 | 0.0 | 0.9 | 0.00 | 0.00 | 0.02 | 84 | 1022.0 |
| 20260906024223 | 55 | 59 | 0.0 | 0.9 | 0.00 | 0.00 | 0.02 | 84 | 1022.0 |
| 20260906024205 | 55 | 69 | 0.9 | 2.6 | 0.00 | 0.00 | 0.02 | 84 | 1022.0 |
| 20260906024157 | 55 | 69 | 0.9 | 2.6 | 0.00 | 0.00 | 0.02 | 84 | 1022.0 |
| 20260906024140 | 55 | 107 | 0.0 | 2.6 | 0.00 | 0.00 | 0.02 | 84 | 1022.0 |
| 20260906024129 | 55 | 73 | 0.0 | 3.5 | 0.00 | 0.00 | 0.02 | 84 | 1022.0 |
| 20260906024104 | 55 | 102 | 0.9 | 3.5 | 0.00 | 0.00 | 0.02 | 84 | 1022.0 |
| 20260906024037 | 55 | 133 | 1.7 | 3.5 | 0.00 | 0.00 | 0.02 | 84 | 1022.0 |
| 20260906024020 | 55 | 110 | 1.7 | 3.5 | 0.00 | 0.00 | 0.02 | 84 | 1022.0 |
| 20260906024004 | 55 | 101 | 1.7 | 3.5 | 0.00 | 0.00 | 0.02 | 84 | 1022.0 |
| 20260906023949 | 55 | 127 | 2.6 | 3.5 | 0.00 | 0.00 | 0.02 | 84 | 1022.0 |
| 20260906023933 | 55 | 86 | 1.7 | 2.6 | 0.00 | 0.00 | 0.02 | 84 | 1022.0 |
| 20260906023919 | 55 | 87 | 1.7 | 1.7 | 0.00 | 0.00 | 0.02 | 84 | 1022.0 |
| 20260906023900 | 55 | 78 | 0.0 | 0.0 | 0.00 | 0.00 | 0.02 | 84 | 1022.0 |
| 20260906023836 | 55 | 122 | 0.0 | 0.0 | 0.00 | 0.00 | 0.02 | 84 | 1022.0 |
| 20260906023821 | 55 | 116 | 0.0 | 0.0 | 0.00 | 0.00 | 0.02 | 84 | 1022.0 |
| 20260906023804 | 55 | 108 | 0.0 | 0.0 | 0.00 | 0.00 | 0.02 | 84 | 1022.0 |
| 20260906023749 | 55 | 59 | 0.0 | 0.0 | 0.00 | 0.00 | 0.02 | 84 | 1022.0 |
| 20260906023703 | 55 | 56 | 0.0 | 0.0 | 0.00 | 0.00 | 0.02 | 84 | 1022.0 |
| 20260906023604 | 55 | 56 | 0.0 | 0.0 | 0.00 | 0.00 | 0.02 | 84 | 1022.0 |
| 20260906023537 | 55 | 56 | 0.0 | 0.0 | 0.00 | 0.00 | 0.02 | 84 | 1022.0 |
| 20260906023501 | 55 | 56 | 0.0 | 0.0 | 0.00 | 0.00 | 0.02 | 84 | 1022.0 |
| 20260906023407 | 55 | 56 | 0.0 | 0.0 | 0.00 | 0.00 | 0.02 | 84 | 1022.0 |
| 20260906023341 | 55 | 56 | 0.0 | 0.0 | 0.00 | 0.00 | 0.02 | 84 | 1022.0 |
| 20260906023324 | 55 | 20 | 0.0 | 0.0 | 0.00 | 0.00 | 0.02 | 84 | 1022.0 |
| 20260906023309 | 55 | 11 | 0.0 | 0.0 | 0.00 | 0.00 | 0.02 | 84 | 1022.0 |
| 20260906023304 | 55 | 13 | 0.0 | 0.0 | 0.00 | 0.00 | 0.02 | 84 | 1022.0 |
| 20260906023206 | 55 | 39 | 0.0 | 0.0 | 0.00 | 0.00 | 0.02 | 84 | 1022.0 |
| 20260906023149 | 55 | 39 | 0.0 | 0.0 | 0.00 | 0.00 | 0.02 | 84 | 1022.0 |
| 20260906023104 | 55 | 38 | 0.0 | 0.0 | 0.00 | 0.00 | 0.02 | 84 | 1022.0 |
| 20260906023046 | 55 | 38 | 0.0 | 0.0 | 0.00 | 0.00 | 0.02 | 84 | 1022.0 |
| 20260906023016 | 55 | 38 | 0.0 | 0.0 | 0.00 | 0.00 | 0.02 | 84 | 1022.0 |
| 20260906022901 | 55 | 38 | 0.0 | 0.0 | 0.00 | 0.00 | 0.02 | 84 | 1022.0 |
| 20260906022805 | 55 | 38 | 0.0 | 0.0 | 0.00 | 0.00 | 0.02 | 84 | 1022.0 |
| 20260906022758 | 55 | 38 | 0.0 | 0.0 | 0.00 | 0.00 | 0.02 | 84 | 1022.0 |
| 20260906022710 | 55 | 23 | 0.0 | 0.0 | 0.00 | 0.00 | 0.02 | 84 | 1022.0 |
| 20260906022701 | 55 | 37 | 0.0 | 0.9 | 0.00 | 0.00 | 0.02 | 84 | 1022.0 |
| 20260906022653 | 55 | 37 | 0.0 | 0.9 | 0.00 | 0.00 | 0.02 | 84 | 1022.0 |
| 20260906022640 | 55 | 35 | 0.0 | 0.9 | 0.00 | 0.00 | 0.02 | 84 | 1022.0 |
| 20260906022622 | 55 | 17 | 0.0 | 0.9 | 0.00 | 0.00 | 0.02 | 84 | 1022.0 |
| 20260906022613 | 55 | 356 | 0.0 | 0.9 | 0.00 | 0.00 | 0.02 | 84 | 1022.0 |
| 20260906022605 | 55 | 356 | 0.0 | 0.9 | 0.00 | 0.00 | 0.02 | 84 | 1021.0 |
| 20260906022549 | 55 | 346 | 0.0 | 0.9 | 0.00 | 0.00 | 0.02 | 84 | 1021.0 |
| 20260906022537 | 55 | 325 | 0.0 | 0.9 | 0.00 | 0.00 | 0.02 | 84 | 1021.0 |
| 20260906022512 | 55 | 355 | 0.9 | 0.9 | 0.00 | 0.00 | 0.02 | 84 | 1021.0 |
| 20260906022454 | 55 | 41 | 0.9 | 0.9 | 0.00 | 0.00 | 0.02 | 84 | 1022.0 |
| 20260906022449 | 55 | 22 | 0.0 | 0.9 | 0.00 | 0.00 | 0.02 | 84 | 1022.0 |
| 20260906022413 | 55 | 15 | 0.0 | 0.0 | 0.00 | 0.00 | 0.02 | 84 | 1022.0 |
| 20260906022405 | 55 | 15 | 0.0 | 0.9 | 0.00 | 0.00 | 0.02 | 84 | 1022.0 |
| 20260906022349 | 55 | 15 | 0.0 | 0.9 | 0.00 | 0.00 | 0.02 | 84 | 1022.0 |
| 20260906022334 | 55 | 340 | 0.0 | 0.9 | 0.00 | 0.00 | 0.02 | 84 | 1022.0 |
| 20260906022312 | 55 | 331 | 0.0 | 0.9 | 0.00 | 0.00 | 0.02 | 84 | 1022.0 |
| 20260906022248 | 55 | 331 | 0.0 | 2.6 | 0.00 | 0.00 | 0.02 | 84 | 1022.0 |
| 20260906022230 | 55 | 329 | 0.0 | 2.6 | 0.00 | 0.00 | 0.02 | 84 | 1022.0 |
| 20260906022213 | 55 | 313 | 0.9 | 2.6 | 0.00 | 0.00 | 0.02 | 84 | 1022.0 |
| 20260906022206 | 55 | 322 | 0.9 | 2.6 | 0.00 | 0.00 | 0.02 | 84 | 1022.0 |
| 20260906022157 | 55 | 322 | 0.9 | 2.6 | 0.00 | 0.00 | 0.02 | 84 | 1022.0 |
| 20260906022141 | 55 | 323 | 0.9 | 2.6 | 0.00 | 0.00 | 0.02 | 84 | 1022.0 |
| 20260906022125 | 55 | 305 | 1.7 | 2.6 | 0.00 | 0.00 | 0.02 | 84 | 1022.0 |
| 20260906022102 | 55 | 307 | 1.7 | 2.6 | 0.00 | 0.00 | 0.02 | 84 | 1022.0 |
| 20260906022056 | 55 | 352 | 1.7 | 1.7 | 0.00 | 0.00 | 0.02 | 84 | 1022.0 |
| 20260906022040 | 55 | 310 | 0.9 | 0.9 | 0.00 | 0.00 | 0.02 | 84 | 1022.0 |
| 20260906022024 | 55 | 318 | 0.9 | 0.9 | 0.00 | 0.00 | 0.02 | 84 | 1022.0 |
| 20260906022005 | 55 | 324 | 0.0 | 0.0 | 0.00 | 0.00 | 0.02 | 84 | 1022.0 |
| 20260906021957 | 55 | 324 | 0.0 | 0.0 | 0.00 | 0.00 | 0.02 | 84 | 1022.0 |
| 20260906021941 | 55 | 356 | 0.0 | 0.0 | 0.00 | 0.00 | 0.02 | 84 | 1022.0 |
| 20260906021925 | 55 | 355 | 0.0 | 0.0 | 0.00 | 0.00 | 0.02 | 84 | 1022.0 |
| 20260906021914 | 55 | 0 | 0.0 | 0.0 | 0.00 | 0.00 | 0.02 | 84 | 1022.0 |
| 20260906021837 | 55 | 8 | 0.0 | 0.0 | 0.00 | 0.00 | 0.02 | 84 | 1022.0 |
| 20260906021814 | 55 | 8 | 0.0 | 0.9 | 0.00 | 0.00 | 0.02 | 84 | 1022.0 |
| 20260906021805 | 55 | 8 | 0.0 | 0.9 | 0.00 | 0.00 | 0.02 | 84 | 1021.0 |
| 20260906021751 | 55 | 8 | 0.0 | 0.9 | 0.00 | 0.00 | 0.02 | 84 | 1021.0 |
| 20260906021733 | 55 | 354 | 0.0 | 0.9 | 0.00 | 0.00 | 0.02 | 84 | 1021.0 |
| 20260906021710 | 55 | 7 | 0.0 | 0.9 | 0.00 | 0.00 | 0.02 | 84 | 1021.0 |
| 20260906021702 | 55 | 7 | 0.0 | 0.9 | 0.00 | 0.00 | 0.02 | 84 | 1022.0 |
| 20260906021640 | 55 | 2 | 0.0 | 0.9 | 0.00 | 0.00 | 0.02 | 84 | 1022.0 |
| 20260906021621 | 55 | 13 | 0.0 | 1.7 | 0.00 | 0.00 | 0.02 | 84 | 1022.0 |
| 20260906021609 | 55 | 353 | 0.0 | 1.7 | 0.00 | 0.00 | 0.02 | 84 | 1022.0 |
| 20260906021549 | 55 | 348 | 0.0 | 1.7 | 0.00 | 0.00 | 0.02 | 84 | 1022.0 |
| 20260906021544 | 55 | 334 | 0.0 | 1.7 | 0.00 | 0.00 | 0.02 | 84 | 1022.0 |
| 20260906021517 | 55 | 344 | 0.9 | 1.7 | 0.00 | 0.00 | 0.02 | 84 | 1022.0 |
| 20260906021512 | 55 | 0 | 0.9 | 1.7 | 0.00 | 0.00 | 0.02 | 84 | 1022.0 |
| 20260906021456 | 55 | 340 | 0.9 | 1.7 | 0.00 | 0.00 | 0.02 | 84 | 1022.0 |
| 20260906021438 | 55 | 330 | 0.9 | 0.9 | 0.00 | 0.00 | 0.02 | 84 | 1022.0 |
| 20260906021429 | 55 | 330 | 0.9 | 1.7 | 0.00 | 0.00 | 0.02 | 84 | 1022.0 |
| 20260906021413 | 55 | 341 | 0.0 | 1.7 | 0.00 | 0.00 | 0.02 | 84 | 1022.0 |
| 20260906021400 | 55 | 358 | 0.0 | 1.7 | 0.00 | 0.00 | 0.02 | 84 | 1021.0 |
| 20260906021341 | 55 | 325 | 0.0 | 1.7 | 0.00 | 0.00 | 0.02 | 84 | 1021.0 |
| 20260906021336 | 55 | 352 | 0.0 | 1.7 | 0.00 | 0.00 | 0.02 | 84 | 1021.0 |
| 20260906021308 | 55 | 3 | 0.0 | 1.7 | 0.00 | 0.00 | 0.02 | 84 | 1021.0 |
| 20260906021254 | 55 | 357 | 0.9 | 2.6 | 0.00 | 0.00 | 0.02 | 84 | 1022.0 |
| 20260906021237 | 55 | 353 | 0.9 | 2.6 | 0.00 | 0.00 | 0.02 | 84 | 1022.0 |
| 20260906021205 | 55 | 45 | 0.9 | 2.6 | 0.00 | 0.00 | 0.02 | 84 | 1022.0 |
| 20260906021158 | 55 | 45 | 0.9 | 2.6 | 0.00 | 0.00 | 0.02 | 84 | 1022.0 |
| 20260906021141 | 55 | 27 | 0.9 | 2.6 | 0.00 | 0.00 | 0.02 | 84 | 1022.0 |
| 20260906021125 | 55 | 41 | 1.7 | 2.6 | 0.00 | 0.00 | 0.02 | 84 | 1022.0 |
| 20260906021109 | 55 | 21 | 1.7 | 2.6 | 0.00 | 0.00 | 0.02 | 84 | 1022.0 |
| 20260906021102 | 55 | 32 | 1.7 | 2.6 | 0.00 | 0.00 | 0.02 | 84 | 1022.0 |
| 20260906021037 | 55 | 31 | 1.7 | 2.6 | 0.00 | 0.00 | 0.02 | 84 | 1022.0 |
| 20260906021022 | 55 | 15 | 1.7 | 1.7 | 0.00 | 0.00 | 0.02 | 84 | 1022.0 |
| 20260906021005 | 55 | 5 | 0.9 | 1.7 | 0.00 | 0.00 | 0.02 | 83 | 1022.0 |
| 20260906020950 | 55 | 351 | 0.9 | 1.7 | 0.00 | 0.00 | 0.02 | 83 | 1022.0 |
| 20260906020934 | 55 | 17 | 0.9 | 1.7 | 0.00 | 0.00 | 0.02 | 83 | 1022.0 |
| 20260906020919 | 55 | 353 | 0.9 | 0.9 | 0.00 | 0.00 | 0.02 | 83 | 1022.0 |
| 20260906020901 | 55 | 19 | 0.9 | 0.9 | 0.00 | 0.00 | 0.02 | 83 | 1022.0 |
| 20260906020856 | 55 | 18 | 0.9 | 0.9 | 0.00 | 0.00 | 0.02 | 83 | 1022.0 |
| 20260906020829 | 55 | 5 | 0.0 | 0.9 | 0.00 | 0.00 | 0.02 | 83 | 1022.0 |
| 20260906020813 | 55 | 2 | 0.0 | 0.9 | 0.00 | 0.00 | 0.02 | 83 | 1022.0 |
| 20260906020805 | 55 | 16 | 0.0 | 0.9 | 0.00 | 0.00 | 0.02 | 83 | 1022.0 |
| 20260906020758 | 55 | 16 | 0.0 | 0.9 | 0.00 | 0.00 | 0.02 | 83 | 1022.0 |
| 20260906020733 | 55 | 25 | 0.0 | 0.9 | 0.00 | 0.00 | 0.02 | 83 | 1022.0 |
| 20260906020720 | 55 | 17 | 0.0 | 0.9 | 0.00 | 0.00 | 0.02 | 83 | 1022.0 |
| 20260906020702 | 55 | 22 | 0.0 | 1.7 | 0.00 | 0.00 | 0.02 | 83 | 1022.0 |
| 20260906020645 | 55 | 22 | 0.9 | 1.7 | 0.00 | 0.00 | 0.02 | 83 | 1022.0 |
| 20260906020631 | 55 | 9 | 0.9 | 1.7 | 0.00 | 0.00 | 0.02 | 83 | 1022.0 |
| 20260906020613 | 55 | 15 | 0.9 | 1.7 | 0.00 | 0.00 | 0.02 | 83 | 1022.0 |
| 20260906020606 | 55 | 8 | 0.9 | 1.7 | 0.00 | 0.00 | 0.02 | 83 | 1022.0 |
| 20260906020557 | 55 | 8 | 0.9 | 1.7 | 0.00 | 0.00 | 0.02 | 83 | 1022.0 |
| 20260906020549 | 55 | 12 | 0.9 | 1.7 | 0.00 | 0.00 | 0.02 | 83 | 1022.0 |
| 20260906020525 | 55 | 13 | 1.7 | 1.7 | 0.00 | 0.00 | 0.02 | 83 | 1022.0 |
| 20260906020509 | 55 | 16 | 0.9 | 1.7 | 0.00 | 0.00 | 0.02 | 83 | 1022.0 |
| 20260906020501 | 55 | 8 | 0.0 | 1.7 | 0.00 | 0.00 | 0.02 | 83 | 1022.0 |
| 20260906020454 | 55 | 8 | 0.0 | 1.7 | 0.00 | 0.00 | 0.02 | 83 | 1022.0 |
| 20260906020439 | 55 | 330 | 0.0 | 1.7 | 0.00 | 0.00 | 0.02 | 83 | 1022.0 |
| 20260906020421 | 55 | 358 | 0.9 | 1.7 | 0.00 | 0.00 | 0.02 | 83 | 1022.0 |
| 20260906020413 | 55 | 350 | 1.7 | 1.7 | 0.00 | 0.00 | 0.02 | 83 | 1022.0 |
| 20260906020406 | 55 | 350 | 1.7 | 2.6 | 0.00 | 0.00 | 0.02 | 83 | 1022.0 |
| 20260906020351 | 55 | 306 | 0.0 | 2.6 | 0.00 | 0.00 | 0.02 | 83 | 1022.0 |
| 20260906020325 | 55 | 17 | 0.0 | 2.6 | 0.00 | 0.00 | 0.02 | 83 | 1022.0 |
| 20260906020309 | 55 | 64 | 0.0 | 2.6 | 0.00 | 0.00 | 0.02 | 83 | 1022.0 |
| 20260906020301 | 55 | 65 | 0.0 | 2.6 | 0.00 | 0.00 | 0.02 | 83 | 1021.0 |
| 20260906020253 | 55 | 65 | 0.0 | 2.6 | 0.00 | 0.00 | 0.02 | 83 | 1021.0 |
| 20260906020248 | 55 | 26 | 0.0 | 2.6 | 0.00 | 0.00 | 0.02 | 83 | 1021.0 |
| 20260906020221 | 55 | 25 | 1.7 | 2.6 | 0.00 | 0.00 | 0.02 | 83 | 1021.0 |
| 20260906020213 | 55 | 34 | 0.9 | 1.7 | 0.00 | 0.00 | 0.02 | 83 | 1021.0 |
| 20260906020205 | 55 | 34 | 0.9 | 1.7 | 0.00 | 0.00 | 0.02 | 83 | 1022.0 |
| 20260906020200 | 55 | 42 | 0.0 | 0.0 | 0.00 | 0.00 | 0.02 | 83 | 1022.0 |
| 20260906020142 | 55 | 24 | 0.0 | 0.0 | 0.00 | 0.00 | 0.02 | 83 | 1022.0 |
| 20260906020133 | 55 | 24 | 0.0 | 0.9 | 0.00 | 0.00 | 0.02 | 83 | 1022.0 |
| 20260906020117 | 55 | 25 | 0.0 | 0.9 | 0.00 | 0.00 | 0.02 | 83 | 1022.0 |
| 20260906020112 | 55 | 34 | 0.0 | 0.9 | 0.00 | 0.00 | 0.02 | 83 | 1022.0 |
| 20260906020050 | 55 | 26 | 0.0 | 0.9 | 0.00 | 0.00 | 0.02 | 83 | 1022.0 |
| 20260906020024 | 55 | 42 | 0.0 | 1.7 | 0.00 | 0.00 | 0.02 | 83 | 1022.0 |
| 20260906020005 | 55 | 18 | 0.0 | 2.6 | 0.00 | 0.00 | 0.02 | 83 | 1022.0 |
| 20260906015957 | 55 | 18 | 0.0 | 2.6 | 0.00 | 0.00 | 0.02 | 83 | 1022.0 |
| 20260906015941 | 55 | 14 | 0.0 | 2.6 | 0.00 | 0.00 | 0.02 | 83 | 1022.0 |
| 20260906015928 | 55 | 354 | 0.0 | 2.6 | 0.00 | 0.00 | 0.02 | 83 | 1022.0 |
| 20260906015912 | 55 | 294 | 0.9 | 2.6 | 0.00 | 0.00 | 0.02 | 83 | 1022.0 |
| 20260906015829 | 55 | 18 | 1.7 | 2.6 | 0.00 | 0.00 | 0.02 | 83 | 1022.0 |
| 20260906015813 | 55 | 29 | 2.6 | 2.6 | 0.00 | 0.00 | 0.02 | 83 | 1022.0 |
| 20260906015805 | 55 | 10 | 2.6 | 2.6 | 0.00 | 0.00 | 0.02 | 83 | 1022.0 |
| 20260906015757 | 55 | 10 | 2.6 | 2.6 | 0.00 | 0.00 | 0.02 | 83 | 1022.0 |
| 20260906015741 | 55 | 20 | 1.7 | 2.6 | 0.00 | 0.00 | 0.02 | 83 | 1022.0 |
| 20260906015736 | 55 | 352 | 0.9 | 2.6 | 0.00 | 0.00 | 0.02 | 83 | 1022.0 |
| 20260906015709 | 55 | 12 | 1.7 | 2.6 | 0.00 | 0.00 | 0.02 | 83 | 1022.0 |
| 20260906015701 | 55 | 28 | 1.7 | 2.6 | 0.00 | 0.00 | 0.02 | 83 | 1022.0 |
| 20260906015654 | 55 | 28 | 1.7 | 2.6 | 0.00 | 0.00 | 0.02 | 83 | 1022.0 |
| 20260906015638 | 55 | 20 | 1.7 | 1.7 | 0.00 | 0.00 | 0.02 | 83 | 1022.0 |
| 20260906015624 | 55 | 19 | 0.0 | 1.7 | 0.00 | 0.00 | 0.02 | 83 | 1022.0 |
| 20260906015605 | 55 | 353 | 0.0 | 1.7 | 0.00 | 0.00 | 0.02 | 83 | 1022.0 |
| 20260906015549 | 55 | 3 | 0.0 | 1.7 | 0.00 | 0.00 | 0.02 | 83 | 1022.0 |
| 20260906015533 | 55 | 350 | 0.9 | 1.7 | 0.00 | 0.00 | 0.02 | 83 | 1022.0 |
| 20260906015517 | 55 | 320 | 0.9 | 1.7 | 0.00 | 0.00 | 0.02 | 83 | 1022.0 |
| 20260906015503 | 55 | 346 | 0.9 | 1.7 | 0.00 | 0.00 | 0.02 | 83 | 1022.0 |
| 20260906015437 | 55 | 32 | 0.0 | 1.7 | 0.00 | 0.00 | 0.02 | 83 | 1022.0 |
| 20260906015423 | 55 | 19 | 0.9 | 1.7 | 0.00 | 0.00 | 0.02 | 83 | 1022.0 |
| 20260906015416 | 55 | 352 | 0.9 | 1.7 | 0.00 | 0.00 | 0.02 | 83 | 1022.0 |
| 20260906015349 | 55 | 358 | 0.9 | 1.7 | 0.00 | 0.00 | 0.02 | 83 | 1022.0 |
| 20260906015333 | 55 | 37 | 0.0 | 1.7 | 0.00 | 0.00 | 0.02 | 83 | 1022.0 |
| 20260906015317 | 55 | 46 | 0.0 | 1.7 | 0.00 | 0.00 | 0.02 | 83 | 1022.0 |
| 20260906015305 | 55 | 42 | 1.7 | 1.7 | 0.00 | 0.00 | 0.02 | 83 | 1022.0 |
| 20260906015245 | 55 | 8 | 0.9 | 1.7 | 0.00 | 0.00 | 0.02 | 83 | 1022.0 |
| 20260906015229 | 55 | 1 | 1.7 | 1.7 | 0.00 | 0.00 | 0.02 | 83 | 1022.0 |
| 20260906015223 | 55 | 17 | 0.9 | 1.7 | 0.00 | 0.00 | 0.02 | 83 | 1022.0 |
| 20260906015205 | 55 | 352 | 0.9 | 1.7 | 0.00 | 0.00 | 0.02 | 83 | 1021.0 |
| 20260906015157 | 55 | 352 | 0.9 | 1.7 | 0.00 | 0.00 | 0.02 | 83 | 1021.0 |
| 20260906015141 | 55 | 20 | 0.9 | 1.7 | 0.00 | 0.00 | 0.02 | 83 | 1021.0 |
| 20260906015125 | 55 | 345 | 0.9 | 1.7 | 0.00 | 0.00 | 0.02 | 83 | 1021.0 |
| 20260906015109 | 55 | 33 | 0.9 | 1.7 | 0.00 | 0.00 | 0.02 | 83 | 1021.0 |
| 20260906015101 | 55 | 16 | 0.9 | 5.2 | 0.00 | 0.00 | 0.02 | 83 | 1021.0 |
| 20260906015053 | 55 | 16 | 0.9 | 5.2 | 0.00 | 0.00 | 0.02 | 83 | 1021.0 |
| 20260906015047 | 55 | 18 | 1.7 | 5.2 | 0.00 | 0.00 | 0.02 | 83 | 1021.0 |
| 20260906015024 | 55 | 50 | 0.9 | 5.2 | 0.00 | 0.00 | 0.02 | 83 | 1021.0 |
| 20260906015007 | 55 | 27 | 0.9 | 5.2 | 0.00 | 0.00 | 0.02 | 83 | 1021.0 |
| 20260906014941 | 55 | 42 | 1.7 | 5.2 | 0.00 | 0.00 | 0.02 | 83 | 1021.0 |
| 20260906014925 | 55 | 26 | 2.6 | 5.2 | 0.00 | 0.00 | 0.02 | 83 | 1021.0 |
| 20260906014913 | 55 | 24 | 3.5 | 3.5 | 0.00 | 0.00 | 0.02 | 83 | 1021.0 |
| 20260906014853 | 55 | 18 | 2.6 | 3.5 | 0.00 | 0.00 | 0.02 | 83 | 1021.0 |
| 20260906014837 | 55 | 43 | 2.6 | 3.5 | 0.00 | 0.00 | 0.02 | 83 | 1021.0 |
| 20260906014821 | 55 | 32 | 3.5 | 3.5 | 0.00 | 0.00 | 0.02 | 83 | 1021.0 |
| 20260906014810 | 55 | 26 | 3.5 | 3.5 | 0.00 | 0.00 | 0.02 | 83 | 1021.0 |
| 20260906014733 | 55 | 37 | 0.9 | 1.7 | 0.00 | 0.00 | 0.02 | 83 | 1021.0 |
| 20260906014727 | 55 | 90 | 0.9 | 1.7 | 0.00 | 0.00 | 0.02 | 83 | 1021.0 |
| 20260906014702 | 55 | 14 | 0.9 | 1.7 | 0.00 | 0.00 | 0.02 | 83 | 1021.0 |
| 20260906014648 | 55 | 15 | 1.7 | 1.7 | 0.00 | 0.00 | 0.02 | 83 | 1021.0 |
| 20260906014631 | 55 | 60 | 1.7 | 1.7 | 0.00 | 0.00 | 0.02 | 83 | 1021.0 |
| 20260906014613 | 55 | 47 | 0.0 | 1.7 | 0.00 | 0.00 | 0.02 | 83 | 1021.0 |
| 20260906014605 | 55 | 33 | 0.9 | 1.7 | 0.00 | 0.00 | 0.02 | 83 | 1022.0 |
| 20260906014549 | 55 | 33 | 0.9 | 1.7 | 0.00 | 0.00 | 0.02 | 83 | 1022.0 |
| 20260906014535 | 55 | 58 | 0.9 | 1.7 | 0.00 | 0.00 | 0.02 | 83 | 1022.0 |
| 20260906014517 | 55 | 24 | 0.0 | 0.9 | 0.00 | 0.00 | 0.02 | 83 | 1022.0 |
| 20260906014503 | 55 | 346 | 0.0 | 0.9 | 0.00 | 0.00 | 0.02 | 83 | 1022.0 |
| 20260906014447 | 55 | 10 | 0.9 | 0.9 | 0.00 | 0.00 | 0.02 | 83 | 1022.0 |
| 20260906014429 | 55 | 13 | 0.9 | 0.9 | 0.00 | 0.00 | 0.02 | 83 | 1022.0 |
| 20260906014418 | 55 | 14 | 0.0 | 0.9 | 0.00 | 0.00 | 0.02 | 83 | 1022.0 |
| 20260906014407 | 55 | 17 | 0.0 | 0.9 | 0.00 | 0.00 | 0.02 | 83 | 1021.0 |
| 20260906014344 | 55 | 12 | 0.0 | 0.9 | 0.00 | 0.00 | 0.02 | 83 | 1021.0 |
| 20260906014326 | 55 | 12 | 0.0 | 1.7 | 0.00 | 0.00 | 0.02 | 83 | 1021.0 |
| 20260906014309 | 55 | 0 | 0.0 | 1.7 | 0.00 | 0.00 | 0.02 | 83 | 1021.0 |
| 20260906014301 | 55 | 25 | 0.0 | 1.7 | 0.00 | 0.00 | 0.02 | 83 | 1022.0 |
| 20260906014253 | 55 | 25 | 0.0 | 1.7 | 0.00 | 0.00 | 0.02 | 83 | 1022.0 |
| 20260906014237 | 55 | 339 | 0.0 | 1.7 | 0.00 | 0.00 | 0.02 | 83 | 1022.0 |
| 20260906014221 | 55 | 14 | 0.0 | 1.7 | 0.00 | 0.00 | 0.02 | 83 | 1022.0 |
| 20260906014213 | 55 | 350 | 0.0 | 1.7 | 0.00 | 0.00 | 0.02 | 83 | 1022.0 |
| 20260906014205 | 55 | 350 | 0.0 | 1.7 | 0.00 | 0.00 | 0.02 | 83 | 1021.0 |
| 20260906014149 | 55 | 344 | 0.9 | 1.7 | 0.00 | 0.00 | 0.02 | 83 | 1021.0 |
| 20260906014136 | 55 | 31 | 1.7 | 1.7 | 0.00 | 0.00 | 0.02 | 83 | 1021.0 |
| 20260906014109 | 55 | 355 | 0.9 | 1.7 | 0.00 | 0.00 | 0.02 | 83 | 1021.0 |
| 20260906014101 | 55 | 350 | 0.0 | 1.7 | 0.00 | 0.00 | 0.02 | 83 | 1021.0 |
| 20260906014053 | 55 | 350 | 0.0 | 1.7 | 0.00 | 0.00 | 0.02 | 83 | 1021.0 |
| 20260906014037 | 55 | 0 | 0.0 | 1.7 | 0.00 | 0.00 | 0.02 | 83 | 1021.0 |
| 20260906014021 | 55 | 25 | 0.0 | 2.6 | 0.00 | 0.00 | 0.02 | 83 | 1021.0 |
| 20260906014014 | 55 | 6 | 0.0 | 2.6 | 0.00 | 0.00 | 0.02 | 83 | 1021.0 |
| 20260906014008 | 55 | 6 | 0.0 | 3.5 | 0.00 | 0.00 | 0.02 | 83 | 1021.0 |
| 20260906013949 | 55 | 22 | 0.9 | 3.5 | 0.00 | 0.00 | 0.02 | 83 | 1021.0 |
| 20260906013943 | 55 | 357 | 0.9 | 3.5 | 0.00 | 0.00 | 0.02 | 83 | 1021.0 |
| 20260906013920 | 55 | 1 | 0.9 | 3.5 | 0.00 | 0.00 | 0.02 | 83 | 1021.0 |
| 20260906013901 | 55 | 43 | 1.7 | 3.5 | 0.00 | 0.00 | 0.02 | 83 | 1022.0 |
| 20260906013855 | 55 | 31 | 1.7 | 3.5 | 0.00 | 0.00 | 0.02 | 83 | 1022.0 |
| 20260906013829 | 55 | 30 | 2.6 | 3.5 | 0.00 | 0.00 | 0.02 | 83 | 1022.0 |
| 20260906013813 | 55 | 24 | 1.7 | 2.6 | 0.00 | 0.00 | 0.02 | 83 | 1022.0 |
| 20260906013805 | 55 | 42 | 1.7 | 2.6 | 0.00 | 0.00 | 0.02 | 83 | 1021.0 |
| 20260906013757 | 55 | 42 | 1.7 | 2.6 | 0.00 | 0.00 | 0.02 | 83 | 1021.0 |
| 20260906013741 | 55 | 354 | 2.6 | 2.6 | 0.00 | 0.00 | 0.02 | 83 | 1021.0 |
| 20260906013736 | 55 | 53 | 0.9 | 2.6 | 0.00 | 0.00 | 0.02 | 83 | 1021.0 |
| 20260906013701 | 55 | 46 | 1.7 | 2.6 | 0.00 | 0.00 | 0.02 | 83 | 1021.0 |
| 20260906013645 | 55 | 20 | 0.9 | 2.6 | 0.00 | 0.00 | 0.02 | 83 | 1021.0 |
| 20260906013640 | 55 | 20 | 1.7 | 2.6 | 0.00 | 0.00 | 0.02 | 83 | 1021.0 |
| 20260906013613 | 55 | 33 | 0.9 | 1.7 | 0.00 | 0.00 | 0.02 | 83 | 1021.0 |
| 20260906013605 | 55 | 27 | 0.9 | 1.7 | 0.00 | 0.00 | 0.02 | 83 | 1021.0 |
| 20260906013557 | 55 | 27 | 0.9 | 1.7 | 0.00 | 0.00 | 0.02 | 83 | 1021.0 |
| 20260906013541 | 55 | 22 | 0.9 | 1.7 | 0.00 | 0.00 | 0.02 | 83 | 1021.0 |
| 20260906013538 | 55 | 39 | 0.9 | 1.7 | 0.00 | 0.00 | 0.02 | 83 | 1021.0 |
| 20260906013509 | 55 | 30 | 0.0 | 0.9 | 0.00 | 0.00 | 0.02 | 83 | 1021.0 |
| 20260906013501 | 55 | 18 | 0.0 | 0.9 | 0.00 | 0.00 | 0.02 | 83 | 1021.0 |
| 20260906013453 | 55 | 18 | 0.0 | 0.9 | 0.00 | 0.00 | 0.02 | 83 | 1021.0 |
| 20260906013421 | 55 | 10 | 0.0 | 0.9 | 0.00 | 0.00 | 0.02 | 83 | 1021.0 |
| 20260906013413 | 55 | 31 | 0.9 | 0.9 | 0.00 | 0.00 | 0.02 | 83 | 1021.0 |
| 20260906013407 | 55 | 31 | 0.9 | 0.9 | 0.00 | 0.00 | 0.02 | 83 | 1022.0 |
| 20260906013349 | 55 | 11 | 0.9 | 0.9 | 0.00 | 0.00 | 0.02 | 83 | 1022.0 |
| 20260906013333 | 55 | 350 | 0.0 | 0.9 | 0.00 | 0.00 | 0.02 | 83 | 1022.0 |
| 20260906013317 | 55 | 341 | 0.9 | 0.9 | 0.00 | 0.00 | 0.02 | 83 | 1022.0 |
| 20260906013309 | 55 | 37 | 0.9 | 0.9 | 0.00 | 0.00 | 0.02 | 83 | 1022.0 |
| 20260906013301 | 55 | 37 | 0.9 | 0.9 | 0.00 | 0.00 | 0.02 | 83 | 1021.0 |
| 20260906013223 | 55 | 6 | 0.0 | 0.9 | 0.00 | 0.00 | 0.02 | 83 | 1021.0 |
| 20260906013205 | 55 | 339 | 0.0 | 0.9 | 0.00 | 0.00 | 0.02 | 83 | 1021.0 |
| 20260906013149 | 55 | 341 | 0.0 | 0.9 | 0.00 | 0.00 | 0.02 | 83 | 1021.0 |
| 20260906013135 | 55 | 340 | 0.0 | 0.9 | 0.00 | 0.00 | 0.02 | 83 | 1021.0 |
| 20260906013117 | 55 | 13 | 0.0 | 0.9 | 0.00 | 0.00 | 0.02 | 83 | 1021.0 |
| 20260906013114 | 55 | 5 | 0.0 | 0.9 | 0.00 | 0.00 | 0.02 | 83 | 1021.0 |
| 20260906013046 | 55 | 2 | 0.0 | 1.7 | 0.00 | 0.00 | 0.02 | 83 | 1021.0 |
| 20260906013029 | 55 | 45 | 0.9 | 1.7 | 0.00 | 0.00 | 0.02 | 83 | 1021.0 |
| 20260906013023 | 55 | 307 | 0.0 | 1.7 | 0.00 | 0.00 | 0.02 | 83 | 1021.0 |
| 20260906013008 | 55 | 5 | 0.9 | 1.7 | 0.00 | 0.00 | 0.02 | 83 | 1021.0 |
| 20260906012953 | 55 | 42 | 0.9 | 1.7 | 0.00 | 0.00 | 0.02 | 83 | 1021.0 |
| 20260906012925 | 55 | 357 | 0.9 | 1.7 | 0.00 | 0.00 | 0.02 | 83 | 1021.0 |
| 20260906012922 | 55 | 23 | 0.9 | 1.7 | 0.00 | 0.00 | 0.02 | 83 | 1021.0 |
| 20260906012856 | 55 | 26 | 0.9 | 1.7 | 0.00 | 0.00 | 0.02 | 83 | 1021.0 |
| 20260906012837 | 55 | 29 | 0.9 | 1.7 | 0.00 | 0.00 | 0.02 | 83 | 1021.0 |
| 20260906012813 | 55 | 38 | 0.9 | 1.7 | 0.00 | 0.00 | 0.02 | 83 | 1021.0 |
| 20260906012805 | 55 | 30 | 0.9 | 1.7 | 0.00 | 0.00 | 0.02 | 83 | 1021.0 |
| 20260906012757 | 55 | 30 | 0.9 | 1.7 | 0.00 | 0.00 | 0.02 | 83 | 1021.0 |
| 20260906012752 | 55 | 38 | 0.9 | 0.9 | 0.00 | 0.00 | 0.02 | 83 | 1021.0 |
| 20260906012728 | 55 | 16 | 0.0 | 0.9 | 0.00 | 0.00 | 0.02 | 83 | 1021.0 |
| 20260906012709 | 55 | 11 | 0.0 | 0.9 | 0.00 | 0.00 | 0.02 | 83 | 1021.0 |
| 20260906012705 | 55 | 0 | 0.0 | 0.9 | 0.00 | 0.00 | 0.02 | 83 | 1021.0 |
| 20260906012637 | 55 | 18 | 0.9 | 0.9 | 0.00 | 0.00 | 0.02 | 83 | 1021.0 |
| 20260906012632 | 55 | 20 | 0.9 | 0.9 | 0.00 | 0.00 | 0.02 | 83 | 1021.0 |
| 20260906012605 | 55 | 20 | 0.0 | 0.9 | 0.00 | 0.00 | 0.02 | 83 | 1021.0 |
| 20260906012549 | 55 | 31 | 0.0 | 0.0 | 0.00 | 0.00 | 0.02 | 83 | 1021.0 |
| 20260906012535 | 55 | 33 | 0.0 | 0.0 | 0.00 | 0.00 | 0.02 | 83 | 1021.0 |
| 20260906012517 | 55 | 25 | 0.0 | 0.0 | 0.00 | 0.00 | 0.02 | 83 | 1021.0 |
| 20260906012501 | 55 | 39 | 0.0 | 0.0 | 0.00 | 0.00 | 0.02 | 83 | 1021.0 |
| 20260906012445 | 55 | 20 | 0.0 | 0.0 | 0.00 | 0.00 | 0.02 | 83 | 1021.0 |
| 20260906012413 | 55 | 25 | 0.0 | 0.0 | 0.00 | 0.00 | 0.02 | 83 | 1021.0 |
| 20260906012405 | 55 | 20 | 0.0 | 0.0 | 0.00 | 0.00 | 0.02 | 83 | 1021.0 |
| 20260906012349 | 55 | 20 | 0.0 | 0.0 | 0.00 | 0.00 | 0.02 | 83 | 1021.0 |
| 20260906012333 | 55 | 7 | 0.0 | 0.0 | 0.00 | 0.00 | 0.02 | 83 | 1021.0 |
| 20260906012317 | 55 | 11 | 0.0 | 0.0 | 0.00 | 0.00 | 0.02 | 83 | 1021.0 |
| 20260906012301 | 55 | 40 | 0.0 | 0.0 | 0.00 | 0.00 | 0.02 | 83 | 1021.0 |
| 20260906012245 | 55 | 6 | 0.0 | 0.0 | 0.00 | 0.00 | 0.02 | 83 | 1021.0 |
| 20260906012228 | 55 | 0 | 0.0 | 0.0 | 0.00 | 0.00 | 0.02 | 83 | 1021.0 |
| 20260906012213 | 55 | 23 | 0.0 | 0.0 | 0.00 | 0.00 | 0.02 | 83 | 1021.0 |
| 20260906012205 | 55 | 8 | 0.0 | 0.0 | 0.00 | 0.00 | 0.02 | 83 | 1021.0 |
| 20260906012157 | 55 | 8 | 0.0 | 0.0 | 0.00 | 0.00 | 0.02 | 83 | 1021.0 |
| 20260906012140 | 55 | 18 | 0.0 | 0.0 | 0.00 | 0.00 | 0.02 | 83 | 1021.0 |
| 20260906012135 | 55 | 43 | 0.0 | 0.0 | 0.00 | 0.00 | 0.02 | 83 | 1021.0 |
| 20260906012108 | 55 | 15 | 0.0 | 0.0 | 0.00 | 0.00 | 0.02 | 83 | 1021.0 |
| 20260906012103 | 55 | 15 | 0.0 | 0.9 | 0.00 | 0.00 | 0.02 | 83 | 1021.0 |
| 20260906012037 | 55 | 23 | 0.0 | 0.9 | 0.00 | 0.00 | 0.02 | 83 | 1021.0 |
| 20260906012024 | 55 | 352 | 0.0 | 0.9 | 0.00 | 0.00 | 0.02 | 83 | 1021.0 |
| 20260906012005 | 55 | 351 | 0.0 | 0.9 | 0.00 | 0.00 | 0.02 | 83 | 1021.0 |
| 20260906011949 | 55 | 330 | 0.0 | 0.9 | 0.00 | 0.00 | 0.02 | 83 | 1021.0 |
| 20260906011925 | 55 | 323 | 0.0 | 0.9 | 0.00 | 0.00 | 0.02 | 83 | 1021.0 |
| 20260906011909 | 55 | 344 | 0.9 | 0.9 | 0.00 | 0.00 | 0.02 | 83 | 1021.0 |
| 20260906011903 | 55 | 347 | 0.0 | 0.9 | 0.00 | 0.00 | 0.02 | 83 | 1021.0 |
| 20260906011840 | 55 | 336 | 0.0 | 0.9 | 0.00 | 0.00 | 0.02 | 83 | 1021.0 |
| 20260906011821 | 55 | 343 | 0.0 | 0.0 | 0.00 | 0.00 | 0.02 | 83 | 1021.0 |
| 20260906011805 | 55 | 357 | 0.0 | 0.0 | 0.00 | 0.00 | 0.02 | 83 | 1021.0 |
| 20260906011749 | 55 | 353 | 0.0 | 0.0 | 0.00 | 0.00 | 0.02 | 83 | 1021.0 |
| 20260906011741 | 55 | 1 | 0.0 | 0.0 | 0.00 | 0.00 | 0.02 | 83 | 1021.0 |
| 20260906011733 | 55 | 1 | 0.0 | 0.9 | 0.00 | 0.00 | 0.02 | 83 | 1021.0 |
| 20260906011717 | 55 | 26 | 0.0 | 0.9 | 0.00 | 0.00 | 0.02 | 83 | 1021.0 |
| 20260906011701 | 55 | 24 | 0.0 | 0.9 | 0.00 | 0.00 | 0.02 | 83 | 1021.0 |
| 20260906011655 | 55 | 22 | 0.0 | 0.9 | 0.00 | 0.00 | 0.02 | 83 | 1021.0 |
| 20260906011637 | 55 | 20 | 0.0 | 0.9 | 0.00 | 0.00 | 0.02 | 83 | 1021.0 |
| 20260906011629 | 55 | 20 | 0.0 | 1.7 | 0.00 | 0.00 | 0.02 | 83 | 1021.0 |
| 20260906011613 | 55 | 16 | 0.0 | 1.7 | 0.00 | 0.00 | 0.02 | 83 | 1021.0 |
| 20260906011605 | 55 | 8 | 0.9 | 1.7 | 0.00 | 0.00 | 0.02 | 83 | 1022.0 |
| 20260906011557 | 55 | 8 | 0.9 | 1.7 | 0.00 | 0.00 | 0.02 | 83 | 1022.0 |
| 20260906011541 | 55 | 316 | 0.0 | 1.7 | 0.00 | 0.00 | 0.02 | 83 | 1022.0 |
| 20260906011525 | 55 | 352 | 0.0 | 1.7 | 0.00 | 0.00 | 0.02 | 83 | 1022.0 |
| 20260906011512 | 55 | 2 | 0.9 | 1.7 | 0.00 | 0.00 | 0.02 | 83 | 1022.0 |
| 20260906011444 | 55 | 36 | 0.9 | 1.7 | 0.00 | 0.00 | 0.02 | 83 | 1021.0 |
| 20260906011429 | 55 | 11 | 0.9 | 1.7 | 0.00 | 0.00 | 0.02 | 83 | 1021.0 |
| 20260906011416 | 55 | 0 | 0.9 | 1.7 | 0.00 | 0.00 | 0.02 | 83 | 1021.0 |
| 20260906011358 | 55 | 22 | 0.0 | 1.7 | 0.00 | 0.00 | 0.02 | 83 | 1021.0 |
| 20260906011351 | 55 | 24 | 0.0 | 1.7 | 0.00 | 0.00 | 0.02 | 83 | 1021.0 |
| 20260906011325 | 55 | 23 | 0.0 | 1.7 | 0.00 | 0.00 | 0.02 | 83 | 1021.0 |
| 20260906011309 | 55 | 349 | 0.0 | 1.7 | 0.00 | 0.00 | 0.02 | 83 | 1021.0 |
| 20260906011301 | 55 | 325 | 0.9 | 2.6 | 0.00 | 0.00 | 0.02 | 83 | 1021.0 |
| 20260906011253 | 55 | 325 | 0.9 | 2.6 | 0.00 | 0.00 | 0.02 | 83 | 1021.0 |
| 20260906011237 | 55 | 25 | 0.9 | 2.6 | 0.00 | 0.00 | 0.02 | 83 | 1021.0 |
| 20260906011221 | 55 | 317 | 0.9 | 2.6 | 0.00 | 0.00 | 0.02 | 83 | 1021.0 |
| 20260906011205 | 55 | 305 | 0.0 | 2.6 | 0.00 | 0.00 | 0.02 | 83 | 1021.0 |
| 20260906011149 | 55 | 314 | 0.0 | 2.6 | 0.00 | 0.00 | 0.02 | 83 | 1021.0 |
| 20260906011133 | 55 | 286 | 0.9 | 2.6 | 0.00 | 0.00 | 0.02 | 83 | 1021.0 |
| 20260906011117 | 55 | 0 | 1.7 | 2.6 | 0.00 | 0.00 | 0.02 | 83 | 1021.0 |
| 20260906011107 | 55 | 322 | 1.7 | 1.7 | 0.00 | 0.00 | 0.02 | 83 | 1021.0 |
| 20260906011037 | 55 | 354 | 1.7 | 1.7 | 0.00 | 0.00 | 0.02 | 83 | 1021.0 |
| 20260906011024 | 55 | 317 | 0.9 | 1.7 | 0.00 | 0.00 | 0.02 | 83 | 1021.0 |
| 20260906011005 | 55 | 328 | 0.9 | 1.7 | 0.00 | 0.00 | 0.02 | 83 | 1021.0 |
| 20260906010950 | 55 | 328 | 1.7 | 1.7 | 0.00 | 0.00 | 0.02 | 83 | 1021.0 |
| 20260906010934 | 55 | 306 | 1.7 | 1.7 | 0.00 | 0.00 | 0.02 | 83 | 1021.0 |
| 20260906010918 | 55 | 288 | 0.9 | 1.7 | 0.00 | 0.00 | 0.02 | 83 | 1021.0 |
| 20260906010902 | 55 | 291 | 1.7 | 1.7 | 0.00 | 0.00 | 0.02 | 83 | 1021.0 |
| 20260906010846 | 55 | 326 | 0.9 | 1.7 | 0.00 | 0.00 | 0.02 | 83 | 1021.0 |
| 20260906010829 | 55 | 349 | 0.9 | 1.7 | 0.00 | 0.00 | 0.02 | 83 | 1021.0 |
| 20260906010813 | 55 | 345 | 0.9 | 1.7 | 0.00 | 0.00 | 0.02 | 83 | 1021.0 |
| 20260906010805 | 55 | 343 | 0.9 | 1.7 | 0.00 | 0.00 | 0.02 | 83 | 1021.0 |
| 20260906010758 | 55 | 343 | 0.9 | 1.7 | 0.00 | 0.00 | 0.02 | 83 | 1021.0 |
| 20260906010742 | 55 | 345 | 0.9 | 1.7 | 0.00 | 0.00 | 0.02 | 83 | 1021.0 |
| 20260906010726 | 55 | 335 | 0.9 | 1.7 | 0.00 | 0.00 | 0.02 | 83 | 1021.0 |
| 20260906010709 | 55 | 2 | 0.9 | 1.7 | 0.00 | 0.00 | 0.02 | 83 | 1021.0 |
| 20260906010701 | 55 | 20 | 0.9 | 1.7 | 0.00 | 0.00 | 0.02 | 83 | 1021.0 |
| 20260906010653 | 55 | 20 | 0.9 | 1.7 | 0.00 | 0.00 | 0.02 | 83 | 1021.0 |
| 20260906010648 | 55 | 327 | 0.0 | 1.7 | 0.00 | 0.00 | 0.02 | 83 | 1021.0 |
| 20260906010613 | 55 | 315 | 0.0 | 1.7 | 0.00 | 0.00 | 0.02 | 83 | 1021.0 |
| 20260906010605 | 55 | 340 | 0.9 | 1.7 | 0.00 | 0.00 | 0.02 | 83 | 1021.0 |
| 20260906010557 | 55 | 340 | 0.9 | 1.7 | 0.00 | 0.00 | 0.02 | 83 | 1021.0 |
| 20260906010555 | 55 | 307 | 1.7 | 1.7 | 0.00 | 0.00 | 0.02 | 83 | 1021.0 |
| 20260906010525 | 55 | 316 | 0.9 | 1.7 | 0.00 | 0.00 | 0.02 | 83 | 1021.0 |
| 20260906010509 | 55 | 319 | 1.7 | 1.7 | 0.00 | 0.00 | 0.02 | 83 | 1021.0 |
| 20260906010503 | 55 | 304 | 0.9 | 2.6 | 0.00 | 0.00 | 0.02 | 83 | 1021.0 |
| 20260906010442 | 55 | 324 | 0.0 | 2.6 | 0.00 | 0.00 | 0.02 | 83 | 1021.0 |
| 20260906010405 | 55 | 46 | 0.0 | 2.6 | 0.00 | 0.00 | 0.02 | 83 | 1021.0 |
| 20260906010352 | 55 | 350 | 0.9 | 2.6 | 0.00 | 0.00 | 0.02 | 83 | 1021.0 |
| 20260906010334 | 55 | 0 | 1.7 | 2.6 | 0.00 | 0.00 | 0.02 | 83 | 1021.0 |
| 20260906010317 | 55 | 338 | 1.7 | 2.6 | 0.00 | 0.00 | 0.02 | 83 | 1021.0 |
| 20260906010301 | 55 | 322 | 0.9 | 2.6 | 0.00 | 0.00 | 0.02 | 83 | 1021.0 |
| 20260906010256 | 55 | 357 | 1.7 | 2.6 | 0.00 | 0.00 | 0.02 | 83 | 1021.0 |
| 20260906010240 | 55 | 348 | 1.7 | 1.7 | 0.00 | 0.00 | 0.02 | 83 | 1021.0 |
| 20260906010213 | 55 | 343 | 1.7 | 1.7 | 0.00 | 0.00 | 0.02 | 83 | 1021.0 |
| 20260906010205 | 55 | 318 | 1.7 | 1.7 | 0.00 | 0.00 | 0.02 | 83 | 1021.0 |
| 20260906010149 | 55 | 318 | 1.7 | 1.7 | 0.00 | 0.00 | 0.02 | 82 | 1021.0 |
| 20260906010141 | 55 | 284 | 1.7 | 1.7 | 0.00 | 0.00 | 0.02 | 82 | 1021.0 |
| 20260906010133 | 55 | 284 | 1.7 | 2.6 | 0.00 | 0.00 | 0.02 | 82 | 1021.0 |
| 20260906010117 | 55 | 319 | 0.9 | 2.6 | 0.00 | 0.00 | 0.02 | 82 | 1021.0 |
| 20260906010046 | 55 | 317 | 1.7 | 2.6 | 0.00 | 0.00 | 0.02 | 83 | 1021.0 |
| 20260906010032 | 55 | 296 | 1.7 | 2.6 | 0.00 | 0.00 | 0.02 | 83 | 1021.0 |
| 20260906010013 | 55 | 289 | 0.9 | 2.6 | 0.00 | 0.00 | 0.02 | 83 | 1021.0 |
| 20260906010005 | 55 | 329 | 1.7 | 2.6 | 0.00 | 0.00 | 0.02 | 83 | 1021.0 |
| 20260906005957 | 55 | 329 | 1.7 | 2.6 | 0.00 | 0.00 | 0.02 | 83 | 1021.0 |
| 20260906005941 | 56 | 300 | 1.7 | 1.7 | 0.00 | 0.00 | 0.02 | 83 | 1021.0 |
| 20260906005926 | 56 | 338 | 0.9 | 1.7 | 0.00 | 0.00 | 0.02 | 83 | 1021.0 |
| 20260906005909 | 56 | 351 | 0.9 | 1.7 | 0.00 | 0.00 | 0.02 | 83 | 1021.0 |
| 20260906005901 | 56 | 312 | 0.9 | 0.9 | 0.00 | 0.00 | 0.02 | 83 | 1021.0 |
| 20260906005853 | 56 | 312 | 0.9 | 0.9 | 0.00 | 0.00 | 0.02 | 83 | 1021.0 |
| 20260906005837 | 56 | 325 | 0.9 | 0.9 | 0.00 | 0.00 | 0.02 | 83 | 1021.0 |
| 20260906005832 | 56 | 328 | 0.9 | 0.9 | 0.00 | 0.00 | 0.02 | 83 | 1021.0 |
| 20260906005813 | 56 | 334 | 0.9 | 0.9 | 0.00 | 0.00 | 0.02 | 83 | 1021.0 |
| 20260906005805 | 56 | 334 | 0.9 | 2.6 | 0.00 | 0.00 | 0.02 | 83 | 1021.0 |
| 20260906005759 | 56 | 333 | 0.9 | 2.6 | 0.00 | 0.00 | 0.02 | 83 | 1021.0 |
| 20260906005725 | 56 | 338 | 0.0 | 2.6 | 0.00 | 0.00 | 0.02 | 83 | 1021.0 |
| 20260906005709 | 56 | 239 | 0.0 | 2.6 | 0.00 | 0.00 | 0.02 | 83 | 1021.0 |
| 20260906005701 | 56 | 332 | 0.0 | 3.5 | 0.00 | 0.00 | 0.02 | 83 | 1021.0 |
| 20260906005652 | 56 | 332 | 0.0 | 3.5 | 0.00 | 0.00 | 0.02 | 83 | 1021.0 |
| 20260906005616 | 56 | 27 | 0.9 | 3.5 | 0.00 | 0.00 | 0.02 | 83 | 1021.0 |
| 20260906005541 | 56 | 41 | 2.6 | 3.5 | 0.00 | 0.00 | 0.02 | 83 | 1021.0 |
| 20260906005533 | 56 | 41 | 2.6 | 3.5 | 0.00 | 0.00 | 0.02 | 82 | 1021.0 |
| 20260906005531 | 56 | 316 | 0.9 | 2.6 | 0.00 | 0.00 | 0.02 | 82 | 1021.0 |
| 20260906005501 | 56 | 334 | 0.9 | 2.6 | 0.00 | 0.00 | 0.02 | 82 | 1021.0 |
| 20260906005445 | 56 | 314 | 0.9 | 2.6 | 0.00 | 0.00 | 0.02 | 82 | 1021.0 |
| 20260906005405 | 56 | 325 | 0.9 | 1.7 | 0.00 | 0.00 | 0.02 | 83 | 1021.0 |
| 20260906005357 | 56 | 325 | 0.9 | 1.7 | 0.00 | 0.00 | 0.02 | 83 | 1021.0 |
| 20260906005341 | 56 | 346 | 0.9 | 1.7 | 0.00 | 0.00 | 0.02 | 83 | 1021.0 |
| 20260906005333 | 56 | 316 | 0.9 | 1.7 | 0.00 | 0.00 | 0.02 | 83 | 1021.0 |
| 20260906005325 | 56 | 316 | 0.9 | 1.7 | 0.00 | 0.00 | 0.02 | 82 | 1021.0 |
| 20260906005301 | 56 | 330 | 0.9 | 1.7 | 0.00 | 0.00 | 0.02 | 82 | 1021.0 |
| 20260906005245 | 56 | 318 | 0.9 | 1.7 | 0.00 | 0.00 | 0.02 | 82 | 1021.0 |
| 20260906005237 | 56 | 337 | 1.7 | 1.7 | 0.00 | 0.00 | 0.02 | 82 | 1021.0 |
| 20260906005229 | 56 | 337 | 1.7 | 2.6 | 0.00 | 0.00 | 0.02 | 82 | 1021.0 |
| 20260906005216 | 56 | 333 | 0.0 | 2.6 | 0.00 | 0.00 | 0.02 | 82 | 1021.0 |
| 20260906005157 | 56 | 8 | 0.9 | 2.6 | 0.00 | 0.00 | 0.02 | 82 | 1021.0 |
| 20260906005141 | 56 | 333 | 0.0 | 2.6 | 0.00 | 0.00 | 0.02 | 82 | 1021.0 |
| 20260906005135 | 56 | 340 | 0.0 | 2.6 | 0.00 | 0.00 | 0.02 | 82 | 1021.0 |
| 20260906005109 | 56 | 345 | 1.7 | 2.6 | 0.00 | 0.00 | 0.02 | 83 | 1021.0 |
| 20260906005102 | 56 | 333 | 1.7 | 2.6 | 0.00 | 0.00 | 0.02 | 83 | 1021.0 |
| 20260906005053 | 56 | 333 | 1.7 | 2.6 | 0.00 | 0.00 | 0.02 | 83 | 1021.0 |
| 20260906005037 | 56 | 316 | 1.7 | 2.6 | 0.00 | 0.00 | 0.02 | 83 | 1021.0 |
| 20260906005031 | 56 | 333 | 1.7 | 1.7 | 0.00 | 0.00 | 0.02 | 83 | 1021.0 |
| 20260906005005 | 56 | 346 | 0.9 | 1.7 | 0.00 | 0.00 | 0.02 | 82 | 1021.0 |
| 20260906005000 | 56 | 345 | 0.9 | 1.7 | 0.00 | 0.00 | 0.02 | 82 | 1021.0 |
| 20260906004941 | 56 | 352 | 0.9 | 1.7 | 0.00 | 0.00 | 0.02 | 82 | 1021.0 |
| 20260906004933 | 56 | 352 | 0.9 | 2.6 | 0.00 | 0.00 | 0.02 | 82 | 1021.0 |
| 20260906004919 | 56 | 358 | 1.7 | 2.6 | 0.00 | 0.00 | 0.02 | 82 | 1021.0 |
| 20260906004904 | 56 | 14 | 0.0 | 2.6 | 0.00 | 0.00 | 0.02 | 82 | 1021.0 |
| 20260906004837 | 56 | 340 | 0.0 | 2.6 | 0.00 | 0.00 | 0.02 | 82 | 1021.0 |
| 20260906004831 | 56 | 333 | 0.0 | 2.6 | 0.00 | 0.00 | 0.02 | 82 | 1021.0 |
| 20260906004815 | 56 | 357 | 0.9 | 2.6 | 0.00 | 0.00 | 0.02 | 82 | 1021.0 |
| 20260906004749 | 56 | 356 | 1.7 | 2.6 | 0.00 | 0.00 | 0.02 | 82 | 1021.0 |
| 20260906004733 | 56 | 346 | 0.0 | 0.9 | 0.00 | 0.00 | 0.02 | 82 | 1021.0 |
| 20260906004717 | 56 | 341 | 0.0 | 0.0 | 0.00 | 0.00 | 0.02 | 82 | 1021.0 |
| 20260906004709 | 56 | 295 | 0.0 | 0.0 | 0.00 | 0.00 | 0.02 | 82 | 1021.0 |
| 20260906004701 | 56 | 295 | 0.0 | 2.6 | 0.00 | 0.00 | 0.02 | 82 | 1021.0 |
| 20260906004645 | 56 | 300 | 0.0 | 2.6 | 0.00 | 0.00 | 0.02 | 82 | 1021.0 |
| 20260906004629 | 56 | 315 | 0.0 | 2.6 | 0.00 | 0.00 | 0.02 | 82 | 1021.0 |
| 20260906004618 | 56 | 299 | 0.0 | 2.6 | 0.00 | 0.00 | 0.02 | 82 | 1021.0 |
| 20260906004541 | 56 | 342 | 0.0 | 2.6 | 0.00 | 0.00 | 0.02 | 82 | 1021.0 |
| 20260906004525 | 56 | 338 | 1.7 | 2.6 | 0.00 | 0.00 | 0.02 | 82 | 1021.0 |
| 20260906004509 | 56 | 286 | 0.9 | 2.6 | 0.00 | 0.00 | 0.02 | 82 | 1021.0 |
| 20260906004503 | 56 | 6 | 1.7 | 2.6 | 0.00 | 0.00 | 0.02 | 82 | 1021.0 |
| 20260906004437 | 56 | 17 | 1.7 | 2.6 | 0.00 | 0.00 | 0.02 | 82 | 1021.0 |
| 20260906004413 | 56 | 327 | 1.7 | 2.6 | 0.00 | 0.00 | 0.02 | 82 | 1021.0 |
| 20260906004405 | 56 | 333 | 0.9 | 1.7 | 0.00 | 0.00 | 0.02 | 82 | 1021.0 |
| 20260906004400 | 56 | 333 | 0.9 | 1.7 | 0.00 | 0.00 | 0.02 | 82 | 1021.0 |
| 20260906004342 | 56 | 307 | 0.0 | 1.7 | 0.00 | 0.00 | 0.02 | 82 | 1021.0 |
| 20260906004325 | 56 | 271 | 0.9 | 1.7 | 0.00 | 0.00 | 0.02 | 82 | 1021.0 |
| 20260906004319 | 56 | 294 | 0.9 | 1.7 | 0.00 | 0.00 | 0.02 | 82 | 1021.0 |
| 20260906004301 | 56 | 338 | 0.9 | 1.7 | 0.00 | 0.00 | 0.02 | 82 | 1021.0 |
| 20260906004258 | 56 | 338 | 0.9 | 1.7 | 0.00 | 0.00 | 0.02 | 82 | 1021.0 |
| 20260906004231 | 56 | 324 | 0.0 | 0.9 | 0.00 | 0.00 | 0.02 | 81 | 1021.0 |
| 20260906004207 | 56 | 356 | 0.0 | 0.9 | 0.00 | 0.00 | 0.02 | 81 | 1021.0 |
| 20260906004149 | 56 | 352 | 0.0 | 0.9 | 0.00 | 0.00 | 0.02 | 81 | 1021.0 |
| 20260906004133 | 56 | 337 | 0.0 | 0.9 | 0.00 | 0.00 | 0.02 | 82 | 1021.0 |
| 20260906004117 | 56 | 323 | 0.0 | 0.9 | 0.00 | 0.00 | 0.02 | 82 | 1021.0 |
| 20260906004101 | 56 | 343 | 0.0 | 0.9 | 0.00 | 0.00 | 0.02 | 82 | 1021.0 |
| 20260906004056 | 56 | 311 | 0.0 | 0.9 | 0.00 | 0.00 | 0.02 | 82 | 1021.0 |
| 20260906004032 | 56 | 330 | 0.9 | 0.9 | 0.00 | 0.00 | 0.02 | 81 | 1021.0 |
| 20260906004013 | 56 | 1 | 0.9 | 0.9 | 0.00 | 0.00 | 0.02 | 81 | 1021.0 |
| 20260906004005 | 56 | 350 | 0.9 | 0.9 | 0.00 | 0.00 | 0.02 | 81 | 1021.0 |
| 20260906003949 | 56 | 350 | 0.9 | 0.9 | 0.00 | 0.00 | 0.02 | 81 | 1021.0 |
| 20260906003941 | 56 | 334 | 0.0 | 0.9 | 0.00 | 0.00 | 0.02 | 81 | 1021.0 |
| 20260906003934 | 56 | 334 | 0.0 | 0.9 | 0.00 | 0.00 | 0.02 | 82 | 1021.0 |
| 20260906003919 | 56 | 329 | 0.0 | 0.9 | 0.00 | 0.00 | 0.02 | 82 | 1021.0 |
| 20260906003901 | 56 | 333 | 0.0 | 1.7 | 0.00 | 0.00 | 0.02 | 82 | 1021.0 |
| 20260906003845 | 56 | 342 | 0.0 | 1.7 | 0.00 | 0.00 | 0.02 | 82 | 1021.0 |
| 20260906003837 | 56 | 349 | 0.0 | 1.7 | 0.00 | 0.00 | 0.02 | 82 | 1021.0 |
| 20260906003829 | 56 | 349 | 0.0 | 1.7 | 0.00 | 0.00 | 0.02 | 81 | 1021.0 |
| 20260906003815 | 56 | 352 | 0.0 | 1.7 | 0.00 | 0.00 | 0.02 | 81 | 1021.0 |
| 20260906003757 | 56 | 352 | 0.0 | 1.7 | 0.00 | 0.00 | 0.02 | 81 | 1021.0 |
| 20260906003741 | 56 | 311 | 0.0 | 1.7 | 0.00 | 0.00 | 0.02 | 81 | 1021.0 |
| 20260906003734 | 56 | 310 | 0.9 | 1.7 | 0.00 | 0.00 | 0.02 | 81 | 1021.0 |
| 20260906003725 | 56 | 310 | 0.9 | 1.7 | 0.00 | 0.00 | 0.02 | 82 | 1021.0 |
| 20260906003709 | 56 | 337 | 0.9 | 1.7 | 0.00 | 0.00 | 0.02 | 82 | 1021.0 |
| 20260906003701 | 56 | 317 | 0.9 | 1.7 | 0.00 | 0.00 | 0.02 | 82 | 1021.0 |
| 20260906003653 | 56 | 317 | 0.9 | 1.7 | 0.00 | 0.00 | 0.02 | 82 | 1021.0 |
| 20260906003639 | 56 | 356 | 0.0 | 0.0 | 0.00 | 0.00 | 0.02 | 82 | 1021.0 |
| 20260906003621 | 56 | 322 | 0.0 | 0.0 | 0.00 | 0.00 | 0.02 | 82 | 1021.0 |
| 20260906003605 | 56 | 324 | 0.0 | 0.0 | 0.00 | 0.00 | 0.02 | 82 | 1021.0 |
| 20260906003549 | 56 | 348 | 0.0 | 0.0 | 0.00 | 0.00 | 0.02 | 82 | 1021.0 |
| 20260906003525 | 56 | 336 | 0.0 | 0.0 | 0.00 | 0.00 | 0.02 | 82 | 1021.0 |
| 20260906003509 | 56 | 42 | 0.0 | 0.0 | 0.00 | 0.00 | 0.02 | 82 | 1021.0 |
| 20260906003501 | 56 | 339 | 0.0 | 0.0 | 0.00 | 0.00 | 0.02 | 82 | 1021.0 |
| 20260906003453 | 56 | 339 | 0.0 | 0.0 | 0.00 | 0.00 | 0.02 | 82 | 1021.0 |
| 20260906003437 | 56 | 20 | 0.0 | 0.0 | 0.00 | 0.00 | 0.02 | 82 | 1021.0 |
| 20260906003405 | 56 | 18 | 0.0 | 0.0 | 0.00 | 0.00 | 0.02 | 82 | 1021.0 |
| 20260906003349 | 56 | 328 | 0.0 | 0.0 | 0.00 | 0.00 | 0.02 | 82 | 1021.0 |
| 20260906003333 | 56 | 1 | 0.0 | 0.0 | 0.00 | 0.00 | 0.02 | 82 | 1021.0 |
| 20260906003320 | 56 | 346 | 0.0 | 0.0 | 0.00 | 0.00 | 0.02 | 82 | 1021.0 |
| 20260906003301 | 56 | 322 | 0.0 | 0.0 | 0.00 | 0.00 | 0.02 | 82 | 1021.0 |
| 20260906003255 | 56 | 324 | 0.0 | 0.0 | 0.00 | 0.00 | 0.02 | 82 | 1021.0 |
| 20260906003241 | 56 | 345 | 0.0 | 0.0 | 0.00 | 0.00 | 0.02 | 82 | 1021.0 |
| 20260906003214 | 56 | 355 | 0.0 | 0.0 | 0.00 | 0.00 | 0.02 | 82 | 1021.0 |
| 20260906003205 | 56 | 328 | 0.0 | 0.0 | 0.00 | 0.00 | 0.02 | 81 | 1021.0 |
| 20260906003157 | 56 | 328 | 0.0 | 0.0 | 0.00 | 0.00 | 0.02 | 81 | 1021.0 |
| 20260906003141 | 56 | 322 | 0.0 | 0.0 | 0.00 | 0.00 | 0.02 | 81 | 1021.0 |
| 20260906003125 | 56 | 325 | 0.0 | 0.0 | 0.00 | 0.00 | 0.02 | 81 | 1021.0 |
| 20260906003101 | 56 | 327 | 0.0 | 0.0 | 0.00 | 0.00 | 0.02 | 81 | 1021.0 |
| 20260906003045 | 56 | 327 | 0.0 | 0.0 | 0.00 | 0.00 | 0.02 | 81 | 1021.0 |
| 20260906003031 | 56 | 304 | 0.0 | 0.0 | 0.00 | 0.00 | 0.02 | 81 | 1021.0 |
| 20260906003013 | 56 | 318 | 0.0 | 0.0 | 0.00 | 0.00 | 0.02 | 81 | 1021.0 |
| 20260906003007 | 56 | 307 | 0.0 | 0.0 | 0.00 | 0.00 | 0.02 | 81 | 1021.0 |
| 20260906002951 | 56 | 317 | 0.0 | 0.0 | 0.00 | 0.00 | 0.02 | 81 | 1021.0 |
| 20260906002911 | 56 | 297 | 0.0 | 0.0 | 0.00 | 0.00 | 0.02 | 81 | 1021.0 |
| 20260906002853 | 56 | 284 | 0.0 | 0.0 | 0.00 | 0.00 | 0.02 | 81 | 1021.0 |
| 20260906002837 | 56 | 302 | 0.0 | 0.0 | 0.00 | 0.00 | 0.02 | 81 | 1021.0 |
| 20260906002821 | 56 | 311 | 0.0 | 0.0 | 0.00 | 0.00 | 0.02 | 81 | 1021.0 |
| 20260906002805 | 56 | 16 | 0.0 | 0.0 | 0.00 | 0.00 | 0.02 | 81 | 1021.0 |
| 20260906002749 | 56 | 2 | 0.0 | 0.0 | 0.00 | 0.00 | 0.02 | 81 | 1021.0 |
| 20260906002717 | 56 | 22 | 0.0 | 0.0 | 0.00 | 0.00 | 0.02 | 81 | 1021.0 |
| 20260906002706 | 56 | 3 | 0.0 | 0.0 | 0.00 | 0.00 | 0.02 | 81 | 1021.0 |
| 20260906002637 | 56 | 328 | 0.0 | 0.0 | 0.00 | 0.00 | 0.02 | 82 | 1021.0 |
| 20260906002621 | 56 | 325 | 0.0 | 0.0 | 0.00 | 0.00 | 0.02 | 82 | 1021.0 |
| 20260906002615 | 56 | 36 | 0.0 | 0.0 | 0.00 | 0.00 | 0.02 | 82 | 1021.0 |
| 20260906002605 | 56 | 36 | 0.0 | 0.9 | 0.00 | 0.00 | 0.02 | 82 | 1021.0 |
| 20260906002549 | 56 | 25 | 0.0 | 0.9 | 0.00 | 0.00 | 0.02 | 82 | 1021.0 |
| 20260906002533 | 56 | 7 | 0.0 | 0.9 | 0.00 | 0.00 | 0.02 | 82 | 1021.0 |
| 20260906002517 | 56 | 21 | 0.0 | 0.9 | 0.00 | 0.00 | 0.02 | 82 | 1021.0 |
| 20260906002504 | 56 | 16 | 0.0 | 0.9 | 0.00 | 0.00 | 0.02 | 82 | 1021.0 |
| 20260906002445 | 56 | 350 | 0.0 | 0.9 | 0.00 | 0.00 | 0.02 | 82 | 1021.0 |
| 20260906002439 | 56 | 325 | 0.0 | 0.9 | 0.00 | 0.00 | 0.02 | 81 | 1021.0 |
| 20260906002413 | 56 | 12 | 0.9 | 1.7 | 0.00 | 0.00 | 0.02 | 81 | 1021.0 |
| 20260906002405 | 56 | 346 | 0.0 | 1.7 | 0.00 | 0.00 | 0.02 | 81 | 1021.0 |
| 20260906002357 | 56 | 346 | 0.0 | 1.7 | 0.00 | 0.00 | 0.02 | 81 | 1021.0 |
| 20260906002344 | 56 | 339 | 0.0 | 1.7 | 0.00 | 0.00 | 0.02 | 81 | 1021.0 |
| 20260906002326 | 56 | 258 | 0.0 | 1.7 | 0.00 | 0.00 | 0.02 | 81 | 1021.0 |
| 20260906002320 | 56 | 24 | 0.9 | 1.7 | 0.00 | 0.00 | 0.02 | 81 | 1021.0 |
| 20260906002301 | 56 | 35 | 1.7 | 1.7 | 0.00 | 0.00 | 0.02 | 81 | 1021.0 |
| 20260906002253 | 56 | 35 | 1.7 | 1.7 | 0.00 | 0.00 | 0.02 | 81 | 1021.0 |
| 20260906002237 | 56 | 292 | 0.0 | 1.7 | 0.00 | 0.00 | 0.02 | 81 | 1021.0 |
| 20260906002213 | 56 | 335 | 0.9 | 1.7 | 0.00 | 0.00 | 0.02 | 82 | 1021.0 |
| 20260906002205 | 56 | 303 | 0.9 | 2.6 | 0.00 | 0.00 | 0.02 | 82 | 1022.0 |
| 20260906002157 | 56 | 303 | 0.9 | 2.6 | 0.00 | 0.00 | 0.02 | 82 | 1022.0 |
| 20260906002141 | 56 | 312 | 1.7 | 2.6 | 0.00 | 0.00 | 0.02 | 82 | 1022.0 |
| 20260906002125 | 56 | 297 | 0.9 | 2.6 | 0.00 | 0.00 | 0.02 | 82 | 1022.0 |
| 20260906002108 | 56 | 338 | 0.9 | 2.6 | 0.00 | 0.00 | 0.02 | 82 | 1022.0 |
| 20260906002101 | 56 | 319 | 0.9 | 2.6 | 0.00 | 0.00 | 0.02 | 82 | 1021.0 |
| 20260906002052 | 56 | 319 | 0.9 | 2.6 | 0.00 | 0.00 | 0.02 | 82 | 1021.0 |
| 20260906002037 | 56 | 329 | 1.7 | 2.6 | 0.00 | 0.00 | 0.02 | 82 | 1021.0 |
| 20260906002031 | 56 | 339 | 0.9 | 1.7 | 0.00 | 0.00 | 0.02 | 82 | 1021.0 |
| 20260906002005 | 56 | 309 | 0.0 | 0.0 | 0.00 | 0.00 | 0.02 | 82 | 1021.0 |
| 20260906001949 | 56 | 12 | 0.0 | 0.0 | 0.00 | 0.00 | 0.02 | 82 | 1021.0 |
| 20260906001935 | 56 | 10 | 0.0 | 0.0 | 0.00 | 0.00 | 0.02 | 82 | 1021.0 |
| 20260906001917 | 56 | 9 | 0.0 | 0.0 | 0.00 | 0.00 | 0.02 | 82 | 1021.0 |
| 20260906001900 | 56 | 20 | 0.0 | 0.0 | 0.00 | 0.00 | 0.02 | 82 | 1021.0 |
| 20260906001855 | 56 | 29 | 0.0 | 0.0 | 0.00 | 0.00 | 0.02 | 82 | 1021.0 |
| 20260906001828 | 56 | 70 | 0.0 | 0.0 | 0.00 | 0.00 | 0.02 | 82 | 1021.0 |
| 20260906001812 | 56 | 10 | 0.0 | 0.0 | 0.00 | 0.00 | 0.02 | 82 | 1021.0 |
| 20260906001805 | 56 | 34 | 0.0 | 0.0 | 0.00 | 0.00 | 0.02 | 82 | 1021.0 |
| 20260906001749 | 56 | 34 | 0.0 | 0.0 | 0.00 | 0.00 | 0.02 | 82 | 1021.0 |
| 20260906001744 | 56 | 5 | 0.0 | 0.0 | 0.00 | 0.00 | 0.02 | 82 | 1021.0 |
| 20260906001722 | 56 | 1 | 0.0 | 0.0 | 0.00 | 0.00 | 0.02 | 82 | 1021.0 |
| 20260906001647 | 56 | 359 | 0.0 | 0.0 | 0.00 | 0.00 | 0.02 | 82 | 1021.0 |
| 20260906001630 | 56 | 328 | 0.0 | 0.0 | 0.00 | 0.00 | 0.02 | 82 | 1021.0 |
| 20260906001613 | 56 | 342 | 0.0 | 0.0 | 0.00 | 0.00 | 0.02 | 82 | 1021.0 |
| 20260906001607 | 56 | 319 | 0.0 | 0.0 | 0.00 | 0.00 | 0.02 | 82 | 1021.0 |
| 20260906001541 | 56 | 301 | 0.0 | 0.0 | 0.00 | 0.00 | 0.02 | 82 | 1021.0 |
| 20260906001526 | 56 | 340 | 0.0 | 0.0 | 0.00 | 0.00 | 0.02 | 82 | 1021.0 |
| 20260906001509 | 56 | 337 | 0.0 | 0.0 | 0.00 | 0.00 | 0.02 | 82 | 1021.0 |
| 20260906001501 | 56 | 317 | 0.0 | 0.0 | 0.00 | 0.00 | 0.02 | 82 | 1021.0 |
| 20260906001453 | 56 | 317 | 0.0 | 0.0 | 0.00 | 0.00 | 0.02 | 82 | 1021.0 |
| 20260906001437 | 56 | 354 | 0.0 | 0.0 | 0.00 | 0.00 | 0.02 | 82 | 1021.0 |
| 20260906001421 | 56 | 354 | 0.0 | 0.9 | 0.00 | 0.00 | 0.02 | 82 | 1021.0 |
| 20260906001412 | 56 | 350 | 0.0 | 0.9 | 0.00 | 0.00 | 0.02 | 82 | 1021.0 |
| 20260906001405 | 56 | 350 | 0.0 | 1.7 | 0.00 | 0.00 | 0.02 | 82 | 1021.0 |
| 20260906001349 | 56 | 344 | 0.0 | 1.7 | 0.00 | 0.00 | 0.02 | 81 | 1021.0 |
| 20260906001333 | 56 | 311 | 0.0 | 1.7 | 0.00 | 0.00 | 0.02 | 81 | 1021.0 |
| 20260906001308 | 56 | 319 | 0.0 | 1.7 | 0.00 | 0.00 | 0.02 | 81 | 1021.0 |
| 20260906001301 | 56 | 4 | 0.0 | 1.7 | 0.00 | 0.00 | 0.02 | 81 | 1022.0 |
| 20260906001252 | 56 | 4 | 0.0 | 1.7 | 0.00 | 0.00 | 0.02 | 81 | 1022.0 |
| 20260906001236 | 56 | 319 | 0.0 | 1.7 | 0.00 | 0.00 | 0.02 | 81 | 1022.0 |
| 20260906001221 | 56 | 327 | 0.9 | 2.6 | 0.00 | 0.00 | 0.02 | 81 | 1022.0 |
| 20260906001213 | 56 | 304 | 0.9 | 2.6 | 0.00 | 0.00 | 0.02 | 81 | 1022.0 |
| 20260906001204 | 56 | 304 | 0.9 | 2.6 | 0.00 | 0.00 | 0.02 | 81 | 1021.0 |
| 20260906001159 | 56 | 310 | 0.0 | 2.6 | 0.00 | 0.00 | 0.02 | 81 | 1021.0 |
| 20260906001132 | 56 | 342 | 0.0 | 2.6 | 0.00 | 0.00 | 0.02 | 82 | 1021.0 |
| 20260906001116 | 56 | 280 | 0.9 | 2.6 | 0.00 | 0.00 | 0.02 | 82 | 1021.0 |
| 20260906001109 | 56 | 293 | 0.9 | 2.6 | 0.00 | 0.00 | 0.02 | 82 | 1021.0 |
| 20260906001100 | 56 | 293 | 0.9 | 3.5 | 0.00 | 0.00 | 0.02 | 82 | 1021.0 |
| 20260906001044 | 56 | 345 | 1.7 | 3.5 | 0.00 | 0.00 | 0.02 | 82 | 1021.0 |
| 20260906001030 | 56 | 324 | 1.7 | 3.5 | 0.00 | 0.00 | 0.02 | 82 | 1021.0 |
| 20260906001012 | 56 | 337 | 1.7 | 3.5 | 0.00 | 0.00 | 0.02 | 82 | 1021.0 |
| 20260906001005 | 56 | 331 | 1.7 | 3.5 | 0.00 | 0.00 | 0.02 | 82 | 1021.0 |
| 20260906000956 | 56 | 331 | 1.7 | 3.5 | 0.00 | 0.00 | 0.02 | 82 | 1021.0 |
| 20260906000951 | 56 | 4 | 1.7 | 3.5 | 0.00 | 0.00 | 0.02 | 82 | 1021.0 |
| 20260906000924 | 56 | 319 | 1.7 | 2.6 | 0.00 | 0.00 | 0.02 | 82 | 1021.0 |
| 20260906000901 | 56 | 316 | 1.7 | 2.6 | 0.00 | 0.00 | 0.02 | 82 | 1021.0 |
| 20260906000845 | 56 | 347 | 2.6 | 2.6 | 0.00 | 0.00 | 0.02 | 82 | 1021.0 |
| 20260906000831 | 56 | 332 | 1.7 | 2.6 | 0.00 | 0.00 | 0.02 | 82 | 1021.0 |
| 20260906000813 | 56 | 318 | 0.0 | 0.9 | 0.00 | 0.00 | 0.02 | 82 | 1021.0 |
| 20260906000804 | 56 | 8 | 0.9 | 2.6 | 0.00 | 0.00 | 0.02 | 82 | 1021.0 |
| 20260906000757 | 56 | 8 | 0.9 | 2.6 | 0.00 | 0.00 | 0.02 | 82 | 1021.0 |
| 20260906000740 | 56 | 352 | 0.9 | 2.6 | 0.00 | 0.00 | 0.02 | 82 | 1021.0 |
| 20260906000724 | 56 | 323 | 0.9 | 2.6 | 0.00 | 0.00 | 0.02 | 82 | 1021.0 |
| 20260906000709 | 56 | 278 | 0.9 | 2.6 | 0.00 | 0.00 | 0.02 | 82 | 1021.0 |
| 20260906000700 | 56 | 359 | 0.9 | 2.6 | 0.00 | 0.00 | 0.02 | 82 | 1021.0 |
| 20260906000653 | 56 | 359 | 0.9 | 2.6 | 0.00 | 0.00 | 0.02 | 82 | 1021.0 |
| 20260906000639 | 56 | 279 | 1.7 | 2.6 | 0.00 | 0.00 | 0.02 | 82 | 1021.0 |
| 20260906000621 | 56 | 279 | 1.7 | 2.6 | 0.00 | 0.00 | 0.02 | 81 | 1021.0 |
| 20260906000614 | 56 | 287 | 1.7 | 2.6 | 0.00 | 0.00 | 0.02 | 81 | 1021.0 |
| 20260906000549 | 56 | 305 | 0.9 | 2.6 | 0.00 | 0.00 | 0.02 | 81 | 1021.0 |
| 20260906000537 | 56 | 318 | 0.9 | 2.6 | 0.00 | 0.00 | 0.02 | 81 | 1021.0 |
| 20260906000500 | 56 | 341 | 1.7 | 2.6 | 0.00 | 0.00 | 0.02 | 81 | 1021.0 |
| 20260906000445 | 56 | 346 | 1.7 | 2.6 | 0.00 | 0.00 | 0.02 | 81 | 1021.0 |
| 20260906000428 | 56 | 316 | 1.7 | 2.6 | 0.00 | 0.00 | 0.02 | 81 | 1021.0 |
| 20260906000420 | 56 | 316 | 1.7 | 2.6 | 0.00 | 0.00 | 0.02 | 82 | 1021.0 |
| 20260906000404 | 56 | 325 | 1.7 | 2.6 | 0.00 | 0.00 | 0.02 | 82 | 1021.0 |
| 20260906000351 | 56 | 332 | 1.7 | 2.6 | 0.00 | 0.00 | 0.02 | 82 | 1021.0 |
| 20260906000333 | 56 | 313 | 1.7 | 2.6 | 0.00 | 0.00 | 0.02 | 82 | 1021.0 |
| 20260906000318 | 56 | 347 | 2.6 | 2.6 | 0.00 | 0.00 | 0.02 | 82 | 1021.0 |
| 20260906000300 | 56 | 313 | 1.7 | 1.7 | 0.00 | 0.00 | 0.02 | 82 | 1021.0 |
| 20260906000250 | 56 | 341 | 0.9 | 1.7 | 0.00 | 0.00 | 0.02 | 82 | 1021.0 |
| 20260906000212 | 56 | 327 | 0.9 | 1.7 | 0.00 | 0.00 | 0.02 | 82 | 1021.0 |
| 20260906000205 | 56 | 17 | 1.7 | 1.7 | 0.00 | 0.00 | 0.02 | 82 | 1021.0 |
| 20260906000159 | 56 | 17 | 1.7 | 1.7 | 0.00 | 0.00 | 0.02 | 82 | 1021.0 |
| 20260906000140 | 56 | 353 | 0.9 | 1.7 | 0.00 | 0.00 | 0.02 | 82 | 1021.0 |
| 20260906000127 | 56 | 12 | 0.0 | 1.7 | 0.00 | 0.00 | 0.02 | 82 | 1021.0 |
| 20260906000108 | 56 | 353 | 0.9 | 1.7 | 0.00 | 0.00 | 0.02 | 82 | 1021.0 |
| 20260906000100 | 56 | 5 | 0.9 | 1.7 | 0.00 | 0.00 | 0.02 | 82 | 1021.0 |
| 20260906000057 | 56 | 5 | 0.9 | 1.7 | 0.00 | 0.00 | 0.02 | 82 | 1021.0 |
| 20260906000023 | 56 | 282 | 1.7 | 1.7 | 0.00 | 0.00 | 0.02 | 82 | 1021.0 |
| 20260906000006 | 56 | 305 | 0.0 | 0.9 | 0.00 | 0.00 | 0.02 | 82 | 1021.0 |
| 20260905235943 | 56 | 16 | 0.0 | 0.0 | 0.00 | 0.00 | 0.02 | 82 | 1021.0 |
| 20260905235924 | 56 | 30 | 0.0 | 0.0 | 0.00 | 0.00 | 0.02 | 82 | 1021.0 |
| 20260905235908 | 56 | 14 | 0.0 | 0.0 | 0.00 | 0.00 | 0.02 | 82 | 1021.0 |
| 20260905235902 | 56 | 14 | 0.0 | 0.0 | 0.00 | 0.00 | 0.02 | 82 | 1021.0 |
| 20260905235844 | 56 | 27 | 0.0 | 0.0 | 0.00 | 0.00 | 0.02 | 82 | 1021.0 |
| 20260905235832 | 56 | 20 | 0.0 | 0.0 | 0.00 | 0.00 | 0.02 | 82 | 1021.0 |
| 20260905235814 | 56 | 337 | 0.0 | 0.0 | 0.00 | 0.00 | 0.02 | 82 | 1021.0 |
| 20260905235805 | 56 | 337 | 0.0 | 0.9 | 0.00 | 0.00 | 0.02 | 82 | 1021.0 |
| 20260905235748 | 56 | 335 | 0.0 | 0.9 | 0.00 | 0.00 | 0.02 | 82 | 1021.0 |
| 20260905235741 | 56 | 320 | 0.0 | 0.9 | 0.00 | 0.00 | 0.02 | 82 | 1021.0 |
| 20260905235717 | 56 | 342 | 0.0 | 0.9 | 0.00 | 0.00 | 0.02 | 82 | 1021.0 |
| 20260905235702 | 56 | 263 | 0.0 | 0.9 | 0.00 | 0.00 | 0.02 | 82 | 1021.0 |
| 20260905235655 | 56 | 263 | 0.0 | 0.9 | 0.00 | 0.00 | 0.02 | 82 | 1021.0 |
| 20260905235630 | 56 | 327 | 0.0 | 0.9 | 0.00 | 0.00 | 0.02 | 82 | 1021.0 |
| 20260905235614 | 56 | 316 | 0.9 | 0.9 | 0.00 | 0.00 | 0.02 | 82 | 1021.0 |
| 20260905235608 | 56 | 326 | 0.9 | 0.9 | 0.00 | 0.00 | 0.02 | 82 | 1021.0 |
| 20260905235549 | 56 | 326 | 0.9 | 0.9 | 0.00 | 0.00 | 0.02 | 82 | 1021.0 |
| 20260905235536 | 56 | 336 | 0.9 | 0.9 | 0.00 | 0.00 | 0.02 | 82 | 1021.0 |
| 20260905235516 | 56 | 296 | 0.9 | 0.9 | 0.00 | 0.00 | 0.02 | 82 | 1021.0 |
| 20260905235501 | 56 | 329 | 0.9 | 1.7 | 0.00 | 0.00 | 0.02 | 82 | 1021.0 |
| 20260905235455 | 56 | 320 | 0.9 | 1.7 | 0.00 | 0.00 | 0.02 | 82 | 1021.0 |
| 20260905235430 | 56 | 303 | 0.0 | 1.7 | 0.00 | 0.00 | 0.02 | 82 | 1021.0 |
| 20260905235412 | 56 | 333 | 0.0 | 1.7 | 0.00 | 0.00 | 0.02 | 82 | 1021.0 |
| 20260905235405 | 56 | 355 | 0.0 | 1.7 | 0.00 | 0.00 | 0.02 | 82 | 1021.0 |
| 20260905235356 | 56 | 355 | 0.0 | 1.7 | 0.00 | 0.00 | 0.02 | 82 | 1021.0 |
| 20260905235341 | 56 | 354 | 0.9 | 1.7 | 0.00 | 0.00 | 0.02 | 82 | 1021.0 |
| 20260905235332 | 56 | 357 | 0.9 | 1.7 | 0.00 | 0.00 | 0.02 | 82 | 1021.0 |
| 20260905235310 | 56 | 28 | 0.9 | 1.7 | 0.00 | 0.00 | 0.02 | 82 | 1021.0 |
| 20260905235301 | 56 | 359 | 1.7 | 1.7 | 0.00 | 0.00 | 0.02 | 82 | 1021.0 |
| 20260905235253 | 56 | 359 | 1.7 | 1.7 | 0.00 | 0.00 | 0.02 | 82 | 1021.0 |
| 20260905235237 | 56 | 353 | 0.0 | 1.7 | 0.00 | 0.00 | 0.02 | 82 | 1021.0 |
| 20260905235232 | 56 | 354 | 0.0 | 3.5 | 0.00 | 0.00 | 0.02 | 82 | 1021.0 |
| 20260905235205 | 56 | 334 | 0.9 | 3.5 | 0.00 | 0.00 | 0.02 | 82 | 1021.0 |
| 20260905235149 | 56 | 334 | 1.7 | 3.5 | 0.00 | 0.00 | 0.02 | 82 | 1021.0 |
| 20260905235124 | 56 | 332 | 0.9 | 3.5 | 0.00 | 0.00 | 0.02 | 82 | 1021.0 |
| 20260905235110 | 56 | 296 | 0.9 | 3.5 | 0.00 | 0.00 | 0.02 | 82 | 1021.0 |
| 20260905235101 | 56 | 322 | 2.6 | 3.5 | 0.00 | 0.00 | 0.02 | 82 | 1021.0 |
| 20260905235053 | 56 | 322 | 2.6 | 3.5 | 0.00 | 0.00 | 0.02 | 82 | 1021.0 |
| 20260905235047 | 56 | 304 | 1.7 | 3.5 | 0.00 | 0.00 | 0.02 | 82 | 1021.0 |
| 20260905235021 | 56 | 318 | 1.7 | 3.5 | 0.00 | 0.00 | 0.02 | 81 | 1021.0 |
| 20260905235005 | 56 | 300 | 2.6 | 3.5 | 0.00 | 0.00 | 0.02 | 81 | 1021.0 |
| 20260905234950 | 56 | 278 | 2.6 | 2.6 | 0.00 | 0.00 | 0.02 | 81 | 1021.0 |